<?xml version="1.0" encoding="UTF-8" standalone="no" ?>
<gpx xmlns="http://www.topografix.com/GPX/1/1" xmlns:xsi="http://www.w3.org/2001/XMLSchema-instance" xsi:schemaLocation="http://www.topografix.com/GPX/1/1 http://www.topografix.com/GPX/1/1/gpx.xsd" version="1.1" creator="VisuGPX - https://www.visugpx.com">
  <metadata>
    <name>Gennes 52Km à modifier</name>
  </metadata>
  <trk>
    <name><![CDATA[Gennes 52Km à modifier_1]]></name>
    <extensions>
      <line xmlns="http://www.topografix.com/GPX/gpx_style/0/2">
        <color>ff0000</color>
        <width>3</width>
          <extensions>
            <sens>1</sens>
          </extensions>
      </line>
    </extensions>
    <trkseg>
      <trkpt lat="47.34361" lon="-0.23185">
        <ele>28.3</ele>
        <time>2013-04-28T06:56:18Z</time>
      </trkpt>
      <trkpt lat="47.34358" lon="-0.2318">
        <ele>28.5</ele>
        <time>2013-04-28T06:56:19Z</time>
      </trkpt>
      <trkpt lat="47.34355" lon="-0.23177">
        <ele>28.98</ele>
        <time>2013-04-28T06:56:20Z</time>
      </trkpt>
      <trkpt lat="47.34352" lon="-0.23173">
        <ele>28.5</ele>
        <time>2013-04-28T06:56:21Z</time>
      </trkpt>
      <trkpt lat="47.34346" lon="-0.23164">
        <ele>28.02</ele>
        <time>2013-04-28T06:56:23Z</time>
      </trkpt>
      <trkpt lat="47.34342" lon="-0.2316">
        <ele>28.02</ele>
        <time>2013-04-28T06:56:24Z</time>
      </trkpt>
      <trkpt lat="47.34339" lon="-0.23156">
        <ele>28.02</ele>
        <time>2013-04-28T06:56:25Z</time>
      </trkpt>
      <trkpt lat="47.34335" lon="-0.23152">
        <ele>28.02</ele>
        <time>2013-04-28T06:56:26Z</time>
      </trkpt>
      <trkpt lat="47.34332" lon="-0.23148">
        <ele>27.53</ele>
        <time>2013-04-28T06:56:27Z</time>
      </trkpt>
      <trkpt lat="47.34296" lon="-0.23107">
        <ele>26.57</ele>
        <time>2013-04-28T06:56:37Z</time>
      </trkpt>
      <trkpt lat="47.34289" lon="-0.23101">
        <ele>26.57</ele>
        <time>2013-04-28T06:56:39Z</time>
      </trkpt>
      <trkpt lat="47.34281" lon="-0.23096">
        <ele>26.57</ele>
        <time>2013-04-28T06:56:41Z</time>
      </trkpt>
      <trkpt lat="47.34277" lon="-0.23092">
        <ele>26.57</ele>
        <time>2013-04-28T06:56:42Z</time>
      </trkpt>
      <trkpt lat="47.34249" lon="-0.23058">
        <ele>25.61</ele>
        <time>2013-04-28T06:56:49Z</time>
      </trkpt>
      <trkpt lat="47.34233" lon="-0.23039">
        <ele>25.61</ele>
        <time>2013-04-28T06:56:53Z</time>
      </trkpt>
      <trkpt lat="47.3423" lon="-0.23035">
        <ele>25.61</ele>
        <time>2013-04-28T06:56:54Z</time>
      </trkpt>
      <trkpt lat="47.34226" lon="-0.23029">
        <ele>25.61</ele>
        <time>2013-04-28T06:56:55Z</time>
      </trkpt>
      <trkpt lat="47.34222" lon="-0.23023">
        <ele>26.09</ele>
        <time>2013-04-28T06:56:56Z</time>
      </trkpt>
      <trkpt lat="47.3422" lon="-0.23016">
        <ele>25.13</ele>
        <time>2013-04-28T06:56:57Z</time>
      </trkpt>
      <trkpt lat="47.34217" lon="-0.23011">
        <ele>24.65</ele>
        <time>2013-04-28T06:56:58Z</time>
      </trkpt>
      <trkpt lat="47.34215" lon="-0.23004">
        <ele>24.65</ele>
        <time>2013-04-28T06:56:59Z</time>
      </trkpt>
      <trkpt lat="47.34213" lon="-0.22998">
        <ele>25.13</ele>
        <time>2013-04-28T06:57:00Z</time>
      </trkpt>
      <trkpt lat="47.34211" lon="-0.2299">
        <ele>24.65</ele>
        <time>2013-04-28T06:57:01Z</time>
      </trkpt>
      <trkpt lat="47.34209" lon="-0.22983">
        <ele>25.13</ele>
        <time>2013-04-28T06:57:02Z</time>
      </trkpt>
      <trkpt lat="47.34202" lon="-0.22962">
        <ele>24.17</ele>
        <time>2013-04-28T06:57:05Z</time>
      </trkpt>
      <trkpt lat="47.34197" lon="-0.2295">
        <ele>24.65</ele>
        <time>2013-04-28T06:57:07Z</time>
      </trkpt>
      <trkpt lat="47.34194" lon="-0.22944">
        <ele>24.17</ele>
        <time>2013-04-28T06:57:08Z</time>
      </trkpt>
      <trkpt lat="47.34175" lon="-0.22905">
        <ele>25.13</ele>
        <time>2013-04-28T06:57:15Z</time>
      </trkpt>
      <trkpt lat="47.34171" lon="-0.22886">
        <ele>25.13</ele>
        <time>2013-04-28T06:57:18Z</time>
      </trkpt>
      <trkpt lat="47.34162" lon="-0.22849">
        <ele>24.65</ele>
        <time>2013-04-28T06:57:24Z</time>
      </trkpt>
      <trkpt lat="47.34161" lon="-0.22843">
        <ele>24.17</ele>
        <time>2013-04-28T06:57:25Z</time>
      </trkpt>
      <trkpt lat="47.34145" lon="-0.22793">
        <ele>24.17</ele>
        <time>2013-04-28T06:57:32Z</time>
      </trkpt>
      <trkpt lat="47.34141" lon="-0.22779">
        <ele>24.17</ele>
        <time>2013-04-28T06:57:34Z</time>
      </trkpt>
      <trkpt lat="47.34138" lon="-0.22772">
        <ele>25.13</ele>
        <time>2013-04-28T06:57:35Z</time>
      </trkpt>
      <trkpt lat="47.34135" lon="-0.22764">
        <ele>24.17</ele>
        <time>2013-04-28T06:57:36Z</time>
      </trkpt>
      <trkpt lat="47.34116" lon="-0.22714">
        <ele>24.17</ele>
        <time>2013-04-28T06:57:43Z</time>
      </trkpt>
      <trkpt lat="47.34098" lon="-0.22657">
        <ele>24.17</ele>
        <time>2013-04-28T06:57:51Z</time>
      </trkpt>
      <trkpt lat="47.34092" lon="-0.22637">
        <ele>24.17</ele>
        <time>2013-04-28T06:57:54Z</time>
      </trkpt>
      <trkpt lat="47.34088" lon="-0.2262">
        <ele>24.65</ele>
        <time>2013-04-28T06:57:57Z</time>
      </trkpt>
      <trkpt lat="47.34089" lon="-0.22615">
        <ele>24.65</ele>
        <time>2013-04-28T06:57:58Z</time>
      </trkpt>
      <trkpt lat="47.3409" lon="-0.22611">
        <ele>24.65</ele>
        <time>2013-04-28T06:57:59Z</time>
      </trkpt>
      <trkpt lat="47.34091" lon="-0.22607">
        <ele>24.65</ele>
        <time>2013-04-28T06:58:00Z</time>
      </trkpt>
      <trkpt lat="47.34092" lon="-0.22602">
        <ele>25.13</ele>
        <time>2013-04-28T06:58:01Z</time>
      </trkpt>
      <trkpt lat="47.34094" lon="-0.22599">
        <ele>25.13</ele>
        <time>2013-04-28T06:58:02Z</time>
      </trkpt>
      <trkpt lat="47.34096" lon="-0.22595">
        <ele>25.13</ele>
        <time>2013-04-28T06:58:03Z</time>
      </trkpt>
      <trkpt lat="47.34099" lon="-0.22594">
        <ele>25.61</ele>
        <time>2013-04-28T06:58:04Z</time>
      </trkpt>
      <trkpt lat="47.34116" lon="-0.22592">
        <ele>25.61</ele>
        <time>2013-04-28T06:58:08Z</time>
      </trkpt>
      <trkpt lat="47.34121" lon="-0.22592">
        <ele>25.61</ele>
        <time>2013-04-28T06:58:09Z</time>
      </trkpt>
      <trkpt lat="47.34126" lon="-0.22592">
        <ele>25.61</ele>
        <time>2013-04-28T06:58:10Z</time>
      </trkpt>
      <trkpt lat="47.3413" lon="-0.22591">
        <ele>25.61</ele>
        <time>2013-04-28T06:58:11Z</time>
      </trkpt>
      <trkpt lat="47.34135" lon="-0.2259">
        <ele>25.61</ele>
        <time>2013-04-28T06:58:12Z</time>
      </trkpt>
      <trkpt lat="47.34155" lon="-0.22583">
        <ele>25.13</ele>
        <time>2013-04-28T06:58:16Z</time>
      </trkpt>
      <trkpt lat="47.3416" lon="-0.22579">
        <ele>24.65</ele>
        <time>2013-04-28T06:58:17Z</time>
      </trkpt>
      <trkpt lat="47.34165" lon="-0.22573">
        <ele>25.61</ele>
        <time>2013-04-28T06:58:18Z</time>
      </trkpt>
      <trkpt lat="47.34191" lon="-0.22548">
        <ele>24.65</ele>
        <time>2013-04-28T06:58:24Z</time>
      </trkpt>
      <trkpt lat="47.34194" lon="-0.22543">
        <ele>24.65</ele>
        <time>2013-04-28T06:58:25Z</time>
      </trkpt>
      <trkpt lat="47.34195" lon="-0.22538">
        <ele>24.17</ele>
        <time>2013-04-28T06:58:26Z</time>
      </trkpt>
      <trkpt lat="47.34196" lon="-0.22533">
        <ele>24.17</ele>
        <time>2013-04-28T06:58:27Z</time>
      </trkpt>
      <trkpt lat="47.34195" lon="-0.22532">
        <ele>23.69</ele>
        <time>2013-04-28T06:58:29Z</time>
      </trkpt>
      <trkpt lat="47.34193" lon="-0.22531">
        <ele>23.69</ele>
        <time>2013-04-28T06:58:30Z</time>
      </trkpt>
      <trkpt lat="47.34189" lon="-0.2253">
        <ele>24.17</ele>
        <time>2013-04-28T06:58:31Z</time>
      </trkpt>
      <trkpt lat="47.34186" lon="-0.2253">
        <ele>24.17</ele>
        <time>2013-04-28T06:58:32Z</time>
      </trkpt>
      <trkpt lat="47.34182" lon="-0.2253">
        <ele>24.17</ele>
        <time>2013-04-28T06:58:33Z</time>
      </trkpt>
      <trkpt lat="47.34179" lon="-0.22529">
        <ele>24.17</ele>
        <time>2013-04-28T06:58:34Z</time>
      </trkpt>
      <trkpt lat="47.34175" lon="-0.22527">
        <ele>24.65</ele>
        <time>2013-04-28T06:58:35Z</time>
      </trkpt>
      <trkpt lat="47.34172" lon="-0.22526">
        <ele>23.69</ele>
        <time>2013-04-28T06:58:36Z</time>
      </trkpt>
      <trkpt lat="47.34168" lon="-0.22523">
        <ele>23.69</ele>
        <time>2013-04-28T06:58:37Z</time>
      </trkpt>
      <trkpt lat="47.34157" lon="-0.22512">
        <ele>24.65</ele>
        <time>2013-04-28T06:58:41Z</time>
      </trkpt>
      <trkpt lat="47.3414" lon="-0.22494">
        <ele>24.17</ele>
        <time>2013-04-28T06:58:46Z</time>
      </trkpt>
      <trkpt lat="47.34121" lon="-0.22475">
        <ele>24.65</ele>
        <time>2013-04-28T06:58:52Z</time>
      </trkpt>
      <trkpt lat="47.34112" lon="-0.22464">
        <ele>24.17</ele>
        <time>2013-04-28T06:58:56Z</time>
      </trkpt>
      <trkpt lat="47.34108" lon="-0.22454">
        <ele>24.17</ele>
        <time>2013-04-28T06:58:59Z</time>
      </trkpt>
      <trkpt lat="47.34107" lon="-0.22451">
        <ele>23.21</ele>
        <time>2013-04-28T06:59:00Z</time>
      </trkpt>
      <trkpt lat="47.34106" lon="-0.22449">
        <ele>24.17</ele>
        <time>2013-04-28T06:59:01Z</time>
      </trkpt>
      <trkpt lat="47.34105" lon="-0.22447">
        <ele>24.17</ele>
        <time>2013-04-28T06:59:02Z</time>
      </trkpt>
      <trkpt lat="47.341" lon="-0.22436">
        <ele>23.69</ele>
        <time>2013-04-28T06:59:07Z</time>
      </trkpt>
      <trkpt lat="47.34095" lon="-0.22419">
        <ele>23.69</ele>
        <time>2013-04-28T06:59:12Z</time>
      </trkpt>
      <trkpt lat="47.34092" lon="-0.22416">
        <ele>24.17</ele>
        <time>2013-04-28T06:59:13Z</time>
      </trkpt>
      <trkpt lat="47.34084" lon="-0.22407">
        <ele>23.69</ele>
        <time>2013-04-28T06:59:16Z</time>
      </trkpt>
      <trkpt lat="47.34078" lon="-0.22391">
        <ele>24.17</ele>
        <time>2013-04-28T06:59:20Z</time>
      </trkpt>
      <trkpt lat="47.34076" lon="-0.22379">
        <ele>24.17</ele>
        <time>2013-04-28T06:59:24Z</time>
      </trkpt>
      <trkpt lat="47.34066" lon="-0.22367">
        <ele>24.65</ele>
        <time>2013-04-28T06:59:29Z</time>
      </trkpt>
      <trkpt lat="47.34054" lon="-0.22353">
        <ele>24.17</ele>
        <time>2013-04-28T06:59:34Z</time>
      </trkpt>
      <trkpt lat="47.34047" lon="-0.22347">
        <ele>23.69</ele>
        <time>2013-04-28T06:59:37Z</time>
      </trkpt>
      <trkpt lat="47.34046" lon="-0.22345">
        <ele>23.69</ele>
        <time>2013-04-28T06:59:38Z</time>
      </trkpt>
      <trkpt lat="47.34031" lon="-0.22321">
        <ele>24.65</ele>
        <time>2013-04-28T06:59:44Z</time>
      </trkpt>
      <trkpt lat="47.34029" lon="-0.22315">
        <ele>24.65</ele>
        <time>2013-04-28T06:59:45Z</time>
      </trkpt>
      <trkpt lat="47.34027" lon="-0.22308">
        <ele>24.65</ele>
        <time>2013-04-28T06:59:46Z</time>
      </trkpt>
      <trkpt lat="47.34025" lon="-0.22298">
        <ele>24.17</ele>
        <time>2013-04-28T06:59:48Z</time>
      </trkpt>
      <trkpt lat="47.34023" lon="-0.22294">
        <ele>23.69</ele>
        <time>2013-04-28T06:59:49Z</time>
      </trkpt>
      <trkpt lat="47.34012" lon="-0.22287">
        <ele>25.61</ele>
        <time>2013-04-28T06:59:53Z</time>
      </trkpt>
      <trkpt lat="47.33999" lon="-0.22269">
        <ele>24.65</ele>
        <time>2013-04-28T06:59:57Z</time>
      </trkpt>
      <trkpt lat="47.33994" lon="-0.22262">
        <ele>24.65</ele>
        <time>2013-04-28T06:59:58Z</time>
      </trkpt>
      <trkpt lat="47.3398" lon="-0.22251">
        <ele>24.65</ele>
        <time>2013-04-28T07:00:01Z</time>
      </trkpt>
      <trkpt lat="47.33974" lon="-0.2225">
        <ele>24.65</ele>
        <time>2013-04-28T07:00:02Z</time>
      </trkpt>
      <trkpt lat="47.33967" lon="-0.22249">
        <ele>25.61</ele>
        <time>2013-04-28T07:00:03Z</time>
      </trkpt>
      <trkpt lat="47.33962" lon="-0.22248">
        <ele>25.13</ele>
        <time>2013-04-28T07:00:04Z</time>
      </trkpt>
      <trkpt lat="47.33957" lon="-0.22247">
        <ele>25.61</ele>
        <time>2013-04-28T07:00:05Z</time>
      </trkpt>
      <trkpt lat="47.33954" lon="-0.22244">
        <ele>25.13</ele>
        <time>2013-04-28T07:00:06Z</time>
      </trkpt>
      <trkpt lat="47.33944" lon="-0.22237">
        <ele>25.13</ele>
        <time>2013-04-28T07:00:09Z</time>
      </trkpt>
      <trkpt lat="47.33939" lon="-0.22237">
        <ele>24.65</ele>
        <time>2013-04-28T07:00:10Z</time>
      </trkpt>
      <trkpt lat="47.33929" lon="-0.2224">
        <ele>24.17</ele>
        <time>2013-04-28T07:00:12Z</time>
      </trkpt>
      <trkpt lat="47.33924" lon="-0.22242">
        <ele>23.21</ele>
        <time>2013-04-28T07:00:13Z</time>
      </trkpt>
      <trkpt lat="47.33919" lon="-0.22244">
        <ele>24.65</ele>
        <time>2013-04-28T07:00:14Z</time>
      </trkpt>
      <trkpt lat="47.33912" lon="-0.2225">
        <ele>25.61</ele>
        <time>2013-04-28T07:00:16Z</time>
      </trkpt>
      <trkpt lat="47.33909" lon="-0.22251">
        <ele>25.61</ele>
        <time>2013-04-28T07:00:17Z</time>
      </trkpt>
      <trkpt lat="47.33906" lon="-0.2225">
        <ele>26.57</ele>
        <time>2013-04-28T07:00:18Z</time>
      </trkpt>
      <trkpt lat="47.33904" lon="-0.22247">
        <ele>26.57</ele>
        <time>2013-04-28T07:00:19Z</time>
      </trkpt>
      <trkpt lat="47.33903" lon="-0.22244">
        <ele>26.57</ele>
        <time>2013-04-28T07:00:20Z</time>
      </trkpt>
      <trkpt lat="47.33901" lon="-0.22239">
        <ele>26.57</ele>
        <time>2013-04-28T07:00:21Z</time>
      </trkpt>
      <trkpt lat="47.33892" lon="-0.22203">
        <ele>26.09</ele>
        <time>2013-04-28T07:00:28Z</time>
      </trkpt>
      <trkpt lat="47.33881" lon="-0.22161">
        <ele>26.09</ele>
        <time>2013-04-28T07:00:36Z</time>
      </trkpt>
      <trkpt lat="47.33872" lon="-0.22126">
        <ele>26.09</ele>
        <time>2013-04-28T07:00:43Z</time>
      </trkpt>
      <trkpt lat="47.33859" lon="-0.2208">
        <ele>26.09</ele>
        <time>2013-04-28T07:00:52Z</time>
      </trkpt>
      <trkpt lat="47.33854" lon="-0.22047">
        <ele>26.57</ele>
        <time>2013-04-28T07:00:59Z</time>
      </trkpt>
      <trkpt lat="47.33854" lon="-0.22043">
        <ele>26.57</ele>
        <time>2013-04-28T07:01:00Z</time>
      </trkpt>
      <trkpt lat="47.33853" lon="-0.2204">
        <ele>26.57</ele>
        <time>2013-04-28T07:01:01Z</time>
      </trkpt>
      <trkpt lat="47.33843" lon="-0.22013">
        <ele>26.09</ele>
        <time>2013-04-28T07:01:07Z</time>
      </trkpt>
      <trkpt lat="47.33833" lon="-0.22002">
        <ele>26.57</ele>
        <time>2013-04-28T07:01:12Z</time>
      </trkpt>
      <trkpt lat="47.33829" lon="-0.21998">
        <ele>26.09</ele>
        <time>2013-04-28T07:01:16Z</time>
      </trkpt>
      <trkpt lat="47.33824" lon="-0.21996">
        <ele>25.61</ele>
        <time>2013-04-28T07:01:23Z</time>
      </trkpt>
      <trkpt lat="47.33823" lon="-0.21997">
        <ele>26.57</ele>
        <time>2013-04-28T07:01:28Z</time>
      </trkpt>
      <trkpt lat="47.33818" lon="-0.22004">
        <ele>26.09</ele>
        <time>2013-04-28T07:01:35Z</time>
      </trkpt>
      <trkpt lat="47.33817" lon="-0.22013">
        <ele>26.09</ele>
        <time>2013-04-28T07:01:42Z</time>
      </trkpt>
      <trkpt lat="47.33815" lon="-0.22021">
        <ele>26.09</ele>
        <time>2013-04-28T07:01:53Z</time>
      </trkpt>
      <trkpt lat="47.33815" lon="-0.22031">
        <ele>26.57</ele>
        <time>2013-04-28T07:01:57Z</time>
      </trkpt>
      <trkpt lat="47.3381" lon="-0.22044">
        <ele>27.53</ele>
        <time>2013-04-28T07:02:02Z</time>
      </trkpt>
      <trkpt lat="47.33809" lon="-0.22047">
        <ele>28.02</ele>
        <time>2013-04-28T07:02:03Z</time>
      </trkpt>
      <trkpt lat="47.33811" lon="-0.22075">
        <ele>27.05</ele>
        <time>2013-04-28T07:02:10Z</time>
      </trkpt>
      <trkpt lat="47.33811" lon="-0.22083">
        <ele>26.57</ele>
        <time>2013-04-28T07:02:12Z</time>
      </trkpt>
      <trkpt lat="47.33795" lon="-0.22101">
        <ele>28.02</ele>
        <time>2013-04-28T07:02:19Z</time>
      </trkpt>
      <trkpt lat="47.3378" lon="-0.22113">
        <ele>29.46</ele>
        <time>2013-04-28T07:02:24Z</time>
      </trkpt>
      <trkpt lat="47.3377" lon="-0.22126">
        <ele>29.94</ele>
        <time>2013-04-28T07:02:29Z</time>
      </trkpt>
      <trkpt lat="47.33769" lon="-0.22129">
        <ele>30.9</ele>
        <time>2013-04-28T07:02:30Z</time>
      </trkpt>
      <trkpt lat="47.33765" lon="-0.22149">
        <ele>30.42</ele>
        <time>2013-04-28T07:02:37Z</time>
      </trkpt>
      <trkpt lat="47.33763" lon="-0.22167">
        <ele>31.86</ele>
        <time>2013-04-28T07:02:42Z</time>
      </trkpt>
      <trkpt lat="47.33755" lon="-0.22179">
        <ele>33.3</ele>
        <time>2013-04-28T07:02:46Z</time>
      </trkpt>
      <trkpt lat="47.33754" lon="-0.22191">
        <ele>33.78</ele>
        <time>2013-04-28T07:02:50Z</time>
      </trkpt>
      <trkpt lat="47.33751" lon="-0.22205">
        <ele>36.67</ele>
        <time>2013-04-28T07:02:56Z</time>
      </trkpt>
      <trkpt lat="47.3375" lon="-0.22207">
        <ele>37.15</ele>
        <time>2013-04-28T07:02:57Z</time>
      </trkpt>
      <trkpt lat="47.33747" lon="-0.22215">
        <ele>38.59</ele>
        <time>2013-04-28T07:03:02Z</time>
      </trkpt>
      <trkpt lat="47.33746" lon="-0.22217">
        <ele>38.59</ele>
        <time>2013-04-28T07:03:03Z</time>
      </trkpt>
      <trkpt lat="47.33742" lon="-0.22223">
        <ele>40.51</ele>
        <time>2013-04-28T07:03:10Z</time>
      </trkpt>
      <trkpt lat="47.33738" lon="-0.22229">
        <ele>42.44</ele>
        <time>2013-04-28T07:03:18Z</time>
      </trkpt>
      <trkpt lat="47.33733" lon="-0.22228">
        <ele>42.44</ele>
        <time>2013-04-28T07:04:10Z</time>
      </trkpt>
      <trkpt lat="47.33731" lon="-0.22228">
        <ele>41.95</ele>
        <time>2013-04-28T07:04:11Z</time>
      </trkpt>
      <trkpt lat="47.33724" lon="-0.22222">
        <ele>40.51</ele>
        <time>2013-04-28T07:04:17Z</time>
      </trkpt>
      <trkpt lat="47.33723" lon="-0.22223">
        <ele>40.99</ele>
        <time>2013-04-28T07:04:18Z</time>
      </trkpt>
      <trkpt lat="47.33712" lon="-0.22222">
        <ele>40.03</ele>
        <time>2013-04-28T07:04:24Z</time>
      </trkpt>
      <trkpt lat="47.33708" lon="-0.22222">
        <ele>40.99</ele>
        <time>2013-04-28T07:04:26Z</time>
      </trkpt>
      <trkpt lat="47.33698" lon="-0.22222">
        <ele>41.47</ele>
        <time>2013-04-28T07:04:33Z</time>
      </trkpt>
      <trkpt lat="47.33698" lon="-0.2223">
        <ele>42.44</ele>
        <time>2013-04-28T07:04:36Z</time>
      </trkpt>
      <trkpt lat="47.33693" lon="-0.22246">
        <ele>44.36</ele>
        <time>2013-04-28T07:04:42Z</time>
      </trkpt>
      <trkpt lat="47.33685" lon="-0.22248">
        <ele>44.36</ele>
        <time>2013-04-28T07:04:46Z</time>
      </trkpt>
      <trkpt lat="47.3367" lon="-0.22246">
        <ele>44.36</ele>
        <time>2013-04-28T07:04:52Z</time>
      </trkpt>
      <trkpt lat="47.33655" lon="-0.22247">
        <ele>45.8</ele>
        <time>2013-04-28T07:04:58Z</time>
      </trkpt>
      <trkpt lat="47.33652" lon="-0.22249">
        <ele>45.8</ele>
        <time>2013-04-28T07:05:00Z</time>
      </trkpt>
      <trkpt lat="47.33644" lon="-0.22253">
        <ele>48.2</ele>
        <time>2013-04-28T07:05:04Z</time>
      </trkpt>
      <trkpt lat="47.33641" lon="-0.22253">
        <ele>48.68</ele>
        <time>2013-04-28T07:05:07Z</time>
      </trkpt>
      <trkpt lat="47.33627" lon="-0.22251">
        <ele>50.61</ele>
        <time>2013-04-28T07:05:14Z</time>
      </trkpt>
      <trkpt lat="47.33617" lon="-0.22244">
        <ele>51.57</ele>
        <time>2013-04-28T07:05:19Z</time>
      </trkpt>
      <trkpt lat="47.33606" lon="-0.22244">
        <ele>52.53</ele>
        <time>2013-04-28T07:05:25Z</time>
      </trkpt>
      <trkpt lat="47.33592" lon="-0.2224">
        <ele>53.97</ele>
        <time>2013-04-28T07:05:31Z</time>
      </trkpt>
      <trkpt lat="47.33587" lon="-0.22235">
        <ele>54.93</ele>
        <time>2013-04-28T07:05:33Z</time>
      </trkpt>
      <trkpt lat="47.3358" lon="-0.22226">
        <ele>55.89</ele>
        <time>2013-04-28T07:05:39Z</time>
      </trkpt>
      <trkpt lat="47.33579" lon="-0.22224">
        <ele>56.37</ele>
        <time>2013-04-28T07:05:40Z</time>
      </trkpt>
      <trkpt lat="47.33572" lon="-0.22225">
        <ele>57.34</ele>
        <time>2013-04-28T07:05:43Z</time>
      </trkpt>
      <trkpt lat="47.33564" lon="-0.22229">
        <ele>58.78</ele>
        <time>2013-04-28T07:05:48Z</time>
      </trkpt>
      <trkpt lat="47.33552" lon="-0.22234">
        <ele>60.22</ele>
        <time>2013-04-28T07:05:54Z</time>
      </trkpt>
      <trkpt lat="47.33545" lon="-0.22225">
        <ele>59.26</ele>
        <time>2013-04-28T07:06:00Z</time>
      </trkpt>
      <trkpt lat="47.33536" lon="-0.2221">
        <ele>59.74</ele>
        <time>2013-04-28T07:06:06Z</time>
      </trkpt>
      <trkpt lat="47.33521" lon="-0.22202">
        <ele>59.74</ele>
        <time>2013-04-28T07:06:12Z</time>
      </trkpt>
      <trkpt lat="47.33512" lon="-0.22195">
        <ele>60.7</ele>
        <time>2013-04-28T07:06:16Z</time>
      </trkpt>
      <trkpt lat="47.33487" lon="-0.2219">
        <ele>63.1</ele>
        <time>2013-04-28T07:06:24Z</time>
      </trkpt>
      <trkpt lat="47.3347" lon="-0.22193">
        <ele>65.03</ele>
        <time>2013-04-28T07:06:31Z</time>
      </trkpt>
      <trkpt lat="47.33462" lon="-0.22208">
        <ele>65.03</ele>
        <time>2013-04-28T07:06:37Z</time>
      </trkpt>
      <trkpt lat="47.33458" lon="-0.22212">
        <ele>65.99</ele>
        <time>2013-04-28T07:06:39Z</time>
      </trkpt>
      <trkpt lat="47.33432" lon="-0.2222">
        <ele>66.47</ele>
        <time>2013-04-28T07:06:47Z</time>
      </trkpt>
      <trkpt lat="47.33429" lon="-0.22222">
        <ele>66.47</ele>
        <time>2013-04-28T07:06:48Z</time>
      </trkpt>
      <trkpt lat="47.33413" lon="-0.22247">
        <ele>67.43</ele>
        <time>2013-04-28T07:06:55Z</time>
      </trkpt>
      <trkpt lat="47.33409" lon="-0.22276">
        <ele>67.43</ele>
        <time>2013-04-28T07:07:01Z</time>
      </trkpt>
      <trkpt lat="47.33418" lon="-0.22293">
        <ele>67.91</ele>
        <time>2013-04-28T07:07:06Z</time>
      </trkpt>
      <trkpt lat="47.33418" lon="-0.22305">
        <ele>67.91</ele>
        <time>2013-04-28T07:07:10Z</time>
      </trkpt>
      <trkpt lat="47.33408" lon="-0.22314">
        <ele>67.91</ele>
        <time>2013-04-28T07:07:14Z</time>
      </trkpt>
      <trkpt lat="47.334" lon="-0.22333">
        <ele>68.87</ele>
        <time>2013-04-28T07:07:18Z</time>
      </trkpt>
      <trkpt lat="47.33383" lon="-0.22341">
        <ele>67.43</ele>
        <time>2013-04-28T07:07:25Z</time>
      </trkpt>
      <trkpt lat="47.3337" lon="-0.22344">
        <ele>66.95</ele>
        <time>2013-04-28T07:07:30Z</time>
      </trkpt>
      <trkpt lat="47.3336" lon="-0.22349">
        <ele>66.95</ele>
        <time>2013-04-28T07:07:33Z</time>
      </trkpt>
      <trkpt lat="47.33348" lon="-0.22354">
        <ele>65.99</ele>
        <time>2013-04-28T07:07:36Z</time>
      </trkpt>
      <trkpt lat="47.33326" lon="-0.22366">
        <ele>65.99</ele>
        <time>2013-04-28T07:07:40Z</time>
      </trkpt>
      <trkpt lat="47.33296" lon="-0.22382">
        <ele>65.03</ele>
        <time>2013-04-28T07:07:46Z</time>
      </trkpt>
      <trkpt lat="47.33282" lon="-0.22384">
        <ele>65.03</ele>
        <time>2013-04-28T07:07:49Z</time>
      </trkpt>
      <trkpt lat="47.33262" lon="-0.22399">
        <ele>65.03</ele>
        <time>2013-04-28T07:07:54Z</time>
      </trkpt>
      <trkpt lat="47.33244" lon="-0.22395">
        <ele>66.95</ele>
        <time>2013-04-28T07:07:58Z</time>
      </trkpt>
      <trkpt lat="47.33235" lon="-0.22388">
        <ele>67.43</ele>
        <time>2013-04-28T07:08:01Z</time>
      </trkpt>
      <trkpt lat="47.33225" lon="-0.22368">
        <ele>66.95</ele>
        <time>2013-04-28T07:08:06Z</time>
      </trkpt>
      <trkpt lat="47.33217" lon="-0.22368">
        <ele>66.95</ele>
        <time>2013-04-28T07:08:08Z</time>
      </trkpt>
      <trkpt lat="47.33199" lon="-0.2238">
        <ele>67.43</ele>
        <time>2013-04-28T07:08:13Z</time>
      </trkpt>
      <trkpt lat="47.33179" lon="-0.22394">
        <ele>67.91</ele>
        <time>2013-04-28T07:08:18Z</time>
      </trkpt>
      <trkpt lat="47.33167" lon="-0.22386">
        <ele>66.47</ele>
        <time>2013-04-28T07:08:22Z</time>
      </trkpt>
      <trkpt lat="47.33158" lon="-0.2238">
        <ele>65.51</ele>
        <time>2013-04-28T07:08:26Z</time>
      </trkpt>
      <trkpt lat="47.3315" lon="-0.22384">
        <ele>64.55</ele>
        <time>2013-04-28T07:08:28Z</time>
      </trkpt>
      <trkpt lat="47.33146" lon="-0.22385">
        <ele>63.58</ele>
        <time>2013-04-28T07:08:29Z</time>
      </trkpt>
      <trkpt lat="47.33144" lon="-0.22387">
        <ele>63.58</ele>
        <time>2013-04-28T07:08:30Z</time>
      </trkpt>
      <trkpt lat="47.33143" lon="-0.22401">
        <ele>62.14</ele>
        <time>2013-04-28T07:08:33Z</time>
      </trkpt>
      <trkpt lat="47.33137" lon="-0.22421">
        <ele>58.3</ele>
        <time>2013-04-28T07:08:37Z</time>
      </trkpt>
      <trkpt lat="47.33134" lon="-0.22424">
        <ele>56.86</ele>
        <time>2013-04-28T07:08:38Z</time>
      </trkpt>
      <trkpt lat="47.33126" lon="-0.22432">
        <ele>52.53</ele>
        <time>2013-04-28T07:08:42Z</time>
      </trkpt>
      <trkpt lat="47.33113" lon="-0.22422">
        <ele>52.53</ele>
        <time>2013-04-28T07:08:47Z</time>
      </trkpt>
      <trkpt lat="47.33108" lon="-0.22413">
        <ele>53.49</ele>
        <time>2013-04-28T07:08:51Z</time>
      </trkpt>
      <trkpt lat="47.33103" lon="-0.224">
        <ele>54.93</ele>
        <time>2013-04-28T07:08:58Z</time>
      </trkpt>
      <trkpt lat="47.33106" lon="-0.22385">
        <ele>55.41</ele>
        <time>2013-04-28T07:09:04Z</time>
      </trkpt>
      <trkpt lat="47.33105" lon="-0.22377">
        <ele>56.37</ele>
        <time>2013-04-28T07:09:08Z</time>
      </trkpt>
      <trkpt lat="47.33105" lon="-0.22365">
        <ele>57.82</ele>
        <time>2013-04-28T07:09:13Z</time>
      </trkpt>
      <trkpt lat="47.33106" lon="-0.22353">
        <ele>60.22</ele>
        <time>2013-04-28T07:09:19Z</time>
      </trkpt>
      <trkpt lat="47.33104" lon="-0.22337">
        <ele>62.14</ele>
        <time>2013-04-28T07:09:27Z</time>
      </trkpt>
      <trkpt lat="47.33105" lon="-0.22335">
        <ele>61.66</ele>
        <time>2013-04-28T07:09:34Z</time>
      </trkpt>
      <trkpt lat="47.33107" lon="-0.22328">
        <ele>61.18</ele>
        <time>2013-04-28T07:10:28Z</time>
      </trkpt>
      <trkpt lat="47.33112" lon="-0.22323">
        <ele>62.62</ele>
        <time>2013-04-28T07:10:34Z</time>
      </trkpt>
      <trkpt lat="47.33112" lon="-0.22322">
        <ele>63.1</ele>
        <time>2013-04-28T07:10:36Z</time>
      </trkpt>
      <trkpt lat="47.33121" lon="-0.22317">
        <ele>64.07</ele>
        <time>2013-04-28T07:10:42Z</time>
      </trkpt>
      <trkpt lat="47.33136" lon="-0.22314">
        <ele>65.03</ele>
        <time>2013-04-28T07:10:49Z</time>
      </trkpt>
      <trkpt lat="47.3315" lon="-0.22309">
        <ele>65.99</ele>
        <time>2013-04-28T07:10:55Z</time>
      </trkpt>
      <trkpt lat="47.33164" lon="-0.22307">
        <ele>66.47</ele>
        <time>2013-04-28T07:11:00Z</time>
      </trkpt>
      <trkpt lat="47.33171" lon="-0.22306">
        <ele>66.47</ele>
        <time>2013-04-28T07:11:02Z</time>
      </trkpt>
      <trkpt lat="47.33197" lon="-0.22299">
        <ele>65.51</ele>
        <time>2013-04-28T07:11:08Z</time>
      </trkpt>
      <trkpt lat="47.33216" lon="-0.22286">
        <ele>66.47</ele>
        <time>2013-04-28T07:11:13Z</time>
      </trkpt>
      <trkpt lat="47.33232" lon="-0.22267">
        <ele>66.47</ele>
        <time>2013-04-28T07:11:18Z</time>
      </trkpt>
      <trkpt lat="47.33234" lon="-0.22263">
        <ele>65.99</ele>
        <time>2013-04-28T07:11:19Z</time>
      </trkpt>
      <trkpt lat="47.33238" lon="-0.2226">
        <ele>65.99</ele>
        <time>2013-04-28T07:11:20Z</time>
      </trkpt>
      <trkpt lat="47.33245" lon="-0.22252">
        <ele>66.47</ele>
        <time>2013-04-28T07:11:22Z</time>
      </trkpt>
      <trkpt lat="47.33265" lon="-0.22228">
        <ele>65.99</ele>
        <time>2013-04-28T07:11:27Z</time>
      </trkpt>
      <trkpt lat="47.33292" lon="-0.22201">
        <ele>65.99</ele>
        <time>2013-04-28T07:11:33Z</time>
      </trkpt>
      <trkpt lat="47.33317" lon="-0.22179">
        <ele>65.03</ele>
        <time>2013-04-28T07:11:39Z</time>
      </trkpt>
      <trkpt lat="47.33331" lon="-0.22185">
        <ele>65.51</ele>
        <time>2013-04-28T07:11:43Z</time>
      </trkpt>
      <trkpt lat="47.33337" lon="-0.22189">
        <ele>65.51</ele>
        <time>2013-04-28T07:11:45Z</time>
      </trkpt>
      <trkpt lat="47.3334" lon="-0.22187">
        <ele>65.51</ele>
        <time>2013-04-28T07:11:46Z</time>
      </trkpt>
      <trkpt lat="47.33343" lon="-0.22184">
        <ele>65.03</ele>
        <time>2013-04-28T07:11:47Z</time>
      </trkpt>
      <trkpt lat="47.33358" lon="-0.22163">
        <ele>65.03</ele>
        <time>2013-04-28T07:11:53Z</time>
      </trkpt>
      <trkpt lat="47.3337" lon="-0.22147">
        <ele>63.58</ele>
        <time>2013-04-28T07:11:57Z</time>
      </trkpt>
      <trkpt lat="47.33379" lon="-0.22132">
        <ele>63.1</ele>
        <time>2013-04-28T07:12:00Z</time>
      </trkpt>
      <trkpt lat="47.33383" lon="-0.22128">
        <ele>63.1</ele>
        <time>2013-04-28T07:12:01Z</time>
      </trkpt>
      <trkpt lat="47.33387" lon="-0.22123">
        <ele>61.66</ele>
        <time>2013-04-28T07:12:02Z</time>
      </trkpt>
      <trkpt lat="47.33401" lon="-0.22105">
        <ele>61.18</ele>
        <time>2013-04-28T07:12:06Z</time>
      </trkpt>
      <trkpt lat="47.33403" lon="-0.22103">
        <ele>60.7</ele>
        <time>2013-04-28T07:12:07Z</time>
      </trkpt>
      <trkpt lat="47.33407" lon="-0.22102">
        <ele>60.22</ele>
        <time>2013-04-28T07:12:08Z</time>
      </trkpt>
      <trkpt lat="47.3341" lon="-0.221">
        <ele>60.22</ele>
        <time>2013-04-28T07:12:09Z</time>
      </trkpt>
      <trkpt lat="47.33413" lon="-0.22096">
        <ele>60.22</ele>
        <time>2013-04-28T07:12:10Z</time>
      </trkpt>
      <trkpt lat="47.3343" lon="-0.2208">
        <ele>58.78</ele>
        <time>2013-04-28T07:12:15Z</time>
      </trkpt>
      <trkpt lat="47.33434" lon="-0.22079">
        <ele>58.78</ele>
        <time>2013-04-28T07:12:16Z</time>
      </trkpt>
      <trkpt lat="47.33436" lon="-0.2208">
        <ele>57.34</ele>
        <time>2013-04-28T07:12:18Z</time>
      </trkpt>
      <trkpt lat="47.33436" lon="-0.22081">
        <ele>57.34</ele>
        <time>2013-04-28T07:12:19Z</time>
      </trkpt>
      <trkpt lat="47.33436" lon="-0.22089">
        <ele>57.82</ele>
        <time>2013-04-28T07:12:23Z</time>
      </trkpt>
      <trkpt lat="47.3344" lon="-0.22089">
        <ele>57.82</ele>
        <time>2013-04-28T07:12:24Z</time>
      </trkpt>
      <trkpt lat="47.33448" lon="-0.22093">
        <ele>57.34</ele>
        <time>2013-04-28T07:12:27Z</time>
      </trkpt>
      <trkpt lat="47.3345" lon="-0.22096">
        <ele>56.86</ele>
        <time>2013-04-28T07:12:28Z</time>
      </trkpt>
      <trkpt lat="47.33452" lon="-0.22098">
        <ele>56.86</ele>
        <time>2013-04-28T07:12:29Z</time>
      </trkpt>
      <trkpt lat="47.33454" lon="-0.22101">
        <ele>56.86</ele>
        <time>2013-04-28T07:12:30Z</time>
      </trkpt>
      <trkpt lat="47.33456" lon="-0.22103">
        <ele>56.86</ele>
        <time>2013-04-28T07:12:31Z</time>
      </trkpt>
      <trkpt lat="47.33459" lon="-0.22106">
        <ele>56.37</ele>
        <time>2013-04-28T07:12:32Z</time>
      </trkpt>
      <trkpt lat="47.33462" lon="-0.22108">
        <ele>56.37</ele>
        <time>2013-04-28T07:12:33Z</time>
      </trkpt>
      <trkpt lat="47.33463" lon="-0.2211">
        <ele>56.86</ele>
        <time>2013-04-28T07:12:34Z</time>
      </trkpt>
      <trkpt lat="47.33465" lon="-0.22113">
        <ele>57.82</ele>
        <time>2013-04-28T07:12:35Z</time>
      </trkpt>
      <trkpt lat="47.33467" lon="-0.22116">
        <ele>57.82</ele>
        <time>2013-04-28T07:12:36Z</time>
      </trkpt>
      <trkpt lat="47.33472" lon="-0.22131">
        <ele>57.82</ele>
        <time>2013-04-28T07:12:40Z</time>
      </trkpt>
      <trkpt lat="47.33473" lon="-0.2214">
        <ele>58.3</ele>
        <time>2013-04-28T07:12:43Z</time>
      </trkpt>
      <trkpt lat="47.33481" lon="-0.22144">
        <ele>58.3</ele>
        <time>2013-04-28T07:12:48Z</time>
      </trkpt>
      <trkpt lat="47.33488" lon="-0.22144">
        <ele>57.34</ele>
        <time>2013-04-28T07:12:50Z</time>
      </trkpt>
      <trkpt lat="47.33501" lon="-0.22152">
        <ele>55.89</ele>
        <time>2013-04-28T07:12:55Z</time>
      </trkpt>
      <trkpt lat="47.3351" lon="-0.22162">
        <ele>53.01</ele>
        <time>2013-04-28T07:12:59Z</time>
      </trkpt>
      <trkpt lat="47.33512" lon="-0.22165">
        <ele>53.49</ele>
        <time>2013-04-28T07:13:00Z</time>
      </trkpt>
      <trkpt lat="47.33516" lon="-0.22165">
        <ele>51.57</ele>
        <time>2013-04-28T07:13:02Z</time>
      </trkpt>
      <trkpt lat="47.33529" lon="-0.2216">
        <ele>49.16</ele>
        <time>2013-04-28T07:13:07Z</time>
      </trkpt>
      <trkpt lat="47.33532" lon="-0.2216">
        <ele>47.24</ele>
        <time>2013-04-28T07:13:08Z</time>
      </trkpt>
      <trkpt lat="47.33544" lon="-0.2216">
        <ele>46.76</ele>
        <time>2013-04-28T07:13:11Z</time>
      </trkpt>
      <trkpt lat="47.3356" lon="-0.22174">
        <ele>45.32</ele>
        <time>2013-04-28T07:13:15Z</time>
      </trkpt>
      <trkpt lat="47.33575" lon="-0.2219">
        <ele>43.4</ele>
        <time>2013-04-28T07:13:19Z</time>
      </trkpt>
      <trkpt lat="47.33589" lon="-0.22196">
        <ele>41.95</ele>
        <time>2013-04-28T07:13:23Z</time>
      </trkpt>
      <trkpt lat="47.33595" lon="-0.22198">
        <ele>41.47</ele>
        <time>2013-04-28T07:13:26Z</time>
      </trkpt>
      <trkpt lat="47.33605" lon="-0.22211">
        <ele>41.47</ele>
        <time>2013-04-28T07:13:32Z</time>
      </trkpt>
      <trkpt lat="47.33613" lon="-0.22212">
        <ele>40.51</ele>
        <time>2013-04-28T07:13:35Z</time>
      </trkpt>
      <trkpt lat="47.33614" lon="-0.22221">
        <ele>40.99</ele>
        <time>2013-04-28T07:13:39Z</time>
      </trkpt>
      <trkpt lat="47.33616" lon="-0.22224">
        <ele>41.95</ele>
        <time>2013-04-28T07:13:41Z</time>
      </trkpt>
      <trkpt lat="47.33631" lon="-0.22224">
        <ele>40.99</ele>
        <time>2013-04-28T07:13:45Z</time>
      </trkpt>
      <trkpt lat="47.33636" lon="-0.22225">
        <ele>40.99</ele>
        <time>2013-04-28T07:13:46Z</time>
      </trkpt>
      <trkpt lat="47.33648" lon="-0.22222">
        <ele>40.51</ele>
        <time>2013-04-28T07:13:49Z</time>
      </trkpt>
      <trkpt lat="47.33666" lon="-0.22203">
        <ele>36.67</ele>
        <time>2013-04-28T07:13:55Z</time>
      </trkpt>
      <trkpt lat="47.33679" lon="-0.22187">
        <ele>34.74</ele>
        <time>2013-04-28T07:14:01Z</time>
      </trkpt>
      <trkpt lat="47.33685" lon="-0.22175">
        <ele>34.74</ele>
        <time>2013-04-28T07:14:05Z</time>
      </trkpt>
      <trkpt lat="47.33689" lon="-0.22163">
        <ele>36.67</ele>
        <time>2013-04-28T07:14:09Z</time>
      </trkpt>
      <trkpt lat="47.33692" lon="-0.22154">
        <ele>38.11</ele>
        <time>2013-04-28T07:14:13Z</time>
      </trkpt>
      <trkpt lat="47.33693" lon="-0.22148">
        <ele>38.59</ele>
        <time>2013-04-28T07:14:16Z</time>
      </trkpt>
      <trkpt lat="47.33699" lon="-0.22134">
        <ele>39.55</ele>
        <time>2013-04-28T07:14:22Z</time>
      </trkpt>
      <trkpt lat="47.33698" lon="-0.22129">
        <ele>40.51</ele>
        <time>2013-04-28T07:14:24Z</time>
      </trkpt>
      <trkpt lat="47.33699" lon="-0.22118">
        <ele>42.92</ele>
        <time>2013-04-28T07:14:29Z</time>
      </trkpt>
      <trkpt lat="47.337" lon="-0.22116">
        <ele>42.92</ele>
        <time>2013-04-28T07:14:30Z</time>
      </trkpt>
      <trkpt lat="47.33697" lon="-0.22109">
        <ele>44.36</ele>
        <time>2013-04-28T07:14:34Z</time>
      </trkpt>
      <trkpt lat="47.33691" lon="-0.22103">
        <ele>45.8</ele>
        <time>2013-04-28T07:14:40Z</time>
      </trkpt>
      <trkpt lat="47.3369" lon="-0.22102">
        <ele>46.28</ele>
        <time>2013-04-28T07:14:41Z</time>
      </trkpt>
      <trkpt lat="47.33686" lon="-0.22096">
        <ele>46.76</ele>
        <time>2013-04-28T07:14:45Z</time>
      </trkpt>
      <trkpt lat="47.33684" lon="-0.22089">
        <ele>48.2</ele>
        <time>2013-04-28T07:14:48Z</time>
      </trkpt>
      <trkpt lat="47.33683" lon="-0.22079">
        <ele>49.16</ele>
        <time>2013-04-28T07:14:52Z</time>
      </trkpt>
      <trkpt lat="47.33686" lon="-0.2207">
        <ele>52.05</ele>
        <time>2013-04-28T07:14:57Z</time>
      </trkpt>
      <trkpt lat="47.33688" lon="-0.22062">
        <ele>54.45</ele>
        <time>2013-04-28T07:15:04Z</time>
      </trkpt>
      <trkpt lat="47.33689" lon="-0.2206">
        <ele>53.97</ele>
        <time>2013-04-28T07:15:10Z</time>
      </trkpt>
      <trkpt lat="47.33686" lon="-0.22058">
        <ele>53.49</ele>
        <time>2013-04-28T07:16:04Z</time>
      </trkpt>
      <trkpt lat="47.33682" lon="-0.2205">
        <ele>54.45</ele>
        <time>2013-04-28T07:16:11Z</time>
      </trkpt>
      <trkpt lat="47.33681" lon="-0.22043">
        <ele>54.45</ele>
        <time>2013-04-28T07:16:17Z</time>
      </trkpt>
      <trkpt lat="47.33681" lon="-0.22036">
        <ele>55.41</ele>
        <time>2013-04-28T07:16:22Z</time>
      </trkpt>
      <trkpt lat="47.33677" lon="-0.22031">
        <ele>55.89</ele>
        <time>2013-04-28T07:16:26Z</time>
      </trkpt>
      <trkpt lat="47.33677" lon="-0.22028">
        <ele>55.41</ele>
        <time>2013-04-28T07:16:28Z</time>
      </trkpt>
      <trkpt lat="47.33678" lon="-0.22017">
        <ele>56.37</ele>
        <time>2013-04-28T07:16:34Z</time>
      </trkpt>
      <trkpt lat="47.33678" lon="-0.22011">
        <ele>56.37</ele>
        <time>2013-04-28T07:16:37Z</time>
      </trkpt>
      <trkpt lat="47.33681" lon="-0.22004">
        <ele>56.86</ele>
        <time>2013-04-28T07:16:41Z</time>
      </trkpt>
      <trkpt lat="47.33682" lon="-0.21998">
        <ele>57.34</ele>
        <time>2013-04-28T07:16:44Z</time>
      </trkpt>
      <trkpt lat="47.33691" lon="-0.21998">
        <ele>56.86</ele>
        <time>2013-04-28T07:16:51Z</time>
      </trkpt>
      <trkpt lat="47.33701" lon="-0.2201">
        <ele>58.3</ele>
        <time>2013-04-28T07:16:58Z</time>
      </trkpt>
      <trkpt lat="47.33708" lon="-0.22019">
        <ele>58.3</ele>
        <time>2013-04-28T07:17:04Z</time>
      </trkpt>
      <trkpt lat="47.33708" lon="-0.22031">
        <ele>59.74</ele>
        <time>2013-04-28T07:17:09Z</time>
      </trkpt>
      <trkpt lat="47.33712" lon="-0.22034">
        <ele>59.26</ele>
        <time>2013-04-28T07:17:11Z</time>
      </trkpt>
      <trkpt lat="47.33715" lon="-0.22035">
        <ele>58.78</ele>
        <time>2013-04-28T07:17:13Z</time>
      </trkpt>
      <trkpt lat="47.33726" lon="-0.22034">
        <ele>57.82</ele>
        <time>2013-04-28T07:17:19Z</time>
      </trkpt>
      <trkpt lat="47.33735" lon="-0.22023">
        <ele>56.86</ele>
        <time>2013-04-28T07:17:23Z</time>
      </trkpt>
      <trkpt lat="47.33733" lon="-0.22012">
        <ele>57.34</ele>
        <time>2013-04-28T07:17:28Z</time>
      </trkpt>
      <trkpt lat="47.33732" lon="-0.21997">
        <ele>57.34</ele>
        <time>2013-04-28T07:17:33Z</time>
      </trkpt>
      <trkpt lat="47.33729" lon="-0.21986">
        <ele>57.34</ele>
        <time>2013-04-28T07:17:37Z</time>
      </trkpt>
      <trkpt lat="47.33716" lon="-0.21986">
        <ele>57.82</ele>
        <time>2013-04-28T07:17:42Z</time>
      </trkpt>
      <trkpt lat="47.33706" lon="-0.21978">
        <ele>57.82</ele>
        <time>2013-04-28T07:17:46Z</time>
      </trkpt>
      <trkpt lat="47.33705" lon="-0.21976">
        <ele>57.82</ele>
        <time>2013-04-28T07:17:47Z</time>
      </trkpt>
      <trkpt lat="47.33701" lon="-0.21971">
        <ele>57.34</ele>
        <time>2013-04-28T07:17:49Z</time>
      </trkpt>
      <trkpt lat="47.33702" lon="-0.21944">
        <ele>58.3</ele>
        <time>2013-04-28T07:17:56Z</time>
      </trkpt>
      <trkpt lat="47.337" lon="-0.21932">
        <ele>58.78</ele>
        <time>2013-04-28T07:17:59Z</time>
      </trkpt>
      <trkpt lat="47.33695" lon="-0.21923">
        <ele>58.78</ele>
        <time>2013-04-28T07:18:01Z</time>
      </trkpt>
      <trkpt lat="47.33689" lon="-0.2191">
        <ele>59.74</ele>
        <time>2013-04-28T07:18:06Z</time>
      </trkpt>
      <trkpt lat="47.33678" lon="-0.21904">
        <ele>60.22</ele>
        <time>2013-04-28T07:18:12Z</time>
      </trkpt>
      <trkpt lat="47.33672" lon="-0.21904">
        <ele>62.62</ele>
        <time>2013-04-28T07:18:15Z</time>
      </trkpt>
      <trkpt lat="47.33662" lon="-0.21891">
        <ele>62.62</ele>
        <time>2013-04-28T07:18:21Z</time>
      </trkpt>
      <trkpt lat="47.33658" lon="-0.21877">
        <ele>63.1</ele>
        <time>2013-04-28T07:18:25Z</time>
      </trkpt>
      <trkpt lat="47.33655" lon="-0.21846">
        <ele>64.07</ele>
        <time>2013-04-28T07:18:32Z</time>
      </trkpt>
      <trkpt lat="47.33646" lon="-0.21819">
        <ele>62.14</ele>
        <time>2013-04-28T07:18:38Z</time>
      </trkpt>
      <trkpt lat="47.33636" lon="-0.21783">
        <ele>58.3</ele>
        <time>2013-04-28T07:18:44Z</time>
      </trkpt>
      <trkpt lat="47.3363" lon="-0.21776">
        <ele>56.86</ele>
        <time>2013-04-28T07:18:46Z</time>
      </trkpt>
      <trkpt lat="47.33623" lon="-0.21773">
        <ele>57.82</ele>
        <time>2013-04-28T07:18:49Z</time>
      </trkpt>
      <trkpt lat="47.33609" lon="-0.21768">
        <ele>58.3</ele>
        <time>2013-04-28T07:18:55Z</time>
      </trkpt>
      <trkpt lat="47.33593" lon="-0.21758">
        <ele>59.26</ele>
        <time>2013-04-28T07:19:01Z</time>
      </trkpt>
      <trkpt lat="47.33588" lon="-0.21755">
        <ele>59.26</ele>
        <time>2013-04-28T07:19:03Z</time>
      </trkpt>
      <trkpt lat="47.33581" lon="-0.21761">
        <ele>60.22</ele>
        <time>2013-04-28T07:19:06Z</time>
      </trkpt>
      <trkpt lat="47.33566" lon="-0.21771">
        <ele>61.66</ele>
        <time>2013-04-28T07:19:12Z</time>
      </trkpt>
      <trkpt lat="47.33558" lon="-0.21765">
        <ele>62.14</ele>
        <time>2013-04-28T07:19:17Z</time>
      </trkpt>
      <trkpt lat="47.33545" lon="-0.21761">
        <ele>63.1</ele>
        <time>2013-04-28T07:19:22Z</time>
      </trkpt>
      <trkpt lat="47.33542" lon="-0.21762">
        <ele>61.66</ele>
        <time>2013-04-28T07:19:23Z</time>
      </trkpt>
      <trkpt lat="47.33524" lon="-0.21765">
        <ele>63.1</ele>
        <time>2013-04-28T07:19:29Z</time>
      </trkpt>
      <trkpt lat="47.33519" lon="-0.21764">
        <ele>63.1</ele>
        <time>2013-04-28T07:19:31Z</time>
      </trkpt>
      <trkpt lat="47.33506" lon="-0.21779">
        <ele>63.58</ele>
        <time>2013-04-28T07:19:36Z</time>
      </trkpt>
      <trkpt lat="47.33492" lon="-0.21805">
        <ele>64.07</ele>
        <time>2013-04-28T07:19:42Z</time>
      </trkpt>
      <trkpt lat="47.33485" lon="-0.21811">
        <ele>64.07</ele>
        <time>2013-04-28T07:19:44Z</time>
      </trkpt>
      <trkpt lat="47.33475" lon="-0.21805">
        <ele>63.58</ele>
        <time>2013-04-28T07:19:48Z</time>
      </trkpt>
      <trkpt lat="47.3347" lon="-0.2179">
        <ele>64.07</ele>
        <time>2013-04-28T07:19:51Z</time>
      </trkpt>
      <trkpt lat="47.3346" lon="-0.21757">
        <ele>64.07</ele>
        <time>2013-04-28T07:19:57Z</time>
      </trkpt>
      <trkpt lat="47.33454" lon="-0.21738">
        <ele>64.55</ele>
        <time>2013-04-28T07:20:01Z</time>
      </trkpt>
      <trkpt lat="47.3345" lon="-0.21731">
        <ele>65.03</ele>
        <time>2013-04-28T07:20:03Z</time>
      </trkpt>
      <trkpt lat="47.33448" lon="-0.21728">
        <ele>65.03</ele>
        <time>2013-04-28T07:20:04Z</time>
      </trkpt>
      <trkpt lat="47.33446" lon="-0.21723">
        <ele>65.03</ele>
        <time>2013-04-28T07:20:05Z</time>
      </trkpt>
      <trkpt lat="47.33444" lon="-0.21718">
        <ele>64.55</ele>
        <time>2013-04-28T07:20:06Z</time>
      </trkpt>
      <trkpt lat="47.33443" lon="-0.21712">
        <ele>64.55</ele>
        <time>2013-04-28T07:20:07Z</time>
      </trkpt>
      <trkpt lat="47.33441" lon="-0.21707">
        <ele>64.07</ele>
        <time>2013-04-28T07:20:08Z</time>
      </trkpt>
      <trkpt lat="47.3344" lon="-0.21701">
        <ele>64.55</ele>
        <time>2013-04-28T07:20:09Z</time>
      </trkpt>
      <trkpt lat="47.33436" lon="-0.21688">
        <ele>64.55</ele>
        <time>2013-04-28T07:20:11Z</time>
      </trkpt>
      <trkpt lat="47.33433" lon="-0.21681">
        <ele>64.55</ele>
        <time>2013-04-28T07:20:12Z</time>
      </trkpt>
      <trkpt lat="47.33431" lon="-0.21675">
        <ele>64.55</ele>
        <time>2013-04-28T07:20:13Z</time>
      </trkpt>
      <trkpt lat="47.33425" lon="-0.21654">
        <ele>65.03</ele>
        <time>2013-04-28T07:20:17Z</time>
      </trkpt>
      <trkpt lat="47.33416" lon="-0.2163">
        <ele>65.99</ele>
        <time>2013-04-28T07:20:22Z</time>
      </trkpt>
      <trkpt lat="47.33399" lon="-0.21592">
        <ele>65.99</ele>
        <time>2013-04-28T07:20:29Z</time>
      </trkpt>
      <trkpt lat="47.33386" lon="-0.21559">
        <ele>66.47</ele>
        <time>2013-04-28T07:20:35Z</time>
      </trkpt>
      <trkpt lat="47.33373" lon="-0.21526">
        <ele>66.47</ele>
        <time>2013-04-28T07:20:41Z</time>
      </trkpt>
      <trkpt lat="47.33358" lon="-0.21488">
        <ele>66.95</ele>
        <time>2013-04-28T07:20:48Z</time>
      </trkpt>
      <trkpt lat="47.33353" lon="-0.21476">
        <ele>66.95</ele>
        <time>2013-04-28T07:20:50Z</time>
      </trkpt>
      <trkpt lat="47.33351" lon="-0.21471">
        <ele>67.43</ele>
        <time>2013-04-28T07:20:51Z</time>
      </trkpt>
      <trkpt lat="47.33347" lon="-0.21459">
        <ele>67.43</ele>
        <time>2013-04-28T07:20:53Z</time>
      </trkpt>
      <trkpt lat="47.33345" lon="-0.21453">
        <ele>67.43</ele>
        <time>2013-04-28T07:20:54Z</time>
      </trkpt>
      <trkpt lat="47.33343" lon="-0.21448">
        <ele>67.43</ele>
        <time>2013-04-28T07:20:55Z</time>
      </trkpt>
      <trkpt lat="47.3334" lon="-0.21442">
        <ele>67.91</ele>
        <time>2013-04-28T07:20:56Z</time>
      </trkpt>
      <trkpt lat="47.33338" lon="-0.21436">
        <ele>67.91</ele>
        <time>2013-04-28T07:20:57Z</time>
      </trkpt>
      <trkpt lat="47.33336" lon="-0.2143">
        <ele>66.95</ele>
        <time>2013-04-28T07:20:58Z</time>
      </trkpt>
      <trkpt lat="47.33334" lon="-0.21424">
        <ele>67.43</ele>
        <time>2013-04-28T07:20:59Z</time>
      </trkpt>
      <trkpt lat="47.33331" lon="-0.2142">
        <ele>67.43</ele>
        <time>2013-04-28T07:21:00Z</time>
      </trkpt>
      <trkpt lat="47.33327" lon="-0.21415">
        <ele>66.95</ele>
        <time>2013-04-28T07:21:01Z</time>
      </trkpt>
      <trkpt lat="47.33324" lon="-0.2141">
        <ele>67.43</ele>
        <time>2013-04-28T07:21:02Z</time>
      </trkpt>
      <trkpt lat="47.3332" lon="-0.21406">
        <ele>67.91</ele>
        <time>2013-04-28T07:21:03Z</time>
      </trkpt>
      <trkpt lat="47.33316" lon="-0.21403">
        <ele>67.43</ele>
        <time>2013-04-28T07:21:04Z</time>
      </trkpt>
      <trkpt lat="47.33307" lon="-0.21402">
        <ele>67.43</ele>
        <time>2013-04-28T07:21:06Z</time>
      </trkpt>
      <trkpt lat="47.33302" lon="-0.21402">
        <ele>67.43</ele>
        <time>2013-04-28T07:21:07Z</time>
      </trkpt>
      <trkpt lat="47.33298" lon="-0.21403">
        <ele>67.43</ele>
        <time>2013-04-28T07:21:08Z</time>
      </trkpt>
      <trkpt lat="47.33293" lon="-0.21406">
        <ele>67.91</ele>
        <time>2013-04-28T07:21:09Z</time>
      </trkpt>
      <trkpt lat="47.33289" lon="-0.21408">
        <ele>67.43</ele>
        <time>2013-04-28T07:21:10Z</time>
      </trkpt>
      <trkpt lat="47.33285" lon="-0.21411">
        <ele>68.39</ele>
        <time>2013-04-28T07:21:11Z</time>
      </trkpt>
      <trkpt lat="47.33281" lon="-0.21413">
        <ele>67.43</ele>
        <time>2013-04-28T07:21:12Z</time>
      </trkpt>
      <trkpt lat="47.33277" lon="-0.21416">
        <ele>67.43</ele>
        <time>2013-04-28T07:21:13Z</time>
      </trkpt>
      <trkpt lat="47.33272" lon="-0.21419">
        <ele>66.95</ele>
        <time>2013-04-28T07:21:14Z</time>
      </trkpt>
      <trkpt lat="47.33268" lon="-0.21422">
        <ele>66.95</ele>
        <time>2013-04-28T07:21:15Z</time>
      </trkpt>
      <trkpt lat="47.33265" lon="-0.21427">
        <ele>66.47</ele>
        <time>2013-04-28T07:21:16Z</time>
      </trkpt>
      <trkpt lat="47.33263" lon="-0.21432">
        <ele>67.43</ele>
        <time>2013-04-28T07:21:17Z</time>
      </trkpt>
      <trkpt lat="47.33262" lon="-0.21437">
        <ele>67.43</ele>
        <time>2013-04-28T07:21:18Z</time>
      </trkpt>
      <trkpt lat="47.3326" lon="-0.21442">
        <ele>66.47</ele>
        <time>2013-04-28T07:21:19Z</time>
      </trkpt>
      <trkpt lat="47.33259" lon="-0.21447">
        <ele>66.47</ele>
        <time>2013-04-28T07:21:20Z</time>
      </trkpt>
      <trkpt lat="47.33254" lon="-0.21463">
        <ele>66.47</ele>
        <time>2013-04-28T07:21:23Z</time>
      </trkpt>
      <trkpt lat="47.3325" lon="-0.21474">
        <ele>66.95</ele>
        <time>2013-04-28T07:21:25Z</time>
      </trkpt>
      <trkpt lat="47.33248" lon="-0.21479">
        <ele>66.95</ele>
        <time>2013-04-28T07:21:26Z</time>
      </trkpt>
      <trkpt lat="47.33245" lon="-0.21483">
        <ele>66.95</ele>
        <time>2013-04-28T07:21:27Z</time>
      </trkpt>
      <trkpt lat="47.33242" lon="-0.21486">
        <ele>66.95</ele>
        <time>2013-04-28T07:21:28Z</time>
      </trkpt>
      <trkpt lat="47.33239" lon="-0.2149">
        <ele>66.95</ele>
        <time>2013-04-28T07:21:29Z</time>
      </trkpt>
      <trkpt lat="47.33237" lon="-0.21493">
        <ele>66.95</ele>
        <time>2013-04-28T07:21:30Z</time>
      </trkpt>
      <trkpt lat="47.33234" lon="-0.21496">
        <ele>66.95</ele>
        <time>2013-04-28T07:21:31Z</time>
      </trkpt>
      <trkpt lat="47.33215" lon="-0.21505">
        <ele>66.47</ele>
        <time>2013-04-28T07:21:37Z</time>
      </trkpt>
      <trkpt lat="47.332" lon="-0.21511">
        <ele>66.95</ele>
        <time>2013-04-28T07:21:42Z</time>
      </trkpt>
      <trkpt lat="47.33177" lon="-0.21517">
        <ele>66.47</ele>
        <time>2013-04-28T07:21:48Z</time>
      </trkpt>
      <trkpt lat="47.3317" lon="-0.21519">
        <ele>65.99</ele>
        <time>2013-04-28T07:21:50Z</time>
      </trkpt>
      <trkpt lat="47.33165" lon="-0.21523">
        <ele>66.47</ele>
        <time>2013-04-28T07:21:51Z</time>
      </trkpt>
      <trkpt lat="47.33161" lon="-0.21527">
        <ele>65.99</ele>
        <time>2013-04-28T07:21:52Z</time>
      </trkpt>
      <trkpt lat="47.33157" lon="-0.21532">
        <ele>65.99</ele>
        <time>2013-04-28T07:21:53Z</time>
      </trkpt>
      <trkpt lat="47.33154" lon="-0.21536">
        <ele>65.51</ele>
        <time>2013-04-28T07:21:54Z</time>
      </trkpt>
      <trkpt lat="47.3315" lon="-0.2154">
        <ele>65.03</ele>
        <time>2013-04-28T07:21:55Z</time>
      </trkpt>
      <trkpt lat="47.33146" lon="-0.21544">
        <ele>65.51</ele>
        <time>2013-04-28T07:21:56Z</time>
      </trkpt>
      <trkpt lat="47.33142" lon="-0.21546">
        <ele>65.03</ele>
        <time>2013-04-28T07:21:57Z</time>
      </trkpt>
      <trkpt lat="47.33138" lon="-0.21546">
        <ele>64.55</ele>
        <time>2013-04-28T07:21:58Z</time>
      </trkpt>
      <trkpt lat="47.33133" lon="-0.21546">
        <ele>64.07</ele>
        <time>2013-04-28T07:21:59Z</time>
      </trkpt>
      <trkpt lat="47.33123" lon="-0.21548">
        <ele>64.07</ele>
        <time>2013-04-28T07:22:01Z</time>
      </trkpt>
      <trkpt lat="47.33118" lon="-0.21549">
        <ele>64.07</ele>
        <time>2013-04-28T07:22:02Z</time>
      </trkpt>
      <trkpt lat="47.33112" lon="-0.21551">
        <ele>63.58</ele>
        <time>2013-04-28T07:22:03Z</time>
      </trkpt>
      <trkpt lat="47.33107" lon="-0.21552">
        <ele>63.58</ele>
        <time>2013-04-28T07:22:04Z</time>
      </trkpt>
      <trkpt lat="47.33102" lon="-0.21554">
        <ele>64.07</ele>
        <time>2013-04-28T07:22:05Z</time>
      </trkpt>
      <trkpt lat="47.33097" lon="-0.21555">
        <ele>64.07</ele>
        <time>2013-04-28T07:22:06Z</time>
      </trkpt>
      <trkpt lat="47.33079" lon="-0.21553">
        <ele>64.07</ele>
        <time>2013-04-28T07:22:10Z</time>
      </trkpt>
      <trkpt lat="47.33063" lon="-0.21556">
        <ele>63.58</ele>
        <time>2013-04-28T07:22:14Z</time>
      </trkpt>
      <trkpt lat="47.33053" lon="-0.21576">
        <ele>64.07</ele>
        <time>2013-04-28T07:22:19Z</time>
      </trkpt>
      <trkpt lat="47.33037" lon="-0.21592">
        <ele>65.03</ele>
        <time>2013-04-28T07:22:25Z</time>
      </trkpt>
      <trkpt lat="47.33032" lon="-0.21596">
        <ele>65.51</ele>
        <time>2013-04-28T07:22:27Z</time>
      </trkpt>
      <trkpt lat="47.3302" lon="-0.21609">
        <ele>66.95</ele>
        <time>2013-04-28T07:22:32Z</time>
      </trkpt>
      <trkpt lat="47.33019" lon="-0.21613">
        <ele>66.47</ele>
        <time>2013-04-28T07:22:33Z</time>
      </trkpt>
      <trkpt lat="47.33016" lon="-0.21637">
        <ele>66.95</ele>
        <time>2013-04-28T07:22:38Z</time>
      </trkpt>
      <trkpt lat="47.33004" lon="-0.21664">
        <ele>65.99</ele>
        <time>2013-04-28T07:22:44Z</time>
      </trkpt>
      <trkpt lat="47.32989" lon="-0.21674">
        <ele>65.99</ele>
        <time>2013-04-28T07:22:49Z</time>
      </trkpt>
      <trkpt lat="47.32975" lon="-0.21672">
        <ele>65.51</ele>
        <time>2013-04-28T07:22:53Z</time>
      </trkpt>
      <trkpt lat="47.32957" lon="-0.21675">
        <ele>65.99</ele>
        <time>2013-04-28T07:22:59Z</time>
      </trkpt>
      <trkpt lat="47.32943" lon="-0.21671">
        <ele>65.51</ele>
        <time>2013-04-28T07:23:04Z</time>
      </trkpt>
      <trkpt lat="47.32932" lon="-0.21662">
        <ele>65.99</ele>
        <time>2013-04-28T07:23:10Z</time>
      </trkpt>
      <trkpt lat="47.32915" lon="-0.21623">
        <ele>66.95</ele>
        <time>2013-04-28T07:23:20Z</time>
      </trkpt>
      <trkpt lat="47.32903" lon="-0.21596">
        <ele>67.43</ele>
        <time>2013-04-28T07:23:26Z</time>
      </trkpt>
      <trkpt lat="47.32892" lon="-0.21578">
        <ele>67.43</ele>
        <time>2013-04-28T07:23:31Z</time>
      </trkpt>
      <trkpt lat="47.32876" lon="-0.21583">
        <ele>67.91</ele>
        <time>2013-04-28T07:23:37Z</time>
      </trkpt>
      <trkpt lat="47.32865" lon="-0.21595">
        <ele>67.91</ele>
        <time>2013-04-28T07:23:43Z</time>
      </trkpt>
      <trkpt lat="47.32855" lon="-0.21604">
        <ele>67.43</ele>
        <time>2013-04-28T07:23:48Z</time>
      </trkpt>
      <trkpt lat="47.32847" lon="-0.21606">
        <ele>67.91</ele>
        <time>2013-04-28T07:23:51Z</time>
      </trkpt>
      <trkpt lat="47.32833" lon="-0.2162">
        <ele>67.91</ele>
        <time>2013-04-28T07:23:57Z</time>
      </trkpt>
      <trkpt lat="47.32823" lon="-0.21615">
        <ele>68.39</ele>
        <time>2013-04-28T07:24:00Z</time>
      </trkpt>
      <trkpt lat="47.32803" lon="-0.21617">
        <ele>68.39</ele>
        <time>2013-04-28T07:24:05Z</time>
      </trkpt>
      <trkpt lat="47.32788" lon="-0.21634">
        <ele>68.87</ele>
        <time>2013-04-28T07:24:09Z</time>
      </trkpt>
      <trkpt lat="47.32785" lon="-0.21637">
        <ele>68.87</ele>
        <time>2013-04-28T07:24:10Z</time>
      </trkpt>
      <trkpt lat="47.32759" lon="-0.21658">
        <ele>69.83</ele>
        <time>2013-04-28T07:24:17Z</time>
      </trkpt>
      <trkpt lat="47.32731" lon="-0.21677">
        <ele>70.31</ele>
        <time>2013-04-28T07:24:24Z</time>
      </trkpt>
      <trkpt lat="47.32715" lon="-0.21686">
        <ele>70.31</ele>
        <time>2013-04-28T07:24:28Z</time>
      </trkpt>
      <trkpt lat="47.32712" lon="-0.21689">
        <ele>70.79</ele>
        <time>2013-04-28T07:24:29Z</time>
      </trkpt>
      <trkpt lat="47.32709" lon="-0.21691">
        <ele>70.31</ele>
        <time>2013-04-28T07:24:30Z</time>
      </trkpt>
      <trkpt lat="47.32705" lon="-0.21693">
        <ele>70.79</ele>
        <time>2013-04-28T07:24:31Z</time>
      </trkpt>
      <trkpt lat="47.32701" lon="-0.21697">
        <ele>71.27</ele>
        <time>2013-04-28T07:24:32Z</time>
      </trkpt>
      <trkpt lat="47.32694" lon="-0.21704">
        <ele>71.27</ele>
        <time>2013-04-28T07:24:34Z</time>
      </trkpt>
      <trkpt lat="47.32671" lon="-0.21716">
        <ele>71.27</ele>
        <time>2013-04-28T07:24:40Z</time>
      </trkpt>
      <trkpt lat="47.32651" lon="-0.21715">
        <ele>71.76</ele>
        <time>2013-04-28T07:24:45Z</time>
      </trkpt>
      <trkpt lat="47.32641" lon="-0.21714">
        <ele>72.24</ele>
        <time>2013-04-28T07:24:48Z</time>
      </trkpt>
      <trkpt lat="47.32637" lon="-0.21713">
        <ele>71.27</ele>
        <time>2013-04-28T07:24:49Z</time>
      </trkpt>
      <trkpt lat="47.32634" lon="-0.21712">
        <ele>71.76</ele>
        <time>2013-04-28T07:24:50Z</time>
      </trkpt>
      <trkpt lat="47.3263" lon="-0.21711">
        <ele>71.76</ele>
        <time>2013-04-28T07:24:51Z</time>
      </trkpt>
      <trkpt lat="47.32626" lon="-0.2171">
        <ele>72.72</ele>
        <time>2013-04-28T07:24:52Z</time>
      </trkpt>
      <trkpt lat="47.32622" lon="-0.2171">
        <ele>72.24</ele>
        <time>2013-04-28T07:24:53Z</time>
      </trkpt>
      <trkpt lat="47.32619" lon="-0.21711">
        <ele>72.24</ele>
        <time>2013-04-28T07:24:54Z</time>
      </trkpt>
      <trkpt lat="47.32615" lon="-0.21713">
        <ele>72.24</ele>
        <time>2013-04-28T07:24:55Z</time>
      </trkpt>
      <trkpt lat="47.32612" lon="-0.21715">
        <ele>72.72</ele>
        <time>2013-04-28T07:24:56Z</time>
      </trkpt>
      <trkpt lat="47.32609" lon="-0.21718">
        <ele>72.24</ele>
        <time>2013-04-28T07:24:57Z</time>
      </trkpt>
      <trkpt lat="47.32607" lon="-0.21722">
        <ele>72.24</ele>
        <time>2013-04-28T07:24:58Z</time>
      </trkpt>
      <trkpt lat="47.32604" lon="-0.21726">
        <ele>72.72</ele>
        <time>2013-04-28T07:24:59Z</time>
      </trkpt>
      <trkpt lat="47.32601" lon="-0.21729">
        <ele>72.24</ele>
        <time>2013-04-28T07:25:00Z</time>
      </trkpt>
      <trkpt lat="47.32598" lon="-0.21732">
        <ele>71.76</ele>
        <time>2013-04-28T07:25:01Z</time>
      </trkpt>
      <trkpt lat="47.32595" lon="-0.21733">
        <ele>72.24</ele>
        <time>2013-04-28T07:25:02Z</time>
      </trkpt>
      <trkpt lat="47.32592" lon="-0.21736">
        <ele>72.24</ele>
        <time>2013-04-28T07:25:03Z</time>
      </trkpt>
      <trkpt lat="47.32588" lon="-0.21738">
        <ele>72.24</ele>
        <time>2013-04-28T07:25:04Z</time>
      </trkpt>
      <trkpt lat="47.32586" lon="-0.2174">
        <ele>72.72</ele>
        <time>2013-04-28T07:25:05Z</time>
      </trkpt>
      <trkpt lat="47.32577" lon="-0.2175">
        <ele>72.72</ele>
        <time>2013-04-28T07:25:08Z</time>
      </trkpt>
      <trkpt lat="47.32574" lon="-0.21753">
        <ele>73.2</ele>
        <time>2013-04-28T07:25:09Z</time>
      </trkpt>
      <trkpt lat="47.32572" lon="-0.21757">
        <ele>73.68</ele>
        <time>2013-04-28T07:25:10Z</time>
      </trkpt>
      <trkpt lat="47.3257" lon="-0.21762">
        <ele>73.68</ele>
        <time>2013-04-28T07:25:11Z</time>
      </trkpt>
      <trkpt lat="47.32568" lon="-0.21767">
        <ele>73.2</ele>
        <time>2013-04-28T07:25:12Z</time>
      </trkpt>
      <trkpt lat="47.32565" lon="-0.21771">
        <ele>73.2</ele>
        <time>2013-04-28T07:25:13Z</time>
      </trkpt>
      <trkpt lat="47.32562" lon="-0.21775">
        <ele>73.2</ele>
        <time>2013-04-28T07:25:14Z</time>
      </trkpt>
      <trkpt lat="47.32546" lon="-0.21796">
        <ele>73.2</ele>
        <time>2013-04-28T07:25:19Z</time>
      </trkpt>
      <trkpt lat="47.32539" lon="-0.21803">
        <ele>73.68</ele>
        <time>2013-04-28T07:25:21Z</time>
      </trkpt>
      <trkpt lat="47.32536" lon="-0.21807">
        <ele>73.2</ele>
        <time>2013-04-28T07:25:22Z</time>
      </trkpt>
      <trkpt lat="47.32516" lon="-0.21812">
        <ele>73.68</ele>
        <time>2013-04-28T07:25:27Z</time>
      </trkpt>
      <trkpt lat="47.32511" lon="-0.2181">
        <ele>73.68</ele>
        <time>2013-04-28T07:25:28Z</time>
      </trkpt>
      <trkpt lat="47.32485" lon="-0.218">
        <ele>74.16</ele>
        <time>2013-04-28T07:25:35Z</time>
      </trkpt>
      <trkpt lat="47.32477" lon="-0.21796">
        <ele>73.68</ele>
        <time>2013-04-28T07:25:37Z</time>
      </trkpt>
      <trkpt lat="47.32472" lon="-0.21796">
        <ele>74.16</ele>
        <time>2013-04-28T07:25:38Z</time>
      </trkpt>
      <trkpt lat="47.32454" lon="-0.21797">
        <ele>73.68</ele>
        <time>2013-04-28T07:25:42Z</time>
      </trkpt>
      <trkpt lat="47.3244" lon="-0.21799">
        <ele>73.68</ele>
        <time>2013-04-28T07:25:45Z</time>
      </trkpt>
      <trkpt lat="47.32436" lon="-0.21801">
        <ele>73.68</ele>
        <time>2013-04-28T07:25:46Z</time>
      </trkpt>
      <trkpt lat="47.32431" lon="-0.21804">
        <ele>73.2</ele>
        <time>2013-04-28T07:25:47Z</time>
      </trkpt>
      <trkpt lat="47.32427" lon="-0.21806">
        <ele>74.16</ele>
        <time>2013-04-28T07:25:48Z</time>
      </trkpt>
      <trkpt lat="47.32423" lon="-0.21807">
        <ele>73.68</ele>
        <time>2013-04-28T07:25:49Z</time>
      </trkpt>
      <trkpt lat="47.32418" lon="-0.21807">
        <ele>73.68</ele>
        <time>2013-04-28T07:25:50Z</time>
      </trkpt>
      <trkpt lat="47.32414" lon="-0.21807">
        <ele>73.2</ele>
        <time>2013-04-28T07:25:51Z</time>
      </trkpt>
      <trkpt lat="47.32409" lon="-0.21806">
        <ele>73.68</ele>
        <time>2013-04-28T07:25:52Z</time>
      </trkpt>
      <trkpt lat="47.32405" lon="-0.21805">
        <ele>74.16</ele>
        <time>2013-04-28T07:25:53Z</time>
      </trkpt>
      <trkpt lat="47.32401" lon="-0.21805">
        <ele>73.2</ele>
        <time>2013-04-28T07:25:54Z</time>
      </trkpt>
      <trkpt lat="47.32397" lon="-0.21803">
        <ele>73.68</ele>
        <time>2013-04-28T07:25:55Z</time>
      </trkpt>
      <trkpt lat="47.32385" lon="-0.21798">
        <ele>73.68</ele>
        <time>2013-04-28T07:25:58Z</time>
      </trkpt>
      <trkpt lat="47.32358" lon="-0.21795">
        <ele>73.68</ele>
        <time>2013-04-28T07:26:05Z</time>
      </trkpt>
      <trkpt lat="47.32354" lon="-0.21795">
        <ele>74.16</ele>
        <time>2013-04-28T07:26:06Z</time>
      </trkpt>
      <trkpt lat="47.3235" lon="-0.21796">
        <ele>73.68</ele>
        <time>2013-04-28T07:26:07Z</time>
      </trkpt>
      <trkpt lat="47.32346" lon="-0.21797">
        <ele>73.68</ele>
        <time>2013-04-28T07:26:08Z</time>
      </trkpt>
      <trkpt lat="47.32342" lon="-0.21799">
        <ele>73.2</ele>
        <time>2013-04-28T07:26:09Z</time>
      </trkpt>
      <trkpt lat="47.32337" lon="-0.218">
        <ele>73.68</ele>
        <time>2013-04-28T07:26:10Z</time>
      </trkpt>
      <trkpt lat="47.32315" lon="-0.21804">
        <ele>73.2</ele>
        <time>2013-04-28T07:26:16Z</time>
      </trkpt>
      <trkpt lat="47.32301" lon="-0.21812">
        <ele>74.16</ele>
        <time>2013-04-28T07:26:21Z</time>
      </trkpt>
      <trkpt lat="47.32296" lon="-0.2184">
        <ele>73.68</ele>
        <time>2013-04-28T07:26:26Z</time>
      </trkpt>
      <trkpt lat="47.32289" lon="-0.21867">
        <ele>73.68</ele>
        <time>2013-04-28T07:26:31Z</time>
      </trkpt>
      <trkpt lat="47.32285" lon="-0.2187">
        <ele>74.16</ele>
        <time>2013-04-28T07:26:32Z</time>
      </trkpt>
      <trkpt lat="47.32268" lon="-0.21877">
        <ele>73.68</ele>
        <time>2013-04-28T07:26:37Z</time>
      </trkpt>
      <trkpt lat="47.32265" lon="-0.21878">
        <ele>73.2</ele>
        <time>2013-04-28T07:26:38Z</time>
      </trkpt>
      <trkpt lat="47.32261" lon="-0.21879">
        <ele>73.68</ele>
        <time>2013-04-28T07:26:39Z</time>
      </trkpt>
      <trkpt lat="47.32247" lon="-0.21888">
        <ele>73.68</ele>
        <time>2013-04-28T07:26:43Z</time>
      </trkpt>
      <trkpt lat="47.32243" lon="-0.21892">
        <ele>73.68</ele>
        <time>2013-04-28T07:26:44Z</time>
      </trkpt>
      <trkpt lat="47.3224" lon="-0.21896">
        <ele>73.68</ele>
        <time>2013-04-28T07:26:45Z</time>
      </trkpt>
      <trkpt lat="47.32237" lon="-0.21901">
        <ele>73.2</ele>
        <time>2013-04-28T07:26:46Z</time>
      </trkpt>
      <trkpt lat="47.32234" lon="-0.21905">
        <ele>72.72</ele>
        <time>2013-04-28T07:26:47Z</time>
      </trkpt>
      <trkpt lat="47.32219" lon="-0.21929">
        <ele>73.2</ele>
        <time>2013-04-28T07:26:52Z</time>
      </trkpt>
      <trkpt lat="47.32214" lon="-0.21939">
        <ele>73.2</ele>
        <time>2013-04-28T07:26:54Z</time>
      </trkpt>
      <trkpt lat="47.3221" lon="-0.21943">
        <ele>73.2</ele>
        <time>2013-04-28T07:26:55Z</time>
      </trkpt>
      <trkpt lat="47.32207" lon="-0.21946">
        <ele>73.2</ele>
        <time>2013-04-28T07:26:56Z</time>
      </trkpt>
      <trkpt lat="47.32204" lon="-0.21947">
        <ele>73.68</ele>
        <time>2013-04-28T07:26:57Z</time>
      </trkpt>
      <trkpt lat="47.322" lon="-0.21948">
        <ele>73.68</ele>
        <time>2013-04-28T07:26:58Z</time>
      </trkpt>
      <trkpt lat="47.32197" lon="-0.21947">
        <ele>73.68</ele>
        <time>2013-04-28T07:26:59Z</time>
      </trkpt>
      <trkpt lat="47.32194" lon="-0.21947">
        <ele>74.16</ele>
        <time>2013-04-28T07:27:00Z</time>
      </trkpt>
      <trkpt lat="47.3217" lon="-0.21943">
        <ele>73.2</ele>
        <time>2013-04-28T07:27:06Z</time>
      </trkpt>
      <trkpt lat="47.32139" lon="-0.21939">
        <ele>73.2</ele>
        <time>2013-04-28T07:27:14Z</time>
      </trkpt>
      <trkpt lat="47.32119" lon="-0.21937">
        <ele>73.68</ele>
        <time>2013-04-28T07:27:20Z</time>
      </trkpt>
      <trkpt lat="47.3209" lon="-0.21932">
        <ele>74.16</ele>
        <time>2013-04-28T07:27:27Z</time>
      </trkpt>
      <trkpt lat="47.32078" lon="-0.21925">
        <ele>73.68</ele>
        <time>2013-04-28T07:27:32Z</time>
      </trkpt>
      <trkpt lat="47.32066" lon="-0.21921">
        <ele>74.16</ele>
        <time>2013-04-28T07:27:36Z</time>
      </trkpt>
      <trkpt lat="47.32046" lon="-0.21921">
        <ele>74.64</ele>
        <time>2013-04-28T07:27:41Z</time>
      </trkpt>
      <trkpt lat="47.32043" lon="-0.21917">
        <ele>74.64</ele>
        <time>2013-04-28T07:27:42Z</time>
      </trkpt>
      <trkpt lat="47.3204" lon="-0.21914">
        <ele>74.64</ele>
        <time>2013-04-28T07:27:43Z</time>
      </trkpt>
      <trkpt lat="47.32036" lon="-0.21912">
        <ele>74.16</ele>
        <time>2013-04-28T07:27:44Z</time>
      </trkpt>
      <trkpt lat="47.32033" lon="-0.21909">
        <ele>74.16</ele>
        <time>2013-04-28T07:27:45Z</time>
      </trkpt>
      <trkpt lat="47.32029" lon="-0.21907">
        <ele>74.64</ele>
        <time>2013-04-28T07:27:46Z</time>
      </trkpt>
      <trkpt lat="47.3201" lon="-0.21898">
        <ele>74.64</ele>
        <time>2013-04-28T07:27:52Z</time>
      </trkpt>
      <trkpt lat="47.32007" lon="-0.219">
        <ele>74.64</ele>
        <time>2013-04-28T07:27:53Z</time>
      </trkpt>
      <trkpt lat="47.32004" lon="-0.21903">
        <ele>74.64</ele>
        <time>2013-04-28T07:27:54Z</time>
      </trkpt>
      <trkpt lat="47.32002" lon="-0.21907">
        <ele>74.64</ele>
        <time>2013-04-28T07:27:55Z</time>
      </trkpt>
      <trkpt lat="47.32" lon="-0.21911">
        <ele>74.64</ele>
        <time>2013-04-28T07:27:56Z</time>
      </trkpt>
      <trkpt lat="47.31997" lon="-0.21915">
        <ele>74.64</ele>
        <time>2013-04-28T07:27:57Z</time>
      </trkpt>
      <trkpt lat="47.31994" lon="-0.21916">
        <ele>74.16</ele>
        <time>2013-04-28T07:27:58Z</time>
      </trkpt>
      <trkpt lat="47.31991" lon="-0.21916">
        <ele>74.16</ele>
        <time>2013-04-28T07:27:59Z</time>
      </trkpt>
      <trkpt lat="47.31987" lon="-0.21914">
        <ele>74.64</ele>
        <time>2013-04-28T07:28:00Z</time>
      </trkpt>
      <trkpt lat="47.31982" lon="-0.21912">
        <ele>74.64</ele>
        <time>2013-04-28T07:28:01Z</time>
      </trkpt>
      <trkpt lat="47.31976" lon="-0.21912">
        <ele>74.64</ele>
        <time>2013-04-28T07:28:02Z</time>
      </trkpt>
      <trkpt lat="47.31961" lon="-0.21911">
        <ele>74.64</ele>
        <time>2013-04-28T07:28:05Z</time>
      </trkpt>
      <trkpt lat="47.31955" lon="-0.21912">
        <ele>74.64</ele>
        <time>2013-04-28T07:28:06Z</time>
      </trkpt>
      <trkpt lat="47.31932" lon="-0.21916">
        <ele>74.16</ele>
        <time>2013-04-28T07:28:11Z</time>
      </trkpt>
      <trkpt lat="47.31927" lon="-0.21914">
        <ele>74.64</ele>
        <time>2013-04-28T07:28:12Z</time>
      </trkpt>
      <trkpt lat="47.31904" lon="-0.21899">
        <ele>73.68</ele>
        <time>2013-04-28T07:28:17Z</time>
      </trkpt>
      <trkpt lat="47.319" lon="-0.21896">
        <ele>74.16</ele>
        <time>2013-04-28T07:28:18Z</time>
      </trkpt>
      <trkpt lat="47.31889" lon="-0.2189">
        <ele>74.64</ele>
        <time>2013-04-28T07:28:21Z</time>
      </trkpt>
      <trkpt lat="47.31885" lon="-0.2189">
        <ele>75.12</ele>
        <time>2013-04-28T07:28:22Z</time>
      </trkpt>
      <trkpt lat="47.31881" lon="-0.21891">
        <ele>75.6</ele>
        <time>2013-04-28T07:28:23Z</time>
      </trkpt>
      <trkpt lat="47.31855" lon="-0.21893">
        <ele>75.6</ele>
        <time>2013-04-28T07:28:29Z</time>
      </trkpt>
      <trkpt lat="47.31851" lon="-0.21893">
        <ele>75.12</ele>
        <time>2013-04-28T07:28:30Z</time>
      </trkpt>
      <trkpt lat="47.31846" lon="-0.21893">
        <ele>75.12</ele>
        <time>2013-04-28T07:28:31Z</time>
      </trkpt>
      <trkpt lat="47.31822" lon="-0.21889">
        <ele>76.56</ele>
        <time>2013-04-28T07:28:36Z</time>
      </trkpt>
      <trkpt lat="47.31817" lon="-0.21887">
        <ele>77.04</ele>
        <time>2013-04-28T07:28:37Z</time>
      </trkpt>
      <trkpt lat="47.31812" lon="-0.21885">
        <ele>77.04</ele>
        <time>2013-04-28T07:28:38Z</time>
      </trkpt>
      <trkpt lat="47.31784" lon="-0.21869">
        <ele>76.56</ele>
        <time>2013-04-28T07:28:44Z</time>
      </trkpt>
      <trkpt lat="47.31756" lon="-0.2186">
        <ele>77.04</ele>
        <time>2013-04-28T07:28:50Z</time>
      </trkpt>
      <trkpt lat="47.31746" lon="-0.21856">
        <ele>77.04</ele>
        <time>2013-04-28T07:28:52Z</time>
      </trkpt>
      <trkpt lat="47.31742" lon="-0.21853">
        <ele>77.04</ele>
        <time>2013-04-28T07:28:53Z</time>
      </trkpt>
      <trkpt lat="47.31737" lon="-0.2185">
        <ele>76.56</ele>
        <time>2013-04-28T07:28:54Z</time>
      </trkpt>
      <trkpt lat="47.31733" lon="-0.21847">
        <ele>77.04</ele>
        <time>2013-04-28T07:28:55Z</time>
      </trkpt>
      <trkpt lat="47.31729" lon="-0.21843">
        <ele>77.04</ele>
        <time>2013-04-28T07:28:56Z</time>
      </trkpt>
      <trkpt lat="47.31726" lon="-0.2184">
        <ele>76.56</ele>
        <time>2013-04-28T07:28:57Z</time>
      </trkpt>
      <trkpt lat="47.31723" lon="-0.21837">
        <ele>77.04</ele>
        <time>2013-04-28T07:28:58Z</time>
      </trkpt>
      <trkpt lat="47.31707" lon="-0.2183">
        <ele>76.56</ele>
        <time>2013-04-28T07:29:02Z</time>
      </trkpt>
      <trkpt lat="47.31703" lon="-0.21828">
        <ele>77.52</ele>
        <time>2013-04-28T07:29:03Z</time>
      </trkpt>
      <trkpt lat="47.31697" lon="-0.21826">
        <ele>78</ele>
        <time>2013-04-28T07:29:04Z</time>
      </trkpt>
      <trkpt lat="47.31693" lon="-0.21821">
        <ele>78</ele>
        <time>2013-04-28T07:29:05Z</time>
      </trkpt>
      <trkpt lat="47.31689" lon="-0.21816">
        <ele>78.97</ele>
        <time>2013-04-28T07:29:06Z</time>
      </trkpt>
      <trkpt lat="47.31681" lon="-0.21805">
        <ele>78.48</ele>
        <time>2013-04-28T07:29:08Z</time>
      </trkpt>
      <trkpt lat="47.31677" lon="-0.21799">
        <ele>78.48</ele>
        <time>2013-04-28T07:29:09Z</time>
      </trkpt>
      <trkpt lat="47.31664" lon="-0.21782">
        <ele>78</ele>
        <time>2013-04-28T07:29:12Z</time>
      </trkpt>
      <trkpt lat="47.31659" lon="-0.21778">
        <ele>78</ele>
        <time>2013-04-28T07:29:13Z</time>
      </trkpt>
      <trkpt lat="47.31654" lon="-0.21773">
        <ele>78.48</ele>
        <time>2013-04-28T07:29:14Z</time>
      </trkpt>
      <trkpt lat="47.3165" lon="-0.21767">
        <ele>78</ele>
        <time>2013-04-28T07:29:15Z</time>
      </trkpt>
      <trkpt lat="47.31645" lon="-0.21761">
        <ele>78</ele>
        <time>2013-04-28T07:29:16Z</time>
      </trkpt>
      <trkpt lat="47.3164" lon="-0.21755">
        <ele>78.48</ele>
        <time>2013-04-28T07:29:17Z</time>
      </trkpt>
      <trkpt lat="47.31634" lon="-0.21751">
        <ele>78.48</ele>
        <time>2013-04-28T07:29:18Z</time>
      </trkpt>
      <trkpt lat="47.31628" lon="-0.21749">
        <ele>77.52</ele>
        <time>2013-04-28T07:29:19Z</time>
      </trkpt>
      <trkpt lat="47.31621" lon="-0.21749">
        <ele>77.52</ele>
        <time>2013-04-28T07:29:20Z</time>
      </trkpt>
      <trkpt lat="47.31615" lon="-0.21752">
        <ele>77.04</ele>
        <time>2013-04-28T07:29:21Z</time>
      </trkpt>
      <trkpt lat="47.3161" lon="-0.21756">
        <ele>77.52</ele>
        <time>2013-04-28T07:29:22Z</time>
      </trkpt>
      <trkpt lat="47.31605" lon="-0.2176">
        <ele>77.04</ele>
        <time>2013-04-28T07:29:23Z</time>
      </trkpt>
      <trkpt lat="47.316" lon="-0.21763">
        <ele>78</ele>
        <time>2013-04-28T07:29:24Z</time>
      </trkpt>
      <trkpt lat="47.31595" lon="-0.21765">
        <ele>78</ele>
        <time>2013-04-28T07:29:25Z</time>
      </trkpt>
      <trkpt lat="47.31589" lon="-0.21762">
        <ele>77.52</ele>
        <time>2013-04-28T07:29:26Z</time>
      </trkpt>
      <trkpt lat="47.3156" lon="-0.21741">
        <ele>78</ele>
        <time>2013-04-28T07:29:31Z</time>
      </trkpt>
      <trkpt lat="47.31554" lon="-0.21738">
        <ele>78.48</ele>
        <time>2013-04-28T07:29:32Z</time>
      </trkpt>
      <trkpt lat="47.31542" lon="-0.2173">
        <ele>78.48</ele>
        <time>2013-04-28T07:29:34Z</time>
      </trkpt>
      <trkpt lat="47.31536" lon="-0.21725">
        <ele>78</ele>
        <time>2013-04-28T07:29:35Z</time>
      </trkpt>
      <trkpt lat="47.31495" lon="-0.21695">
        <ele>78.48</ele>
        <time>2013-04-28T07:29:42Z</time>
      </trkpt>
      <trkpt lat="47.31483" lon="-0.2169">
        <ele>78</ele>
        <time>2013-04-28T07:29:44Z</time>
      </trkpt>
      <trkpt lat="47.3147" lon="-0.21686">
        <ele>78</ele>
        <time>2013-04-28T07:29:46Z</time>
      </trkpt>
      <trkpt lat="47.31464" lon="-0.21686">
        <ele>78.48</ele>
        <time>2013-04-28T07:29:47Z</time>
      </trkpt>
      <trkpt lat="47.31457" lon="-0.21687">
        <ele>78.48</ele>
        <time>2013-04-28T07:29:48Z</time>
      </trkpt>
      <trkpt lat="47.31451" lon="-0.21687">
        <ele>78.97</ele>
        <time>2013-04-28T07:29:49Z</time>
      </trkpt>
      <trkpt lat="47.31445" lon="-0.21685">
        <ele>78.97</ele>
        <time>2013-04-28T07:29:50Z</time>
      </trkpt>
      <trkpt lat="47.31439" lon="-0.21681">
        <ele>78.48</ele>
        <time>2013-04-28T07:29:51Z</time>
      </trkpt>
      <trkpt lat="47.31435" lon="-0.21675">
        <ele>78</ele>
        <time>2013-04-28T07:29:52Z</time>
      </trkpt>
      <trkpt lat="47.31432" lon="-0.21667">
        <ele>78.48</ele>
        <time>2013-04-28T07:29:53Z</time>
      </trkpt>
      <trkpt lat="47.3143" lon="-0.21659">
        <ele>78.48</ele>
        <time>2013-04-28T07:29:54Z</time>
      </trkpt>
      <trkpt lat="47.31427" lon="-0.2165">
        <ele>78.48</ele>
        <time>2013-04-28T07:29:55Z</time>
      </trkpt>
      <trkpt lat="47.31424" lon="-0.21643">
        <ele>78.97</ele>
        <time>2013-04-28T07:29:56Z</time>
      </trkpt>
      <trkpt lat="47.31419" lon="-0.21638">
        <ele>78.48</ele>
        <time>2013-04-28T07:29:57Z</time>
      </trkpt>
      <trkpt lat="47.31415" lon="-0.21638">
        <ele>78</ele>
        <time>2013-04-28T07:29:58Z</time>
      </trkpt>
      <trkpt lat="47.31412" lon="-0.21641">
        <ele>77.52</ele>
        <time>2013-04-28T07:29:59Z</time>
      </trkpt>
      <trkpt lat="47.31412" lon="-0.21645">
        <ele>77.52</ele>
        <time>2013-04-28T07:30:00Z</time>
      </trkpt>
      <trkpt lat="47.31411" lon="-0.21649">
        <ele>77.52</ele>
        <time>2013-04-28T07:30:01Z</time>
      </trkpt>
      <trkpt lat="47.3141" lon="-0.21654">
        <ele>77.52</ele>
        <time>2013-04-28T07:30:02Z</time>
      </trkpt>
      <trkpt lat="47.31409" lon="-0.2166">
        <ele>77.52</ele>
        <time>2013-04-28T07:30:03Z</time>
      </trkpt>
      <trkpt lat="47.31408" lon="-0.21668">
        <ele>77.04</ele>
        <time>2013-04-28T07:30:04Z</time>
      </trkpt>
      <trkpt lat="47.31403" lon="-0.21722">
        <ele>78</ele>
        <time>2013-04-28T07:30:10Z</time>
      </trkpt>
      <trkpt lat="47.31398" lon="-0.21797">
        <ele>77.52</ele>
        <time>2013-04-28T07:30:18Z</time>
      </trkpt>
      <trkpt lat="47.31395" lon="-0.21815">
        <ele>77.04</ele>
        <time>2013-04-28T07:30:20Z</time>
      </trkpt>
      <trkpt lat="47.31393" lon="-0.21824">
        <ele>76.56</ele>
        <time>2013-04-28T07:30:21Z</time>
      </trkpt>
      <trkpt lat="47.31382" lon="-0.21898">
        <ele>77.04</ele>
        <time>2013-04-28T07:30:29Z</time>
      </trkpt>
      <trkpt lat="47.31381" lon="-0.21906">
        <ele>76.56</ele>
        <time>2013-04-28T07:30:30Z</time>
      </trkpt>
      <trkpt lat="47.31379" lon="-0.21914">
        <ele>76.08</ele>
        <time>2013-04-28T07:30:31Z</time>
      </trkpt>
      <trkpt lat="47.31376" lon="-0.21921">
        <ele>76.08</ele>
        <time>2013-04-28T07:30:32Z</time>
      </trkpt>
      <trkpt lat="47.31372" lon="-0.21928">
        <ele>76.08</ele>
        <time>2013-04-28T07:30:33Z</time>
      </trkpt>
      <trkpt lat="47.3137" lon="-0.21935">
        <ele>75.6</ele>
        <time>2013-04-28T07:30:34Z</time>
      </trkpt>
      <trkpt lat="47.31367" lon="-0.21941">
        <ele>75.6</ele>
        <time>2013-04-28T07:30:35Z</time>
      </trkpt>
      <trkpt lat="47.31363" lon="-0.21948">
        <ele>76.08</ele>
        <time>2013-04-28T07:30:36Z</time>
      </trkpt>
      <trkpt lat="47.31358" lon="-0.21955">
        <ele>76.08</ele>
        <time>2013-04-28T07:30:37Z</time>
      </trkpt>
      <trkpt lat="47.31354" lon="-0.21962">
        <ele>75.6</ele>
        <time>2013-04-28T07:30:38Z</time>
      </trkpt>
      <trkpt lat="47.31351" lon="-0.2197">
        <ele>75.12</ele>
        <time>2013-04-28T07:30:39Z</time>
      </trkpt>
      <trkpt lat="47.31348" lon="-0.21978">
        <ele>75.12</ele>
        <time>2013-04-28T07:30:40Z</time>
      </trkpt>
      <trkpt lat="47.31347" lon="-0.21987">
        <ele>74.64</ele>
        <time>2013-04-28T07:30:41Z</time>
      </trkpt>
      <trkpt lat="47.31348" lon="-0.21995">
        <ele>75.12</ele>
        <time>2013-04-28T07:30:42Z</time>
      </trkpt>
      <trkpt lat="47.31348" lon="-0.22002">
        <ele>75.12</ele>
        <time>2013-04-28T07:30:43Z</time>
      </trkpt>
      <trkpt lat="47.31347" lon="-0.2201">
        <ele>74.64</ele>
        <time>2013-04-28T07:30:44Z</time>
      </trkpt>
      <trkpt lat="47.31346" lon="-0.22017">
        <ele>74.64</ele>
        <time>2013-04-28T07:30:45Z</time>
      </trkpt>
      <trkpt lat="47.31345" lon="-0.22026">
        <ele>74.16</ele>
        <time>2013-04-28T07:30:46Z</time>
      </trkpt>
      <trkpt lat="47.31344" lon="-0.22035">
        <ele>74.16</ele>
        <time>2013-04-28T07:30:47Z</time>
      </trkpt>
      <trkpt lat="47.31335" lon="-0.22094">
        <ele>74.16</ele>
        <time>2013-04-28T07:30:53Z</time>
      </trkpt>
      <trkpt lat="47.31326" lon="-0.2216">
        <ele>71.76</ele>
        <time>2013-04-28T07:30:59Z</time>
      </trkpt>
      <trkpt lat="47.31322" lon="-0.22192">
        <ele>71.27</ele>
        <time>2013-04-28T07:31:02Z</time>
      </trkpt>
      <trkpt lat="47.31319" lon="-0.22212">
        <ele>71.76</ele>
        <time>2013-04-28T07:31:04Z</time>
      </trkpt>
      <trkpt lat="47.3131" lon="-0.2227">
        <ele>71.27</ele>
        <time>2013-04-28T07:31:10Z</time>
      </trkpt>
      <trkpt lat="47.31309" lon="-0.22277">
        <ele>70.79</ele>
        <time>2013-04-28T07:31:11Z</time>
      </trkpt>
      <trkpt lat="47.31307" lon="-0.22282">
        <ele>71.27</ele>
        <time>2013-04-28T07:31:12Z</time>
      </trkpt>
      <trkpt lat="47.31304" lon="-0.22283">
        <ele>70.79</ele>
        <time>2013-04-28T07:31:13Z</time>
      </trkpt>
      <trkpt lat="47.31276" lon="-0.22282">
        <ele>70.31</ele>
        <time>2013-04-28T07:31:19Z</time>
      </trkpt>
      <trkpt lat="47.31255" lon="-0.22284">
        <ele>70.31</ele>
        <time>2013-04-28T07:31:23Z</time>
      </trkpt>
      <trkpt lat="47.31245" lon="-0.22278">
        <ele>69.35</ele>
        <time>2013-04-28T07:31:26Z</time>
      </trkpt>
      <trkpt lat="47.31244" lon="-0.22254">
        <ele>70.79</ele>
        <time>2013-04-28T07:31:30Z</time>
      </trkpt>
      <trkpt lat="47.31234" lon="-0.22208">
        <ele>68.87</ele>
        <time>2013-04-28T07:31:36Z</time>
      </trkpt>
      <trkpt lat="47.3123" lon="-0.22208">
        <ele>69.83</ele>
        <time>2013-04-28T07:31:37Z</time>
      </trkpt>
      <trkpt lat="47.31214" lon="-0.22213">
        <ele>69.83</ele>
        <time>2013-04-28T07:31:40Z</time>
      </trkpt>
      <trkpt lat="47.31189" lon="-0.22225">
        <ele>69.35</ele>
        <time>2013-04-28T07:31:45Z</time>
      </trkpt>
      <trkpt lat="47.31177" lon="-0.22215">
        <ele>69.35</ele>
        <time>2013-04-28T07:31:49Z</time>
      </trkpt>
      <trkpt lat="47.31176" lon="-0.22209">
        <ele>69.83</ele>
        <time>2013-04-28T07:31:50Z</time>
      </trkpt>
      <trkpt lat="47.31172" lon="-0.22197">
        <ele>70.31</ele>
        <time>2013-04-28T07:31:52Z</time>
      </trkpt>
      <trkpt lat="47.31165" lon="-0.22177">
        <ele>69.83</ele>
        <time>2013-04-28T07:31:55Z</time>
      </trkpt>
      <trkpt lat="47.31161" lon="-0.22163">
        <ele>69.83</ele>
        <time>2013-04-28T07:31:57Z</time>
      </trkpt>
      <trkpt lat="47.3115" lon="-0.22119">
        <ele>69.35</ele>
        <time>2013-04-28T07:32:03Z</time>
      </trkpt>
      <trkpt lat="47.31137" lon="-0.22115">
        <ele>68.87</ele>
        <time>2013-04-28T07:32:07Z</time>
      </trkpt>
      <trkpt lat="47.31134" lon="-0.22117">
        <ele>68.87</ele>
        <time>2013-04-28T07:32:08Z</time>
      </trkpt>
      <trkpt lat="47.31118" lon="-0.22126">
        <ele>69.35</ele>
        <time>2013-04-28T07:32:12Z</time>
      </trkpt>
      <trkpt lat="47.31104" lon="-0.22126">
        <ele>69.35</ele>
        <time>2013-04-28T07:32:16Z</time>
      </trkpt>
      <trkpt lat="47.31095" lon="-0.22112">
        <ele>69.35</ele>
        <time>2013-04-28T07:32:20Z</time>
      </trkpt>
      <trkpt lat="47.31083" lon="-0.22088">
        <ele>69.35</ele>
        <time>2013-04-28T07:32:25Z</time>
      </trkpt>
      <trkpt lat="47.31066" lon="-0.22058">
        <ele>68.87</ele>
        <time>2013-04-28T07:32:31Z</time>
      </trkpt>
      <trkpt lat="47.31059" lon="-0.22048">
        <ele>69.35</ele>
        <time>2013-04-28T07:32:33Z</time>
      </trkpt>
      <trkpt lat="47.31045" lon="-0.2202">
        <ele>69.35</ele>
        <time>2013-04-28T07:32:38Z</time>
      </trkpt>
      <trkpt lat="47.31026" lon="-0.21981">
        <ele>69.35</ele>
        <time>2013-04-28T07:32:45Z</time>
      </trkpt>
      <trkpt lat="47.31014" lon="-0.21959">
        <ele>70.31</ele>
        <time>2013-04-28T07:32:49Z</time>
      </trkpt>
      <trkpt lat="47.31007" lon="-0.2195">
        <ele>69.83</ele>
        <time>2013-04-28T07:32:51Z</time>
      </trkpt>
      <trkpt lat="47.30991" lon="-0.21937">
        <ele>70.31</ele>
        <time>2013-04-28T07:32:56Z</time>
      </trkpt>
      <trkpt lat="47.30984" lon="-0.21942">
        <ele>70.31</ele>
        <time>2013-04-28T07:32:58Z</time>
      </trkpt>
      <trkpt lat="47.30981" lon="-0.21946">
        <ele>70.31</ele>
        <time>2013-04-28T07:32:59Z</time>
      </trkpt>
      <trkpt lat="47.30979" lon="-0.2195">
        <ele>70.31</ele>
        <time>2013-04-28T07:33:00Z</time>
      </trkpt>
      <trkpt lat="47.30973" lon="-0.21958">
        <ele>70.79</ele>
        <time>2013-04-28T07:33:02Z</time>
      </trkpt>
      <trkpt lat="47.30969" lon="-0.21963">
        <ele>70.79</ele>
        <time>2013-04-28T07:33:03Z</time>
      </trkpt>
      <trkpt lat="47.30951" lon="-0.21989">
        <ele>71.27</ele>
        <time>2013-04-28T07:33:08Z</time>
      </trkpt>
      <trkpt lat="47.30947" lon="-0.21995">
        <ele>71.27</ele>
        <time>2013-04-28T07:33:09Z</time>
      </trkpt>
      <trkpt lat="47.30943" lon="-0.22">
        <ele>70.79</ele>
        <time>2013-04-28T07:33:10Z</time>
      </trkpt>
      <trkpt lat="47.30939" lon="-0.22005">
        <ele>70.79</ele>
        <time>2013-04-28T07:33:11Z</time>
      </trkpt>
      <trkpt lat="47.30936" lon="-0.2201">
        <ele>71.27</ele>
        <time>2013-04-28T07:33:12Z</time>
      </trkpt>
      <trkpt lat="47.30912" lon="-0.2204">
        <ele>70.79</ele>
        <time>2013-04-28T07:33:18Z</time>
      </trkpt>
      <trkpt lat="47.30903" lon="-0.22053">
        <ele>71.27</ele>
        <time>2013-04-28T07:33:20Z</time>
      </trkpt>
      <trkpt lat="47.30886" lon="-0.22077">
        <ele>71.76</ele>
        <time>2013-04-28T07:33:24Z</time>
      </trkpt>
      <trkpt lat="47.30871" lon="-0.22102">
        <ele>71.76</ele>
        <time>2013-04-28T07:33:28Z</time>
      </trkpt>
      <trkpt lat="47.30868" lon="-0.22109">
        <ele>70.79</ele>
        <time>2013-04-28T07:33:29Z</time>
      </trkpt>
      <trkpt lat="47.30861" lon="-0.22122">
        <ele>71.27</ele>
        <time>2013-04-28T07:33:31Z</time>
      </trkpt>
      <trkpt lat="47.30854" lon="-0.22133">
        <ele>70.79</ele>
        <time>2013-04-28T07:33:33Z</time>
      </trkpt>
      <trkpt lat="47.30851" lon="-0.22139">
        <ele>71.27</ele>
        <time>2013-04-28T07:33:34Z</time>
      </trkpt>
      <trkpt lat="47.30843" lon="-0.2215">
        <ele>70.79</ele>
        <time>2013-04-28T07:33:36Z</time>
      </trkpt>
      <trkpt lat="47.30839" lon="-0.22156">
        <ele>71.27</ele>
        <time>2013-04-28T07:33:37Z</time>
      </trkpt>
      <trkpt lat="47.30835" lon="-0.22162">
        <ele>71.27</ele>
        <time>2013-04-28T07:33:38Z</time>
      </trkpt>
      <trkpt lat="47.30831" lon="-0.22167">
        <ele>71.76</ele>
        <time>2013-04-28T07:33:39Z</time>
      </trkpt>
      <trkpt lat="47.30827" lon="-0.22172">
        <ele>71.27</ele>
        <time>2013-04-28T07:33:40Z</time>
      </trkpt>
      <trkpt lat="47.30823" lon="-0.22178">
        <ele>70.79</ele>
        <time>2013-04-28T07:33:41Z</time>
      </trkpt>
      <trkpt lat="47.30819" lon="-0.22184">
        <ele>70.79</ele>
        <time>2013-04-28T07:33:42Z</time>
      </trkpt>
      <trkpt lat="47.30816" lon="-0.22191">
        <ele>71.76</ele>
        <time>2013-04-28T07:33:43Z</time>
      </trkpt>
      <trkpt lat="47.30805" lon="-0.22212">
        <ele>70.79</ele>
        <time>2013-04-28T07:33:46Z</time>
      </trkpt>
      <trkpt lat="47.30798" lon="-0.22227">
        <ele>71.76</ele>
        <time>2013-04-28T07:33:48Z</time>
      </trkpt>
      <trkpt lat="47.30793" lon="-0.22241">
        <ele>71.76</ele>
        <time>2013-04-28T07:33:50Z</time>
      </trkpt>
      <trkpt lat="47.3079" lon="-0.22248">
        <ele>71.27</ele>
        <time>2013-04-28T07:33:51Z</time>
      </trkpt>
      <trkpt lat="47.30787" lon="-0.22256">
        <ele>72.24</ele>
        <time>2013-04-28T07:33:52Z</time>
      </trkpt>
      <trkpt lat="47.30773" lon="-0.22286">
        <ele>72.24</ele>
        <time>2013-04-28T07:33:56Z</time>
      </trkpt>
      <trkpt lat="47.30745" lon="-0.22334">
        <ele>73.2</ele>
        <time>2013-04-28T07:34:03Z</time>
      </trkpt>
      <trkpt lat="47.30741" lon="-0.2234">
        <ele>72.72</ele>
        <time>2013-04-28T07:34:04Z</time>
      </trkpt>
      <trkpt lat="47.30737" lon="-0.22346">
        <ele>72.24</ele>
        <time>2013-04-28T07:34:05Z</time>
      </trkpt>
      <trkpt lat="47.30732" lon="-0.22353">
        <ele>72.24</ele>
        <time>2013-04-28T07:34:06Z</time>
      </trkpt>
      <trkpt lat="47.30713" lon="-0.2238">
        <ele>72.72</ele>
        <time>2013-04-28T07:34:11Z</time>
      </trkpt>
      <trkpt lat="47.30693" lon="-0.22414">
        <ele>73.2</ele>
        <time>2013-04-28T07:34:17Z</time>
      </trkpt>
      <trkpt lat="47.30677" lon="-0.22446">
        <ele>73.2</ele>
        <time>2013-04-28T07:34:22Z</time>
      </trkpt>
      <trkpt lat="47.30659" lon="-0.22478">
        <ele>73.2</ele>
        <time>2013-04-28T07:34:27Z</time>
      </trkpt>
      <trkpt lat="47.30639" lon="-0.22515">
        <ele>73.68</ele>
        <time>2013-04-28T07:34:33Z</time>
      </trkpt>
      <trkpt lat="47.30628" lon="-0.2253">
        <ele>74.16</ele>
        <time>2013-04-28T07:34:36Z</time>
      </trkpt>
      <trkpt lat="47.30604" lon="-0.22572">
        <ele>74.64</ele>
        <time>2013-04-28T07:34:43Z</time>
      </trkpt>
      <trkpt lat="47.30584" lon="-0.22603">
        <ele>75.6</ele>
        <time>2013-04-28T07:34:49Z</time>
      </trkpt>
      <trkpt lat="47.30564" lon="-0.22623">
        <ele>75.12</ele>
        <time>2013-04-28T07:34:54Z</time>
      </trkpt>
      <trkpt lat="47.30536" lon="-0.22658">
        <ele>76.56</ele>
        <time>2013-04-28T07:35:01Z</time>
      </trkpt>
      <trkpt lat="47.30511" lon="-0.22688">
        <ele>76.56</ele>
        <time>2013-04-28T07:35:07Z</time>
      </trkpt>
      <trkpt lat="47.30496" lon="-0.2271">
        <ele>76.56</ele>
        <time>2013-04-28T07:35:11Z</time>
      </trkpt>
      <trkpt lat="47.30493" lon="-0.22716">
        <ele>76.56</ele>
        <time>2013-04-28T07:35:12Z</time>
      </trkpt>
      <trkpt lat="47.30486" lon="-0.22728">
        <ele>76.56</ele>
        <time>2013-04-28T07:35:14Z</time>
      </trkpt>
      <trkpt lat="47.30469" lon="-0.22767">
        <ele>76.08</ele>
        <time>2013-04-28T07:35:20Z</time>
      </trkpt>
      <trkpt lat="47.30463" lon="-0.2278">
        <ele>76.56</ele>
        <time>2013-04-28T07:35:22Z</time>
      </trkpt>
      <trkpt lat="47.30459" lon="-0.22785">
        <ele>76.56</ele>
        <time>2013-04-28T07:35:23Z</time>
      </trkpt>
      <trkpt lat="47.30456" lon="-0.22789">
        <ele>77.04</ele>
        <time>2013-04-28T07:35:24Z</time>
      </trkpt>
      <trkpt lat="47.30432" lon="-0.22824">
        <ele>78</ele>
        <time>2013-04-28T07:35:31Z</time>
      </trkpt>
      <trkpt lat="47.30418" lon="-0.22848">
        <ele>77.52</ele>
        <time>2013-04-28T07:35:37Z</time>
      </trkpt>
      <trkpt lat="47.30416" lon="-0.22851">
        <ele>77.04</ele>
        <time>2013-04-28T07:35:41Z</time>
      </trkpt>
      <trkpt lat="47.30413" lon="-0.22856">
        <ele>76.56</ele>
        <time>2013-04-28T07:35:46Z</time>
      </trkpt>
      <trkpt lat="47.30411" lon="-0.22859">
        <ele>76.08</ele>
        <time>2013-04-28T07:36:03Z</time>
      </trkpt>
      <trkpt lat="47.3041" lon="-0.22861">
        <ele>76.56</ele>
        <time>2013-04-28T07:36:04Z</time>
      </trkpt>
      <trkpt lat="47.30407" lon="-0.22867">
        <ele>77.04</ele>
        <time>2013-04-28T07:36:11Z</time>
      </trkpt>
      <trkpt lat="47.30406" lon="-0.22869">
        <ele>76.56</ele>
        <time>2013-04-28T07:36:28Z</time>
      </trkpt>
      <trkpt lat="47.30405" lon="-0.22869">
        <ele>76.56</ele>
        <time>2013-04-28T07:36:40Z</time>
      </trkpt>
      <trkpt lat="47.30404" lon="-0.2287">
        <ele>77.04</ele>
        <time>2013-04-28T07:37:01Z</time>
      </trkpt>
      <trkpt lat="47.30405" lon="-0.22871">
        <ele>77.04</ele>
        <time>2013-04-28T07:38:43Z</time>
      </trkpt>
      <trkpt lat="47.30405" lon="-0.2287">
        <ele>76.08</ele>
        <time>2013-04-28T07:41:54Z</time>
      </trkpt>
      <trkpt lat="47.30401" lon="-0.22877">
        <ele>77.04</ele>
        <time>2013-04-28T07:42:47Z</time>
      </trkpt>
      <trkpt lat="47.30386" lon="-0.22893">
        <ele>77.52</ele>
        <time>2013-04-28T07:42:53Z</time>
      </trkpt>
      <trkpt lat="47.30369" lon="-0.22899">
        <ele>77.52</ele>
        <time>2013-04-28T07:42:58Z</time>
      </trkpt>
      <trkpt lat="47.30361" lon="-0.22901">
        <ele>77.52</ele>
        <time>2013-04-28T07:43:01Z</time>
      </trkpt>
      <trkpt lat="47.30357" lon="-0.22904">
        <ele>77.52</ele>
        <time>2013-04-28T07:43:03Z</time>
      </trkpt>
      <trkpt lat="47.30354" lon="-0.22904">
        <ele>78</ele>
        <time>2013-04-28T07:43:04Z</time>
      </trkpt>
      <trkpt lat="47.30338" lon="-0.22916">
        <ele>78</ele>
        <time>2013-04-28T07:43:10Z</time>
      </trkpt>
      <trkpt lat="47.30335" lon="-0.22918">
        <ele>78.97</ele>
        <time>2013-04-28T07:43:11Z</time>
      </trkpt>
      <trkpt lat="47.30331" lon="-0.2292">
        <ele>78.48</ele>
        <time>2013-04-28T07:43:12Z</time>
      </trkpt>
      <trkpt lat="47.30317" lon="-0.22927">
        <ele>78.48</ele>
        <time>2013-04-28T07:43:16Z</time>
      </trkpt>
      <trkpt lat="47.30296" lon="-0.22928">
        <ele>78.97</ele>
        <time>2013-04-28T07:43:22Z</time>
      </trkpt>
      <trkpt lat="47.30269" lon="-0.2293">
        <ele>80.89</ele>
        <time>2013-04-28T07:43:29Z</time>
      </trkpt>
      <trkpt lat="47.30243" lon="-0.2294">
        <ele>80.41</ele>
        <time>2013-04-28T07:43:35Z</time>
      </trkpt>
      <trkpt lat="47.30218" lon="-0.22952">
        <ele>80.89</ele>
        <time>2013-04-28T07:43:41Z</time>
      </trkpt>
      <trkpt lat="47.30208" lon="-0.22956">
        <ele>82.33</ele>
        <time>2013-04-28T07:43:43Z</time>
      </trkpt>
      <trkpt lat="47.3018" lon="-0.22971">
        <ele>82.81</ele>
        <time>2013-04-28T07:43:50Z</time>
      </trkpt>
      <trkpt lat="47.30176" lon="-0.22972">
        <ele>83.29</ele>
        <time>2013-04-28T07:43:51Z</time>
      </trkpt>
      <trkpt lat="47.30172" lon="-0.22973">
        <ele>83.77</ele>
        <time>2013-04-28T07:43:52Z</time>
      </trkpt>
      <trkpt lat="47.30144" lon="-0.22974">
        <ele>84.73</ele>
        <time>2013-04-28T07:43:59Z</time>
      </trkpt>
      <trkpt lat="47.30128" lon="-0.22972">
        <ele>84.73</ele>
        <time>2013-04-28T07:44:03Z</time>
      </trkpt>
      <trkpt lat="47.30113" lon="-0.22973">
        <ele>85.69</ele>
        <time>2013-04-28T07:44:06Z</time>
      </trkpt>
      <trkpt lat="47.30093" lon="-0.22976">
        <ele>85.69</ele>
        <time>2013-04-28T07:44:10Z</time>
      </trkpt>
      <trkpt lat="47.30088" lon="-0.22976">
        <ele>85.69</ele>
        <time>2013-04-28T07:44:11Z</time>
      </trkpt>
      <trkpt lat="47.30074" lon="-0.22978">
        <ele>85.21</ele>
        <time>2013-04-28T07:44:14Z</time>
      </trkpt>
      <trkpt lat="47.3007" lon="-0.22977">
        <ele>85.21</ele>
        <time>2013-04-28T07:44:15Z</time>
      </trkpt>
      <trkpt lat="47.30066" lon="-0.22978">
        <ele>85.21</ele>
        <time>2013-04-28T07:44:16Z</time>
      </trkpt>
      <trkpt lat="47.30063" lon="-0.22979">
        <ele>85.69</ele>
        <time>2013-04-28T07:44:17Z</time>
      </trkpt>
      <trkpt lat="47.30059" lon="-0.2298">
        <ele>84.73</ele>
        <time>2013-04-28T07:44:18Z</time>
      </trkpt>
      <trkpt lat="47.30055" lon="-0.2298">
        <ele>85.69</ele>
        <time>2013-04-28T07:44:19Z</time>
      </trkpt>
      <trkpt lat="47.30052" lon="-0.22978">
        <ele>85.69</ele>
        <time>2013-04-28T07:44:20Z</time>
      </trkpt>
      <trkpt lat="47.30048" lon="-0.22976">
        <ele>85.69</ele>
        <time>2013-04-28T07:44:21Z</time>
      </trkpt>
      <trkpt lat="47.30044" lon="-0.22975">
        <ele>85.69</ele>
        <time>2013-04-28T07:44:22Z</time>
      </trkpt>
      <trkpt lat="47.30039" lon="-0.22973">
        <ele>86.18</ele>
        <time>2013-04-28T07:44:23Z</time>
      </trkpt>
      <trkpt lat="47.30035" lon="-0.22971">
        <ele>86.18</ele>
        <time>2013-04-28T07:44:24Z</time>
      </trkpt>
      <trkpt lat="47.30032" lon="-0.22969">
        <ele>85.69</ele>
        <time>2013-04-28T07:44:25Z</time>
      </trkpt>
      <trkpt lat="47.30028" lon="-0.22968">
        <ele>86.18</ele>
        <time>2013-04-28T07:44:26Z</time>
      </trkpt>
      <trkpt lat="47.30024" lon="-0.22966">
        <ele>86.18</ele>
        <time>2013-04-28T07:44:27Z</time>
      </trkpt>
      <trkpt lat="47.3002" lon="-0.22965">
        <ele>86.18</ele>
        <time>2013-04-28T07:44:28Z</time>
      </trkpt>
      <trkpt lat="47.30015" lon="-0.22964">
        <ele>86.18</ele>
        <time>2013-04-28T07:44:29Z</time>
      </trkpt>
      <trkpt lat="47.30012" lon="-0.22962">
        <ele>86.18</ele>
        <time>2013-04-28T07:44:30Z</time>
      </trkpt>
      <trkpt lat="47.30008" lon="-0.2296">
        <ele>86.18</ele>
        <time>2013-04-28T07:44:31Z</time>
      </trkpt>
      <trkpt lat="47.30004" lon="-0.22958">
        <ele>86.18</ele>
        <time>2013-04-28T07:44:32Z</time>
      </trkpt>
      <trkpt lat="47.3" lon="-0.22957">
        <ele>86.18</ele>
        <time>2013-04-28T07:44:33Z</time>
      </trkpt>
      <trkpt lat="47.29989" lon="-0.22952">
        <ele>85.21</ele>
        <time>2013-04-28T07:44:36Z</time>
      </trkpt>
      <trkpt lat="47.29969" lon="-0.22946">
        <ele>85.21</ele>
        <time>2013-04-28T07:44:42Z</time>
      </trkpt>
      <trkpt lat="47.29946" lon="-0.2294">
        <ele>85.21</ele>
        <time>2013-04-28T07:44:48Z</time>
      </trkpt>
      <trkpt lat="47.29943" lon="-0.22939">
        <ele>84.73</ele>
        <time>2013-04-28T07:44:49Z</time>
      </trkpt>
      <trkpt lat="47.29939" lon="-0.22938">
        <ele>85.21</ele>
        <time>2013-04-28T07:44:50Z</time>
      </trkpt>
      <trkpt lat="47.29922" lon="-0.22937">
        <ele>84.73</ele>
        <time>2013-04-28T07:44:54Z</time>
      </trkpt>
      <trkpt lat="47.29918" lon="-0.22937">
        <ele>84.25</ele>
        <time>2013-04-28T07:44:55Z</time>
      </trkpt>
      <trkpt lat="47.29914" lon="-0.22937">
        <ele>84.25</ele>
        <time>2013-04-28T07:44:56Z</time>
      </trkpt>
      <trkpt lat="47.29911" lon="-0.22937">
        <ele>83.77</ele>
        <time>2013-04-28T07:44:57Z</time>
      </trkpt>
      <trkpt lat="47.29909" lon="-0.22937">
        <ele>84.25</ele>
        <time>2013-04-28T07:44:58Z</time>
      </trkpt>
      <trkpt lat="47.29906" lon="-0.22936">
        <ele>84.25</ele>
        <time>2013-04-28T07:44:59Z</time>
      </trkpt>
      <trkpt lat="47.29892" lon="-0.22931">
        <ele>84.25</ele>
        <time>2013-04-28T07:45:04Z</time>
      </trkpt>
      <trkpt lat="47.29866" lon="-0.22917">
        <ele>84.25</ele>
        <time>2013-04-28T07:45:10Z</time>
      </trkpt>
      <trkpt lat="47.29838" lon="-0.22897">
        <ele>84.25</ele>
        <time>2013-04-28T07:45:16Z</time>
      </trkpt>
      <trkpt lat="47.29833" lon="-0.22894">
        <ele>83.77</ele>
        <time>2013-04-28T07:45:17Z</time>
      </trkpt>
      <trkpt lat="47.29797" lon="-0.22871">
        <ele>83.77</ele>
        <time>2013-04-28T07:45:25Z</time>
      </trkpt>
      <trkpt lat="47.29793" lon="-0.22868">
        <ele>83.29</ele>
        <time>2013-04-28T07:45:26Z</time>
      </trkpt>
      <trkpt lat="47.29789" lon="-0.22864">
        <ele>83.29</ele>
        <time>2013-04-28T07:45:27Z</time>
      </trkpt>
      <trkpt lat="47.29786" lon="-0.2286">
        <ele>83.77</ele>
        <time>2013-04-28T07:45:28Z</time>
      </trkpt>
      <trkpt lat="47.29782" lon="-0.22855">
        <ele>83.77</ele>
        <time>2013-04-28T07:45:29Z</time>
      </trkpt>
      <trkpt lat="47.29779" lon="-0.22853">
        <ele>83.77</ele>
        <time>2013-04-28T07:45:30Z</time>
      </trkpt>
      <trkpt lat="47.29775" lon="-0.22854">
        <ele>82.81</ele>
        <time>2013-04-28T07:45:31Z</time>
      </trkpt>
      <trkpt lat="47.29772" lon="-0.22855">
        <ele>82.81</ele>
        <time>2013-04-28T07:45:32Z</time>
      </trkpt>
      <trkpt lat="47.29768" lon="-0.22858">
        <ele>83.29</ele>
        <time>2013-04-28T07:45:33Z</time>
      </trkpt>
      <trkpt lat="47.29764" lon="-0.22861">
        <ele>83.77</ele>
        <time>2013-04-28T07:45:34Z</time>
      </trkpt>
      <trkpt lat="47.2976" lon="-0.22865">
        <ele>82.81</ele>
        <time>2013-04-28T07:45:35Z</time>
      </trkpt>
      <trkpt lat="47.29757" lon="-0.22868">
        <ele>82.81</ele>
        <time>2013-04-28T07:45:36Z</time>
      </trkpt>
      <trkpt lat="47.29745" lon="-0.2288">
        <ele>83.29</ele>
        <time>2013-04-28T07:45:39Z</time>
      </trkpt>
      <trkpt lat="47.29721" lon="-0.22903">
        <ele>83.77</ele>
        <time>2013-04-28T07:45:45Z</time>
      </trkpt>
      <trkpt lat="47.29717" lon="-0.22906">
        <ele>83.77</ele>
        <time>2013-04-28T07:45:46Z</time>
      </trkpt>
      <trkpt lat="47.29709" lon="-0.22914">
        <ele>83.29</ele>
        <time>2013-04-28T07:45:48Z</time>
      </trkpt>
      <trkpt lat="47.29705" lon="-0.22918">
        <ele>83.77</ele>
        <time>2013-04-28T07:45:49Z</time>
      </trkpt>
      <trkpt lat="47.29684" lon="-0.22935">
        <ele>83.29</ele>
        <time>2013-04-28T07:45:54Z</time>
      </trkpt>
      <trkpt lat="47.2968" lon="-0.22936">
        <ele>83.29</ele>
        <time>2013-04-28T07:45:55Z</time>
      </trkpt>
      <trkpt lat="47.29675" lon="-0.22934">
        <ele>82.81</ele>
        <time>2013-04-28T07:45:56Z</time>
      </trkpt>
      <trkpt lat="47.29672" lon="-0.2293">
        <ele>83.29</ele>
        <time>2013-04-28T07:45:57Z</time>
      </trkpt>
      <trkpt lat="47.29668" lon="-0.22925">
        <ele>83.29</ele>
        <time>2013-04-28T07:45:58Z</time>
      </trkpt>
      <trkpt lat="47.29665" lon="-0.22919">
        <ele>83.29</ele>
        <time>2013-04-28T07:45:59Z</time>
      </trkpt>
      <trkpt lat="47.2966" lon="-0.22907">
        <ele>82.81</ele>
        <time>2013-04-28T07:46:01Z</time>
      </trkpt>
      <trkpt lat="47.29638" lon="-0.22854">
        <ele>82.33</ele>
        <time>2013-04-28T07:46:09Z</time>
      </trkpt>
      <trkpt lat="47.29621" lon="-0.22825">
        <ele>82.33</ele>
        <time>2013-04-28T07:46:14Z</time>
      </trkpt>
      <trkpt lat="47.29617" lon="-0.22822">
        <ele>81.37</ele>
        <time>2013-04-28T07:46:15Z</time>
      </trkpt>
      <trkpt lat="47.29613" lon="-0.22822">
        <ele>81.37</ele>
        <time>2013-04-28T07:46:16Z</time>
      </trkpt>
      <trkpt lat="47.29608" lon="-0.22823">
        <ele>81.37</ele>
        <time>2013-04-28T07:46:17Z</time>
      </trkpt>
      <trkpt lat="47.29603" lon="-0.22826">
        <ele>81.85</ele>
        <time>2013-04-28T07:46:18Z</time>
      </trkpt>
      <trkpt lat="47.29574" lon="-0.22847">
        <ele>81.85</ele>
        <time>2013-04-28T07:46:24Z</time>
      </trkpt>
      <trkpt lat="47.29543" lon="-0.22873">
        <ele>80.89</ele>
        <time>2013-04-28T07:46:30Z</time>
      </trkpt>
      <trkpt lat="47.29535" lon="-0.22884">
        <ele>80.89</ele>
        <time>2013-04-28T07:46:32Z</time>
      </trkpt>
      <trkpt lat="47.29527" lon="-0.22895">
        <ele>80.89</ele>
        <time>2013-04-28T07:46:34Z</time>
      </trkpt>
      <trkpt lat="47.29491" lon="-0.22952">
        <ele>80.41</ele>
        <time>2013-04-28T07:46:43Z</time>
      </trkpt>
      <trkpt lat="47.29476" lon="-0.22989">
        <ele>80.89</ele>
        <time>2013-04-28T07:46:48Z</time>
      </trkpt>
      <trkpt lat="47.2945" lon="-0.23056">
        <ele>82.33</ele>
        <time>2013-04-28T07:46:57Z</time>
      </trkpt>
      <trkpt lat="47.29424" lon="-0.23131">
        <ele>81.85</ele>
        <time>2013-04-28T07:47:07Z</time>
      </trkpt>
      <trkpt lat="47.29401" lon="-0.23179">
        <ele>82.33</ele>
        <time>2013-04-28T07:47:14Z</time>
      </trkpt>
      <trkpt lat="47.29398" lon="-0.23186">
        <ele>82.33</ele>
        <time>2013-04-28T07:47:15Z</time>
      </trkpt>
      <trkpt lat="47.29375" lon="-0.23222">
        <ele>82.81</ele>
        <time>2013-04-28T07:47:21Z</time>
      </trkpt>
      <trkpt lat="47.29367" lon="-0.23234">
        <ele>83.77</ele>
        <time>2013-04-28T07:47:23Z</time>
      </trkpt>
      <trkpt lat="47.29331" lon="-0.23285">
        <ele>84.25</ele>
        <time>2013-04-28T07:47:32Z</time>
      </trkpt>
      <trkpt lat="47.29287" lon="-0.23332">
        <ele>85.21</ele>
        <time>2013-04-28T07:47:42Z</time>
      </trkpt>
      <trkpt lat="47.29244" lon="-0.2337">
        <ele>86.18</ele>
        <time>2013-04-28T07:47:51Z</time>
      </trkpt>
      <trkpt lat="47.29217" lon="-0.23393">
        <ele>86.18</ele>
        <time>2013-04-28T07:47:57Z</time>
      </trkpt>
      <trkpt lat="47.29214" lon="-0.23399">
        <ele>86.66</ele>
        <time>2013-04-28T07:47:58Z</time>
      </trkpt>
      <trkpt lat="47.29212" lon="-0.23406">
        <ele>87.14</ele>
        <time>2013-04-28T07:47:59Z</time>
      </trkpt>
      <trkpt lat="47.29211" lon="-0.23413">
        <ele>86.66</ele>
        <time>2013-04-28T07:48:00Z</time>
      </trkpt>
      <trkpt lat="47.29211" lon="-0.23421">
        <ele>87.14</ele>
        <time>2013-04-28T07:48:01Z</time>
      </trkpt>
      <trkpt lat="47.29211" lon="-0.23429">
        <ele>87.14</ele>
        <time>2013-04-28T07:48:02Z</time>
      </trkpt>
      <trkpt lat="47.29211" lon="-0.23443">
        <ele>86.66</ele>
        <time>2013-04-28T07:48:04Z</time>
      </trkpt>
      <trkpt lat="47.29213" lon="-0.23458">
        <ele>87.14</ele>
        <time>2013-04-28T07:48:06Z</time>
      </trkpt>
      <trkpt lat="47.29216" lon="-0.23511">
        <ele>87.62</ele>
        <time>2013-04-28T07:48:13Z</time>
      </trkpt>
      <trkpt lat="47.29219" lon="-0.23542">
        <ele>87.62</ele>
        <time>2013-04-28T07:48:17Z</time>
      </trkpt>
      <trkpt lat="47.29234" lon="-0.23597">
        <ele>87.14</ele>
        <time>2013-04-28T07:48:24Z</time>
      </trkpt>
      <trkpt lat="47.29259" lon="-0.23677">
        <ele>87.14</ele>
        <time>2013-04-28T07:48:34Z</time>
      </trkpt>
      <trkpt lat="47.29287" lon="-0.23756">
        <ele>87.14</ele>
        <time>2013-04-28T07:48:44Z</time>
      </trkpt>
      <trkpt lat="47.29323" lon="-0.23843">
        <ele>85.69</ele>
        <time>2013-04-28T07:48:55Z</time>
      </trkpt>
      <trkpt lat="47.29356" lon="-0.23911">
        <ele>85.21</ele>
        <time>2013-04-28T07:49:04Z</time>
      </trkpt>
      <trkpt lat="47.29396" lon="-0.23979">
        <ele>82.81</ele>
        <time>2013-04-28T07:49:14Z</time>
      </trkpt>
      <trkpt lat="47.29413" lon="-0.24003">
        <ele>82.33</ele>
        <time>2013-04-28T07:49:18Z</time>
      </trkpt>
      <trkpt lat="47.29415" lon="-0.24009">
        <ele>81.85</ele>
        <time>2013-04-28T07:49:19Z</time>
      </trkpt>
      <trkpt lat="47.29415" lon="-0.24014">
        <ele>81.85</ele>
        <time>2013-04-28T07:49:20Z</time>
      </trkpt>
      <trkpt lat="47.29413" lon="-0.24019">
        <ele>81.85</ele>
        <time>2013-04-28T07:49:21Z</time>
      </trkpt>
      <trkpt lat="47.2941" lon="-0.24022">
        <ele>81.37</ele>
        <time>2013-04-28T07:49:22Z</time>
      </trkpt>
      <trkpt lat="47.29407" lon="-0.24025">
        <ele>81.85</ele>
        <time>2013-04-28T07:49:23Z</time>
      </trkpt>
      <trkpt lat="47.29393" lon="-0.2404">
        <ele>83.29</ele>
        <time>2013-04-28T07:49:27Z</time>
      </trkpt>
      <trkpt lat="47.2939" lon="-0.24043">
        <ele>82.33</ele>
        <time>2013-04-28T07:49:28Z</time>
      </trkpt>
      <trkpt lat="47.29362" lon="-0.24072">
        <ele>83.29</ele>
        <time>2013-04-28T07:49:35Z</time>
      </trkpt>
      <trkpt lat="47.2936" lon="-0.24078">
        <ele>83.29</ele>
        <time>2013-04-28T07:49:36Z</time>
      </trkpt>
      <trkpt lat="47.2936" lon="-0.24084">
        <ele>82.81</ele>
        <time>2013-04-28T07:49:37Z</time>
      </trkpt>
      <trkpt lat="47.29362" lon="-0.2409">
        <ele>83.29</ele>
        <time>2013-04-28T07:49:38Z</time>
      </trkpt>
      <trkpt lat="47.29364" lon="-0.24096">
        <ele>82.81</ele>
        <time>2013-04-28T07:49:39Z</time>
      </trkpt>
      <trkpt lat="47.29368" lon="-0.24101">
        <ele>82.81</ele>
        <time>2013-04-28T07:49:40Z</time>
      </trkpt>
      <trkpt lat="47.29371" lon="-0.24106">
        <ele>82.81</ele>
        <time>2013-04-28T07:49:41Z</time>
      </trkpt>
      <trkpt lat="47.29406" lon="-0.24163">
        <ele>82.33</ele>
        <time>2013-04-28T07:49:50Z</time>
      </trkpt>
      <trkpt lat="47.29431" lon="-0.24213">
        <ele>81.37</ele>
        <time>2013-04-28T07:49:57Z</time>
      </trkpt>
      <trkpt lat="47.29458" lon="-0.2426">
        <ele>80.41</ele>
        <time>2013-04-28T07:50:04Z</time>
      </trkpt>
      <trkpt lat="47.2949" lon="-0.24315">
        <ele>80.89</ele>
        <time>2013-04-28T07:50:13Z</time>
      </trkpt>
      <trkpt lat="47.29493" lon="-0.24321">
        <ele>80.89</ele>
        <time>2013-04-28T07:50:14Z</time>
      </trkpt>
      <trkpt lat="47.29497" lon="-0.24327">
        <ele>80.89</ele>
        <time>2013-04-28T07:50:15Z</time>
      </trkpt>
      <trkpt lat="47.295" lon="-0.24333">
        <ele>80.89</ele>
        <time>2013-04-28T07:50:16Z</time>
      </trkpt>
      <trkpt lat="47.29503" lon="-0.24339">
        <ele>80.89</ele>
        <time>2013-04-28T07:50:17Z</time>
      </trkpt>
      <trkpt lat="47.29532" lon="-0.24376">
        <ele>80.41</ele>
        <time>2013-04-28T07:50:24Z</time>
      </trkpt>
      <trkpt lat="47.29561" lon="-0.24419">
        <ele>77.04</ele>
        <time>2013-04-28T07:50:30Z</time>
      </trkpt>
      <trkpt lat="47.29589" lon="-0.24464">
        <ele>73.68</ele>
        <time>2013-04-28T07:50:35Z</time>
      </trkpt>
      <trkpt lat="47.29602" lon="-0.24482">
        <ele>70.31</ele>
        <time>2013-04-28T07:50:37Z</time>
      </trkpt>
      <trkpt lat="47.29629" lon="-0.24522">
        <ele>66.95</ele>
        <time>2013-04-28T07:50:42Z</time>
      </trkpt>
      <trkpt lat="47.29632" lon="-0.24528">
        <ele>66.47</ele>
        <time>2013-04-28T07:50:43Z</time>
      </trkpt>
      <trkpt lat="47.29633" lon="-0.24534">
        <ele>65.99</ele>
        <time>2013-04-28T07:50:44Z</time>
      </trkpt>
      <trkpt lat="47.29631" lon="-0.24539">
        <ele>65.51</ele>
        <time>2013-04-28T07:50:45Z</time>
      </trkpt>
      <trkpt lat="47.29628" lon="-0.24543">
        <ele>65.03</ele>
        <time>2013-04-28T07:50:46Z</time>
      </trkpt>
      <trkpt lat="47.29624" lon="-0.24546">
        <ele>65.51</ele>
        <time>2013-04-28T07:50:47Z</time>
      </trkpt>
      <trkpt lat="47.29594" lon="-0.24578">
        <ele>65.51</ele>
        <time>2013-04-28T07:50:54Z</time>
      </trkpt>
      <trkpt lat="47.29556" lon="-0.24614">
        <ele>65.51</ele>
        <time>2013-04-28T07:51:02Z</time>
      </trkpt>
      <trkpt lat="47.29512" lon="-0.24652">
        <ele>63.1</ele>
        <time>2013-04-28T07:51:10Z</time>
      </trkpt>
      <trkpt lat="47.29485" lon="-0.24678">
        <ele>62.62</ele>
        <time>2013-04-28T07:51:15Z</time>
      </trkpt>
      <trkpt lat="47.29444" lon="-0.24708">
        <ele>61.66</ele>
        <time>2013-04-28T07:51:22Z</time>
      </trkpt>
      <trkpt lat="47.29389" lon="-0.2474">
        <ele>61.66</ele>
        <time>2013-04-28T07:51:31Z</time>
      </trkpt>
      <trkpt lat="47.29322" lon="-0.24778">
        <ele>61.18</ele>
        <time>2013-04-28T07:51:42Z</time>
      </trkpt>
      <trkpt lat="47.29267" lon="-0.24815">
        <ele>60.7</ele>
        <time>2013-04-28T07:51:52Z</time>
      </trkpt>
      <trkpt lat="47.29215" lon="-0.2486">
        <ele>60.7</ele>
        <time>2013-04-28T07:52:01Z</time>
      </trkpt>
      <trkpt lat="47.29176" lon="-0.24893">
        <ele>61.18</ele>
        <time>2013-04-28T07:52:08Z</time>
      </trkpt>
      <trkpt lat="47.29128" lon="-0.24935">
        <ele>62.14</ele>
        <time>2013-04-28T07:52:17Z</time>
      </trkpt>
      <trkpt lat="47.29122" lon="-0.24938">
        <ele>61.18</ele>
        <time>2013-04-28T07:52:18Z</time>
      </trkpt>
      <trkpt lat="47.291" lon="-0.24947">
        <ele>61.66</ele>
        <time>2013-04-28T07:52:22Z</time>
      </trkpt>
      <trkpt lat="47.29095" lon="-0.24947">
        <ele>62.14</ele>
        <time>2013-04-28T07:52:23Z</time>
      </trkpt>
      <trkpt lat="47.29066" lon="-0.2494">
        <ele>63.58</ele>
        <time>2013-04-28T07:52:28Z</time>
      </trkpt>
      <trkpt lat="47.2906" lon="-0.24941">
        <ele>63.1</ele>
        <time>2013-04-28T07:52:29Z</time>
      </trkpt>
      <trkpt lat="47.28998" lon="-0.24959">
        <ele>62.62</ele>
        <time>2013-04-28T07:52:39Z</time>
      </trkpt>
      <trkpt lat="47.28935" lon="-0.24978">
        <ele>63.58</ele>
        <time>2013-04-28T07:52:50Z</time>
      </trkpt>
      <trkpt lat="47.28923" lon="-0.24984">
        <ele>64.07</ele>
        <time>2013-04-28T07:52:52Z</time>
      </trkpt>
      <trkpt lat="47.28879" lon="-0.25022">
        <ele>64.55</ele>
        <time>2013-04-28T07:53:01Z</time>
      </trkpt>
      <trkpt lat="47.28852" lon="-0.25047">
        <ele>65.51</ele>
        <time>2013-04-28T07:53:07Z</time>
      </trkpt>
      <trkpt lat="47.28848" lon="-0.25051">
        <ele>65.51</ele>
        <time>2013-04-28T07:53:08Z</time>
      </trkpt>
      <trkpt lat="47.28844" lon="-0.25055">
        <ele>65.51</ele>
        <time>2013-04-28T07:53:09Z</time>
      </trkpt>
      <trkpt lat="47.28834" lon="-0.25067">
        <ele>65.99</ele>
        <time>2013-04-28T07:53:12Z</time>
      </trkpt>
      <trkpt lat="47.28831" lon="-0.25073">
        <ele>65.99</ele>
        <time>2013-04-28T07:53:13Z</time>
      </trkpt>
      <trkpt lat="47.28828" lon="-0.25079">
        <ele>66.47</ele>
        <time>2013-04-28T07:53:14Z</time>
      </trkpt>
      <trkpt lat="47.28826" lon="-0.25086">
        <ele>66.47</ele>
        <time>2013-04-28T07:53:15Z</time>
      </trkpt>
      <trkpt lat="47.28824" lon="-0.25092">
        <ele>66.95</ele>
        <time>2013-04-28T07:53:16Z</time>
      </trkpt>
      <trkpt lat="47.28814" lon="-0.25119">
        <ele>67.43</ele>
        <time>2013-04-28T07:53:20Z</time>
      </trkpt>
      <trkpt lat="47.28811" lon="-0.25124">
        <ele>67.91</ele>
        <time>2013-04-28T07:53:21Z</time>
      </trkpt>
      <trkpt lat="47.28801" lon="-0.25142">
        <ele>67.91</ele>
        <time>2013-04-28T07:53:24Z</time>
      </trkpt>
      <trkpt lat="47.28797" lon="-0.25148">
        <ele>67.91</ele>
        <time>2013-04-28T07:53:25Z</time>
      </trkpt>
      <trkpt lat="47.28794" lon="-0.25156">
        <ele>68.39</ele>
        <time>2013-04-28T07:53:26Z</time>
      </trkpt>
      <trkpt lat="47.28792" lon="-0.25163">
        <ele>67.43</ele>
        <time>2013-04-28T07:53:27Z</time>
      </trkpt>
      <trkpt lat="47.2879" lon="-0.2517">
        <ele>67.43</ele>
        <time>2013-04-28T07:53:28Z</time>
      </trkpt>
      <trkpt lat="47.28788" lon="-0.25178">
        <ele>67.91</ele>
        <time>2013-04-28T07:53:29Z</time>
      </trkpt>
      <trkpt lat="47.28781" lon="-0.25192">
        <ele>67.43</ele>
        <time>2013-04-28T07:53:31Z</time>
      </trkpt>
      <trkpt lat="47.28757" lon="-0.25241">
        <ele>65.99</ele>
        <time>2013-04-28T07:53:38Z</time>
      </trkpt>
      <trkpt lat="47.28748" lon="-0.25259">
        <ele>65.03</ele>
        <time>2013-04-28T07:53:41Z</time>
      </trkpt>
      <trkpt lat="47.28747" lon="-0.25266">
        <ele>65.03</ele>
        <time>2013-04-28T07:53:42Z</time>
      </trkpt>
      <trkpt lat="47.28747" lon="-0.25271">
        <ele>65.51</ele>
        <time>2013-04-28T07:53:43Z</time>
      </trkpt>
      <trkpt lat="47.28749" lon="-0.25277">
        <ele>65.51</ele>
        <time>2013-04-28T07:53:44Z</time>
      </trkpt>
      <trkpt lat="47.28752" lon="-0.2528">
        <ele>65.99</ele>
        <time>2013-04-28T07:53:45Z</time>
      </trkpt>
      <trkpt lat="47.28756" lon="-0.25283">
        <ele>65.99</ele>
        <time>2013-04-28T07:53:46Z</time>
      </trkpt>
      <trkpt lat="47.28759" lon="-0.25287">
        <ele>65.51</ele>
        <time>2013-04-28T07:53:47Z</time>
      </trkpt>
      <trkpt lat="47.28764" lon="-0.2529">
        <ele>65.51</ele>
        <time>2013-04-28T07:53:48Z</time>
      </trkpt>
      <trkpt lat="47.28768" lon="-0.25294">
        <ele>65.99</ele>
        <time>2013-04-28T07:53:49Z</time>
      </trkpt>
      <trkpt lat="47.28781" lon="-0.2531">
        <ele>65.03</ele>
        <time>2013-04-28T07:53:52Z</time>
      </trkpt>
      <trkpt lat="47.28798" lon="-0.25336">
        <ele>65.03</ele>
        <time>2013-04-28T07:53:56Z</time>
      </trkpt>
      <trkpt lat="47.28803" lon="-0.25341">
        <ele>64.55</ele>
        <time>2013-04-28T07:53:57Z</time>
      </trkpt>
      <trkpt lat="47.28809" lon="-0.25345">
        <ele>64.07</ele>
        <time>2013-04-28T07:53:58Z</time>
      </trkpt>
      <trkpt lat="47.28815" lon="-0.25348">
        <ele>64.07</ele>
        <time>2013-04-28T07:53:59Z</time>
      </trkpt>
      <trkpt lat="47.28821" lon="-0.25349">
        <ele>64.07</ele>
        <time>2013-04-28T07:54:00Z</time>
      </trkpt>
      <trkpt lat="47.28827" lon="-0.2535">
        <ele>64.55</ele>
        <time>2013-04-28T07:54:01Z</time>
      </trkpt>
      <trkpt lat="47.28865" lon="-0.25353">
        <ele>63.58</ele>
        <time>2013-04-28T07:54:08Z</time>
      </trkpt>
      <trkpt lat="47.2887" lon="-0.25355">
        <ele>64.55</ele>
        <time>2013-04-28T07:54:09Z</time>
      </trkpt>
      <trkpt lat="47.28874" lon="-0.25358">
        <ele>64.07</ele>
        <time>2013-04-28T07:54:10Z</time>
      </trkpt>
      <trkpt lat="47.28877" lon="-0.25364">
        <ele>64.07</ele>
        <time>2013-04-28T07:54:11Z</time>
      </trkpt>
      <trkpt lat="47.28879" lon="-0.25371">
        <ele>63.1</ele>
        <time>2013-04-28T07:54:12Z</time>
      </trkpt>
      <trkpt lat="47.28878" lon="-0.25379">
        <ele>63.1</ele>
        <time>2013-04-28T07:54:13Z</time>
      </trkpt>
      <trkpt lat="47.28877" lon="-0.25386">
        <ele>63.1</ele>
        <time>2013-04-28T07:54:14Z</time>
      </trkpt>
      <trkpt lat="47.28874" lon="-0.25405">
        <ele>63.58</ele>
        <time>2013-04-28T07:54:17Z</time>
      </trkpt>
      <trkpt lat="47.28875" lon="-0.25411">
        <ele>63.58</ele>
        <time>2013-04-28T07:54:18Z</time>
      </trkpt>
      <trkpt lat="47.28877" lon="-0.25416">
        <ele>64.55</ele>
        <time>2013-04-28T07:54:19Z</time>
      </trkpt>
      <trkpt lat="47.28889" lon="-0.25445">
        <ele>66.95</ele>
        <time>2013-04-28T07:54:25Z</time>
      </trkpt>
      <trkpt lat="47.289" lon="-0.25473">
        <ele>69.83</ele>
        <time>2013-04-28T07:54:31Z</time>
      </trkpt>
      <trkpt lat="47.28915" lon="-0.25506">
        <ele>72.72</ele>
        <time>2013-04-28T07:54:39Z</time>
      </trkpt>
      <trkpt lat="47.2893" lon="-0.2554">
        <ele>74.64</ele>
        <time>2013-04-28T07:54:47Z</time>
      </trkpt>
      <trkpt lat="47.28947" lon="-0.25581">
        <ele>78</ele>
        <time>2013-04-28T07:54:56Z</time>
      </trkpt>
      <trkpt lat="47.28949" lon="-0.25586">
        <ele>78</ele>
        <time>2013-04-28T07:54:57Z</time>
      </trkpt>
      <trkpt lat="47.28965" lon="-0.25626">
        <ele>78.97</ele>
        <time>2013-04-28T07:55:05Z</time>
      </trkpt>
      <trkpt lat="47.28969" lon="-0.25636">
        <ele>80.41</ele>
        <time>2013-04-28T07:55:07Z</time>
      </trkpt>
      <trkpt lat="47.28972" lon="-0.25641">
        <ele>80.41</ele>
        <time>2013-04-28T07:55:08Z</time>
      </trkpt>
      <trkpt lat="47.28975" lon="-0.25644">
        <ele>79.93</ele>
        <time>2013-04-28T07:55:09Z</time>
      </trkpt>
      <trkpt lat="47.28978" lon="-0.25645">
        <ele>80.89</ele>
        <time>2013-04-28T07:55:10Z</time>
      </trkpt>
      <trkpt lat="47.28982" lon="-0.25644">
        <ele>80.41</ele>
        <time>2013-04-28T07:55:11Z</time>
      </trkpt>
      <trkpt lat="47.28986" lon="-0.25641">
        <ele>80.89</ele>
        <time>2013-04-28T07:55:12Z</time>
      </trkpt>
      <trkpt lat="47.2899" lon="-0.25636">
        <ele>79.93</ele>
        <time>2013-04-28T07:55:13Z</time>
      </trkpt>
      <trkpt lat="47.28994" lon="-0.25631">
        <ele>80.89</ele>
        <time>2013-04-28T07:55:14Z</time>
      </trkpt>
      <trkpt lat="47.29027" lon="-0.25593">
        <ele>79.45</ele>
        <time>2013-04-28T07:55:22Z</time>
      </trkpt>
      <trkpt lat="47.29056" lon="-0.2555">
        <ele>80.41</ele>
        <time>2013-04-28T07:55:30Z</time>
      </trkpt>
      <trkpt lat="47.29081" lon="-0.25509">
        <ele>79.45</ele>
        <time>2013-04-28T07:55:38Z</time>
      </trkpt>
      <trkpt lat="47.29086" lon="-0.25505">
        <ele>78.97</ele>
        <time>2013-04-28T07:55:39Z</time>
      </trkpt>
      <trkpt lat="47.2909" lon="-0.25505">
        <ele>78.97</ele>
        <time>2013-04-28T07:55:40Z</time>
      </trkpt>
      <trkpt lat="47.29094" lon="-0.25507">
        <ele>78.97</ele>
        <time>2013-04-28T07:55:41Z</time>
      </trkpt>
      <trkpt lat="47.29098" lon="-0.25512">
        <ele>78.48</ele>
        <time>2013-04-28T07:55:42Z</time>
      </trkpt>
      <trkpt lat="47.29101" lon="-0.25518">
        <ele>78.97</ele>
        <time>2013-04-28T07:55:43Z</time>
      </trkpt>
      <trkpt lat="47.29104" lon="-0.25524">
        <ele>79.45</ele>
        <time>2013-04-28T07:55:44Z</time>
      </trkpt>
      <trkpt lat="47.29106" lon="-0.2553">
        <ele>78.48</ele>
        <time>2013-04-28T07:55:45Z</time>
      </trkpt>
      <trkpt lat="47.29131" lon="-0.25585">
        <ele>80.41</ele>
        <time>2013-04-28T07:55:54Z</time>
      </trkpt>
      <trkpt lat="47.29161" lon="-0.25651">
        <ele>81.37</ele>
        <time>2013-04-28T07:56:05Z</time>
      </trkpt>
      <trkpt lat="47.29189" lon="-0.25712">
        <ele>82.33</ele>
        <time>2013-04-28T07:56:15Z</time>
      </trkpt>
      <trkpt lat="47.29213" lon="-0.25759">
        <ele>83.29</ele>
        <time>2013-04-28T07:56:23Z</time>
      </trkpt>
      <trkpt lat="47.29233" lon="-0.25804">
        <ele>83.77</ele>
        <time>2013-04-28T07:56:31Z</time>
      </trkpt>
      <trkpt lat="47.29239" lon="-0.2581">
        <ele>83.77</ele>
        <time>2013-04-28T07:56:33Z</time>
      </trkpt>
      <trkpt lat="47.29243" lon="-0.25809">
        <ele>83.77</ele>
        <time>2013-04-28T07:56:34Z</time>
      </trkpt>
      <trkpt lat="47.29247" lon="-0.25805">
        <ele>83.77</ele>
        <time>2013-04-28T07:56:35Z</time>
      </trkpt>
      <trkpt lat="47.29251" lon="-0.25801">
        <ele>83.77</ele>
        <time>2013-04-28T07:56:36Z</time>
      </trkpt>
      <trkpt lat="47.29255" lon="-0.25796">
        <ele>83.77</ele>
        <time>2013-04-28T07:56:37Z</time>
      </trkpt>
      <trkpt lat="47.29259" lon="-0.25792">
        <ele>83.29</ele>
        <time>2013-04-28T07:56:38Z</time>
      </trkpt>
      <trkpt lat="47.29297" lon="-0.25751">
        <ele>82.33</ele>
        <time>2013-04-28T07:56:46Z</time>
      </trkpt>
      <trkpt lat="47.29341" lon="-0.25703">
        <ele>80.89</ele>
        <time>2013-04-28T07:56:55Z</time>
      </trkpt>
      <trkpt lat="47.2939" lon="-0.2565">
        <ele>78</ele>
        <time>2013-04-28T07:57:05Z</time>
      </trkpt>
      <trkpt lat="47.29436" lon="-0.256">
        <ele>75.12</ele>
        <time>2013-04-28T07:57:14Z</time>
      </trkpt>
      <trkpt lat="47.29473" lon="-0.25556">
        <ele>72.72</ele>
        <time>2013-04-28T07:57:22Z</time>
      </trkpt>
      <trkpt lat="47.29476" lon="-0.25552">
        <ele>71.76</ele>
        <time>2013-04-28T07:57:23Z</time>
      </trkpt>
      <trkpt lat="47.29479" lon="-0.25549">
        <ele>71.27</ele>
        <time>2013-04-28T07:57:24Z</time>
      </trkpt>
      <trkpt lat="47.29483" lon="-0.25547">
        <ele>71.27</ele>
        <time>2013-04-28T07:57:25Z</time>
      </trkpt>
      <trkpt lat="47.29487" lon="-0.25548">
        <ele>71.27</ele>
        <time>2013-04-28T07:57:26Z</time>
      </trkpt>
      <trkpt lat="47.2949" lon="-0.2555">
        <ele>70.79</ele>
        <time>2013-04-28T07:57:27Z</time>
      </trkpt>
      <trkpt lat="47.29499" lon="-0.25554">
        <ele>70.79</ele>
        <time>2013-04-28T07:57:29Z</time>
      </trkpt>
      <trkpt lat="47.29503" lon="-0.25556">
        <ele>70.79</ele>
        <time>2013-04-28T07:57:30Z</time>
      </trkpt>
      <trkpt lat="47.29547" lon="-0.25569">
        <ele>68.87</ele>
        <time>2013-04-28T07:57:38Z</time>
      </trkpt>
      <trkpt lat="47.29603" lon="-0.25577">
        <ele>66.47</ele>
        <time>2013-04-28T07:57:46Z</time>
      </trkpt>
      <trkpt lat="47.29626" lon="-0.25579">
        <ele>64.55</ele>
        <time>2013-04-28T07:57:49Z</time>
      </trkpt>
      <trkpt lat="47.29664" lon="-0.25589">
        <ele>63.1</ele>
        <time>2013-04-28T07:57:54Z</time>
      </trkpt>
      <trkpt lat="47.2967" lon="-0.25594">
        <ele>63.1</ele>
        <time>2013-04-28T07:57:55Z</time>
      </trkpt>
      <trkpt lat="47.29674" lon="-0.25602">
        <ele>62.62</ele>
        <time>2013-04-28T07:57:56Z</time>
      </trkpt>
      <trkpt lat="47.29677" lon="-0.2561">
        <ele>62.62</ele>
        <time>2013-04-28T07:57:57Z</time>
      </trkpt>
      <trkpt lat="47.29679" lon="-0.25619">
        <ele>62.14</ele>
        <time>2013-04-28T07:57:58Z</time>
      </trkpt>
      <trkpt lat="47.29684" lon="-0.25635">
        <ele>62.62</ele>
        <time>2013-04-28T07:58:00Z</time>
      </trkpt>
      <trkpt lat="47.29687" lon="-0.25642">
        <ele>62.62</ele>
        <time>2013-04-28T07:58:01Z</time>
      </trkpt>
      <trkpt lat="47.29699" lon="-0.25682">
        <ele>63.58</ele>
        <time>2013-04-28T07:58:06Z</time>
      </trkpt>
      <trkpt lat="47.29701" lon="-0.2569">
        <ele>63.1</ele>
        <time>2013-04-28T07:58:07Z</time>
      </trkpt>
      <trkpt lat="47.29714" lon="-0.25735">
        <ele>65.03</ele>
        <time>2013-04-28T07:58:13Z</time>
      </trkpt>
      <trkpt lat="47.29716" lon="-0.25742">
        <ele>65.51</ele>
        <time>2013-04-28T07:58:14Z</time>
      </trkpt>
      <trkpt lat="47.29721" lon="-0.25765">
        <ele>67.91</ele>
        <time>2013-04-28T07:58:18Z</time>
      </trkpt>
      <trkpt lat="47.29729" lon="-0.25796">
        <ele>71.27</ele>
        <time>2013-04-28T07:58:24Z</time>
      </trkpt>
      <trkpt lat="47.29731" lon="-0.25801">
        <ele>71.76</ele>
        <time>2013-04-28T07:58:25Z</time>
      </trkpt>
      <trkpt lat="47.29732" lon="-0.25805">
        <ele>71.76</ele>
        <time>2013-04-28T07:58:26Z</time>
      </trkpt>
      <trkpt lat="47.29733" lon="-0.25809">
        <ele>73.2</ele>
        <time>2013-04-28T07:58:27Z</time>
      </trkpt>
      <trkpt lat="47.29735" lon="-0.25814">
        <ele>73.68</ele>
        <time>2013-04-28T07:58:28Z</time>
      </trkpt>
      <trkpt lat="47.29736" lon="-0.25818">
        <ele>74.16</ele>
        <time>2013-04-28T07:58:29Z</time>
      </trkpt>
      <trkpt lat="47.29737" lon="-0.25823">
        <ele>74.64</ele>
        <time>2013-04-28T07:58:30Z</time>
      </trkpt>
      <trkpt lat="47.29743" lon="-0.25844">
        <ele>77.52</ele>
        <time>2013-04-28T07:58:35Z</time>
      </trkpt>
      <trkpt lat="47.29744" lon="-0.25848">
        <ele>77.04</ele>
        <time>2013-04-28T07:58:36Z</time>
      </trkpt>
      <trkpt lat="47.2975" lon="-0.25875">
        <ele>80.41</ele>
        <time>2013-04-28T07:58:43Z</time>
      </trkpt>
      <trkpt lat="47.29758" lon="-0.25908">
        <ele>81.85</ele>
        <time>2013-04-28T07:58:51Z</time>
      </trkpt>
      <trkpt lat="47.29772" lon="-0.25953">
        <ele>82.33</ele>
        <time>2013-04-28T07:59:00Z</time>
      </trkpt>
      <trkpt lat="47.29776" lon="-0.25955">
        <ele>82.33</ele>
        <time>2013-04-28T07:59:01Z</time>
      </trkpt>
      <trkpt lat="47.29779" lon="-0.25954">
        <ele>82.33</ele>
        <time>2013-04-28T07:59:02Z</time>
      </trkpt>
      <trkpt lat="47.29802" lon="-0.25941">
        <ele>82.33</ele>
        <time>2013-04-28T07:59:08Z</time>
      </trkpt>
      <trkpt lat="47.29836" lon="-0.25921">
        <ele>80.89</ele>
        <time>2013-04-28T07:59:16Z</time>
      </trkpt>
      <trkpt lat="47.29843" lon="-0.25916">
        <ele>80.41</ele>
        <time>2013-04-28T07:59:18Z</time>
      </trkpt>
      <trkpt lat="47.29847" lon="-0.25914">
        <ele>79.45</ele>
        <time>2013-04-28T07:59:19Z</time>
      </trkpt>
      <trkpt lat="47.29851" lon="-0.25912">
        <ele>79.93</ele>
        <time>2013-04-28T07:59:20Z</time>
      </trkpt>
      <trkpt lat="47.29865" lon="-0.25903">
        <ele>78.97</ele>
        <time>2013-04-28T07:59:24Z</time>
      </trkpt>
      <trkpt lat="47.29877" lon="-0.25892">
        <ele>77.52</ele>
        <time>2013-04-28T07:59:28Z</time>
      </trkpt>
      <trkpt lat="47.29891" lon="-0.25876">
        <ele>75.12</ele>
        <time>2013-04-28T07:59:32Z</time>
      </trkpt>
      <trkpt lat="47.29894" lon="-0.25871">
        <ele>74.16</ele>
        <time>2013-04-28T07:59:33Z</time>
      </trkpt>
      <trkpt lat="47.29898" lon="-0.25867">
        <ele>74.16</ele>
        <time>2013-04-28T07:59:34Z</time>
      </trkpt>
      <trkpt lat="47.29909" lon="-0.25855">
        <ele>69.35</ele>
        <time>2013-04-28T07:59:37Z</time>
      </trkpt>
      <trkpt lat="47.29916" lon="-0.25856">
        <ele>68.39</ele>
        <time>2013-04-28T07:59:39Z</time>
      </trkpt>
      <trkpt lat="47.29923" lon="-0.2586">
        <ele>67.43</ele>
        <time>2013-04-28T07:59:43Z</time>
      </trkpt>
      <trkpt lat="47.29932" lon="-0.25866">
        <ele>68.39</ele>
        <time>2013-04-28T07:59:46Z</time>
      </trkpt>
      <trkpt lat="47.29939" lon="-0.25876">
        <ele>67.91</ele>
        <time>2013-04-28T07:59:49Z</time>
      </trkpt>
      <trkpt lat="47.29941" lon="-0.25879">
        <ele>68.87</ele>
        <time>2013-04-28T07:59:50Z</time>
      </trkpt>
      <trkpt lat="47.29943" lon="-0.25882">
        <ele>68.87</ele>
        <time>2013-04-28T07:59:51Z</time>
      </trkpt>
      <trkpt lat="47.29945" lon="-0.25887">
        <ele>68.87</ele>
        <time>2013-04-28T07:59:52Z</time>
      </trkpt>
      <trkpt lat="47.29946" lon="-0.2589">
        <ele>68.87</ele>
        <time>2013-04-28T07:59:53Z</time>
      </trkpt>
      <trkpt lat="47.29948" lon="-0.25894">
        <ele>68.87</ele>
        <time>2013-04-28T07:59:54Z</time>
      </trkpt>
      <trkpt lat="47.2995" lon="-0.25898">
        <ele>68.87</ele>
        <time>2013-04-28T07:59:55Z</time>
      </trkpt>
      <trkpt lat="47.29952" lon="-0.25901">
        <ele>68.87</ele>
        <time>2013-04-28T07:59:56Z</time>
      </trkpt>
      <trkpt lat="47.29954" lon="-0.25904">
        <ele>68.87</ele>
        <time>2013-04-28T07:59:57Z</time>
      </trkpt>
      <trkpt lat="47.29959" lon="-0.25916">
        <ele>68.87</ele>
        <time>2013-04-28T08:00:00Z</time>
      </trkpt>
      <trkpt lat="47.29962" lon="-0.25929">
        <ele>69.35</ele>
        <time>2013-04-28T08:00:03Z</time>
      </trkpt>
      <trkpt lat="47.29964" lon="-0.25933">
        <ele>68.39</ele>
        <time>2013-04-28T08:00:04Z</time>
      </trkpt>
      <trkpt lat="47.29966" lon="-0.25939">
        <ele>69.35</ele>
        <time>2013-04-28T08:00:05Z</time>
      </trkpt>
      <trkpt lat="47.29974" lon="-0.25966">
        <ele>69.35</ele>
        <time>2013-04-28T08:00:10Z</time>
      </trkpt>
      <trkpt lat="47.29976" lon="-0.25971">
        <ele>69.35</ele>
        <time>2013-04-28T08:00:11Z</time>
      </trkpt>
      <trkpt lat="47.29979" lon="-0.25976">
        <ele>68.87</ele>
        <time>2013-04-28T08:00:12Z</time>
      </trkpt>
      <trkpt lat="47.29986" lon="-0.25993">
        <ele>69.35</ele>
        <time>2013-04-28T08:00:16Z</time>
      </trkpt>
      <trkpt lat="47.29991" lon="-0.26015">
        <ele>70.31</ele>
        <time>2013-04-28T08:00:20Z</time>
      </trkpt>
      <trkpt lat="47.29992" lon="-0.2602">
        <ele>69.83</ele>
        <time>2013-04-28T08:00:21Z</time>
      </trkpt>
      <trkpt lat="47.29999" lon="-0.26053">
        <ele>70.31</ele>
        <time>2013-04-28T08:00:27Z</time>
      </trkpt>
      <trkpt lat="47.30003" lon="-0.26067">
        <ele>71.76</ele>
        <time>2013-04-28T08:00:30Z</time>
      </trkpt>
      <trkpt lat="47.30008" lon="-0.26085">
        <ele>71.76</ele>
        <time>2013-04-28T08:00:34Z</time>
      </trkpt>
      <trkpt lat="47.30017" lon="-0.26123">
        <ele>71.76</ele>
        <time>2013-04-28T08:00:41Z</time>
      </trkpt>
      <trkpt lat="47.3002" lon="-0.26159">
        <ele>71.27</ele>
        <time>2013-04-28T08:00:47Z</time>
      </trkpt>
      <trkpt lat="47.30012" lon="-0.26173">
        <ele>72.24</ele>
        <time>2013-04-28T08:00:51Z</time>
      </trkpt>
      <trkpt lat="47.30002" lon="-0.26183">
        <ele>72.24</ele>
        <time>2013-04-28T08:00:56Z</time>
      </trkpt>
      <trkpt lat="47.29998" lon="-0.26198">
        <ele>67.91</ele>
        <time>2013-04-28T08:01:02Z</time>
      </trkpt>
      <trkpt lat="47.29996" lon="-0.26203">
        <ele>67.91</ele>
        <time>2013-04-28T08:01:03Z</time>
      </trkpt>
      <trkpt lat="47.29997" lon="-0.26212">
        <ele>65.99</ele>
        <time>2013-04-28T08:01:06Z</time>
      </trkpt>
      <trkpt lat="47.30002" lon="-0.26223">
        <ele>64.55</ele>
        <time>2013-04-28T08:01:11Z</time>
      </trkpt>
      <trkpt lat="47.30005" lon="-0.2623">
        <ele>63.58</ele>
        <time>2013-04-28T08:01:13Z</time>
      </trkpt>
      <trkpt lat="47.30008" lon="-0.26239">
        <ele>62.14</ele>
        <time>2013-04-28T08:01:15Z</time>
      </trkpt>
      <trkpt lat="47.30008" lon="-0.26247">
        <ele>60.7</ele>
        <time>2013-04-28T08:01:20Z</time>
      </trkpt>
      <trkpt lat="47.3001" lon="-0.26251">
        <ele>60.22</ele>
        <time>2013-04-28T08:02:23Z</time>
      </trkpt>
      <trkpt lat="47.30011" lon="-0.26252">
        <ele>59.74</ele>
        <time>2013-04-28T08:02:43Z</time>
      </trkpt>
      <trkpt lat="47.30012" lon="-0.26255">
        <ele>59.74</ele>
        <time>2013-04-28T08:02:49Z</time>
      </trkpt>
      <trkpt lat="47.30021" lon="-0.2627">
        <ele>58.78</ele>
        <time>2013-04-28T08:02:55Z</time>
      </trkpt>
      <trkpt lat="47.30029" lon="-0.26284">
        <ele>58.78</ele>
        <time>2013-04-28T08:03:00Z</time>
      </trkpt>
      <trkpt lat="47.30041" lon="-0.26292">
        <ele>58.3</ele>
        <time>2013-04-28T08:03:06Z</time>
      </trkpt>
      <trkpt lat="47.30045" lon="-0.26302">
        <ele>58.3</ele>
        <time>2013-04-28T08:03:09Z</time>
      </trkpt>
      <trkpt lat="47.30042" lon="-0.26315">
        <ele>58.78</ele>
        <time>2013-04-28T08:03:13Z</time>
      </trkpt>
      <trkpt lat="47.30044" lon="-0.2634">
        <ele>59.74</ele>
        <time>2013-04-28T08:03:19Z</time>
      </trkpt>
      <trkpt lat="47.30047" lon="-0.2635">
        <ele>59.74</ele>
        <time>2013-04-28T08:03:22Z</time>
      </trkpt>
      <trkpt lat="47.30057" lon="-0.26361">
        <ele>62.14</ele>
        <time>2013-04-28T08:03:29Z</time>
      </trkpt>
      <trkpt lat="47.30064" lon="-0.2637">
        <ele>64.55</ele>
        <time>2013-04-28T08:03:35Z</time>
      </trkpt>
      <trkpt lat="47.30066" lon="-0.26372">
        <ele>65.51</ele>
        <time>2013-04-28T08:03:37Z</time>
      </trkpt>
      <trkpt lat="47.30071" lon="-0.26379">
        <ele>67.91</ele>
        <time>2013-04-28T08:03:43Z</time>
      </trkpt>
      <trkpt lat="47.30073" lon="-0.26385">
        <ele>69.35</ele>
        <time>2013-04-28T08:03:48Z</time>
      </trkpt>
      <trkpt lat="47.30077" lon="-0.26394">
        <ele>69.83</ele>
        <time>2013-04-28T08:03:55Z</time>
      </trkpt>
      <trkpt lat="47.30078" lon="-0.26397">
        <ele>70.79</ele>
        <time>2013-04-28T08:03:59Z</time>
      </trkpt>
      <trkpt lat="47.30076" lon="-0.26399">
        <ele>70.31</ele>
        <time>2013-04-28T08:04:01Z</time>
      </trkpt>
      <trkpt lat="47.30062" lon="-0.2641">
        <ele>70.31</ele>
        <time>2013-04-28T08:04:09Z</time>
      </trkpt>
      <trkpt lat="47.30046" lon="-0.26419">
        <ele>68.87</ele>
        <time>2013-04-28T08:04:13Z</time>
      </trkpt>
      <trkpt lat="47.3004" lon="-0.26423">
        <ele>67.43</ele>
        <time>2013-04-28T08:04:14Z</time>
      </trkpt>
      <trkpt lat="47.30033" lon="-0.26428">
        <ele>67.43</ele>
        <time>2013-04-28T08:04:15Z</time>
      </trkpt>
      <trkpt lat="47.30012" lon="-0.26443">
        <ele>65.99</ele>
        <time>2013-04-28T08:04:18Z</time>
      </trkpt>
      <trkpt lat="47.29992" lon="-0.26455">
        <ele>64.55</ele>
        <time>2013-04-28T08:04:21Z</time>
      </trkpt>
      <trkpt lat="47.29976" lon="-0.26464">
        <ele>65.99</ele>
        <time>2013-04-28T08:04:25Z</time>
      </trkpt>
      <trkpt lat="47.29967" lon="-0.26469">
        <ele>67.43</ele>
        <time>2013-04-28T08:04:29Z</time>
      </trkpt>
      <trkpt lat="47.2995" lon="-0.26478">
        <ele>70.31</ele>
        <time>2013-04-28T08:04:36Z</time>
      </trkpt>
      <trkpt lat="47.29937" lon="-0.26485">
        <ele>71.76</ele>
        <time>2013-04-28T08:04:42Z</time>
      </trkpt>
      <trkpt lat="47.29925" lon="-0.26491">
        <ele>72.72</ele>
        <time>2013-04-28T08:04:47Z</time>
      </trkpt>
      <trkpt lat="47.29919" lon="-0.26492">
        <ele>73.2</ele>
        <time>2013-04-28T08:04:50Z</time>
      </trkpt>
      <trkpt lat="47.29917" lon="-0.26491">
        <ele>73.2</ele>
        <time>2013-04-28T08:04:51Z</time>
      </trkpt>
      <trkpt lat="47.29915" lon="-0.26489">
        <ele>73.2</ele>
        <time>2013-04-28T08:04:57Z</time>
      </trkpt>
      <trkpt lat="47.29914" lon="-0.26488">
        <ele>73.68</ele>
        <time>2013-04-28T08:06:13Z</time>
      </trkpt>
      <trkpt lat="47.29915" lon="-0.26488">
        <ele>74.16</ele>
        <time>2013-04-28T08:07:15Z</time>
      </trkpt>
      <trkpt lat="47.29914" lon="-0.26487">
        <ele>74.16</ele>
        <time>2013-04-28T08:08:12Z</time>
      </trkpt>
      <trkpt lat="47.29913" lon="-0.26487">
        <ele>75.12</ele>
        <time>2013-04-28T08:10:43Z</time>
      </trkpt>
      <trkpt lat="47.2991" lon="-0.26478">
        <ele>74.64</ele>
        <time>2013-04-28T08:10:49Z</time>
      </trkpt>
      <trkpt lat="47.29909" lon="-0.26469">
        <ele>73.68</ele>
        <time>2013-04-28T08:10:52Z</time>
      </trkpt>
      <trkpt lat="47.29909" lon="-0.26467">
        <ele>74.16</ele>
        <time>2013-04-28T08:10:53Z</time>
      </trkpt>
      <trkpt lat="47.29908" lon="-0.26464">
        <ele>73.68</ele>
        <time>2013-04-28T08:10:54Z</time>
      </trkpt>
      <trkpt lat="47.29907" lon="-0.26463">
        <ele>74.16</ele>
        <time>2013-04-28T08:10:55Z</time>
      </trkpt>
      <trkpt lat="47.29906" lon="-0.26461">
        <ele>73.68</ele>
        <time>2013-04-28T08:10:56Z</time>
      </trkpt>
      <trkpt lat="47.29906" lon="-0.26459">
        <ele>73.2</ele>
        <time>2013-04-28T08:10:57Z</time>
      </trkpt>
      <trkpt lat="47.29903" lon="-0.26452">
        <ele>72.72</ele>
        <time>2013-04-28T08:11:03Z</time>
      </trkpt>
      <trkpt lat="47.29899" lon="-0.26434">
        <ele>72.24</ele>
        <time>2013-04-28T08:11:09Z</time>
      </trkpt>
      <trkpt lat="47.29892" lon="-0.26412">
        <ele>70.79</ele>
        <time>2013-04-28T08:11:12Z</time>
      </trkpt>
      <trkpt lat="47.29884" lon="-0.26382">
        <ele>71.27</ele>
        <time>2013-04-28T08:11:16Z</time>
      </trkpt>
      <trkpt lat="47.29876" lon="-0.26349">
        <ele>72.72</ele>
        <time>2013-04-28T08:11:22Z</time>
      </trkpt>
      <trkpt lat="47.29867" lon="-0.26314">
        <ele>74.16</ele>
        <time>2013-04-28T08:11:28Z</time>
      </trkpt>
      <trkpt lat="47.29864" lon="-0.26302">
        <ele>74.64</ele>
        <time>2013-04-28T08:11:30Z</time>
      </trkpt>
      <trkpt lat="47.29857" lon="-0.26276">
        <ele>76.08</ele>
        <time>2013-04-28T08:11:34Z</time>
      </trkpt>
      <trkpt lat="47.29855" lon="-0.26269">
        <ele>75.6</ele>
        <time>2013-04-28T08:11:35Z</time>
      </trkpt>
      <trkpt lat="47.29841" lon="-0.2622">
        <ele>77.04</ele>
        <time>2013-04-28T08:11:42Z</time>
      </trkpt>
      <trkpt lat="47.29836" lon="-0.262">
        <ele>78.48</ele>
        <time>2013-04-28T08:11:45Z</time>
      </trkpt>
      <trkpt lat="47.29834" lon="-0.26194">
        <ele>78.97</ele>
        <time>2013-04-28T08:11:46Z</time>
      </trkpt>
      <trkpt lat="47.29833" lon="-0.26188">
        <ele>78.48</ele>
        <time>2013-04-28T08:11:47Z</time>
      </trkpt>
      <trkpt lat="47.29827" lon="-0.26164">
        <ele>80.41</ele>
        <time>2013-04-28T08:11:51Z</time>
      </trkpt>
      <trkpt lat="47.29818" lon="-0.26125">
        <ele>81.85</ele>
        <time>2013-04-28T08:11:58Z</time>
      </trkpt>
      <trkpt lat="47.29808" lon="-0.2609">
        <ele>83.29</ele>
        <time>2013-04-28T08:12:05Z</time>
      </trkpt>
      <trkpt lat="47.29795" lon="-0.26039">
        <ele>83.77</ele>
        <time>2013-04-28T08:12:14Z</time>
      </trkpt>
      <trkpt lat="47.29779" lon="-0.25982">
        <ele>83.77</ele>
        <time>2013-04-28T08:12:23Z</time>
      </trkpt>
      <trkpt lat="47.29777" lon="-0.25977">
        <ele>83.29</ele>
        <time>2013-04-28T08:12:24Z</time>
      </trkpt>
      <trkpt lat="47.29774" lon="-0.25973">
        <ele>83.29</ele>
        <time>2013-04-28T08:12:25Z</time>
      </trkpt>
      <trkpt lat="47.29771" lon="-0.25969">
        <ele>83.29</ele>
        <time>2013-04-28T08:12:26Z</time>
      </trkpt>
      <trkpt lat="47.29767" lon="-0.25967">
        <ele>82.81</ele>
        <time>2013-04-28T08:12:27Z</time>
      </trkpt>
      <trkpt lat="47.29762" lon="-0.25967">
        <ele>83.29</ele>
        <time>2013-04-28T08:12:28Z</time>
      </trkpt>
      <trkpt lat="47.29758" lon="-0.25969">
        <ele>82.81</ele>
        <time>2013-04-28T08:12:29Z</time>
      </trkpt>
      <trkpt lat="47.29754" lon="-0.25972">
        <ele>83.29</ele>
        <time>2013-04-28T08:12:30Z</time>
      </trkpt>
      <trkpt lat="47.2975" lon="-0.25974">
        <ele>82.81</ele>
        <time>2013-04-28T08:12:31Z</time>
      </trkpt>
      <trkpt lat="47.29738" lon="-0.2598">
        <ele>83.29</ele>
        <time>2013-04-28T08:12:34Z</time>
      </trkpt>
      <trkpt lat="47.29729" lon="-0.25984">
        <ele>83.29</ele>
        <time>2013-04-28T08:12:36Z</time>
      </trkpt>
      <trkpt lat="47.29724" lon="-0.25986">
        <ele>82.81</ele>
        <time>2013-04-28T08:12:37Z</time>
      </trkpt>
      <trkpt lat="47.2972" lon="-0.25989">
        <ele>83.29</ele>
        <time>2013-04-28T08:12:38Z</time>
      </trkpt>
      <trkpt lat="47.29706" lon="-0.25997">
        <ele>81.85</ele>
        <time>2013-04-28T08:12:41Z</time>
      </trkpt>
      <trkpt lat="47.29676" lon="-0.26018">
        <ele>80.41</ele>
        <time>2013-04-28T08:12:47Z</time>
      </trkpt>
      <trkpt lat="47.2966" lon="-0.26027">
        <ele>81.37</ele>
        <time>2013-04-28T08:12:50Z</time>
      </trkpt>
      <trkpt lat="47.29654" lon="-0.2603">
        <ele>80.41</ele>
        <time>2013-04-28T08:12:51Z</time>
      </trkpt>
      <trkpt lat="47.29637" lon="-0.2604">
        <ele>80.41</ele>
        <time>2013-04-28T08:12:54Z</time>
      </trkpt>
      <trkpt lat="47.29615" lon="-0.26053">
        <ele>81.85</ele>
        <time>2013-04-28T08:12:59Z</time>
      </trkpt>
      <trkpt lat="47.2961" lon="-0.26055">
        <ele>81.37</ele>
        <time>2013-04-28T08:13:00Z</time>
      </trkpt>
      <trkpt lat="47.29606" lon="-0.26056">
        <ele>81.37</ele>
        <time>2013-04-28T08:13:01Z</time>
      </trkpt>
      <trkpt lat="47.29602" lon="-0.26055">
        <ele>81.37</ele>
        <time>2013-04-28T08:13:02Z</time>
      </trkpt>
      <trkpt lat="47.29599" lon="-0.26052">
        <ele>81.37</ele>
        <time>2013-04-28T08:13:03Z</time>
      </trkpt>
      <trkpt lat="47.29597" lon="-0.26047">
        <ele>80.89</ele>
        <time>2013-04-28T08:13:04Z</time>
      </trkpt>
      <trkpt lat="47.29594" lon="-0.26042">
        <ele>80.41</ele>
        <time>2013-04-28T08:13:05Z</time>
      </trkpt>
      <trkpt lat="47.2959" lon="-0.26039">
        <ele>80.89</ele>
        <time>2013-04-28T08:13:06Z</time>
      </trkpt>
      <trkpt lat="47.29586" lon="-0.26038">
        <ele>80.89</ele>
        <time>2013-04-28T08:13:07Z</time>
      </trkpt>
      <trkpt lat="47.29581" lon="-0.2604">
        <ele>80.41</ele>
        <time>2013-04-28T08:13:08Z</time>
      </trkpt>
      <trkpt lat="47.29576" lon="-0.26042">
        <ele>80.89</ele>
        <time>2013-04-28T08:13:09Z</time>
      </trkpt>
      <trkpt lat="47.29571" lon="-0.26042">
        <ele>80.41</ele>
        <time>2013-04-28T08:13:10Z</time>
      </trkpt>
      <trkpt lat="47.29566" lon="-0.26042">
        <ele>80.41</ele>
        <time>2013-04-28T08:13:11Z</time>
      </trkpt>
      <trkpt lat="47.2954" lon="-0.26037">
        <ele>79.93</ele>
        <time>2013-04-28T08:13:16Z</time>
      </trkpt>
      <trkpt lat="47.29535" lon="-0.26039">
        <ele>79.45</ele>
        <time>2013-04-28T08:13:17Z</time>
      </trkpt>
      <trkpt lat="47.29523" lon="-0.2605">
        <ele>78.97</ele>
        <time>2013-04-28T08:13:20Z</time>
      </trkpt>
      <trkpt lat="47.29518" lon="-0.26053">
        <ele>78.48</ele>
        <time>2013-04-28T08:13:21Z</time>
      </trkpt>
      <trkpt lat="47.29509" lon="-0.26058">
        <ele>78</ele>
        <time>2013-04-28T08:13:23Z</time>
      </trkpt>
      <trkpt lat="47.29505" lon="-0.26064">
        <ele>77.52</ele>
        <time>2013-04-28T08:13:24Z</time>
      </trkpt>
      <trkpt lat="47.29499" lon="-0.26069">
        <ele>76.56</ele>
        <time>2013-04-28T08:13:25Z</time>
      </trkpt>
      <trkpt lat="47.29495" lon="-0.26073">
        <ele>75.12</ele>
        <time>2013-04-28T08:13:26Z</time>
      </trkpt>
      <trkpt lat="47.29492" lon="-0.26077">
        <ele>74.16</ele>
        <time>2013-04-28T08:13:27Z</time>
      </trkpt>
      <trkpt lat="47.29491" lon="-0.2608">
        <ele>75.12</ele>
        <time>2013-04-28T08:13:28Z</time>
      </trkpt>
      <trkpt lat="47.2949" lon="-0.26083">
        <ele>74.64</ele>
        <time>2013-04-28T08:13:29Z</time>
      </trkpt>
      <trkpt lat="47.29489" lon="-0.26085">
        <ele>74.64</ele>
        <time>2013-04-28T08:13:30Z</time>
      </trkpt>
      <trkpt lat="47.29485" lon="-0.2609">
        <ele>76.08</ele>
        <time>2013-04-28T08:13:33Z</time>
      </trkpt>
      <trkpt lat="47.29482" lon="-0.26092">
        <ele>76.56</ele>
        <time>2013-04-28T08:13:34Z</time>
      </trkpt>
      <trkpt lat="47.29478" lon="-0.26096">
        <ele>76.08</ele>
        <time>2013-04-28T08:13:35Z</time>
      </trkpt>
      <trkpt lat="47.29461" lon="-0.26116">
        <ele>76.56</ele>
        <time>2013-04-28T08:13:41Z</time>
      </trkpt>
      <trkpt lat="47.29449" lon="-0.26137">
        <ele>77.04</ele>
        <time>2013-04-28T08:13:46Z</time>
      </trkpt>
      <trkpt lat="47.29446" lon="-0.26143">
        <ele>77.04</ele>
        <time>2013-04-28T08:13:47Z</time>
      </trkpt>
      <trkpt lat="47.29442" lon="-0.26149">
        <ele>77.52</ele>
        <time>2013-04-28T08:13:48Z</time>
      </trkpt>
      <trkpt lat="47.29439" lon="-0.26154">
        <ele>76.56</ele>
        <time>2013-04-28T08:13:49Z</time>
      </trkpt>
      <trkpt lat="47.29435" lon="-0.26159">
        <ele>76.56</ele>
        <time>2013-04-28T08:13:50Z</time>
      </trkpt>
      <trkpt lat="47.29432" lon="-0.26165">
        <ele>77.04</ele>
        <time>2013-04-28T08:13:51Z</time>
      </trkpt>
      <trkpt lat="47.29419" lon="-0.26177">
        <ele>76.56</ele>
        <time>2013-04-28T08:13:55Z</time>
      </trkpt>
      <trkpt lat="47.29404" lon="-0.26189">
        <ele>76.56</ele>
        <time>2013-04-28T08:13:59Z</time>
      </trkpt>
      <trkpt lat="47.294" lon="-0.26192">
        <ele>77.04</ele>
        <time>2013-04-28T08:14:00Z</time>
      </trkpt>
      <trkpt lat="47.29396" lon="-0.26194">
        <ele>77.04</ele>
        <time>2013-04-28T08:14:01Z</time>
      </trkpt>
      <trkpt lat="47.29389" lon="-0.26197">
        <ele>77.52</ele>
        <time>2013-04-28T08:14:03Z</time>
      </trkpt>
      <trkpt lat="47.29388" lon="-0.26199">
        <ele>77.04</ele>
        <time>2013-04-28T08:14:04Z</time>
      </trkpt>
      <trkpt lat="47.29381" lon="-0.26205">
        <ele>77.52</ele>
        <time>2013-04-28T08:14:07Z</time>
      </trkpt>
      <trkpt lat="47.29378" lon="-0.26207">
        <ele>78.48</ele>
        <time>2013-04-28T08:14:08Z</time>
      </trkpt>
      <trkpt lat="47.29374" lon="-0.26209">
        <ele>78.97</ele>
        <time>2013-04-28T08:14:09Z</time>
      </trkpt>
      <trkpt lat="47.29371" lon="-0.2621">
        <ele>78.48</ele>
        <time>2013-04-28T08:14:10Z</time>
      </trkpt>
      <trkpt lat="47.29367" lon="-0.26209">
        <ele>79.45</ele>
        <time>2013-04-28T08:14:11Z</time>
      </trkpt>
      <trkpt lat="47.29363" lon="-0.26209">
        <ele>79.93</ele>
        <time>2013-04-28T08:14:12Z</time>
      </trkpt>
      <trkpt lat="47.29359" lon="-0.26208">
        <ele>79.45</ele>
        <time>2013-04-28T08:14:13Z</time>
      </trkpt>
      <trkpt lat="47.29336" lon="-0.26205">
        <ele>78.97</ele>
        <time>2013-04-28T08:14:18Z</time>
      </trkpt>
      <trkpt lat="47.29332" lon="-0.26204">
        <ele>78.48</ele>
        <time>2013-04-28T08:14:19Z</time>
      </trkpt>
      <trkpt lat="47.29327" lon="-0.26203">
        <ele>77.52</ele>
        <time>2013-04-28T08:14:20Z</time>
      </trkpt>
      <trkpt lat="47.29322" lon="-0.26201">
        <ele>77.52</ele>
        <time>2013-04-28T08:14:21Z</time>
      </trkpt>
      <trkpt lat="47.29317" lon="-0.262">
        <ele>78</ele>
        <time>2013-04-28T08:14:22Z</time>
      </trkpt>
      <trkpt lat="47.29307" lon="-0.26197">
        <ele>77.52</ele>
        <time>2013-04-28T08:14:24Z</time>
      </trkpt>
      <trkpt lat="47.29302" lon="-0.26196">
        <ele>77.04</ele>
        <time>2013-04-28T08:14:25Z</time>
      </trkpt>
      <trkpt lat="47.29287" lon="-0.26198">
        <ele>77.52</ele>
        <time>2013-04-28T08:14:29Z</time>
      </trkpt>
      <trkpt lat="47.29285" lon="-0.262">
        <ele>77.04</ele>
        <time>2013-04-28T08:14:30Z</time>
      </trkpt>
      <trkpt lat="47.29283" lon="-0.26203">
        <ele>76.56</ele>
        <time>2013-04-28T08:14:31Z</time>
      </trkpt>
      <trkpt lat="47.2928" lon="-0.26206">
        <ele>77.52</ele>
        <time>2013-04-28T08:14:32Z</time>
      </trkpt>
      <trkpt lat="47.29277" lon="-0.26209">
        <ele>78</ele>
        <time>2013-04-28T08:14:33Z</time>
      </trkpt>
      <trkpt lat="47.29273" lon="-0.26213">
        <ele>78.48</ele>
        <time>2013-04-28T08:14:34Z</time>
      </trkpt>
      <trkpt lat="47.2927" lon="-0.26218">
        <ele>78.48</ele>
        <time>2013-04-28T08:14:35Z</time>
      </trkpt>
      <trkpt lat="47.29266" lon="-0.26223">
        <ele>78.48</ele>
        <time>2013-04-28T08:14:36Z</time>
      </trkpt>
      <trkpt lat="47.29263" lon="-0.26228">
        <ele>78.48</ele>
        <time>2013-04-28T08:14:37Z</time>
      </trkpt>
      <trkpt lat="47.2926" lon="-0.26234">
        <ele>78.48</ele>
        <time>2013-04-28T08:14:38Z</time>
      </trkpt>
      <trkpt lat="47.29257" lon="-0.26239">
        <ele>78.97</ele>
        <time>2013-04-28T08:14:39Z</time>
      </trkpt>
      <trkpt lat="47.29254" lon="-0.26244">
        <ele>78.97</ele>
        <time>2013-04-28T08:14:40Z</time>
      </trkpt>
      <trkpt lat="47.29251" lon="-0.26249">
        <ele>78.97</ele>
        <time>2013-04-28T08:14:41Z</time>
      </trkpt>
      <trkpt lat="47.2925" lon="-0.26254">
        <ele>78.97</ele>
        <time>2013-04-28T08:14:42Z</time>
      </trkpt>
      <trkpt lat="47.29248" lon="-0.26257">
        <ele>78.97</ele>
        <time>2013-04-28T08:14:43Z</time>
      </trkpt>
      <trkpt lat="47.29246" lon="-0.26261">
        <ele>78.97</ele>
        <time>2013-04-28T08:14:44Z</time>
      </trkpt>
      <trkpt lat="47.29245" lon="-0.26265">
        <ele>79.93</ele>
        <time>2013-04-28T08:14:45Z</time>
      </trkpt>
      <trkpt lat="47.29244" lon="-0.26269">
        <ele>79.93</ele>
        <time>2013-04-28T08:14:46Z</time>
      </trkpt>
      <trkpt lat="47.29244" lon="-0.26274">
        <ele>79.93</ele>
        <time>2013-04-28T08:14:47Z</time>
      </trkpt>
      <trkpt lat="47.29242" lon="-0.26277">
        <ele>80.41</ele>
        <time>2013-04-28T08:14:48Z</time>
      </trkpt>
      <trkpt lat="47.29239" lon="-0.26281">
        <ele>79.93</ele>
        <time>2013-04-28T08:14:49Z</time>
      </trkpt>
      <trkpt lat="47.29236" lon="-0.26282">
        <ele>80.41</ele>
        <time>2013-04-28T08:14:50Z</time>
      </trkpt>
      <trkpt lat="47.29233" lon="-0.26284">
        <ele>79.93</ele>
        <time>2013-04-28T08:14:51Z</time>
      </trkpt>
      <trkpt lat="47.2923" lon="-0.26287">
        <ele>80.41</ele>
        <time>2013-04-28T08:14:52Z</time>
      </trkpt>
      <trkpt lat="47.29228" lon="-0.26291">
        <ele>80.41</ele>
        <time>2013-04-28T08:14:53Z</time>
      </trkpt>
      <trkpt lat="47.29226" lon="-0.26296">
        <ele>80.41</ele>
        <time>2013-04-28T08:14:54Z</time>
      </trkpt>
      <trkpt lat="47.29212" lon="-0.26318">
        <ele>80.41</ele>
        <time>2013-04-28T08:14:59Z</time>
      </trkpt>
      <trkpt lat="47.29199" lon="-0.26342">
        <ele>81.37</ele>
        <time>2013-04-28T08:15:04Z</time>
      </trkpt>
      <trkpt lat="47.29185" lon="-0.2637">
        <ele>81.85</ele>
        <time>2013-04-28T08:15:10Z</time>
      </trkpt>
      <trkpt lat="47.29177" lon="-0.26388">
        <ele>82.33</ele>
        <time>2013-04-28T08:15:14Z</time>
      </trkpt>
      <trkpt lat="47.29173" lon="-0.26398">
        <ele>81.37</ele>
        <time>2013-04-28T08:15:16Z</time>
      </trkpt>
      <trkpt lat="47.29171" lon="-0.26402">
        <ele>81.85</ele>
        <time>2013-04-28T08:15:17Z</time>
      </trkpt>
      <trkpt lat="47.29168" lon="-0.26406">
        <ele>81.85</ele>
        <time>2013-04-28T08:15:18Z</time>
      </trkpt>
      <trkpt lat="47.29166" lon="-0.26411">
        <ele>81.85</ele>
        <time>2013-04-28T08:15:19Z</time>
      </trkpt>
      <trkpt lat="47.29163" lon="-0.26414">
        <ele>81.85</ele>
        <time>2013-04-28T08:15:20Z</time>
      </trkpt>
      <trkpt lat="47.29161" lon="-0.26418">
        <ele>81.85</ele>
        <time>2013-04-28T08:15:21Z</time>
      </trkpt>
      <trkpt lat="47.29158" lon="-0.2642">
        <ele>81.85</ele>
        <time>2013-04-28T08:15:22Z</time>
      </trkpt>
      <trkpt lat="47.29155" lon="-0.26422">
        <ele>81.85</ele>
        <time>2013-04-28T08:15:23Z</time>
      </trkpt>
      <trkpt lat="47.29153" lon="-0.26424">
        <ele>81.85</ele>
        <time>2013-04-28T08:15:24Z</time>
      </trkpt>
      <trkpt lat="47.29151" lon="-0.26426">
        <ele>82.81</ele>
        <time>2013-04-28T08:15:25Z</time>
      </trkpt>
      <trkpt lat="47.29148" lon="-0.26429">
        <ele>81.85</ele>
        <time>2013-04-28T08:15:26Z</time>
      </trkpt>
      <trkpt lat="47.29146" lon="-0.26432">
        <ele>81.85</ele>
        <time>2013-04-28T08:15:27Z</time>
      </trkpt>
      <trkpt lat="47.29143" lon="-0.26435">
        <ele>82.33</ele>
        <time>2013-04-28T08:15:28Z</time>
      </trkpt>
      <trkpt lat="47.29141" lon="-0.26437">
        <ele>82.33</ele>
        <time>2013-04-28T08:15:29Z</time>
      </trkpt>
      <trkpt lat="47.29138" lon="-0.26439">
        <ele>82.33</ele>
        <time>2013-04-28T08:15:30Z</time>
      </trkpt>
      <trkpt lat="47.29125" lon="-0.26453">
        <ele>82.33</ele>
        <time>2013-04-28T08:15:36Z</time>
      </trkpt>
      <trkpt lat="47.29113" lon="-0.26462">
        <ele>82.33</ele>
        <time>2013-04-28T08:15:42Z</time>
      </trkpt>
      <trkpt lat="47.29098" lon="-0.26469">
        <ele>83.29</ele>
        <time>2013-04-28T08:15:49Z</time>
      </trkpt>
      <trkpt lat="47.2909" lon="-0.26477">
        <ele>82.81</ele>
        <time>2013-04-28T08:15:55Z</time>
      </trkpt>
      <trkpt lat="47.29087" lon="-0.2648">
        <ele>83.77</ele>
        <time>2013-04-28T08:15:57Z</time>
      </trkpt>
      <trkpt lat="47.29086" lon="-0.26481">
        <ele>83.29</ele>
        <time>2013-04-28T08:15:58Z</time>
      </trkpt>
      <trkpt lat="47.29085" lon="-0.26483">
        <ele>82.81</ele>
        <time>2013-04-28T08:15:59Z</time>
      </trkpt>
      <trkpt lat="47.29082" lon="-0.26487">
        <ele>83.77</ele>
        <time>2013-04-28T08:16:05Z</time>
      </trkpt>
      <trkpt lat="47.2908" lon="-0.2649">
        <ele>83.29</ele>
        <time>2013-04-28T08:16:10Z</time>
      </trkpt>
      <trkpt lat="47.29071" lon="-0.26494">
        <ele>83.77</ele>
        <time>2013-04-28T08:16:17Z</time>
      </trkpt>
      <trkpt lat="47.29067" lon="-0.26496">
        <ele>83.77</ele>
        <time>2013-04-28T08:16:24Z</time>
      </trkpt>
      <trkpt lat="47.29062" lon="-0.26499">
        <ele>83.77</ele>
        <time>2013-04-28T08:16:31Z</time>
      </trkpt>
      <trkpt lat="47.29061" lon="-0.265">
        <ele>83.77</ele>
        <time>2013-04-28T08:16:32Z</time>
      </trkpt>
      <trkpt lat="47.2906" lon="-0.265">
        <ele>83.77</ele>
        <time>2013-04-28T08:16:33Z</time>
      </trkpt>
      <trkpt lat="47.29059" lon="-0.26501">
        <ele>84.25</ele>
        <time>2013-04-28T08:16:34Z</time>
      </trkpt>
      <trkpt lat="47.29056" lon="-0.26502">
        <ele>83.77</ele>
        <time>2013-04-28T08:16:36Z</time>
      </trkpt>
      <trkpt lat="47.29044" lon="-0.26512">
        <ele>84.25</ele>
        <time>2013-04-28T08:16:43Z</time>
      </trkpt>
      <trkpt lat="47.29037" lon="-0.26519">
        <ele>84.73</ele>
        <time>2013-04-28T08:16:50Z</time>
      </trkpt>
      <trkpt lat="47.2903" lon="-0.26524">
        <ele>84.73</ele>
        <time>2013-04-28T08:16:56Z</time>
      </trkpt>
      <trkpt lat="47.29027" lon="-0.26526">
        <ele>84.73</ele>
        <time>2013-04-28T08:16:58Z</time>
      </trkpt>
      <trkpt lat="47.29027" lon="-0.26527">
        <ele>85.21</ele>
        <time>2013-04-28T08:16:59Z</time>
      </trkpt>
      <trkpt lat="47.29027" lon="-0.2653">
        <ele>85.21</ele>
        <time>2013-04-28T08:17:00Z</time>
      </trkpt>
      <trkpt lat="47.29028" lon="-0.26532">
        <ele>85.69</ele>
        <time>2013-04-28T08:17:01Z</time>
      </trkpt>
      <trkpt lat="47.29029" lon="-0.26534">
        <ele>85.21</ele>
        <time>2013-04-28T08:17:02Z</time>
      </trkpt>
      <trkpt lat="47.29031" lon="-0.26537">
        <ele>85.21</ele>
        <time>2013-04-28T08:17:03Z</time>
      </trkpt>
      <trkpt lat="47.29037" lon="-0.2655">
        <ele>85.21</ele>
        <time>2013-04-28T08:17:09Z</time>
      </trkpt>
      <trkpt lat="47.29047" lon="-0.26568">
        <ele>85.21</ele>
        <time>2013-04-28T08:17:17Z</time>
      </trkpt>
      <trkpt lat="47.29057" lon="-0.26587">
        <ele>85.21</ele>
        <time>2013-04-28T08:17:23Z</time>
      </trkpt>
      <trkpt lat="47.29066" lon="-0.26605">
        <ele>85.69</ele>
        <time>2013-04-28T08:17:28Z</time>
      </trkpt>
      <trkpt lat="47.29076" lon="-0.26625">
        <ele>86.66</ele>
        <time>2013-04-28T08:17:33Z</time>
      </trkpt>
      <trkpt lat="47.29077" lon="-0.26634">
        <ele>86.66</ele>
        <time>2013-04-28T08:17:35Z</time>
      </trkpt>
      <trkpt lat="47.29076" lon="-0.26639">
        <ele>86.18</ele>
        <time>2013-04-28T08:17:36Z</time>
      </trkpt>
      <trkpt lat="47.29075" lon="-0.26648">
        <ele>86.66</ele>
        <time>2013-04-28T08:17:39Z</time>
      </trkpt>
      <trkpt lat="47.29075" lon="-0.26651">
        <ele>86.66</ele>
        <time>2013-04-28T08:17:40Z</time>
      </trkpt>
      <trkpt lat="47.29077" lon="-0.26653">
        <ele>86.18</ele>
        <time>2013-04-28T08:17:41Z</time>
      </trkpt>
      <trkpt lat="47.29078" lon="-0.26655">
        <ele>87.14</ele>
        <time>2013-04-28T08:17:42Z</time>
      </trkpt>
      <trkpt lat="47.2908" lon="-0.26657">
        <ele>87.14</ele>
        <time>2013-04-28T08:17:43Z</time>
      </trkpt>
      <trkpt lat="47.29082" lon="-0.26659">
        <ele>86.66</ele>
        <time>2013-04-28T08:17:44Z</time>
      </trkpt>
      <trkpt lat="47.29083" lon="-0.26662">
        <ele>86.18</ele>
        <time>2013-04-28T08:17:45Z</time>
      </trkpt>
      <trkpt lat="47.29085" lon="-0.26666">
        <ele>86.18</ele>
        <time>2013-04-28T08:17:46Z</time>
      </trkpt>
      <trkpt lat="47.29087" lon="-0.26669">
        <ele>86.66</ele>
        <time>2013-04-28T08:17:47Z</time>
      </trkpt>
      <trkpt lat="47.29089" lon="-0.26672">
        <ele>86.18</ele>
        <time>2013-04-28T08:17:48Z</time>
      </trkpt>
      <trkpt lat="47.2909" lon="-0.26675">
        <ele>86.66</ele>
        <time>2013-04-28T08:17:49Z</time>
      </trkpt>
      <trkpt lat="47.29107" lon="-0.26694">
        <ele>86.18</ele>
        <time>2013-04-28T08:17:56Z</time>
      </trkpt>
      <trkpt lat="47.29113" lon="-0.26697">
        <ele>85.69</ele>
        <time>2013-04-28T08:17:57Z</time>
      </trkpt>
      <trkpt lat="47.29139" lon="-0.26711">
        <ele>85.69</ele>
        <time>2013-04-28T08:18:03Z</time>
      </trkpt>
      <trkpt lat="47.2915" lon="-0.2672">
        <ele>84.73</ele>
        <time>2013-04-28T08:18:06Z</time>
      </trkpt>
      <trkpt lat="47.29153" lon="-0.26723">
        <ele>84.73</ele>
        <time>2013-04-28T08:18:07Z</time>
      </trkpt>
      <trkpt lat="47.29162" lon="-0.26733">
        <ele>84.73</ele>
        <time>2013-04-28T08:18:09Z</time>
      </trkpt>
      <trkpt lat="47.29167" lon="-0.26739">
        <ele>84.73</ele>
        <time>2013-04-28T08:18:10Z</time>
      </trkpt>
      <trkpt lat="47.29171" lon="-0.26745">
        <ele>83.77</ele>
        <time>2013-04-28T08:18:11Z</time>
      </trkpt>
      <trkpt lat="47.2919" lon="-0.26788">
        <ele>83.77</ele>
        <time>2013-04-28T08:18:18Z</time>
      </trkpt>
      <trkpt lat="47.29193" lon="-0.26794">
        <ele>83.29</ele>
        <time>2013-04-28T08:18:19Z</time>
      </trkpt>
      <trkpt lat="47.29205" lon="-0.26823">
        <ele>83.29</ele>
        <time>2013-04-28T08:18:24Z</time>
      </trkpt>
      <trkpt lat="47.29217" lon="-0.26845">
        <ele>83.29</ele>
        <time>2013-04-28T08:18:28Z</time>
      </trkpt>
      <trkpt lat="47.29245" lon="-0.26881">
        <ele>81.37</ele>
        <time>2013-04-28T08:18:36Z</time>
      </trkpt>
      <trkpt lat="47.29259" lon="-0.26899">
        <ele>81.85</ele>
        <time>2013-04-28T08:18:41Z</time>
      </trkpt>
      <trkpt lat="47.29272" lon="-0.26922">
        <ele>81.37</ele>
        <time>2013-04-28T08:18:45Z</time>
      </trkpt>
      <trkpt lat="47.29276" lon="-0.26927">
        <ele>81.85</ele>
        <time>2013-04-28T08:18:46Z</time>
      </trkpt>
      <trkpt lat="47.29279" lon="-0.26929">
        <ele>81.37</ele>
        <time>2013-04-28T08:18:47Z</time>
      </trkpt>
      <trkpt lat="47.29283" lon="-0.26932">
        <ele>80.89</ele>
        <time>2013-04-28T08:18:48Z</time>
      </trkpt>
      <trkpt lat="47.29288" lon="-0.26934">
        <ele>80.89</ele>
        <time>2013-04-28T08:18:49Z</time>
      </trkpt>
      <trkpt lat="47.29293" lon="-0.26936">
        <ele>80.89</ele>
        <time>2013-04-28T08:18:50Z</time>
      </trkpt>
      <trkpt lat="47.29296" lon="-0.26938">
        <ele>80.41</ele>
        <time>2013-04-28T08:18:51Z</time>
      </trkpt>
      <trkpt lat="47.29309" lon="-0.26951">
        <ele>79.45</ele>
        <time>2013-04-28T08:18:55Z</time>
      </trkpt>
      <trkpt lat="47.29312" lon="-0.26954">
        <ele>79.93</ele>
        <time>2013-04-28T08:18:56Z</time>
      </trkpt>
      <trkpt lat="47.29329" lon="-0.26967">
        <ele>79.45</ele>
        <time>2013-04-28T08:19:00Z</time>
      </trkpt>
      <trkpt lat="47.29352" lon="-0.26982">
        <ele>79.93</ele>
        <time>2013-04-28T08:19:06Z</time>
      </trkpt>
      <trkpt lat="47.29376" lon="-0.26997">
        <ele>79.45</ele>
        <time>2013-04-28T08:19:11Z</time>
      </trkpt>
      <trkpt lat="47.29402" lon="-0.27008">
        <ele>78</ele>
        <time>2013-04-28T08:19:16Z</time>
      </trkpt>
      <trkpt lat="47.29406" lon="-0.27009">
        <ele>77.52</ele>
        <time>2013-04-28T08:19:17Z</time>
      </trkpt>
      <trkpt lat="47.29425" lon="-0.27007">
        <ele>76.08</ele>
        <time>2013-04-28T08:19:21Z</time>
      </trkpt>
      <trkpt lat="47.2943" lon="-0.27004">
        <ele>75.6</ele>
        <time>2013-04-28T08:19:22Z</time>
      </trkpt>
      <trkpt lat="47.29437" lon="-0.27003">
        <ele>74.64</ele>
        <time>2013-04-28T08:19:23Z</time>
      </trkpt>
      <trkpt lat="47.29442" lon="-0.27003">
        <ele>73.68</ele>
        <time>2013-04-28T08:19:24Z</time>
      </trkpt>
      <trkpt lat="47.29448" lon="-0.27005">
        <ele>73.2</ele>
        <time>2013-04-28T08:19:25Z</time>
      </trkpt>
      <trkpt lat="47.29454" lon="-0.27009">
        <ele>73.2</ele>
        <time>2013-04-28T08:19:26Z</time>
      </trkpt>
      <trkpt lat="47.29461" lon="-0.27013">
        <ele>73.2</ele>
        <time>2013-04-28T08:19:27Z</time>
      </trkpt>
      <trkpt lat="47.29468" lon="-0.27019">
        <ele>72.24</ele>
        <time>2013-04-28T08:19:28Z</time>
      </trkpt>
      <trkpt lat="47.29481" lon="-0.2703">
        <ele>71.27</ele>
        <time>2013-04-28T08:19:30Z</time>
      </trkpt>
      <trkpt lat="47.29487" lon="-0.27035">
        <ele>70.79</ele>
        <time>2013-04-28T08:19:31Z</time>
      </trkpt>
      <trkpt lat="47.29493" lon="-0.27039">
        <ele>70.79</ele>
        <time>2013-04-28T08:19:32Z</time>
      </trkpt>
      <trkpt lat="47.295" lon="-0.27042">
        <ele>70.31</ele>
        <time>2013-04-28T08:19:33Z</time>
      </trkpt>
      <trkpt lat="47.29511" lon="-0.27045">
        <ele>70.31</ele>
        <time>2013-04-28T08:19:35Z</time>
      </trkpt>
      <trkpt lat="47.29515" lon="-0.27049">
        <ele>70.31</ele>
        <time>2013-04-28T08:19:36Z</time>
      </trkpt>
      <trkpt lat="47.29519" lon="-0.27054">
        <ele>69.83</ele>
        <time>2013-04-28T08:19:37Z</time>
      </trkpt>
      <trkpt lat="47.29522" lon="-0.27061">
        <ele>70.31</ele>
        <time>2013-04-28T08:19:38Z</time>
      </trkpt>
      <trkpt lat="47.29526" lon="-0.27068">
        <ele>69.35</ele>
        <time>2013-04-28T08:19:39Z</time>
      </trkpt>
      <trkpt lat="47.29541" lon="-0.27085">
        <ele>68.39</ele>
        <time>2013-04-28T08:19:43Z</time>
      </trkpt>
      <trkpt lat="47.29545" lon="-0.27088">
        <ele>68.39</ele>
        <time>2013-04-28T08:19:44Z</time>
      </trkpt>
      <trkpt lat="47.29548" lon="-0.27093">
        <ele>68.39</ele>
        <time>2013-04-28T08:19:45Z</time>
      </trkpt>
      <trkpt lat="47.29562" lon="-0.27127">
        <ele>67.91</ele>
        <time>2013-04-28T08:19:49Z</time>
      </trkpt>
      <trkpt lat="47.29589" lon="-0.27167">
        <ele>66.47</ele>
        <time>2013-04-28T08:19:55Z</time>
      </trkpt>
      <trkpt lat="47.29593" lon="-0.27172">
        <ele>66.95</ele>
        <time>2013-04-28T08:19:56Z</time>
      </trkpt>
      <trkpt lat="47.29597" lon="-0.27178">
        <ele>66.95</ele>
        <time>2013-04-28T08:19:57Z</time>
      </trkpt>
      <trkpt lat="47.29602" lon="-0.27184">
        <ele>66.47</ele>
        <time>2013-04-28T08:19:58Z</time>
      </trkpt>
      <trkpt lat="47.29607" lon="-0.27188">
        <ele>65.99</ele>
        <time>2013-04-28T08:19:59Z</time>
      </trkpt>
      <trkpt lat="47.29611" lon="-0.27193">
        <ele>65.99</ele>
        <time>2013-04-28T08:20:00Z</time>
      </trkpt>
      <trkpt lat="47.29617" lon="-0.27199">
        <ele>65.51</ele>
        <time>2013-04-28T08:20:01Z</time>
      </trkpt>
      <trkpt lat="47.29627" lon="-0.27211">
        <ele>65.51</ele>
        <time>2013-04-28T08:20:03Z</time>
      </trkpt>
      <trkpt lat="47.29649" lon="-0.27236">
        <ele>65.03</ele>
        <time>2013-04-28T08:20:08Z</time>
      </trkpt>
      <trkpt lat="47.29657" lon="-0.27248">
        <ele>64.55</ele>
        <time>2013-04-28T08:20:10Z</time>
      </trkpt>
      <trkpt lat="47.29663" lon="-0.27259">
        <ele>64.07</ele>
        <time>2013-04-28T08:20:12Z</time>
      </trkpt>
      <trkpt lat="47.29666" lon="-0.27263">
        <ele>63.58</ele>
        <time>2013-04-28T08:20:13Z</time>
      </trkpt>
      <trkpt lat="47.2967" lon="-0.27265">
        <ele>64.07</ele>
        <time>2013-04-28T08:20:14Z</time>
      </trkpt>
      <trkpt lat="47.29673" lon="-0.27263">
        <ele>63.58</ele>
        <time>2013-04-28T08:20:15Z</time>
      </trkpt>
      <trkpt lat="47.29675" lon="-0.27261">
        <ele>64.07</ele>
        <time>2013-04-28T08:20:16Z</time>
      </trkpt>
      <trkpt lat="47.29677" lon="-0.27259">
        <ele>64.55</ele>
        <time>2013-04-28T08:20:17Z</time>
      </trkpt>
      <trkpt lat="47.2968" lon="-0.27257">
        <ele>64.55</ele>
        <time>2013-04-28T08:20:18Z</time>
      </trkpt>
      <trkpt lat="47.29682" lon="-0.27256">
        <ele>64.55</ele>
        <time>2013-04-28T08:20:19Z</time>
      </trkpt>
      <trkpt lat="47.29685" lon="-0.27256">
        <ele>64.55</ele>
        <time>2013-04-28T08:20:20Z</time>
      </trkpt>
      <trkpt lat="47.29687" lon="-0.27258">
        <ele>65.03</ele>
        <time>2013-04-28T08:20:21Z</time>
      </trkpt>
      <trkpt lat="47.2969" lon="-0.27259">
        <ele>64.55</ele>
        <time>2013-04-28T08:20:22Z</time>
      </trkpt>
      <trkpt lat="47.29692" lon="-0.27262">
        <ele>64.55</ele>
        <time>2013-04-28T08:20:23Z</time>
      </trkpt>
      <trkpt lat="47.29694" lon="-0.27265">
        <ele>65.03</ele>
        <time>2013-04-28T08:20:24Z</time>
      </trkpt>
      <trkpt lat="47.29696" lon="-0.27268">
        <ele>65.03</ele>
        <time>2013-04-28T08:20:25Z</time>
      </trkpt>
      <trkpt lat="47.29697" lon="-0.27271">
        <ele>65.03</ele>
        <time>2013-04-28T08:20:26Z</time>
      </trkpt>
      <trkpt lat="47.29699" lon="-0.27274">
        <ele>64.55</ele>
        <time>2013-04-28T08:20:27Z</time>
      </trkpt>
      <trkpt lat="47.29701" lon="-0.27274">
        <ele>65.03</ele>
        <time>2013-04-28T08:20:28Z</time>
      </trkpt>
      <trkpt lat="47.29703" lon="-0.27275">
        <ele>65.51</ele>
        <time>2013-04-28T08:20:29Z</time>
      </trkpt>
      <trkpt lat="47.29704" lon="-0.27276">
        <ele>65.03</ele>
        <time>2013-04-28T08:20:30Z</time>
      </trkpt>
      <trkpt lat="47.29706" lon="-0.27275">
        <ele>65.03</ele>
        <time>2013-04-28T08:20:31Z</time>
      </trkpt>
      <trkpt lat="47.29709" lon="-0.27275">
        <ele>65.03</ele>
        <time>2013-04-28T08:20:35Z</time>
      </trkpt>
      <trkpt lat="47.29711" lon="-0.27278">
        <ele>64.55</ele>
        <time>2013-04-28T08:20:41Z</time>
      </trkpt>
      <trkpt lat="47.29711" lon="-0.27277">
        <ele>63.58</ele>
        <time>2013-04-28T08:22:55Z</time>
      </trkpt>
      <trkpt lat="47.29711" lon="-0.27278">
        <ele>63.58</ele>
        <time>2013-04-28T08:23:57Z</time>
      </trkpt>
      <trkpt lat="47.29712" lon="-0.27278">
        <ele>63.58</ele>
        <time>2013-04-28T08:24:45Z</time>
      </trkpt>
      <trkpt lat="47.29714" lon="-0.27278">
        <ele>65.03</ele>
        <time>2013-04-28T08:29:44Z</time>
      </trkpt>
      <trkpt lat="47.29713" lon="-0.27273">
        <ele>65.51</ele>
        <time>2013-04-28T08:29:52Z</time>
      </trkpt>
      <trkpt lat="47.29715" lon="-0.27274">
        <ele>65.03</ele>
        <time>2013-04-28T08:30:12Z</time>
      </trkpt>
      <trkpt lat="47.29713" lon="-0.27273">
        <ele>64.07</ele>
        <time>2013-04-28T08:30:59Z</time>
      </trkpt>
      <trkpt lat="47.29713" lon="-0.27274">
        <ele>65.03</ele>
        <time>2013-04-28T08:33:05Z</time>
      </trkpt>
      <trkpt lat="47.29713" lon="-0.27275">
        <ele>65.03</ele>
        <time>2013-04-28T08:33:38Z</time>
      </trkpt>
      <trkpt lat="47.29713" lon="-0.27274">
        <ele>65.03</ele>
        <time>2013-04-28T08:34:22Z</time>
      </trkpt>
      <trkpt lat="47.29712" lon="-0.27273">
        <ele>64.55</ele>
        <time>2013-04-28T08:34:40Z</time>
      </trkpt>
      <trkpt lat="47.29711" lon="-0.27273">
        <ele>65.03</ele>
        <time>2013-04-28T08:34:41Z</time>
      </trkpt>
      <trkpt lat="47.29709" lon="-0.27274">
        <ele>65.51</ele>
        <time>2013-04-28T08:34:42Z</time>
      </trkpt>
      <trkpt lat="47.29708" lon="-0.27274">
        <ele>65.51</ele>
        <time>2013-04-28T08:34:43Z</time>
      </trkpt>
      <trkpt lat="47.29706" lon="-0.27276">
        <ele>65.03</ele>
        <time>2013-04-28T08:34:44Z</time>
      </trkpt>
      <trkpt lat="47.29705" lon="-0.27277">
        <ele>64.55</ele>
        <time>2013-04-28T08:34:45Z</time>
      </trkpt>
      <trkpt lat="47.29704" lon="-0.27278">
        <ele>64.55</ele>
        <time>2013-04-28T08:34:46Z</time>
      </trkpt>
      <trkpt lat="47.29703" lon="-0.27279">
        <ele>64.07</ele>
        <time>2013-04-28T08:34:47Z</time>
      </trkpt>
      <trkpt lat="47.29701" lon="-0.2728">
        <ele>64.55</ele>
        <time>2013-04-28T08:34:48Z</time>
      </trkpt>
      <trkpt lat="47.29684" lon="-0.2729">
        <ele>63.58</ele>
        <time>2013-04-28T08:34:54Z</time>
      </trkpt>
      <trkpt lat="47.29676" lon="-0.27295">
        <ele>64.55</ele>
        <time>2013-04-28T08:34:56Z</time>
      </trkpt>
      <trkpt lat="47.2965" lon="-0.27312">
        <ele>63.58</ele>
        <time>2013-04-28T08:35:02Z</time>
      </trkpt>
      <trkpt lat="47.29645" lon="-0.27314">
        <ele>63.1</ele>
        <time>2013-04-28T08:35:03Z</time>
      </trkpt>
      <trkpt lat="47.29641" lon="-0.27316">
        <ele>63.1</ele>
        <time>2013-04-28T08:35:04Z</time>
      </trkpt>
      <trkpt lat="47.29622" lon="-0.27325">
        <ele>63.58</ele>
        <time>2013-04-28T08:35:08Z</time>
      </trkpt>
      <trkpt lat="47.29618" lon="-0.27328">
        <ele>63.1</ele>
        <time>2013-04-28T08:35:09Z</time>
      </trkpt>
      <trkpt lat="47.29614" lon="-0.2733">
        <ele>63.58</ele>
        <time>2013-04-28T08:35:10Z</time>
      </trkpt>
      <trkpt lat="47.29609" lon="-0.27333">
        <ele>63.58</ele>
        <time>2013-04-28T08:35:11Z</time>
      </trkpt>
      <trkpt lat="47.29605" lon="-0.27335">
        <ele>63.1</ele>
        <time>2013-04-28T08:35:12Z</time>
      </trkpt>
      <trkpt lat="47.29601" lon="-0.27338">
        <ele>63.1</ele>
        <time>2013-04-28T08:35:13Z</time>
      </trkpt>
      <trkpt lat="47.29597" lon="-0.2734">
        <ele>63.58</ele>
        <time>2013-04-28T08:35:14Z</time>
      </trkpt>
      <trkpt lat="47.29556" lon="-0.27364">
        <ele>63.1</ele>
        <time>2013-04-28T08:35:23Z</time>
      </trkpt>
      <trkpt lat="47.29531" lon="-0.27381">
        <ele>63.58</ele>
        <time>2013-04-28T08:35:29Z</time>
      </trkpt>
      <trkpt lat="47.2953" lon="-0.27385">
        <ele>63.1</ele>
        <time>2013-04-28T08:35:30Z</time>
      </trkpt>
      <trkpt lat="47.2953" lon="-0.27391">
        <ele>63.58</ele>
        <time>2013-04-28T08:35:31Z</time>
      </trkpt>
      <trkpt lat="47.29538" lon="-0.27425">
        <ele>63.1</ele>
        <time>2013-04-28T08:35:37Z</time>
      </trkpt>
      <trkpt lat="47.29551" lon="-0.27483">
        <ele>66.47</ele>
        <time>2013-04-28T08:35:48Z</time>
      </trkpt>
      <trkpt lat="47.29558" lon="-0.27513">
        <ele>67.91</ele>
        <time>2013-04-28T08:35:56Z</time>
      </trkpt>
      <trkpt lat="47.29566" lon="-0.27541">
        <ele>69.83</ele>
        <time>2013-04-28T08:36:04Z</time>
      </trkpt>
      <trkpt lat="47.29573" lon="-0.27564">
        <ele>71.76</ele>
        <time>2013-04-28T08:36:11Z</time>
      </trkpt>
      <trkpt lat="47.29576" lon="-0.27575">
        <ele>73.2</ele>
        <time>2013-04-28T08:36:15Z</time>
      </trkpt>
      <trkpt lat="47.29581" lon="-0.27598">
        <ele>75.12</ele>
        <time>2013-04-28T08:36:22Z</time>
      </trkpt>
      <trkpt lat="47.29585" lon="-0.27619">
        <ele>76.08</ele>
        <time>2013-04-28T08:36:28Z</time>
      </trkpt>
      <trkpt lat="47.29593" lon="-0.27648">
        <ele>76.56</ele>
        <time>2013-04-28T08:36:34Z</time>
      </trkpt>
      <trkpt lat="47.29602" lon="-0.27677">
        <ele>77.52</ele>
        <time>2013-04-28T08:36:40Z</time>
      </trkpt>
      <trkpt lat="47.29602" lon="-0.27682">
        <ele>77.04</ele>
        <time>2013-04-28T08:36:41Z</time>
      </trkpt>
      <trkpt lat="47.29603" lon="-0.27686">
        <ele>76.56</ele>
        <time>2013-04-28T08:36:42Z</time>
      </trkpt>
      <trkpt lat="47.29604" lon="-0.27691">
        <ele>77.04</ele>
        <time>2013-04-28T08:36:43Z</time>
      </trkpt>
      <trkpt lat="47.29605" lon="-0.27694">
        <ele>77.04</ele>
        <time>2013-04-28T08:36:44Z</time>
      </trkpt>
      <trkpt lat="47.29607" lon="-0.27698">
        <ele>76.56</ele>
        <time>2013-04-28T08:36:45Z</time>
      </trkpt>
      <trkpt lat="47.29609" lon="-0.27702">
        <ele>77.04</ele>
        <time>2013-04-28T08:36:46Z</time>
      </trkpt>
      <trkpt lat="47.29609" lon="-0.27707">
        <ele>77.52</ele>
        <time>2013-04-28T08:36:47Z</time>
      </trkpt>
      <trkpt lat="47.29611" lon="-0.27712">
        <ele>77.52</ele>
        <time>2013-04-28T08:36:48Z</time>
      </trkpt>
      <trkpt lat="47.29612" lon="-0.27718">
        <ele>77.52</ele>
        <time>2013-04-28T08:36:49Z</time>
      </trkpt>
      <trkpt lat="47.29613" lon="-0.27723">
        <ele>77.04</ele>
        <time>2013-04-28T08:36:50Z</time>
      </trkpt>
      <trkpt lat="47.29615" lon="-0.27729">
        <ele>77.52</ele>
        <time>2013-04-28T08:36:51Z</time>
      </trkpt>
      <trkpt lat="47.29616" lon="-0.27734">
        <ele>78</ele>
        <time>2013-04-28T08:36:52Z</time>
      </trkpt>
      <trkpt lat="47.29623" lon="-0.2776">
        <ele>78</ele>
        <time>2013-04-28T08:36:57Z</time>
      </trkpt>
      <trkpt lat="47.29625" lon="-0.27766">
        <ele>77.52</ele>
        <time>2013-04-28T08:36:58Z</time>
      </trkpt>
      <trkpt lat="47.29626" lon="-0.27772">
        <ele>77.52</ele>
        <time>2013-04-28T08:36:59Z</time>
      </trkpt>
      <trkpt lat="47.29636" lon="-0.27806">
        <ele>77.52</ele>
        <time>2013-04-28T08:37:05Z</time>
      </trkpt>
      <trkpt lat="47.29645" lon="-0.27843">
        <ele>77.04</ele>
        <time>2013-04-28T08:37:11Z</time>
      </trkpt>
      <trkpt lat="47.29655" lon="-0.2788">
        <ele>78</ele>
        <time>2013-04-28T08:37:17Z</time>
      </trkpt>
      <trkpt lat="47.29662" lon="-0.27912">
        <ele>79.45</ele>
        <time>2013-04-28T08:37:23Z</time>
      </trkpt>
      <trkpt lat="47.29673" lon="-0.27954">
        <ele>78.97</ele>
        <time>2013-04-28T08:37:30Z</time>
      </trkpt>
      <trkpt lat="47.29681" lon="-0.27988">
        <ele>79.45</ele>
        <time>2013-04-28T08:37:36Z</time>
      </trkpt>
      <trkpt lat="47.29684" lon="-0.27999">
        <ele>78.97</ele>
        <time>2013-04-28T08:37:38Z</time>
      </trkpt>
      <trkpt lat="47.29691" lon="-0.28035">
        <ele>78</ele>
        <time>2013-04-28T08:37:44Z</time>
      </trkpt>
      <trkpt lat="47.29692" lon="-0.28041">
        <ele>78</ele>
        <time>2013-04-28T08:37:45Z</time>
      </trkpt>
      <trkpt lat="47.29694" lon="-0.28048">
        <ele>77.52</ele>
        <time>2013-04-28T08:37:46Z</time>
      </trkpt>
      <trkpt lat="47.29695" lon="-0.28054">
        <ele>77.04</ele>
        <time>2013-04-28T08:37:47Z</time>
      </trkpt>
      <trkpt lat="47.29697" lon="-0.2806">
        <ele>75.6</ele>
        <time>2013-04-28T08:37:48Z</time>
      </trkpt>
      <trkpt lat="47.29699" lon="-0.28067">
        <ele>75.12</ele>
        <time>2013-04-28T08:37:49Z</time>
      </trkpt>
      <trkpt lat="47.29707" lon="-0.28094">
        <ele>71.27</ele>
        <time>2013-04-28T08:37:53Z</time>
      </trkpt>
      <trkpt lat="47.29712" lon="-0.28109">
        <ele>67.91</ele>
        <time>2013-04-28T08:37:55Z</time>
      </trkpt>
      <trkpt lat="47.29717" lon="-0.28132">
        <ele>63.58</ele>
        <time>2013-04-28T08:37:58Z</time>
      </trkpt>
      <trkpt lat="47.29719" lon="-0.28144">
        <ele>61.18</ele>
        <time>2013-04-28T08:38:00Z</time>
      </trkpt>
      <trkpt lat="47.29717" lon="-0.28148">
        <ele>61.18</ele>
        <time>2013-04-28T08:38:01Z</time>
      </trkpt>
      <trkpt lat="47.29704" lon="-0.28168">
        <ele>60.7</ele>
        <time>2013-04-28T08:38:06Z</time>
      </trkpt>
      <trkpt lat="47.29697" lon="-0.2819">
        <ele>60.7</ele>
        <time>2013-04-28T08:38:11Z</time>
      </trkpt>
      <trkpt lat="47.2969" lon="-0.28206">
        <ele>60.7</ele>
        <time>2013-04-28T08:38:14Z</time>
      </trkpt>
      <trkpt lat="47.29688" lon="-0.28212">
        <ele>60.7</ele>
        <time>2013-04-28T08:38:15Z</time>
      </trkpt>
      <trkpt lat="47.29679" lon="-0.28234">
        <ele>61.18</ele>
        <time>2013-04-28T08:38:19Z</time>
      </trkpt>
      <trkpt lat="47.29677" lon="-0.2824">
        <ele>60.7</ele>
        <time>2013-04-28T08:38:20Z</time>
      </trkpt>
      <trkpt lat="47.29672" lon="-0.28271">
        <ele>59.26</ele>
        <time>2013-04-28T08:38:25Z</time>
      </trkpt>
      <trkpt lat="47.2967" lon="-0.28285">
        <ele>58.3</ele>
        <time>2013-04-28T08:38:27Z</time>
      </trkpt>
      <trkpt lat="47.2966" lon="-0.28314">
        <ele>57.82</ele>
        <time>2013-04-28T08:38:32Z</time>
      </trkpt>
      <trkpt lat="47.29658" lon="-0.28329">
        <ele>57.34</ele>
        <time>2013-04-28T08:38:35Z</time>
      </trkpt>
      <trkpt lat="47.29657" lon="-0.28343">
        <ele>57.34</ele>
        <time>2013-04-28T08:38:39Z</time>
      </trkpt>
      <trkpt lat="47.29647" lon="-0.28364">
        <ele>56.86</ele>
        <time>2013-04-28T08:38:44Z</time>
      </trkpt>
      <trkpt lat="47.2964" lon="-0.2837">
        <ele>56.86</ele>
        <time>2013-04-28T08:38:50Z</time>
      </trkpt>
      <trkpt lat="47.29639" lon="-0.28371">
        <ele>56.86</ele>
        <time>2013-04-28T08:38:55Z</time>
      </trkpt>
      <trkpt lat="47.29633" lon="-0.28372">
        <ele>57.34</ele>
        <time>2013-04-28T08:39:00Z</time>
      </trkpt>
      <trkpt lat="47.29631" lon="-0.28372">
        <ele>57.82</ele>
        <time>2013-04-28T08:39:01Z</time>
      </trkpt>
      <trkpt lat="47.2963" lon="-0.28374">
        <ele>56.86</ele>
        <time>2013-04-28T08:39:04Z</time>
      </trkpt>
      <trkpt lat="47.2963" lon="-0.2839">
        <ele>56.86</ele>
        <time>2013-04-28T08:39:10Z</time>
      </trkpt>
      <trkpt lat="47.29631" lon="-0.28394">
        <ele>56.86</ele>
        <time>2013-04-28T08:39:13Z</time>
      </trkpt>
      <trkpt lat="47.29625" lon="-0.28415">
        <ele>56.37</ele>
        <time>2013-04-28T08:39:18Z</time>
      </trkpt>
      <trkpt lat="47.29614" lon="-0.28447">
        <ele>56.86</ele>
        <time>2013-04-28T08:39:25Z</time>
      </trkpt>
      <trkpt lat="47.29596" lon="-0.28475">
        <ele>57.82</ele>
        <time>2013-04-28T08:39:31Z</time>
      </trkpt>
      <trkpt lat="47.29594" lon="-0.28478">
        <ele>57.34</ele>
        <time>2013-04-28T08:39:32Z</time>
      </trkpt>
      <trkpt lat="47.29591" lon="-0.28482">
        <ele>58.3</ele>
        <time>2013-04-28T08:39:33Z</time>
      </trkpt>
      <trkpt lat="47.29588" lon="-0.28483">
        <ele>57.82</ele>
        <time>2013-04-28T08:39:34Z</time>
      </trkpt>
      <trkpt lat="47.29586" lon="-0.28484">
        <ele>56.86</ele>
        <time>2013-04-28T08:39:35Z</time>
      </trkpt>
      <trkpt lat="47.29585" lon="-0.28482">
        <ele>57.34</ele>
        <time>2013-04-28T08:39:36Z</time>
      </trkpt>
      <trkpt lat="47.29579" lon="-0.28468">
        <ele>57.82</ele>
        <time>2013-04-28T08:39:43Z</time>
      </trkpt>
      <trkpt lat="47.29576" lon="-0.28462">
        <ele>58.78</ele>
        <time>2013-04-28T08:39:46Z</time>
      </trkpt>
      <trkpt lat="47.29574" lon="-0.28454">
        <ele>60.22</ele>
        <time>2013-04-28T08:39:50Z</time>
      </trkpt>
      <trkpt lat="47.29573" lon="-0.28452">
        <ele>60.22</ele>
        <time>2013-04-28T08:39:51Z</time>
      </trkpt>
      <trkpt lat="47.29572" lon="-0.28449">
        <ele>60.7</ele>
        <time>2013-04-28T08:39:52Z</time>
      </trkpt>
      <trkpt lat="47.29572" lon="-0.28448">
        <ele>60.22</ele>
        <time>2013-04-28T08:39:53Z</time>
      </trkpt>
      <trkpt lat="47.29569" lon="-0.2844">
        <ele>62.14</ele>
        <time>2013-04-28T08:39:58Z</time>
      </trkpt>
      <trkpt lat="47.29567" lon="-0.28435">
        <ele>63.1</ele>
        <time>2013-04-28T08:40:01Z</time>
      </trkpt>
      <trkpt lat="47.29567" lon="-0.28433">
        <ele>63.1</ele>
        <time>2013-04-28T08:40:02Z</time>
      </trkpt>
      <trkpt lat="47.29564" lon="-0.28426">
        <ele>65.03</ele>
        <time>2013-04-28T08:40:06Z</time>
      </trkpt>
      <trkpt lat="47.29563" lon="-0.28421">
        <ele>65.99</ele>
        <time>2013-04-28T08:40:12Z</time>
      </trkpt>
      <trkpt lat="47.29562" lon="-0.28418">
        <ele>66.47</ele>
        <time>2013-04-28T08:40:19Z</time>
      </trkpt>
      <trkpt lat="47.2956" lon="-0.28411">
        <ele>68.39</ele>
        <time>2013-04-28T08:40:25Z</time>
      </trkpt>
      <trkpt lat="47.29559" lon="-0.28402">
        <ele>69.35</ele>
        <time>2013-04-28T08:40:32Z</time>
      </trkpt>
      <trkpt lat="47.29559" lon="-0.28396">
        <ele>71.76</ele>
        <time>2013-04-28T08:40:39Z</time>
      </trkpt>
      <trkpt lat="47.29557" lon="-0.28389">
        <ele>73.68</ele>
        <time>2013-04-28T08:40:46Z</time>
      </trkpt>
      <trkpt lat="47.29554" lon="-0.28379">
        <ele>74.16</ele>
        <time>2013-04-28T08:40:53Z</time>
      </trkpt>
      <trkpt lat="47.29551" lon="-0.28372">
        <ele>76.08</ele>
        <time>2013-04-28T08:41:00Z</time>
      </trkpt>
      <trkpt lat="47.29549" lon="-0.28373">
        <ele>76.08</ele>
        <time>2013-04-28T08:41:08Z</time>
      </trkpt>
      <trkpt lat="47.29546" lon="-0.28375">
        <ele>76.08</ele>
        <time>2013-04-28T08:41:22Z</time>
      </trkpt>
      <trkpt lat="47.29541" lon="-0.28384">
        <ele>76.08</ele>
        <time>2013-04-28T08:41:28Z</time>
      </trkpt>
      <trkpt lat="47.29538" lon="-0.28388">
        <ele>77.04</ele>
        <time>2013-04-28T08:41:30Z</time>
      </trkpt>
      <trkpt lat="47.2953" lon="-0.284">
        <ele>76.56</ele>
        <time>2013-04-28T08:41:35Z</time>
      </trkpt>
      <trkpt lat="47.2952" lon="-0.28417">
        <ele>78.48</ele>
        <time>2013-04-28T08:41:41Z</time>
      </trkpt>
      <trkpt lat="47.29511" lon="-0.28438">
        <ele>78.48</ele>
        <time>2013-04-28T08:41:47Z</time>
      </trkpt>
      <trkpt lat="47.29503" lon="-0.28452">
        <ele>79.45</ele>
        <time>2013-04-28T08:41:52Z</time>
      </trkpt>
      <trkpt lat="47.29489" lon="-0.28467">
        <ele>79.93</ele>
        <time>2013-04-28T08:41:58Z</time>
      </trkpt>
      <trkpt lat="47.2948" lon="-0.28474">
        <ele>80.41</ele>
        <time>2013-04-28T08:42:02Z</time>
      </trkpt>
      <trkpt lat="47.29465" lon="-0.28496">
        <ele>78.48</ele>
        <time>2013-04-28T08:42:08Z</time>
      </trkpt>
      <trkpt lat="47.29445" lon="-0.28511">
        <ele>78.97</ele>
        <time>2013-04-28T08:42:14Z</time>
      </trkpt>
      <trkpt lat="47.29429" lon="-0.28515">
        <ele>79.93</ele>
        <time>2013-04-28T08:42:19Z</time>
      </trkpt>
      <trkpt lat="47.29426" lon="-0.28515">
        <ele>79.45</ele>
        <time>2013-04-28T08:42:20Z</time>
      </trkpt>
      <trkpt lat="47.29414" lon="-0.28498">
        <ele>79.93</ele>
        <time>2013-04-28T08:42:26Z</time>
      </trkpt>
      <trkpt lat="47.29409" lon="-0.28492">
        <ele>79.45</ele>
        <time>2013-04-28T08:42:28Z</time>
      </trkpt>
      <trkpt lat="47.29396" lon="-0.2849">
        <ele>78.48</ele>
        <time>2013-04-28T08:42:33Z</time>
      </trkpt>
      <trkpt lat="47.29384" lon="-0.285">
        <ele>76.08</ele>
        <time>2013-04-28T08:42:39Z</time>
      </trkpt>
      <trkpt lat="47.29379" lon="-0.28516">
        <ele>71.27</ele>
        <time>2013-04-28T08:42:44Z</time>
      </trkpt>
      <trkpt lat="47.29378" lon="-0.28519">
        <ele>70.79</ele>
        <time>2013-04-28T08:42:45Z</time>
      </trkpt>
      <trkpt lat="47.29375" lon="-0.2853">
        <ele>66.95</ele>
        <time>2013-04-28T08:42:49Z</time>
      </trkpt>
      <trkpt lat="47.29371" lon="-0.28542">
        <ele>64.55</ele>
        <time>2013-04-28T08:42:52Z</time>
      </trkpt>
      <trkpt lat="47.29369" lon="-0.28546">
        <ele>63.58</ele>
        <time>2013-04-28T08:42:53Z</time>
      </trkpt>
      <trkpt lat="47.29368" lon="-0.28549">
        <ele>64.07</ele>
        <time>2013-04-28T08:42:54Z</time>
      </trkpt>
      <trkpt lat="47.29367" lon="-0.28552">
        <ele>63.1</ele>
        <time>2013-04-28T08:42:58Z</time>
      </trkpt>
      <trkpt lat="47.29367" lon="-0.28553">
        <ele>63.58</ele>
        <time>2013-04-28T08:43:56Z</time>
      </trkpt>
      <trkpt lat="47.29372" lon="-0.2857">
        <ele>63.1</ele>
        <time>2013-04-28T08:44:03Z</time>
      </trkpt>
      <trkpt lat="47.29377" lon="-0.28595">
        <ele>63.1</ele>
        <time>2013-04-28T08:44:08Z</time>
      </trkpt>
      <trkpt lat="47.29382" lon="-0.28612">
        <ele>63.1</ele>
        <time>2013-04-28T08:44:11Z</time>
      </trkpt>
      <trkpt lat="47.29384" lon="-0.28618">
        <ele>62.14</ele>
        <time>2013-04-28T08:44:12Z</time>
      </trkpt>
      <trkpt lat="47.29391" lon="-0.28651">
        <ele>60.7</ele>
        <time>2013-04-28T08:44:17Z</time>
      </trkpt>
      <trkpt lat="47.29389" lon="-0.28657">
        <ele>60.7</ele>
        <time>2013-04-28T08:44:18Z</time>
      </trkpt>
      <trkpt lat="47.29386" lon="-0.28662">
        <ele>61.18</ele>
        <time>2013-04-28T08:44:19Z</time>
      </trkpt>
      <trkpt lat="47.29383" lon="-0.28665">
        <ele>60.7</ele>
        <time>2013-04-28T08:44:20Z</time>
      </trkpt>
      <trkpt lat="47.29379" lon="-0.28668">
        <ele>60.7</ele>
        <time>2013-04-28T08:44:21Z</time>
      </trkpt>
      <trkpt lat="47.29375" lon="-0.28671">
        <ele>60.7</ele>
        <time>2013-04-28T08:44:22Z</time>
      </trkpt>
      <trkpt lat="47.29372" lon="-0.28675">
        <ele>60.7</ele>
        <time>2013-04-28T08:44:23Z</time>
      </trkpt>
      <trkpt lat="47.29365" lon="-0.28684">
        <ele>60.7</ele>
        <time>2013-04-28T08:44:25Z</time>
      </trkpt>
      <trkpt lat="47.29342" lon="-0.2871">
        <ele>60.22</ele>
        <time>2013-04-28T08:44:32Z</time>
      </trkpt>
      <trkpt lat="47.29326" lon="-0.28724">
        <ele>61.18</ele>
        <time>2013-04-28T08:44:37Z</time>
      </trkpt>
      <trkpt lat="47.29323" lon="-0.28723">
        <ele>60.7</ele>
        <time>2013-04-28T08:44:38Z</time>
      </trkpt>
      <trkpt lat="47.2932" lon="-0.2872">
        <ele>60.7</ele>
        <time>2013-04-28T08:44:39Z</time>
      </trkpt>
      <trkpt lat="47.2931" lon="-0.28707">
        <ele>61.18</ele>
        <time>2013-04-28T08:44:43Z</time>
      </trkpt>
      <trkpt lat="47.29296" lon="-0.28689">
        <ele>62.62</ele>
        <time>2013-04-28T08:44:49Z</time>
      </trkpt>
      <trkpt lat="47.29293" lon="-0.28687">
        <ele>63.58</ele>
        <time>2013-04-28T08:44:51Z</time>
      </trkpt>
      <trkpt lat="47.2929" lon="-0.28688">
        <ele>64.55</ele>
        <time>2013-04-28T08:44:53Z</time>
      </trkpt>
      <trkpt lat="47.29288" lon="-0.2869">
        <ele>65.03</ele>
        <time>2013-04-28T08:44:54Z</time>
      </trkpt>
      <trkpt lat="47.29286" lon="-0.28692">
        <ele>65.03</ele>
        <time>2013-04-28T08:44:55Z</time>
      </trkpt>
      <trkpt lat="47.29271" lon="-0.28706">
        <ele>64.55</ele>
        <time>2013-04-28T08:45:00Z</time>
      </trkpt>
      <trkpt lat="47.29268" lon="-0.2871">
        <ele>64.55</ele>
        <time>2013-04-28T08:45:01Z</time>
      </trkpt>
      <trkpt lat="47.29265" lon="-0.28714">
        <ele>64.55</ele>
        <time>2013-04-28T08:45:02Z</time>
      </trkpt>
      <trkpt lat="47.29251" lon="-0.28739">
        <ele>65.51</ele>
        <time>2013-04-28T08:45:08Z</time>
      </trkpt>
      <trkpt lat="47.29246" lon="-0.28749">
        <ele>65.03</ele>
        <time>2013-04-28T08:45:10Z</time>
      </trkpt>
      <trkpt lat="47.29243" lon="-0.28753">
        <ele>65.99</ele>
        <time>2013-04-28T08:45:11Z</time>
      </trkpt>
      <trkpt lat="47.29241" lon="-0.28756">
        <ele>65.99</ele>
        <time>2013-04-28T08:45:12Z</time>
      </trkpt>
      <trkpt lat="47.29238" lon="-0.28758">
        <ele>66.47</ele>
        <time>2013-04-28T08:45:13Z</time>
      </trkpt>
      <trkpt lat="47.29236" lon="-0.28761">
        <ele>65.99</ele>
        <time>2013-04-28T08:45:14Z</time>
      </trkpt>
      <trkpt lat="47.29234" lon="-0.28763">
        <ele>66.47</ele>
        <time>2013-04-28T08:45:15Z</time>
      </trkpt>
      <trkpt lat="47.29232" lon="-0.28766">
        <ele>67.43</ele>
        <time>2013-04-28T08:45:16Z</time>
      </trkpt>
      <trkpt lat="47.2923" lon="-0.28769">
        <ele>67.43</ele>
        <time>2013-04-28T08:45:17Z</time>
      </trkpt>
      <trkpt lat="47.29227" lon="-0.28772">
        <ele>67.91</ele>
        <time>2013-04-28T08:45:19Z</time>
      </trkpt>
      <trkpt lat="47.29225" lon="-0.28773">
        <ele>67.91</ele>
        <time>2013-04-28T08:45:20Z</time>
      </trkpt>
      <trkpt lat="47.29223" lon="-0.28774">
        <ele>68.39</ele>
        <time>2013-04-28T08:45:21Z</time>
      </trkpt>
      <trkpt lat="47.29218" lon="-0.2878">
        <ele>68.39</ele>
        <time>2013-04-28T08:45:27Z</time>
      </trkpt>
      <trkpt lat="47.29213" lon="-0.28789">
        <ele>69.83</ele>
        <time>2013-04-28T08:45:33Z</time>
      </trkpt>
      <trkpt lat="47.29211" lon="-0.28786">
        <ele>70.79</ele>
        <time>2013-04-28T08:45:40Z</time>
      </trkpt>
      <trkpt lat="47.2921" lon="-0.28786">
        <ele>71.27</ele>
        <time>2013-04-28T08:45:45Z</time>
      </trkpt>
      <trkpt lat="47.29208" lon="-0.28784">
        <ele>70.79</ele>
        <time>2013-04-28T08:45:47Z</time>
      </trkpt>
      <trkpt lat="47.29207" lon="-0.28782">
        <ele>71.27</ele>
        <time>2013-04-28T08:45:49Z</time>
      </trkpt>
      <trkpt lat="47.29207" lon="-0.2878">
        <ele>72.72</ele>
        <time>2013-04-28T08:45:52Z</time>
      </trkpt>
      <trkpt lat="47.29206" lon="-0.28779">
        <ele>72.24</ele>
        <time>2013-04-28T08:45:53Z</time>
      </trkpt>
      <trkpt lat="47.29205" lon="-0.28777">
        <ele>72.72</ele>
        <time>2013-04-28T08:45:54Z</time>
      </trkpt>
      <trkpt lat="47.29205" lon="-0.28775">
        <ele>73.68</ele>
        <time>2013-04-28T08:45:55Z</time>
      </trkpt>
      <trkpt lat="47.29204" lon="-0.28773">
        <ele>73.2</ele>
        <time>2013-04-28T08:45:56Z</time>
      </trkpt>
      <trkpt lat="47.292" lon="-0.28763">
        <ele>74.64</ele>
        <time>2013-04-28T08:46:02Z</time>
      </trkpt>
      <trkpt lat="47.29199" lon="-0.28761">
        <ele>74.64</ele>
        <time>2013-04-28T08:46:03Z</time>
      </trkpt>
      <trkpt lat="47.29198" lon="-0.28759">
        <ele>75.6</ele>
        <time>2013-04-28T08:46:04Z</time>
      </trkpt>
      <trkpt lat="47.29196" lon="-0.28752">
        <ele>76.56</ele>
        <time>2013-04-28T08:46:07Z</time>
      </trkpt>
      <trkpt lat="47.2919" lon="-0.2874">
        <ele>78</ele>
        <time>2013-04-28T08:46:13Z</time>
      </trkpt>
      <trkpt lat="47.29186" lon="-0.28725">
        <ele>78.97</ele>
        <time>2013-04-28T08:46:19Z</time>
      </trkpt>
      <trkpt lat="47.29178" lon="-0.28703">
        <ele>79.93</ele>
        <time>2013-04-28T08:46:26Z</time>
      </trkpt>
      <trkpt lat="47.29172" lon="-0.28678">
        <ele>80.41</ele>
        <time>2013-04-28T08:46:32Z</time>
      </trkpt>
      <trkpt lat="47.29164" lon="-0.28649">
        <ele>80.89</ele>
        <time>2013-04-28T08:46:39Z</time>
      </trkpt>
      <trkpt lat="47.29155" lon="-0.28621">
        <ele>81.37</ele>
        <time>2013-04-28T08:46:45Z</time>
      </trkpt>
      <trkpt lat="47.29151" lon="-0.28611">
        <ele>81.85</ele>
        <time>2013-04-28T08:46:48Z</time>
      </trkpt>
      <trkpt lat="47.29145" lon="-0.28618">
        <ele>82.81</ele>
        <time>2013-04-28T08:46:52Z</time>
      </trkpt>
      <trkpt lat="47.2914" lon="-0.28628">
        <ele>83.29</ele>
        <time>2013-04-28T08:46:55Z</time>
      </trkpt>
      <trkpt lat="47.29135" lon="-0.2866">
        <ele>83.77</ele>
        <time>2013-04-28T08:47:03Z</time>
      </trkpt>
      <trkpt lat="47.29134" lon="-0.28684">
        <ele>84.25</ele>
        <time>2013-04-28T08:47:08Z</time>
      </trkpt>
      <trkpt lat="47.29119" lon="-0.28704">
        <ele>85.21</ele>
        <time>2013-04-28T08:47:14Z</time>
      </trkpt>
      <trkpt lat="47.29097" lon="-0.28702">
        <ele>84.73</ele>
        <time>2013-04-28T08:47:21Z</time>
      </trkpt>
      <trkpt lat="47.29078" lon="-0.28687">
        <ele>86.66</ele>
        <time>2013-04-28T08:47:27Z</time>
      </trkpt>
      <trkpt lat="47.29075" lon="-0.28684">
        <ele>87.14</ele>
        <time>2013-04-28T08:47:28Z</time>
      </trkpt>
      <trkpt lat="47.29073" lon="-0.28681">
        <ele>87.14</ele>
        <time>2013-04-28T08:47:29Z</time>
      </trkpt>
      <trkpt lat="47.29048" lon="-0.28675">
        <ele>87.14</ele>
        <time>2013-04-28T08:47:35Z</time>
      </trkpt>
      <trkpt lat="47.2903" lon="-0.28672">
        <ele>87.62</ele>
        <time>2013-04-28T08:47:40Z</time>
      </trkpt>
      <trkpt lat="47.28997" lon="-0.28686">
        <ele>88.1</ele>
        <time>2013-04-28T08:47:49Z</time>
      </trkpt>
      <trkpt lat="47.28981" lon="-0.28689">
        <ele>88.58</ele>
        <time>2013-04-28T08:47:55Z</time>
      </trkpt>
      <trkpt lat="47.2896" lon="-0.28692">
        <ele>89.54</ele>
        <time>2013-04-28T08:48:02Z</time>
      </trkpt>
      <trkpt lat="47.2894" lon="-0.28699">
        <ele>90.02</ele>
        <time>2013-04-28T08:48:08Z</time>
      </trkpt>
      <trkpt lat="47.28944" lon="-0.28722">
        <ele>90.98</ele>
        <time>2013-04-28T08:48:14Z</time>
      </trkpt>
      <trkpt lat="47.28948" lon="-0.28737">
        <ele>90.02</ele>
        <time>2013-04-28T08:48:17Z</time>
      </trkpt>
      <trkpt lat="47.28941" lon="-0.28757">
        <ele>90.5</ele>
        <time>2013-04-28T08:48:23Z</time>
      </trkpt>
      <trkpt lat="47.28941" lon="-0.28777">
        <ele>89.54</ele>
        <time>2013-04-28T08:48:28Z</time>
      </trkpt>
      <trkpt lat="47.28941" lon="-0.28782">
        <ele>89.54</ele>
        <time>2013-04-28T08:48:30Z</time>
      </trkpt>
      <trkpt lat="47.28937" lon="-0.28791">
        <ele>88.58</ele>
        <time>2013-04-28T08:48:34Z</time>
      </trkpt>
      <trkpt lat="47.28937" lon="-0.28792">
        <ele>88.58</ele>
        <time>2013-04-28T08:48:35Z</time>
      </trkpt>
      <trkpt lat="47.28936" lon="-0.2881">
        <ele>87.14</ele>
        <time>2013-04-28T08:48:39Z</time>
      </trkpt>
      <trkpt lat="47.2894" lon="-0.28823">
        <ele>82.33</ele>
        <time>2013-04-28T08:48:43Z</time>
      </trkpt>
      <trkpt lat="47.28942" lon="-0.28828">
        <ele>81.37</ele>
        <time>2013-04-28T08:48:45Z</time>
      </trkpt>
      <trkpt lat="47.28942" lon="-0.28834">
        <ele>79.45</ele>
        <time>2013-04-28T08:48:47Z</time>
      </trkpt>
      <trkpt lat="47.28943" lon="-0.28853">
        <ele>75.12</ele>
        <time>2013-04-28T08:48:52Z</time>
      </trkpt>
      <trkpt lat="47.28943" lon="-0.28861">
        <ele>73.2</ele>
        <time>2013-04-28T08:48:54Z</time>
      </trkpt>
      <trkpt lat="47.28944" lon="-0.28875">
        <ele>69.83</ele>
        <time>2013-04-28T08:48:58Z</time>
      </trkpt>
      <trkpt lat="47.28946" lon="-0.28882">
        <ele>67.43</ele>
        <time>2013-04-28T08:49:01Z</time>
      </trkpt>
      <trkpt lat="47.28942" lon="-0.2889">
        <ele>65.51</ele>
        <time>2013-04-28T08:49:04Z</time>
      </trkpt>
      <trkpt lat="47.28923" lon="-0.28901">
        <ele>65.99</ele>
        <time>2013-04-28T08:49:10Z</time>
      </trkpt>
      <trkpt lat="47.28913" lon="-0.28911">
        <ele>66.95</ele>
        <time>2013-04-28T08:49:14Z</time>
      </trkpt>
      <trkpt lat="47.28901" lon="-0.28926">
        <ele>67.43</ele>
        <time>2013-04-28T08:49:18Z</time>
      </trkpt>
      <trkpt lat="47.28898" lon="-0.2893">
        <ele>67.43</ele>
        <time>2013-04-28T08:49:19Z</time>
      </trkpt>
      <trkpt lat="47.28895" lon="-0.28934">
        <ele>67.43</ele>
        <time>2013-04-28T08:49:20Z</time>
      </trkpt>
      <trkpt lat="47.28891" lon="-0.28939">
        <ele>67.43</ele>
        <time>2013-04-28T08:49:21Z</time>
      </trkpt>
      <trkpt lat="47.28888" lon="-0.28943">
        <ele>67.43</ele>
        <time>2013-04-28T08:49:22Z</time>
      </trkpt>
      <trkpt lat="47.28872" lon="-0.2896">
        <ele>67.43</ele>
        <time>2013-04-28T08:49:27Z</time>
      </trkpt>
      <trkpt lat="47.28856" lon="-0.28975">
        <ele>67.43</ele>
        <time>2013-04-28T08:49:31Z</time>
      </trkpt>
      <trkpt lat="47.28841" lon="-0.28986">
        <ele>67.43</ele>
        <time>2013-04-28T08:49:35Z</time>
      </trkpt>
      <trkpt lat="47.2881" lon="-0.29003">
        <ele>67.91</ele>
        <time>2013-04-28T08:49:42Z</time>
      </trkpt>
      <trkpt lat="47.28785" lon="-0.29005">
        <ele>67.91</ele>
        <time>2013-04-28T08:49:48Z</time>
      </trkpt>
      <trkpt lat="47.28765" lon="-0.29007">
        <ele>67.91</ele>
        <time>2013-04-28T08:49:53Z</time>
      </trkpt>
      <trkpt lat="47.2874" lon="-0.29002">
        <ele>68.39</ele>
        <time>2013-04-28T08:49:59Z</time>
      </trkpt>
      <trkpt lat="47.28727" lon="-0.29">
        <ele>68.39</ele>
        <time>2013-04-28T08:50:02Z</time>
      </trkpt>
      <trkpt lat="47.28724" lon="-0.28997">
        <ele>67.91</ele>
        <time>2013-04-28T08:50:03Z</time>
      </trkpt>
      <trkpt lat="47.2872" lon="-0.28995">
        <ele>67.91</ele>
        <time>2013-04-28T08:50:04Z</time>
      </trkpt>
      <trkpt lat="47.28716" lon="-0.28992">
        <ele>68.39</ele>
        <time>2013-04-28T08:50:05Z</time>
      </trkpt>
      <trkpt lat="47.28712" lon="-0.28991">
        <ele>67.91</ele>
        <time>2013-04-28T08:50:06Z</time>
      </trkpt>
      <trkpt lat="47.28708" lon="-0.28991">
        <ele>68.39</ele>
        <time>2013-04-28T08:50:07Z</time>
      </trkpt>
      <trkpt lat="47.28704" lon="-0.2899">
        <ele>67.91</ele>
        <time>2013-04-28T08:50:08Z</time>
      </trkpt>
      <trkpt lat="47.28699" lon="-0.28989">
        <ele>67.91</ele>
        <time>2013-04-28T08:50:09Z</time>
      </trkpt>
      <trkpt lat="47.28696" lon="-0.28989">
        <ele>68.87</ele>
        <time>2013-04-28T08:50:10Z</time>
      </trkpt>
      <trkpt lat="47.28692" lon="-0.28988">
        <ele>68.87</ele>
        <time>2013-04-28T08:50:11Z</time>
      </trkpt>
      <trkpt lat="47.28688" lon="-0.28987">
        <ele>67.91</ele>
        <time>2013-04-28T08:50:12Z</time>
      </trkpt>
      <trkpt lat="47.28684" lon="-0.28987">
        <ele>68.39</ele>
        <time>2013-04-28T08:50:13Z</time>
      </trkpt>
      <trkpt lat="47.2868" lon="-0.28988">
        <ele>68.39</ele>
        <time>2013-04-28T08:50:14Z</time>
      </trkpt>
      <trkpt lat="47.28676" lon="-0.28988">
        <ele>68.87</ele>
        <time>2013-04-28T08:50:15Z</time>
      </trkpt>
      <trkpt lat="47.28671" lon="-0.28987">
        <ele>69.35</ele>
        <time>2013-04-28T08:50:16Z</time>
      </trkpt>
      <trkpt lat="47.28667" lon="-0.28985">
        <ele>68.87</ele>
        <time>2013-04-28T08:50:17Z</time>
      </trkpt>
      <trkpt lat="47.28663" lon="-0.28982">
        <ele>68.39</ele>
        <time>2013-04-28T08:50:18Z</time>
      </trkpt>
      <trkpt lat="47.2866" lon="-0.28978">
        <ele>68.39</ele>
        <time>2013-04-28T08:50:19Z</time>
      </trkpt>
      <trkpt lat="47.28658" lon="-0.28975">
        <ele>69.35</ele>
        <time>2013-04-28T08:50:20Z</time>
      </trkpt>
      <trkpt lat="47.28655" lon="-0.28972">
        <ele>69.35</ele>
        <time>2013-04-28T08:50:21Z</time>
      </trkpt>
      <trkpt lat="47.28653" lon="-0.28969">
        <ele>69.83</ele>
        <time>2013-04-28T08:50:22Z</time>
      </trkpt>
      <trkpt lat="47.2865" lon="-0.28967">
        <ele>70.31</ele>
        <time>2013-04-28T08:50:23Z</time>
      </trkpt>
      <trkpt lat="47.28648" lon="-0.28966">
        <ele>70.79</ele>
        <time>2013-04-28T08:50:24Z</time>
      </trkpt>
      <trkpt lat="47.28647" lon="-0.28964">
        <ele>71.76</ele>
        <time>2013-04-28T08:50:25Z</time>
      </trkpt>
      <trkpt lat="47.28645" lon="-0.28962">
        <ele>71.27</ele>
        <time>2013-04-28T08:50:26Z</time>
      </trkpt>
      <trkpt lat="47.28643" lon="-0.28961">
        <ele>71.76</ele>
        <time>2013-04-28T08:50:27Z</time>
      </trkpt>
      <trkpt lat="47.2864" lon="-0.28957">
        <ele>72.72</ele>
        <time>2013-04-28T08:50:29Z</time>
      </trkpt>
      <trkpt lat="47.28638" lon="-0.28956">
        <ele>72.24</ele>
        <time>2013-04-28T08:50:30Z</time>
      </trkpt>
      <trkpt lat="47.28636" lon="-0.28956">
        <ele>73.2</ele>
        <time>2013-04-28T08:50:31Z</time>
      </trkpt>
      <trkpt lat="47.28633" lon="-0.28956">
        <ele>73.68</ele>
        <time>2013-04-28T08:50:33Z</time>
      </trkpt>
      <trkpt lat="47.28632" lon="-0.28957">
        <ele>73.68</ele>
        <time>2013-04-28T08:50:34Z</time>
      </trkpt>
      <trkpt lat="47.28632" lon="-0.2896">
        <ele>74.16</ele>
        <time>2013-04-28T08:50:35Z</time>
      </trkpt>
      <trkpt lat="47.28632" lon="-0.28963">
        <ele>74.16</ele>
        <time>2013-04-28T08:50:36Z</time>
      </trkpt>
      <trkpt lat="47.28633" lon="-0.28966">
        <ele>73.68</ele>
        <time>2013-04-28T08:50:37Z</time>
      </trkpt>
      <trkpt lat="47.28633" lon="-0.2897">
        <ele>72.72</ele>
        <time>2013-04-28T08:50:38Z</time>
      </trkpt>
      <trkpt lat="47.28634" lon="-0.28974">
        <ele>73.2</ele>
        <time>2013-04-28T08:50:39Z</time>
      </trkpt>
      <trkpt lat="47.28635" lon="-0.28979">
        <ele>73.2</ele>
        <time>2013-04-28T08:50:40Z</time>
      </trkpt>
      <trkpt lat="47.28635" lon="-0.28984">
        <ele>73.2</ele>
        <time>2013-04-28T08:50:41Z</time>
      </trkpt>
      <trkpt lat="47.28635" lon="-0.29001">
        <ele>72.24</ele>
        <time>2013-04-28T08:50:46Z</time>
      </trkpt>
      <trkpt lat="47.28634" lon="-0.29002">
        <ele>72.24</ele>
        <time>2013-04-28T08:50:47Z</time>
      </trkpt>
      <trkpt lat="47.28633" lon="-0.29004">
        <ele>72.72</ele>
        <time>2013-04-28T08:50:48Z</time>
      </trkpt>
      <trkpt lat="47.28634" lon="-0.29006">
        <ele>73.2</ele>
        <time>2013-04-28T08:50:49Z</time>
      </trkpt>
      <trkpt lat="47.28635" lon="-0.29009">
        <ele>73.2</ele>
        <time>2013-04-28T08:50:50Z</time>
      </trkpt>
      <trkpt lat="47.28636" lon="-0.29011">
        <ele>72.72</ele>
        <time>2013-04-28T08:50:51Z</time>
      </trkpt>
      <trkpt lat="47.28637" lon="-0.29014">
        <ele>72.72</ele>
        <time>2013-04-28T08:50:52Z</time>
      </trkpt>
      <trkpt lat="47.28637" lon="-0.29017">
        <ele>72.72</ele>
        <time>2013-04-28T08:50:53Z</time>
      </trkpt>
      <trkpt lat="47.28637" lon="-0.2902">
        <ele>73.2</ele>
        <time>2013-04-28T08:50:54Z</time>
      </trkpt>
      <trkpt lat="47.28638" lon="-0.2904">
        <ele>73.2</ele>
        <time>2013-04-28T08:51:00Z</time>
      </trkpt>
      <trkpt lat="47.28634" lon="-0.29065">
        <ele>74.64</ele>
        <time>2013-04-28T08:51:07Z</time>
      </trkpt>
      <trkpt lat="47.28625" lon="-0.29092">
        <ele>75.12</ele>
        <time>2013-04-28T08:51:15Z</time>
      </trkpt>
      <trkpt lat="47.2862" lon="-0.29109">
        <ele>76.08</ele>
        <time>2013-04-28T08:51:21Z</time>
      </trkpt>
      <trkpt lat="47.2861" lon="-0.2913">
        <ele>76.56</ele>
        <time>2013-04-28T08:51:28Z</time>
      </trkpt>
      <trkpt lat="47.28602" lon="-0.29153">
        <ele>77.04</ele>
        <time>2013-04-28T08:51:35Z</time>
      </trkpt>
      <trkpt lat="47.28597" lon="-0.29174">
        <ele>78</ele>
        <time>2013-04-28T08:51:41Z</time>
      </trkpt>
      <trkpt lat="47.28596" lon="-0.29175">
        <ele>78</ele>
        <time>2013-04-28T08:51:42Z</time>
      </trkpt>
      <trkpt lat="47.28594" lon="-0.29177">
        <ele>78.97</ele>
        <time>2013-04-28T08:51:43Z</time>
      </trkpt>
      <trkpt lat="47.28593" lon="-0.29179">
        <ele>78.48</ele>
        <time>2013-04-28T08:51:49Z</time>
      </trkpt>
      <trkpt lat="47.28592" lon="-0.29177">
        <ele>78.97</ele>
        <time>2013-04-28T08:52:20Z</time>
      </trkpt>
      <trkpt lat="47.2859" lon="-0.29183">
        <ele>78.97</ele>
        <time>2013-04-28T08:52:26Z</time>
      </trkpt>
      <trkpt lat="47.28584" lon="-0.29206">
        <ele>79.93</ele>
        <time>2013-04-28T08:52:33Z</time>
      </trkpt>
      <trkpt lat="47.2858" lon="-0.29221">
        <ele>80.41</ele>
        <time>2013-04-28T08:52:37Z</time>
      </trkpt>
      <trkpt lat="47.28566" lon="-0.29253">
        <ele>80.41</ele>
        <time>2013-04-28T08:52:46Z</time>
      </trkpt>
      <trkpt lat="47.28554" lon="-0.29275">
        <ele>81.37</ele>
        <time>2013-04-28T08:52:53Z</time>
      </trkpt>
      <trkpt lat="47.28539" lon="-0.29304">
        <ele>81.37</ele>
        <time>2013-04-28T08:53:01Z</time>
      </trkpt>
      <trkpt lat="47.28522" lon="-0.29337">
        <ele>83.29</ele>
        <time>2013-04-28T08:53:09Z</time>
      </trkpt>
      <trkpt lat="47.285" lon="-0.29372">
        <ele>83.29</ele>
        <time>2013-04-28T08:53:17Z</time>
      </trkpt>
      <trkpt lat="47.28473" lon="-0.29407">
        <ele>83.29</ele>
        <time>2013-04-28T08:53:25Z</time>
      </trkpt>
      <trkpt lat="47.2845" lon="-0.29435">
        <ele>84.73</ele>
        <time>2013-04-28T08:53:32Z</time>
      </trkpt>
      <trkpt lat="47.28446" lon="-0.29438">
        <ele>83.29</ele>
        <time>2013-04-28T08:53:33Z</time>
      </trkpt>
      <trkpt lat="47.28444" lon="-0.29441">
        <ele>84.25</ele>
        <time>2013-04-28T08:53:34Z</time>
      </trkpt>
      <trkpt lat="47.28442" lon="-0.29444">
        <ele>84.25</ele>
        <time>2013-04-28T08:53:35Z</time>
      </trkpt>
      <trkpt lat="47.2844" lon="-0.29448">
        <ele>84.73</ele>
        <time>2013-04-28T08:53:36Z</time>
      </trkpt>
      <trkpt lat="47.28438" lon="-0.29452">
        <ele>84.73</ele>
        <time>2013-04-28T08:53:37Z</time>
      </trkpt>
      <trkpt lat="47.28435" lon="-0.29455">
        <ele>84.25</ele>
        <time>2013-04-28T08:53:38Z</time>
      </trkpt>
      <trkpt lat="47.28432" lon="-0.29458">
        <ele>84.73</ele>
        <time>2013-04-28T08:53:39Z</time>
      </trkpt>
      <trkpt lat="47.28429" lon="-0.29462">
        <ele>84.73</ele>
        <time>2013-04-28T08:53:40Z</time>
      </trkpt>
      <trkpt lat="47.28419" lon="-0.29473">
        <ele>85.69</ele>
        <time>2013-04-28T08:53:43Z</time>
      </trkpt>
      <trkpt lat="47.28405" lon="-0.29494">
        <ele>85.69</ele>
        <time>2013-04-28T08:53:48Z</time>
      </trkpt>
      <trkpt lat="47.28401" lon="-0.29498">
        <ele>85.69</ele>
        <time>2013-04-28T08:53:49Z</time>
      </trkpt>
      <trkpt lat="47.28379" lon="-0.29527">
        <ele>86.66</ele>
        <time>2013-04-28T08:53:56Z</time>
      </trkpt>
      <trkpt lat="47.28363" lon="-0.2955">
        <ele>86.18</ele>
        <time>2013-04-28T08:54:01Z</time>
      </trkpt>
      <trkpt lat="47.28358" lon="-0.29561">
        <ele>87.14</ele>
        <time>2013-04-28T08:54:03Z</time>
      </trkpt>
      <trkpt lat="47.28349" lon="-0.29577">
        <ele>87.62</ele>
        <time>2013-04-28T08:54:06Z</time>
      </trkpt>
      <trkpt lat="47.28347" lon="-0.29582">
        <ele>87.62</ele>
        <time>2013-04-28T08:54:07Z</time>
      </trkpt>
      <trkpt lat="47.28344" lon="-0.29587">
        <ele>87.14</ele>
        <time>2013-04-28T08:54:08Z</time>
      </trkpt>
      <trkpt lat="47.28342" lon="-0.29592">
        <ele>87.14</ele>
        <time>2013-04-28T08:54:09Z</time>
      </trkpt>
      <trkpt lat="47.28339" lon="-0.29597">
        <ele>87.62</ele>
        <time>2013-04-28T08:54:10Z</time>
      </trkpt>
      <trkpt lat="47.28328" lon="-0.29612">
        <ele>87.62</ele>
        <time>2013-04-28T08:54:13Z</time>
      </trkpt>
      <trkpt lat="47.28316" lon="-0.29632">
        <ele>88.1</ele>
        <time>2013-04-28T08:54:17Z</time>
      </trkpt>
      <trkpt lat="47.28313" lon="-0.29637">
        <ele>88.1</ele>
        <time>2013-04-28T08:54:18Z</time>
      </trkpt>
      <trkpt lat="47.2829" lon="-0.29672">
        <ele>89.06</ele>
        <time>2013-04-28T08:54:25Z</time>
      </trkpt>
      <trkpt lat="47.2828" lon="-0.29687">
        <ele>89.06</ele>
        <time>2013-04-28T08:54:28Z</time>
      </trkpt>
      <trkpt lat="47.28277" lon="-0.29692">
        <ele>88.58</ele>
        <time>2013-04-28T08:54:29Z</time>
      </trkpt>
      <trkpt lat="47.28273" lon="-0.29697">
        <ele>89.06</ele>
        <time>2013-04-28T08:54:30Z</time>
      </trkpt>
      <trkpt lat="47.28259" lon="-0.29716">
        <ele>88.58</ele>
        <time>2013-04-28T08:54:34Z</time>
      </trkpt>
      <trkpt lat="47.28255" lon="-0.29721">
        <ele>89.06</ele>
        <time>2013-04-28T08:54:35Z</time>
      </trkpt>
      <trkpt lat="47.2824" lon="-0.29746">
        <ele>88.1</ele>
        <time>2013-04-28T08:54:41Z</time>
      </trkpt>
      <trkpt lat="47.28229" lon="-0.29764">
        <ele>88.58</ele>
        <time>2013-04-28T08:54:49Z</time>
      </trkpt>
      <trkpt lat="47.28229" lon="-0.29765">
        <ele>88.1</ele>
        <time>2013-04-28T08:54:55Z</time>
      </trkpt>
      <trkpt lat="47.28227" lon="-0.29766">
        <ele>88.58</ele>
        <time>2013-04-28T08:55:41Z</time>
      </trkpt>
      <trkpt lat="47.28226" lon="-0.29765">
        <ele>87.62</ele>
        <time>2013-04-28T08:55:52Z</time>
      </trkpt>
      <trkpt lat="47.28225" lon="-0.29767">
        <ele>87.14</ele>
        <time>2013-04-28T09:01:33Z</time>
      </trkpt>
      <trkpt lat="47.28227" lon="-0.29767">
        <ele>88.58</ele>
        <time>2013-04-28T09:04:12Z</time>
      </trkpt>
      <trkpt lat="47.28226" lon="-0.29772">
        <ele>88.58</ele>
        <time>2013-04-28T09:05:02Z</time>
      </trkpt>
      <trkpt lat="47.28225" lon="-0.29775">
        <ele>88.58</ele>
        <time>2013-04-28T09:05:04Z</time>
      </trkpt>
      <trkpt lat="47.28224" lon="-0.29777">
        <ele>89.06</ele>
        <time>2013-04-28T09:05:05Z</time>
      </trkpt>
      <trkpt lat="47.28213" lon="-0.29793">
        <ele>87.62</ele>
        <time>2013-04-28T09:05:11Z</time>
      </trkpt>
      <trkpt lat="47.28196" lon="-0.2982">
        <ele>86.66</ele>
        <time>2013-04-28T09:05:18Z</time>
      </trkpt>
      <trkpt lat="47.28185" lon="-0.29861">
        <ele>87.14</ele>
        <time>2013-04-28T09:05:26Z</time>
      </trkpt>
      <trkpt lat="47.28186" lon="-0.29886">
        <ele>87.14</ele>
        <time>2013-04-28T09:05:32Z</time>
      </trkpt>
      <trkpt lat="47.28195" lon="-0.29901">
        <ele>88.1</ele>
        <time>2013-04-28T09:05:37Z</time>
      </trkpt>
      <trkpt lat="47.28205" lon="-0.29918">
        <ele>87.14</ele>
        <time>2013-04-28T09:05:43Z</time>
      </trkpt>
      <trkpt lat="47.28221" lon="-0.29943">
        <ele>88.58</ele>
        <time>2013-04-28T09:05:49Z</time>
      </trkpt>
      <trkpt lat="47.28244" lon="-0.29984">
        <ele>89.06</ele>
        <time>2013-04-28T09:05:58Z</time>
      </trkpt>
      <trkpt lat="47.28256" lon="-0.30007">
        <ele>89.06</ele>
        <time>2013-04-28T09:06:04Z</time>
      </trkpt>
      <trkpt lat="47.28268" lon="-0.30031">
        <ele>89.06</ele>
        <time>2013-04-28T09:06:10Z</time>
      </trkpt>
      <trkpt lat="47.28278" lon="-0.30055">
        <ele>89.06</ele>
        <time>2013-04-28T09:06:16Z</time>
      </trkpt>
      <trkpt lat="47.28287" lon="-0.30091">
        <ele>90.02</ele>
        <time>2013-04-28T09:06:23Z</time>
      </trkpt>
      <trkpt lat="47.28297" lon="-0.30131">
        <ele>90.5</ele>
        <time>2013-04-28T09:06:31Z</time>
      </trkpt>
      <trkpt lat="47.28301" lon="-0.30164">
        <ele>90.98</ele>
        <time>2013-04-28T09:06:38Z</time>
      </trkpt>
      <trkpt lat="47.28285" lon="-0.3019">
        <ele>90.02</ele>
        <time>2013-04-28T09:06:44Z</time>
      </trkpt>
      <trkpt lat="47.28275" lon="-0.30201">
        <ele>89.54</ele>
        <time>2013-04-28T09:06:47Z</time>
      </trkpt>
      <trkpt lat="47.28272" lon="-0.30205">
        <ele>89.06</ele>
        <time>2013-04-28T09:06:48Z</time>
      </trkpt>
      <trkpt lat="47.28246" lon="-0.30241">
        <ele>89.06</ele>
        <time>2013-04-28T09:06:56Z</time>
      </trkpt>
      <trkpt lat="47.28242" lon="-0.30245">
        <ele>87.62</ele>
        <time>2013-04-28T09:06:57Z</time>
      </trkpt>
      <trkpt lat="47.28212" lon="-0.30282">
        <ele>85.21</ele>
        <time>2013-04-28T09:07:05Z</time>
      </trkpt>
      <trkpt lat="47.28207" lon="-0.30287">
        <ele>85.69</ele>
        <time>2013-04-28T09:07:06Z</time>
      </trkpt>
      <trkpt lat="47.28203" lon="-0.30293">
        <ele>84.73</ele>
        <time>2013-04-28T09:07:07Z</time>
      </trkpt>
      <trkpt lat="47.28173" lon="-0.30329">
        <ele>81.37</ele>
        <time>2013-04-28T09:07:14Z</time>
      </trkpt>
      <trkpt lat="47.28169" lon="-0.30335">
        <ele>82.33</ele>
        <time>2013-04-28T09:07:15Z</time>
      </trkpt>
      <trkpt lat="47.28162" lon="-0.30346">
        <ele>80.89</ele>
        <time>2013-04-28T09:07:17Z</time>
      </trkpt>
      <trkpt lat="47.28159" lon="-0.30351">
        <ele>80.89</ele>
        <time>2013-04-28T09:07:18Z</time>
      </trkpt>
      <trkpt lat="47.28152" lon="-0.30361">
        <ele>80.41</ele>
        <time>2013-04-28T09:07:20Z</time>
      </trkpt>
      <trkpt lat="47.28149" lon="-0.30367">
        <ele>80.41</ele>
        <time>2013-04-28T09:07:21Z</time>
      </trkpt>
      <trkpt lat="47.28142" lon="-0.30376">
        <ele>79.93</ele>
        <time>2013-04-28T09:07:23Z</time>
      </trkpt>
      <trkpt lat="47.28124" lon="-0.30396">
        <ele>78.97</ele>
        <time>2013-04-28T09:07:29Z</time>
      </trkpt>
      <trkpt lat="47.28121" lon="-0.30398">
        <ele>78.48</ele>
        <time>2013-04-28T09:07:30Z</time>
      </trkpt>
      <trkpt lat="47.28119" lon="-0.304">
        <ele>78</ele>
        <time>2013-04-28T09:07:31Z</time>
      </trkpt>
      <trkpt lat="47.28106" lon="-0.30414">
        <ele>78</ele>
        <time>2013-04-28T09:07:38Z</time>
      </trkpt>
      <trkpt lat="47.28093" lon="-0.30431">
        <ele>78</ele>
        <time>2013-04-28T09:07:43Z</time>
      </trkpt>
      <trkpt lat="47.28082" lon="-0.30444">
        <ele>77.04</ele>
        <time>2013-04-28T09:07:47Z</time>
      </trkpt>
      <trkpt lat="47.28079" lon="-0.3045">
        <ele>77.52</ele>
        <time>2013-04-28T09:07:48Z</time>
      </trkpt>
      <trkpt lat="47.28058" lon="-0.30481">
        <ele>77.04</ele>
        <time>2013-04-28T09:07:54Z</time>
      </trkpt>
      <trkpt lat="47.28036" lon="-0.30513">
        <ele>74.64</ele>
        <time>2013-04-28T09:08:01Z</time>
      </trkpt>
      <trkpt lat="47.28019" lon="-0.30538">
        <ele>75.12</ele>
        <time>2013-04-28T09:08:08Z</time>
      </trkpt>
      <trkpt lat="47.28009" lon="-0.30556">
        <ele>75.12</ele>
        <time>2013-04-28T09:08:12Z</time>
      </trkpt>
      <trkpt lat="47.28005" lon="-0.3056">
        <ele>75.6</ele>
        <time>2013-04-28T09:08:13Z</time>
      </trkpt>
      <trkpt lat="47.28002" lon="-0.30565">
        <ele>76.08</ele>
        <time>2013-04-28T09:08:14Z</time>
      </trkpt>
      <trkpt lat="47.27999" lon="-0.3057">
        <ele>76.08</ele>
        <time>2013-04-28T09:08:15Z</time>
      </trkpt>
      <trkpt lat="47.27995" lon="-0.30574">
        <ele>75.6</ele>
        <time>2013-04-28T09:08:16Z</time>
      </trkpt>
      <trkpt lat="47.27991" lon="-0.30579">
        <ele>75.6</ele>
        <time>2013-04-28T09:08:17Z</time>
      </trkpt>
      <trkpt lat="47.27987" lon="-0.30584">
        <ele>75.6</ele>
        <time>2013-04-28T09:08:18Z</time>
      </trkpt>
      <trkpt lat="47.27967" lon="-0.30613">
        <ele>76.56</ele>
        <time>2013-04-28T09:08:24Z</time>
      </trkpt>
      <trkpt lat="47.27957" lon="-0.30627">
        <ele>77.04</ele>
        <time>2013-04-28T09:08:27Z</time>
      </trkpt>
      <trkpt lat="47.27945" lon="-0.30644">
        <ele>77.04</ele>
        <time>2013-04-28T09:08:31Z</time>
      </trkpt>
      <trkpt lat="47.27932" lon="-0.30659">
        <ele>77.04</ele>
        <time>2013-04-28T09:08:35Z</time>
      </trkpt>
      <trkpt lat="47.27929" lon="-0.30661">
        <ele>77.52</ele>
        <time>2013-04-28T09:08:36Z</time>
      </trkpt>
      <trkpt lat="47.27915" lon="-0.30684">
        <ele>78</ele>
        <time>2013-04-28T09:08:42Z</time>
      </trkpt>
      <trkpt lat="47.27913" lon="-0.30688">
        <ele>78</ele>
        <time>2013-04-28T09:08:43Z</time>
      </trkpt>
      <trkpt lat="47.27913" lon="-0.30692">
        <ele>78.48</ele>
        <time>2013-04-28T09:08:44Z</time>
      </trkpt>
      <trkpt lat="47.27921" lon="-0.3072">
        <ele>78.97</ele>
        <time>2013-04-28T09:08:50Z</time>
      </trkpt>
      <trkpt lat="47.2793" lon="-0.30742">
        <ele>79.45</ele>
        <time>2013-04-28T09:08:56Z</time>
      </trkpt>
      <trkpt lat="47.27943" lon="-0.30765">
        <ele>79.93</ele>
        <time>2013-04-28T09:09:03Z</time>
      </trkpt>
      <trkpt lat="47.27951" lon="-0.30783">
        <ele>80.89</ele>
        <time>2013-04-28T09:09:08Z</time>
      </trkpt>
      <trkpt lat="47.27966" lon="-0.30812">
        <ele>81.37</ele>
        <time>2013-04-28T09:09:16Z</time>
      </trkpt>
      <trkpt lat="47.27977" lon="-0.3083">
        <ele>79.93</ele>
        <time>2013-04-28T09:09:21Z</time>
      </trkpt>
      <trkpt lat="47.27998" lon="-0.30857">
        <ele>80.41</ele>
        <time>2013-04-28T09:09:28Z</time>
      </trkpt>
      <trkpt lat="47.28013" lon="-0.30874">
        <ele>79.93</ele>
        <time>2013-04-28T09:09:33Z</time>
      </trkpt>
      <trkpt lat="47.28025" lon="-0.3089">
        <ele>78.97</ele>
        <time>2013-04-28T09:09:37Z</time>
      </trkpt>
      <trkpt lat="47.2804" lon="-0.30914">
        <ele>78.48</ele>
        <time>2013-04-28T09:09:43Z</time>
      </trkpt>
      <trkpt lat="47.28057" lon="-0.30941">
        <ele>77.52</ele>
        <time>2013-04-28T09:09:50Z</time>
      </trkpt>
      <trkpt lat="47.28067" lon="-0.30952">
        <ele>78</ele>
        <time>2013-04-28T09:09:54Z</time>
      </trkpt>
      <trkpt lat="47.28079" lon="-0.30934">
        <ele>77.52</ele>
        <time>2013-04-28T09:09:59Z</time>
      </trkpt>
      <trkpt lat="47.2809" lon="-0.30915">
        <ele>77.04</ele>
        <time>2013-04-28T09:10:03Z</time>
      </trkpt>
      <trkpt lat="47.28093" lon="-0.3091">
        <ele>76.56</ele>
        <time>2013-04-28T09:10:04Z</time>
      </trkpt>
      <trkpt lat="47.28099" lon="-0.30898">
        <ele>77.52</ele>
        <time>2013-04-28T09:10:06Z</time>
      </trkpt>
      <trkpt lat="47.28102" lon="-0.30892">
        <ele>76.56</ele>
        <time>2013-04-28T09:10:07Z</time>
      </trkpt>
      <trkpt lat="47.28123" lon="-0.30847">
        <ele>75.6</ele>
        <time>2013-04-28T09:10:14Z</time>
      </trkpt>
      <trkpt lat="47.28135" lon="-0.30824">
        <ele>76.08</ele>
        <time>2013-04-28T09:10:18Z</time>
      </trkpt>
      <trkpt lat="47.2814" lon="-0.30823">
        <ele>74.64</ele>
        <time>2013-04-28T09:10:19Z</time>
      </trkpt>
      <trkpt lat="47.28143" lon="-0.30824">
        <ele>74.16</ele>
        <time>2013-04-28T09:10:20Z</time>
      </trkpt>
      <trkpt lat="47.28147" lon="-0.30829">
        <ele>74.16</ele>
        <time>2013-04-28T09:10:21Z</time>
      </trkpt>
      <trkpt lat="47.28149" lon="-0.30834">
        <ele>73.68</ele>
        <time>2013-04-28T09:10:22Z</time>
      </trkpt>
      <trkpt lat="47.28152" lon="-0.3084">
        <ele>74.64</ele>
        <time>2013-04-28T09:10:23Z</time>
      </trkpt>
      <trkpt lat="47.28155" lon="-0.30846">
        <ele>74.16</ele>
        <time>2013-04-28T09:10:24Z</time>
      </trkpt>
      <trkpt lat="47.28184" lon="-0.30896">
        <ele>74.64</ele>
        <time>2013-04-28T09:10:32Z</time>
      </trkpt>
      <trkpt lat="47.28191" lon="-0.30908">
        <ele>74.64</ele>
        <time>2013-04-28T09:10:34Z</time>
      </trkpt>
      <trkpt lat="47.28194" lon="-0.30915">
        <ele>74.64</ele>
        <time>2013-04-28T09:10:35Z</time>
      </trkpt>
      <trkpt lat="47.2823" lon="-0.30973">
        <ele>74.64</ele>
        <time>2013-04-28T09:10:45Z</time>
      </trkpt>
      <trkpt lat="47.2825" lon="-0.30995">
        <ele>74.16</ele>
        <time>2013-04-28T09:10:50Z</time>
      </trkpt>
      <trkpt lat="47.28252" lon="-0.31">
        <ele>73.68</ele>
        <time>2013-04-28T09:10:51Z</time>
      </trkpt>
      <trkpt lat="47.28251" lon="-0.31005">
        <ele>73.68</ele>
        <time>2013-04-28T09:10:52Z</time>
      </trkpt>
      <trkpt lat="47.28249" lon="-0.31009">
        <ele>73.68</ele>
        <time>2013-04-28T09:10:53Z</time>
      </trkpt>
      <trkpt lat="47.28246" lon="-0.31013">
        <ele>74.16</ele>
        <time>2013-04-28T09:10:54Z</time>
      </trkpt>
      <trkpt lat="47.28243" lon="-0.31019">
        <ele>73.68</ele>
        <time>2013-04-28T09:10:55Z</time>
      </trkpt>
      <trkpt lat="47.28238" lon="-0.31031">
        <ele>74.16</ele>
        <time>2013-04-28T09:10:57Z</time>
      </trkpt>
      <trkpt lat="47.28237" lon="-0.31038">
        <ele>74.16</ele>
        <time>2013-04-28T09:10:58Z</time>
      </trkpt>
      <trkpt lat="47.28239" lon="-0.31044">
        <ele>74.16</ele>
        <time>2013-04-28T09:10:59Z</time>
      </trkpt>
      <trkpt lat="47.28243" lon="-0.3105">
        <ele>74.16</ele>
        <time>2013-04-28T09:11:00Z</time>
      </trkpt>
      <trkpt lat="47.28247" lon="-0.31054">
        <ele>73.68</ele>
        <time>2013-04-28T09:11:01Z</time>
      </trkpt>
      <trkpt lat="47.28252" lon="-0.31058">
        <ele>73.68</ele>
        <time>2013-04-28T09:11:02Z</time>
      </trkpt>
      <trkpt lat="47.28256" lon="-0.31062">
        <ele>74.16</ele>
        <time>2013-04-28T09:11:03Z</time>
      </trkpt>
      <trkpt lat="47.2826" lon="-0.31064">
        <ele>73.68</ele>
        <time>2013-04-28T09:11:04Z</time>
      </trkpt>
      <trkpt lat="47.28265" lon="-0.31067">
        <ele>73.68</ele>
        <time>2013-04-28T09:11:05Z</time>
      </trkpt>
      <trkpt lat="47.28268" lon="-0.3107">
        <ele>73.68</ele>
        <time>2013-04-28T09:11:06Z</time>
      </trkpt>
      <trkpt lat="47.28269" lon="-0.31076">
        <ele>73.2</ele>
        <time>2013-04-28T09:11:07Z</time>
      </trkpt>
      <trkpt lat="47.2827" lon="-0.31082">
        <ele>73.2</ele>
        <time>2013-04-28T09:11:08Z</time>
      </trkpt>
      <trkpt lat="47.2827" lon="-0.31088">
        <ele>73.68</ele>
        <time>2013-04-28T09:11:09Z</time>
      </trkpt>
      <trkpt lat="47.28269" lon="-0.31095">
        <ele>73.2</ele>
        <time>2013-04-28T09:11:10Z</time>
      </trkpt>
      <trkpt lat="47.28269" lon="-0.31102">
        <ele>73.68</ele>
        <time>2013-04-28T09:11:11Z</time>
      </trkpt>
      <trkpt lat="47.28265" lon="-0.3117">
        <ele>74.16</ele>
        <time>2013-04-28T09:11:20Z</time>
      </trkpt>
      <trkpt lat="47.28264" lon="-0.31178">
        <ele>74.64</ele>
        <time>2013-04-28T09:11:21Z</time>
      </trkpt>
      <trkpt lat="47.28259" lon="-0.31202">
        <ele>74.64</ele>
        <time>2013-04-28T09:11:24Z</time>
      </trkpt>
      <trkpt lat="47.28256" lon="-0.31209">
        <ele>74.64</ele>
        <time>2013-04-28T09:11:25Z</time>
      </trkpt>
      <trkpt lat="47.28229" lon="-0.31256">
        <ele>76.56</ele>
        <time>2013-04-28T09:11:32Z</time>
      </trkpt>
      <trkpt lat="47.2819" lon="-0.31317">
        <ele>77.52</ele>
        <time>2013-04-28T09:11:42Z</time>
      </trkpt>
      <trkpt lat="47.28173" lon="-0.3135">
        <ele>79.45</ele>
        <time>2013-04-28T09:11:47Z</time>
      </trkpt>
      <trkpt lat="47.28163" lon="-0.31376">
        <ele>79.93</ele>
        <time>2013-04-28T09:11:51Z</time>
      </trkpt>
      <trkpt lat="47.28155" lon="-0.31403">
        <ele>81.37</ele>
        <time>2013-04-28T09:11:55Z</time>
      </trkpt>
      <trkpt lat="47.28151" lon="-0.31416">
        <ele>81.37</ele>
        <time>2013-04-28T09:11:57Z</time>
      </trkpt>
      <trkpt lat="47.2815" lon="-0.31422">
        <ele>82.33</ele>
        <time>2013-04-28T09:11:58Z</time>
      </trkpt>
      <trkpt lat="47.28148" lon="-0.31429">
        <ele>82.33</ele>
        <time>2013-04-28T09:11:59Z</time>
      </trkpt>
      <trkpt lat="47.28144" lon="-0.31442">
        <ele>82.33</ele>
        <time>2013-04-28T09:12:01Z</time>
      </trkpt>
      <trkpt lat="47.28138" lon="-0.31461">
        <ele>83.77</ele>
        <time>2013-04-28T09:12:04Z</time>
      </trkpt>
      <trkpt lat="47.28126" lon="-0.31514">
        <ele>84.73</ele>
        <time>2013-04-28T09:12:12Z</time>
      </trkpt>
      <trkpt lat="47.28121" lon="-0.31547">
        <ele>85.69</ele>
        <time>2013-04-28T09:12:17Z</time>
      </trkpt>
      <trkpt lat="47.28119" lon="-0.31574">
        <ele>87.62</ele>
        <time>2013-04-28T09:12:21Z</time>
      </trkpt>
      <trkpt lat="47.28119" lon="-0.31634">
        <ele>89.06</ele>
        <time>2013-04-28T09:12:30Z</time>
      </trkpt>
      <trkpt lat="47.28119" lon="-0.3164">
        <ele>89.06</ele>
        <time>2013-04-28T09:12:31Z</time>
      </trkpt>
      <trkpt lat="47.2812" lon="-0.31647">
        <ele>89.54</ele>
        <time>2013-04-28T09:12:32Z</time>
      </trkpt>
      <trkpt lat="47.28121" lon="-0.31653">
        <ele>89.06</ele>
        <time>2013-04-28T09:12:33Z</time>
      </trkpt>
      <trkpt lat="47.28123" lon="-0.31659">
        <ele>88.58</ele>
        <time>2013-04-28T09:12:34Z</time>
      </trkpt>
      <trkpt lat="47.28125" lon="-0.31665">
        <ele>89.06</ele>
        <time>2013-04-28T09:12:35Z</time>
      </trkpt>
      <trkpt lat="47.28127" lon="-0.3167">
        <ele>89.54</ele>
        <time>2013-04-28T09:12:36Z</time>
      </trkpt>
      <trkpt lat="47.28143" lon="-0.31715">
        <ele>90.02</ele>
        <time>2013-04-28T09:12:43Z</time>
      </trkpt>
      <trkpt lat="47.28165" lon="-0.31773">
        <ele>89.54</ele>
        <time>2013-04-28T09:12:52Z</time>
      </trkpt>
      <trkpt lat="47.28171" lon="-0.31784">
        <ele>90.02</ele>
        <time>2013-04-28T09:12:54Z</time>
      </trkpt>
      <trkpt lat="47.28195" lon="-0.31849">
        <ele>89.54</ele>
        <time>2013-04-28T09:13:04Z</time>
      </trkpt>
      <trkpt lat="47.28202" lon="-0.31869">
        <ele>90.5</ele>
        <time>2013-04-28T09:13:07Z</time>
      </trkpt>
      <trkpt lat="47.28204" lon="-0.31875">
        <ele>90.5</ele>
        <time>2013-04-28T09:13:08Z</time>
      </trkpt>
      <trkpt lat="47.28206" lon="-0.31881">
        <ele>90.5</ele>
        <time>2013-04-28T09:13:09Z</time>
      </trkpt>
      <trkpt lat="47.28208" lon="-0.31886">
        <ele>90.02</ele>
        <time>2013-04-28T09:13:10Z</time>
      </trkpt>
      <trkpt lat="47.2821" lon="-0.31892">
        <ele>90.98</ele>
        <time>2013-04-28T09:13:11Z</time>
      </trkpt>
      <trkpt lat="47.28212" lon="-0.31897">
        <ele>90.98</ele>
        <time>2013-04-28T09:13:12Z</time>
      </trkpt>
      <trkpt lat="47.28214" lon="-0.31903">
        <ele>90.98</ele>
        <time>2013-04-28T09:13:13Z</time>
      </trkpt>
      <trkpt lat="47.28216" lon="-0.31908">
        <ele>90.98</ele>
        <time>2013-04-28T09:13:14Z</time>
      </trkpt>
      <trkpt lat="47.28221" lon="-0.3192">
        <ele>90.98</ele>
        <time>2013-04-28T09:13:16Z</time>
      </trkpt>
      <trkpt lat="47.28239" lon="-0.31972">
        <ele>91.46</ele>
        <time>2013-04-28T09:13:24Z</time>
      </trkpt>
      <trkpt lat="47.28241" lon="-0.31978">
        <ele>90.5</ele>
        <time>2013-04-28T09:13:25Z</time>
      </trkpt>
      <trkpt lat="47.28248" lon="-0.31997">
        <ele>90.5</ele>
        <time>2013-04-28T09:13:28Z</time>
      </trkpt>
      <trkpt lat="47.28252" lon="-0.3201">
        <ele>90.02</ele>
        <time>2013-04-28T09:13:30Z</time>
      </trkpt>
      <trkpt lat="47.28254" lon="-0.32015">
        <ele>89.54</ele>
        <time>2013-04-28T09:13:31Z</time>
      </trkpt>
      <trkpt lat="47.28256" lon="-0.3202">
        <ele>90.5</ele>
        <time>2013-04-28T09:13:32Z</time>
      </trkpt>
      <trkpt lat="47.28258" lon="-0.32025">
        <ele>89.54</ele>
        <time>2013-04-28T09:13:33Z</time>
      </trkpt>
      <trkpt lat="47.2826" lon="-0.32029">
        <ele>89.54</ele>
        <time>2013-04-28T09:13:34Z</time>
      </trkpt>
      <trkpt lat="47.28261" lon="-0.32034">
        <ele>89.06</ele>
        <time>2013-04-28T09:13:35Z</time>
      </trkpt>
      <trkpt lat="47.28259" lon="-0.32039">
        <ele>89.54</ele>
        <time>2013-04-28T09:13:36Z</time>
      </trkpt>
      <trkpt lat="47.28256" lon="-0.32043">
        <ele>89.06</ele>
        <time>2013-04-28T09:13:37Z</time>
      </trkpt>
      <trkpt lat="47.28254" lon="-0.32047">
        <ele>89.06</ele>
        <time>2013-04-28T09:13:38Z</time>
      </trkpt>
      <trkpt lat="47.28251" lon="-0.32051">
        <ele>89.06</ele>
        <time>2013-04-28T09:13:39Z</time>
      </trkpt>
      <trkpt lat="47.28232" lon="-0.32082">
        <ele>90.02</ele>
        <time>2013-04-28T09:13:47Z</time>
      </trkpt>
      <trkpt lat="47.2822" lon="-0.32101">
        <ele>90.5</ele>
        <time>2013-04-28T09:13:51Z</time>
      </trkpt>
      <trkpt lat="47.28205" lon="-0.32123">
        <ele>89.06</ele>
        <time>2013-04-28T09:13:56Z</time>
      </trkpt>
      <trkpt lat="47.28182" lon="-0.3216">
        <ele>86.66</ele>
        <time>2013-04-28T09:14:03Z</time>
      </trkpt>
      <trkpt lat="47.28178" lon="-0.32165">
        <ele>86.66</ele>
        <time>2013-04-28T09:14:04Z</time>
      </trkpt>
      <trkpt lat="47.28174" lon="-0.3217">
        <ele>85.69</ele>
        <time>2013-04-28T09:14:05Z</time>
      </trkpt>
      <trkpt lat="47.28167" lon="-0.32183">
        <ele>85.21</ele>
        <time>2013-04-28T09:14:08Z</time>
      </trkpt>
      <trkpt lat="47.28167" lon="-0.32187">
        <ele>84.25</ele>
        <time>2013-04-28T09:14:09Z</time>
      </trkpt>
      <trkpt lat="47.28169" lon="-0.32191">
        <ele>84.25</ele>
        <time>2013-04-28T09:14:10Z</time>
      </trkpt>
      <trkpt lat="47.28173" lon="-0.32194">
        <ele>83.77</ele>
        <time>2013-04-28T09:14:11Z</time>
      </trkpt>
      <trkpt lat="47.28176" lon="-0.32198">
        <ele>83.29</ele>
        <time>2013-04-28T09:14:12Z</time>
      </trkpt>
      <trkpt lat="47.28179" lon="-0.32202">
        <ele>83.29</ele>
        <time>2013-04-28T09:14:13Z</time>
      </trkpt>
      <trkpt lat="47.28182" lon="-0.32207">
        <ele>83.29</ele>
        <time>2013-04-28T09:14:14Z</time>
      </trkpt>
      <trkpt lat="47.28186" lon="-0.32212">
        <ele>82.33</ele>
        <time>2013-04-28T09:14:15Z</time>
      </trkpt>
      <trkpt lat="47.28193" lon="-0.32228">
        <ele>81.85</ele>
        <time>2013-04-28T09:14:18Z</time>
      </trkpt>
      <trkpt lat="47.28193" lon="-0.32233">
        <ele>81.85</ele>
        <time>2013-04-28T09:14:19Z</time>
      </trkpt>
      <trkpt lat="47.28194" lon="-0.32239">
        <ele>81.37</ele>
        <time>2013-04-28T09:14:20Z</time>
      </trkpt>
      <trkpt lat="47.28195" lon="-0.32245">
        <ele>80.41</ele>
        <time>2013-04-28T09:14:21Z</time>
      </trkpt>
      <trkpt lat="47.28195" lon="-0.32252">
        <ele>79.93</ele>
        <time>2013-04-28T09:14:22Z</time>
      </trkpt>
      <trkpt lat="47.28196" lon="-0.32258">
        <ele>79.93</ele>
        <time>2013-04-28T09:14:23Z</time>
      </trkpt>
      <trkpt lat="47.28199" lon="-0.32262">
        <ele>78.97</ele>
        <time>2013-04-28T09:14:24Z</time>
      </trkpt>
      <trkpt lat="47.28209" lon="-0.32266">
        <ele>78.97</ele>
        <time>2013-04-28T09:14:28Z</time>
      </trkpt>
      <trkpt lat="47.28214" lon="-0.32265">
        <ele>78.48</ele>
        <time>2013-04-28T09:14:34Z</time>
      </trkpt>
      <trkpt lat="47.28218" lon="-0.32261">
        <ele>78.48</ele>
        <time>2013-04-28T09:14:37Z</time>
      </trkpt>
      <trkpt lat="47.2822" lon="-0.32256">
        <ele>79.93</ele>
        <time>2013-04-28T09:14:40Z</time>
      </trkpt>
      <trkpt lat="47.28224" lon="-0.32246">
        <ele>81.37</ele>
        <time>2013-04-28T09:14:45Z</time>
      </trkpt>
      <trkpt lat="47.28233" lon="-0.32239">
        <ele>81.85</ele>
        <time>2013-04-28T09:14:50Z</time>
      </trkpt>
      <trkpt lat="47.28239" lon="-0.32246">
        <ele>81.37</ele>
        <time>2013-04-28T09:14:52Z</time>
      </trkpt>
      <trkpt lat="47.28242" lon="-0.32251">
        <ele>79.93</ele>
        <time>2013-04-28T09:14:53Z</time>
      </trkpt>
      <trkpt lat="47.28245" lon="-0.32255">
        <ele>79.93</ele>
        <time>2013-04-28T09:14:54Z</time>
      </trkpt>
      <trkpt lat="47.28259" lon="-0.32258">
        <ele>78.97</ele>
        <time>2013-04-28T09:14:59Z</time>
      </trkpt>
      <trkpt lat="47.28269" lon="-0.32239">
        <ele>79.93</ele>
        <time>2013-04-28T09:15:04Z</time>
      </trkpt>
      <trkpt lat="47.28277" lon="-0.32223">
        <ele>80.41</ele>
        <time>2013-04-28T09:15:08Z</time>
      </trkpt>
      <trkpt lat="47.28289" lon="-0.32212">
        <ele>79.93</ele>
        <time>2013-04-28T09:15:12Z</time>
      </trkpt>
      <trkpt lat="47.2829" lon="-0.32208">
        <ele>80.41</ele>
        <time>2013-04-28T09:15:13Z</time>
      </trkpt>
      <trkpt lat="47.28294" lon="-0.32202">
        <ele>79.93</ele>
        <time>2013-04-28T09:15:15Z</time>
      </trkpt>
      <trkpt lat="47.2831" lon="-0.32196">
        <ele>79.45</ele>
        <time>2013-04-28T09:15:21Z</time>
      </trkpt>
      <trkpt lat="47.28326" lon="-0.322">
        <ele>78</ele>
        <time>2013-04-28T09:15:25Z</time>
      </trkpt>
      <trkpt lat="47.28331" lon="-0.322">
        <ele>78</ele>
        <time>2013-04-28T09:15:26Z</time>
      </trkpt>
      <trkpt lat="47.28335" lon="-0.32199">
        <ele>78</ele>
        <time>2013-04-28T09:15:27Z</time>
      </trkpt>
      <trkpt lat="47.28339" lon="-0.32198">
        <ele>77.52</ele>
        <time>2013-04-28T09:15:28Z</time>
      </trkpt>
      <trkpt lat="47.28344" lon="-0.32199">
        <ele>76.56</ele>
        <time>2013-04-28T09:15:29Z</time>
      </trkpt>
      <trkpt lat="47.28349" lon="-0.32201">
        <ele>76.08</ele>
        <time>2013-04-28T09:15:30Z</time>
      </trkpt>
      <trkpt lat="47.28354" lon="-0.32206">
        <ele>75.12</ele>
        <time>2013-04-28T09:15:31Z</time>
      </trkpt>
      <trkpt lat="47.28357" lon="-0.32209">
        <ele>75.6</ele>
        <time>2013-04-28T09:15:32Z</time>
      </trkpt>
      <trkpt lat="47.28361" lon="-0.32212">
        <ele>75.6</ele>
        <time>2013-04-28T09:15:33Z</time>
      </trkpt>
      <trkpt lat="47.28364" lon="-0.32214">
        <ele>74.64</ele>
        <time>2013-04-28T09:15:34Z</time>
      </trkpt>
      <trkpt lat="47.28367" lon="-0.32216">
        <ele>74.64</ele>
        <time>2013-04-28T09:15:35Z</time>
      </trkpt>
      <trkpt lat="47.28374" lon="-0.32221">
        <ele>72.72</ele>
        <time>2013-04-28T09:15:38Z</time>
      </trkpt>
      <trkpt lat="47.28377" lon="-0.32221">
        <ele>73.2</ele>
        <time>2013-04-28T09:15:39Z</time>
      </trkpt>
      <trkpt lat="47.2838" lon="-0.32217">
        <ele>73.68</ele>
        <time>2013-04-28T09:15:40Z</time>
      </trkpt>
      <trkpt lat="47.28385" lon="-0.32208">
        <ele>74.16</ele>
        <time>2013-04-28T09:15:42Z</time>
      </trkpt>
      <trkpt lat="47.28409" lon="-0.3217">
        <ele>71.76</ele>
        <time>2013-04-28T09:15:49Z</time>
      </trkpt>
      <trkpt lat="47.28413" lon="-0.32165">
        <ele>71.27</ele>
        <time>2013-04-28T09:15:50Z</time>
      </trkpt>
      <trkpt lat="47.28424" lon="-0.3215">
        <ele>71.27</ele>
        <time>2013-04-28T09:15:53Z</time>
      </trkpt>
      <trkpt lat="47.28443" lon="-0.32121">
        <ele>71.76</ele>
        <time>2013-04-28T09:15:58Z</time>
      </trkpt>
      <trkpt lat="47.28451" lon="-0.32109">
        <ele>72.24</ele>
        <time>2013-04-28T09:16:00Z</time>
      </trkpt>
      <trkpt lat="47.28467" lon="-0.32087">
        <ele>72.72</ele>
        <time>2013-04-28T09:16:04Z</time>
      </trkpt>
      <trkpt lat="47.28472" lon="-0.32081">
        <ele>72.72</ele>
        <time>2013-04-28T09:16:05Z</time>
      </trkpt>
      <trkpt lat="47.28476" lon="-0.32075">
        <ele>73.68</ele>
        <time>2013-04-28T09:16:06Z</time>
      </trkpt>
      <trkpt lat="47.2848" lon="-0.3207">
        <ele>73.68</ele>
        <time>2013-04-28T09:16:07Z</time>
      </trkpt>
      <trkpt lat="47.28484" lon="-0.32064">
        <ele>73.2</ele>
        <time>2013-04-28T09:16:08Z</time>
      </trkpt>
      <trkpt lat="47.28492" lon="-0.32054">
        <ele>73.2</ele>
        <time>2013-04-28T09:16:10Z</time>
      </trkpt>
      <trkpt lat="47.28496" lon="-0.32049">
        <ele>72.72</ele>
        <time>2013-04-28T09:16:11Z</time>
      </trkpt>
      <trkpt lat="47.28509" lon="-0.32031">
        <ele>72.24</ele>
        <time>2013-04-28T09:16:14Z</time>
      </trkpt>
      <trkpt lat="47.28513" lon="-0.32024">
        <ele>71.76</ele>
        <time>2013-04-28T09:16:15Z</time>
      </trkpt>
      <trkpt lat="47.28538" lon="-0.31982">
        <ele>70.79</ele>
        <time>2013-04-28T09:16:21Z</time>
      </trkpt>
      <trkpt lat="47.28553" lon="-0.31946">
        <ele>70.31</ele>
        <time>2013-04-28T09:16:25Z</time>
      </trkpt>
      <trkpt lat="47.28555" lon="-0.31935">
        <ele>69.83</ele>
        <time>2013-04-28T09:16:26Z</time>
      </trkpt>
      <trkpt lat="47.28556" lon="-0.31924">
        <ele>69.35</ele>
        <time>2013-04-28T09:16:27Z</time>
      </trkpt>
      <trkpt lat="47.28555" lon="-0.31914">
        <ele>69.83</ele>
        <time>2013-04-28T09:16:28Z</time>
      </trkpt>
      <trkpt lat="47.28555" lon="-0.31905">
        <ele>69.83</ele>
        <time>2013-04-28T09:16:29Z</time>
      </trkpt>
      <trkpt lat="47.28553" lon="-0.31878">
        <ele>70.31</ele>
        <time>2013-04-28T09:16:32Z</time>
      </trkpt>
      <trkpt lat="47.28551" lon="-0.31861">
        <ele>70.31</ele>
        <time>2013-04-28T09:16:34Z</time>
      </trkpt>
      <trkpt lat="47.28551" lon="-0.31853">
        <ele>70.31</ele>
        <time>2013-04-28T09:16:35Z</time>
      </trkpt>
      <trkpt lat="47.28552" lon="-0.31844">
        <ele>70.31</ele>
        <time>2013-04-28T09:16:36Z</time>
      </trkpt>
      <trkpt lat="47.28553" lon="-0.31836">
        <ele>69.83</ele>
        <time>2013-04-28T09:16:37Z</time>
      </trkpt>
      <trkpt lat="47.28555" lon="-0.31827">
        <ele>69.83</ele>
        <time>2013-04-28T09:16:38Z</time>
      </trkpt>
      <trkpt lat="47.28558" lon="-0.31818">
        <ele>69.35</ele>
        <time>2013-04-28T09:16:39Z</time>
      </trkpt>
      <trkpt lat="47.28562" lon="-0.31811">
        <ele>69.35</ele>
        <time>2013-04-28T09:16:40Z</time>
      </trkpt>
      <trkpt lat="47.28567" lon="-0.31804">
        <ele>69.35</ele>
        <time>2013-04-28T09:16:41Z</time>
      </trkpt>
      <trkpt lat="47.28572" lon="-0.31797">
        <ele>68.87</ele>
        <time>2013-04-28T09:16:42Z</time>
      </trkpt>
      <trkpt lat="47.28576" lon="-0.3179">
        <ele>68.39</ele>
        <time>2013-04-28T09:16:43Z</time>
      </trkpt>
      <trkpt lat="47.28581" lon="-0.31784">
        <ele>68.39</ele>
        <time>2013-04-28T09:16:44Z</time>
      </trkpt>
      <trkpt lat="47.28587" lon="-0.31777">
        <ele>68.87</ele>
        <time>2013-04-28T09:16:45Z</time>
      </trkpt>
      <trkpt lat="47.28606" lon="-0.31747">
        <ele>67.91</ele>
        <time>2013-04-28T09:16:49Z</time>
      </trkpt>
      <trkpt lat="47.28611" lon="-0.3174">
        <ele>67.91</ele>
        <time>2013-04-28T09:16:50Z</time>
      </trkpt>
      <trkpt lat="47.28616" lon="-0.31733">
        <ele>68.39</ele>
        <time>2013-04-28T09:16:51Z</time>
      </trkpt>
      <trkpt lat="47.2862" lon="-0.31726">
        <ele>69.35</ele>
        <time>2013-04-28T09:16:52Z</time>
      </trkpt>
      <trkpt lat="47.28626" lon="-0.31719">
        <ele>68.87</ele>
        <time>2013-04-28T09:16:53Z</time>
      </trkpt>
      <trkpt lat="47.2863" lon="-0.31713">
        <ele>69.35</ele>
        <time>2013-04-28T09:16:54Z</time>
      </trkpt>
      <trkpt lat="47.28634" lon="-0.31707">
        <ele>69.35</ele>
        <time>2013-04-28T09:16:55Z</time>
      </trkpt>
      <trkpt lat="47.28661" lon="-0.31669">
        <ele>71.27</ele>
        <time>2013-04-28T09:17:01Z</time>
      </trkpt>
      <trkpt lat="47.28675" lon="-0.3165">
        <ele>71.27</ele>
        <time>2013-04-28T09:17:04Z</time>
      </trkpt>
      <trkpt lat="47.28685" lon="-0.31639">
        <ele>71.27</ele>
        <time>2013-04-28T09:17:06Z</time>
      </trkpt>
      <trkpt lat="47.2872" lon="-0.31588">
        <ele>71.27</ele>
        <time>2013-04-28T09:17:14Z</time>
      </trkpt>
      <trkpt lat="47.28754" lon="-0.31542">
        <ele>71.76</ele>
        <time>2013-04-28T09:17:22Z</time>
      </trkpt>
      <trkpt lat="47.28763" lon="-0.31523">
        <ele>72.24</ele>
        <time>2013-04-28T09:17:26Z</time>
      </trkpt>
      <trkpt lat="47.2877" lon="-0.31517">
        <ele>72.24</ele>
        <time>2013-04-28T09:17:28Z</time>
      </trkpt>
      <trkpt lat="47.28774" lon="-0.31514">
        <ele>72.24</ele>
        <time>2013-04-28T09:17:29Z</time>
      </trkpt>
      <trkpt lat="47.28778" lon="-0.31511">
        <ele>72.72</ele>
        <time>2013-04-28T09:17:30Z</time>
      </trkpt>
      <trkpt lat="47.28814" lon="-0.31488">
        <ele>71.76</ele>
        <time>2013-04-28T09:17:37Z</time>
      </trkpt>
      <trkpt lat="47.28857" lon="-0.31461">
        <ele>71.76</ele>
        <time>2013-04-28T09:17:45Z</time>
      </trkpt>
      <trkpt lat="47.28878" lon="-0.3145">
        <ele>70.79</ele>
        <time>2013-04-28T09:17:49Z</time>
      </trkpt>
      <trkpt lat="47.28888" lon="-0.31451">
        <ele>70.31</ele>
        <time>2013-04-28T09:17:51Z</time>
      </trkpt>
      <trkpt lat="47.28893" lon="-0.3145">
        <ele>70.79</ele>
        <time>2013-04-28T09:17:52Z</time>
      </trkpt>
      <trkpt lat="47.28899" lon="-0.31447">
        <ele>70.31</ele>
        <time>2013-04-28T09:17:53Z</time>
      </trkpt>
      <trkpt lat="47.28904" lon="-0.31442">
        <ele>70.31</ele>
        <time>2013-04-28T09:17:54Z</time>
      </trkpt>
      <trkpt lat="47.28908" lon="-0.31437">
        <ele>70.31</ele>
        <time>2013-04-28T09:17:55Z</time>
      </trkpt>
      <trkpt lat="47.28913" lon="-0.31431">
        <ele>69.35</ele>
        <time>2013-04-28T09:17:56Z</time>
      </trkpt>
      <trkpt lat="47.28934" lon="-0.31411">
        <ele>69.35</ele>
        <time>2013-04-28T09:18:00Z</time>
      </trkpt>
      <trkpt lat="47.28944" lon="-0.314">
        <ele>68.87</ele>
        <time>2013-04-28T09:18:02Z</time>
      </trkpt>
      <trkpt lat="47.28949" lon="-0.31395">
        <ele>68.87</ele>
        <time>2013-04-28T09:18:03Z</time>
      </trkpt>
      <trkpt lat="47.28962" lon="-0.31382">
        <ele>67.91</ele>
        <time>2013-04-28T09:18:06Z</time>
      </trkpt>
      <trkpt lat="47.28967" lon="-0.31378">
        <ele>67.91</ele>
        <time>2013-04-28T09:18:07Z</time>
      </trkpt>
      <trkpt lat="47.29005" lon="-0.31337">
        <ele>66.47</ele>
        <time>2013-04-28T09:18:15Z</time>
      </trkpt>
      <trkpt lat="47.29013" lon="-0.31324">
        <ele>65.51</ele>
        <time>2013-04-28T09:18:18Z</time>
      </trkpt>
      <trkpt lat="47.2901" lon="-0.31316">
        <ele>65.51</ele>
        <time>2013-04-28T09:18:21Z</time>
      </trkpt>
      <trkpt lat="47.29004" lon="-0.31304">
        <ele>66.95</ele>
        <time>2013-04-28T09:18:24Z</time>
      </trkpt>
      <trkpt lat="47.28997" lon="-0.31269">
        <ele>67.91</ele>
        <time>2013-04-28T09:18:31Z</time>
      </trkpt>
      <trkpt lat="47.29003" lon="-0.31251">
        <ele>67.43</ele>
        <time>2013-04-28T09:18:35Z</time>
      </trkpt>
      <trkpt lat="47.29005" lon="-0.31244">
        <ele>67.43</ele>
        <time>2013-04-28T09:18:36Z</time>
      </trkpt>
      <trkpt lat="47.29007" lon="-0.31238">
        <ele>66.47</ele>
        <time>2013-04-28T09:18:37Z</time>
      </trkpt>
      <trkpt lat="47.29008" lon="-0.31231">
        <ele>67.43</ele>
        <time>2013-04-28T09:18:38Z</time>
      </trkpt>
      <trkpt lat="47.2901" lon="-0.31226">
        <ele>67.43</ele>
        <time>2013-04-28T09:18:39Z</time>
      </trkpt>
      <trkpt lat="47.29027" lon="-0.3118">
        <ele>66.47</ele>
        <time>2013-04-28T09:18:45Z</time>
      </trkpt>
      <trkpt lat="47.29031" lon="-0.31173">
        <ele>65.51</ele>
        <time>2013-04-28T09:18:46Z</time>
      </trkpt>
      <trkpt lat="47.29036" lon="-0.31168">
        <ele>65.03</ele>
        <time>2013-04-28T09:18:47Z</time>
      </trkpt>
      <trkpt lat="47.2904" lon="-0.31161">
        <ele>65.03</ele>
        <time>2013-04-28T09:18:48Z</time>
      </trkpt>
      <trkpt lat="47.29041" lon="-0.31153">
        <ele>64.55</ele>
        <time>2013-04-28T09:18:49Z</time>
      </trkpt>
      <trkpt lat="47.29042" lon="-0.31146">
        <ele>65.03</ele>
        <time>2013-04-28T09:18:50Z</time>
      </trkpt>
      <trkpt lat="47.29042" lon="-0.31138">
        <ele>65.51</ele>
        <time>2013-04-28T09:18:51Z</time>
      </trkpt>
      <trkpt lat="47.29042" lon="-0.31131">
        <ele>65.51</ele>
        <time>2013-04-28T09:18:52Z</time>
      </trkpt>
      <trkpt lat="47.29043" lon="-0.31125">
        <ele>65.51</ele>
        <time>2013-04-28T09:18:53Z</time>
      </trkpt>
      <trkpt lat="47.29045" lon="-0.31121">
        <ele>65.99</ele>
        <time>2013-04-28T09:18:54Z</time>
      </trkpt>
      <trkpt lat="47.29047" lon="-0.31118">
        <ele>66.95</ele>
        <time>2013-04-28T09:18:55Z</time>
      </trkpt>
      <trkpt lat="47.29049" lon="-0.31115">
        <ele>66.47</ele>
        <time>2013-04-28T09:18:56Z</time>
      </trkpt>
      <trkpt lat="47.29051" lon="-0.31113">
        <ele>67.91</ele>
        <time>2013-04-28T09:18:57Z</time>
      </trkpt>
      <trkpt lat="47.29052" lon="-0.3111">
        <ele>67.91</ele>
        <time>2013-04-28T09:18:58Z</time>
      </trkpt>
      <trkpt lat="47.29053" lon="-0.31106">
        <ele>68.87</ele>
        <time>2013-04-28T09:18:59Z</time>
      </trkpt>
      <trkpt lat="47.29056" lon="-0.31099">
        <ele>69.35</ele>
        <time>2013-04-28T09:19:01Z</time>
      </trkpt>
      <trkpt lat="47.29057" lon="-0.31095">
        <ele>69.83</ele>
        <time>2013-04-28T09:19:02Z</time>
      </trkpt>
      <trkpt lat="47.29056" lon="-0.31083">
        <ele>69.83</ele>
        <time>2013-04-28T09:19:07Z</time>
      </trkpt>
      <trkpt lat="47.29056" lon="-0.3108">
        <ele>69.35</ele>
        <time>2013-04-28T09:19:08Z</time>
      </trkpt>
      <trkpt lat="47.29056" lon="-0.31077">
        <ele>69.35</ele>
        <time>2013-04-28T09:19:09Z</time>
      </trkpt>
      <trkpt lat="47.29059" lon="-0.31059">
        <ele>71.27</ele>
        <time>2013-04-28T09:19:14Z</time>
      </trkpt>
      <trkpt lat="47.2906" lon="-0.31057">
        <ele>71.27</ele>
        <time>2013-04-28T09:19:15Z</time>
      </trkpt>
      <trkpt lat="47.29064" lon="-0.3105">
        <ele>73.2</ele>
        <time>2013-04-28T09:19:20Z</time>
      </trkpt>
      <trkpt lat="47.29066" lon="-0.3105">
        <ele>74.16</ele>
        <time>2013-04-28T09:19:22Z</time>
      </trkpt>
      <trkpt lat="47.29068" lon="-0.31051">
        <ele>73.68</ele>
        <time>2013-04-28T09:19:23Z</time>
      </trkpt>
      <trkpt lat="47.29069" lon="-0.31051">
        <ele>74.64</ele>
        <time>2013-04-28T09:19:24Z</time>
      </trkpt>
      <trkpt lat="47.29071" lon="-0.31052">
        <ele>74.16</ele>
        <time>2013-04-28T09:19:25Z</time>
      </trkpt>
      <trkpt lat="47.29077" lon="-0.31056">
        <ele>76.56</ele>
        <time>2013-04-28T09:19:31Z</time>
      </trkpt>
      <trkpt lat="47.29079" lon="-0.31056">
        <ele>75.6</ele>
        <time>2013-04-28T09:19:32Z</time>
      </trkpt>
      <trkpt lat="47.29087" lon="-0.3106">
        <ele>78</ele>
        <time>2013-04-28T09:19:37Z</time>
      </trkpt>
      <trkpt lat="47.29093" lon="-0.31065">
        <ele>78.97</ele>
        <time>2013-04-28T09:19:42Z</time>
      </trkpt>
      <trkpt lat="47.29094" lon="-0.31066">
        <ele>78.48</ele>
        <time>2013-04-28T09:19:43Z</time>
      </trkpt>
      <trkpt lat="47.29096" lon="-0.31067">
        <ele>79.45</ele>
        <time>2013-04-28T09:19:44Z</time>
      </trkpt>
      <trkpt lat="47.29097" lon="-0.31068">
        <ele>79.45</ele>
        <time>2013-04-28T09:19:45Z</time>
      </trkpt>
      <trkpt lat="47.29099" lon="-0.3107">
        <ele>79.93</ele>
        <time>2013-04-28T09:19:46Z</time>
      </trkpt>
      <trkpt lat="47.291" lon="-0.31071">
        <ele>79.93</ele>
        <time>2013-04-28T09:19:47Z</time>
      </trkpt>
      <trkpt lat="47.29102" lon="-0.31072">
        <ele>80.89</ele>
        <time>2013-04-28T09:19:48Z</time>
      </trkpt>
      <trkpt lat="47.29104" lon="-0.31072">
        <ele>80.89</ele>
        <time>2013-04-28T09:19:49Z</time>
      </trkpt>
      <trkpt lat="47.29105" lon="-0.31074">
        <ele>80.89</ele>
        <time>2013-04-28T09:19:50Z</time>
      </trkpt>
      <trkpt lat="47.29107" lon="-0.31074">
        <ele>81.37</ele>
        <time>2013-04-28T09:19:51Z</time>
      </trkpt>
      <trkpt lat="47.29109" lon="-0.31075">
        <ele>81.37</ele>
        <time>2013-04-28T09:19:52Z</time>
      </trkpt>
      <trkpt lat="47.29111" lon="-0.31075">
        <ele>81.37</ele>
        <time>2013-04-28T09:19:53Z</time>
      </trkpt>
      <trkpt lat="47.29112" lon="-0.31076">
        <ele>81.85</ele>
        <time>2013-04-28T09:19:54Z</time>
      </trkpt>
      <trkpt lat="47.29113" lon="-0.31076">
        <ele>81.85</ele>
        <time>2013-04-28T09:19:55Z</time>
      </trkpt>
      <trkpt lat="47.29115" lon="-0.31077">
        <ele>82.33</ele>
        <time>2013-04-28T09:19:56Z</time>
      </trkpt>
      <trkpt lat="47.29121" lon="-0.3108">
        <ele>82.81</ele>
        <time>2013-04-28T09:19:59Z</time>
      </trkpt>
      <trkpt lat="47.29122" lon="-0.31083">
        <ele>82.33</ele>
        <time>2013-04-28T09:20:00Z</time>
      </trkpt>
      <trkpt lat="47.29125" lon="-0.31086">
        <ele>82.81</ele>
        <time>2013-04-28T09:20:01Z</time>
      </trkpt>
      <trkpt lat="47.29141" lon="-0.311">
        <ele>82.81</ele>
        <time>2013-04-28T09:20:08Z</time>
      </trkpt>
      <trkpt lat="47.29157" lon="-0.31118">
        <ele>84.73</ele>
        <time>2013-04-28T09:20:14Z</time>
      </trkpt>
      <trkpt lat="47.2917" lon="-0.31126">
        <ele>84.25</ele>
        <time>2013-04-28T09:20:18Z</time>
      </trkpt>
      <trkpt lat="47.29172" lon="-0.31125">
        <ele>84.73</ele>
        <time>2013-04-28T09:20:19Z</time>
      </trkpt>
      <trkpt lat="47.29175" lon="-0.31125">
        <ele>84.25</ele>
        <time>2013-04-28T09:20:20Z</time>
      </trkpt>
      <trkpt lat="47.29176" lon="-0.31124">
        <ele>84.73</ele>
        <time>2013-04-28T09:20:21Z</time>
      </trkpt>
      <trkpt lat="47.29179" lon="-0.31124">
        <ele>84.25</ele>
        <time>2013-04-28T09:20:22Z</time>
      </trkpt>
      <trkpt lat="47.29182" lon="-0.31124">
        <ele>84.73</ele>
        <time>2013-04-28T09:20:23Z</time>
      </trkpt>
      <trkpt lat="47.29185" lon="-0.31126">
        <ele>85.21</ele>
        <time>2013-04-28T09:20:24Z</time>
      </trkpt>
      <trkpt lat="47.29189" lon="-0.31128">
        <ele>85.21</ele>
        <time>2013-04-28T09:20:25Z</time>
      </trkpt>
      <trkpt lat="47.29192" lon="-0.31131">
        <ele>85.69</ele>
        <time>2013-04-28T09:20:26Z</time>
      </trkpt>
      <trkpt lat="47.29194" lon="-0.31135">
        <ele>85.21</ele>
        <time>2013-04-28T09:20:27Z</time>
      </trkpt>
      <trkpt lat="47.29195" lon="-0.31138">
        <ele>85.21</ele>
        <time>2013-04-28T09:20:28Z</time>
      </trkpt>
      <trkpt lat="47.29197" lon="-0.31142">
        <ele>84.73</ele>
        <time>2013-04-28T09:20:29Z</time>
      </trkpt>
      <trkpt lat="47.29197" lon="-0.31147">
        <ele>85.21</ele>
        <time>2013-04-28T09:20:30Z</time>
      </trkpt>
      <trkpt lat="47.29198" lon="-0.31153">
        <ele>85.21</ele>
        <time>2013-04-28T09:20:31Z</time>
      </trkpt>
      <trkpt lat="47.29199" lon="-0.31159">
        <ele>85.21</ele>
        <time>2013-04-28T09:20:32Z</time>
      </trkpt>
      <trkpt lat="47.29199" lon="-0.31172">
        <ele>84.73</ele>
        <time>2013-04-28T09:20:34Z</time>
      </trkpt>
      <trkpt lat="47.29199" lon="-0.31179">
        <ele>84.73</ele>
        <time>2013-04-28T09:20:35Z</time>
      </trkpt>
      <trkpt lat="47.29203" lon="-0.31205">
        <ele>84.25</ele>
        <time>2013-04-28T09:20:38Z</time>
      </trkpt>
      <trkpt lat="47.29216" lon="-0.31244">
        <ele>80.89</ele>
        <time>2013-04-28T09:20:42Z</time>
      </trkpt>
      <trkpt lat="47.29228" lon="-0.31276">
        <ele>79.45</ele>
        <time>2013-04-28T09:20:45Z</time>
      </trkpt>
      <trkpt lat="47.29231" lon="-0.31287">
        <ele>78.48</ele>
        <time>2013-04-28T09:20:46Z</time>
      </trkpt>
      <trkpt lat="47.29231" lon="-0.313">
        <ele>78.48</ele>
        <time>2013-04-28T09:20:47Z</time>
      </trkpt>
      <trkpt lat="47.2923" lon="-0.31323">
        <ele>76.56</ele>
        <time>2013-04-28T09:20:49Z</time>
      </trkpt>
      <trkpt lat="47.29229" lon="-0.31334">
        <ele>76.08</ele>
        <time>2013-04-28T09:20:50Z</time>
      </trkpt>
      <trkpt lat="47.29228" lon="-0.31345">
        <ele>77.04</ele>
        <time>2013-04-28T09:20:51Z</time>
      </trkpt>
      <trkpt lat="47.29228" lon="-0.31357">
        <ele>76.08</ele>
        <time>2013-04-28T09:20:52Z</time>
      </trkpt>
      <trkpt lat="47.29229" lon="-0.31369">
        <ele>75.6</ele>
        <time>2013-04-28T09:20:53Z</time>
      </trkpt>
      <trkpt lat="47.2923" lon="-0.3138">
        <ele>75.12</ele>
        <time>2013-04-28T09:20:54Z</time>
      </trkpt>
      <trkpt lat="47.29232" lon="-0.31392">
        <ele>74.64</ele>
        <time>2013-04-28T09:20:55Z</time>
      </trkpt>
      <trkpt lat="47.29234" lon="-0.31403">
        <ele>74.64</ele>
        <time>2013-04-28T09:20:56Z</time>
      </trkpt>
      <trkpt lat="47.29238" lon="-0.31414">
        <ele>73.68</ele>
        <time>2013-04-28T09:20:57Z</time>
      </trkpt>
      <trkpt lat="47.29242" lon="-0.31424">
        <ele>72.72</ele>
        <time>2013-04-28T09:20:58Z</time>
      </trkpt>
      <trkpt lat="47.29247" lon="-0.31434">
        <ele>72.72</ele>
        <time>2013-04-28T09:20:59Z</time>
      </trkpt>
      <trkpt lat="47.29264" lon="-0.31461">
        <ele>70.79</ele>
        <time>2013-04-28T09:21:02Z</time>
      </trkpt>
      <trkpt lat="47.29273" lon="-0.31478">
        <ele>68.87</ele>
        <time>2013-04-28T09:21:04Z</time>
      </trkpt>
      <trkpt lat="47.29276" lon="-0.31486">
        <ele>67.91</ele>
        <time>2013-04-28T09:21:05Z</time>
      </trkpt>
      <trkpt lat="47.29279" lon="-0.31491">
        <ele>67.43</ele>
        <time>2013-04-28T09:21:06Z</time>
      </trkpt>
      <trkpt lat="47.29282" lon="-0.31494">
        <ele>66.95</ele>
        <time>2013-04-28T09:21:07Z</time>
      </trkpt>
      <trkpt lat="47.29284" lon="-0.31495">
        <ele>66.95</ele>
        <time>2013-04-28T09:21:08Z</time>
      </trkpt>
      <trkpt lat="47.29285" lon="-0.31495">
        <ele>66.95</ele>
        <time>2013-04-28T09:21:10Z</time>
      </trkpt>
      <trkpt lat="47.29287" lon="-0.31494">
        <ele>67.91</ele>
        <time>2013-04-28T09:21:12Z</time>
      </trkpt>
      <trkpt lat="47.29288" lon="-0.31494">
        <ele>67.91</ele>
        <time>2013-04-28T09:21:13Z</time>
      </trkpt>
      <trkpt lat="47.29294" lon="-0.31491">
        <ele>69.35</ele>
        <time>2013-04-28T09:21:18Z</time>
      </trkpt>
      <trkpt lat="47.29299" lon="-0.31485">
        <ele>70.31</ele>
        <time>2013-04-28T09:21:22Z</time>
      </trkpt>
      <trkpt lat="47.29299" lon="-0.31482">
        <ele>70.31</ele>
        <time>2013-04-28T09:21:23Z</time>
      </trkpt>
      <trkpt lat="47.29299" lon="-0.3148">
        <ele>70.31</ele>
        <time>2013-04-28T09:21:24Z</time>
      </trkpt>
      <trkpt lat="47.293" lon="-0.31474">
        <ele>72.24</ele>
        <time>2013-04-28T09:21:26Z</time>
      </trkpt>
      <trkpt lat="47.293" lon="-0.31472">
        <ele>72.24</ele>
        <time>2013-04-28T09:21:27Z</time>
      </trkpt>
      <trkpt lat="47.293" lon="-0.3147">
        <ele>72.24</ele>
        <time>2013-04-28T09:21:28Z</time>
      </trkpt>
      <trkpt lat="47.29302" lon="-0.31461">
        <ele>73.68</ele>
        <time>2013-04-28T09:21:32Z</time>
      </trkpt>
      <trkpt lat="47.29303" lon="-0.31459">
        <ele>74.64</ele>
        <time>2013-04-28T09:21:33Z</time>
      </trkpt>
      <trkpt lat="47.29305" lon="-0.31454">
        <ele>75.12</ele>
        <time>2013-04-28T09:21:36Z</time>
      </trkpt>
      <trkpt lat="47.29311" lon="-0.31448">
        <ele>76.56</ele>
        <time>2013-04-28T09:21:42Z</time>
      </trkpt>
      <trkpt lat="47.29322" lon="-0.3144">
        <ele>78.97</ele>
        <time>2013-04-28T09:21:49Z</time>
      </trkpt>
      <trkpt lat="47.29323" lon="-0.31438">
        <ele>78.97</ele>
        <time>2013-04-28T09:21:50Z</time>
      </trkpt>
      <trkpt lat="47.29324" lon="-0.31437">
        <ele>78.97</ele>
        <time>2013-04-28T09:21:51Z</time>
      </trkpt>
      <trkpt lat="47.29326" lon="-0.31436">
        <ele>79.45</ele>
        <time>2013-04-28T09:21:52Z</time>
      </trkpt>
      <trkpt lat="47.29327" lon="-0.31435">
        <ele>79.45</ele>
        <time>2013-04-28T09:21:53Z</time>
      </trkpt>
      <trkpt lat="47.29329" lon="-0.31434">
        <ele>79.93</ele>
        <time>2013-04-28T09:21:54Z</time>
      </trkpt>
      <trkpt lat="47.29331" lon="-0.31433">
        <ele>80.41</ele>
        <time>2013-04-28T09:21:55Z</time>
      </trkpt>
      <trkpt lat="47.29332" lon="-0.31431">
        <ele>80.89</ele>
        <time>2013-04-28T09:21:56Z</time>
      </trkpt>
      <trkpt lat="47.29334" lon="-0.3143">
        <ele>80.89</ele>
        <time>2013-04-28T09:21:57Z</time>
      </trkpt>
      <trkpt lat="47.29336" lon="-0.3143">
        <ele>80.41</ele>
        <time>2013-04-28T09:21:58Z</time>
      </trkpt>
      <trkpt lat="47.2934" lon="-0.31428">
        <ele>80.41</ele>
        <time>2013-04-28T09:22:00Z</time>
      </trkpt>
      <trkpt lat="47.29341" lon="-0.31427">
        <ele>80.89</ele>
        <time>2013-04-28T09:22:01Z</time>
      </trkpt>
      <trkpt lat="47.29342" lon="-0.31426">
        <ele>81.85</ele>
        <time>2013-04-28T09:22:02Z</time>
      </trkpt>
      <trkpt lat="47.29343" lon="-0.31424">
        <ele>82.33</ele>
        <time>2013-04-28T09:22:03Z</time>
      </trkpt>
      <trkpt lat="47.29344" lon="-0.31422">
        <ele>82.33</ele>
        <time>2013-04-28T09:22:04Z</time>
      </trkpt>
      <trkpt lat="47.29351" lon="-0.31417">
        <ele>82.81</ele>
        <time>2013-04-28T09:22:09Z</time>
      </trkpt>
      <trkpt lat="47.29364" lon="-0.3141">
        <ele>84.25</ele>
        <time>2013-04-28T09:22:16Z</time>
      </trkpt>
      <trkpt lat="47.29366" lon="-0.31408">
        <ele>84.25</ele>
        <time>2013-04-28T09:22:17Z</time>
      </trkpt>
      <trkpt lat="47.29368" lon="-0.31407">
        <ele>84.73</ele>
        <time>2013-04-28T09:22:18Z</time>
      </trkpt>
      <trkpt lat="47.2937" lon="-0.31405">
        <ele>84.73</ele>
        <time>2013-04-28T09:22:19Z</time>
      </trkpt>
      <trkpt lat="47.29372" lon="-0.31403">
        <ele>85.69</ele>
        <time>2013-04-28T09:22:20Z</time>
      </trkpt>
      <trkpt lat="47.29374" lon="-0.31402">
        <ele>85.21</ele>
        <time>2013-04-28T09:22:21Z</time>
      </trkpt>
      <trkpt lat="47.29376" lon="-0.31401">
        <ele>85.69</ele>
        <time>2013-04-28T09:22:22Z</time>
      </trkpt>
      <trkpt lat="47.29378" lon="-0.314">
        <ele>85.21</ele>
        <time>2013-04-28T09:22:23Z</time>
      </trkpt>
      <trkpt lat="47.2938" lon="-0.31399">
        <ele>85.69</ele>
        <time>2013-04-28T09:22:24Z</time>
      </trkpt>
      <trkpt lat="47.29381" lon="-0.31397">
        <ele>85.69</ele>
        <time>2013-04-28T09:22:25Z</time>
      </trkpt>
      <trkpt lat="47.29382" lon="-0.31394">
        <ele>85.69</ele>
        <time>2013-04-28T09:22:26Z</time>
      </trkpt>
      <trkpt lat="47.29384" lon="-0.31393">
        <ele>86.66</ele>
        <time>2013-04-28T09:22:27Z</time>
      </trkpt>
      <trkpt lat="47.29393" lon="-0.31382">
        <ele>87.14</ele>
        <time>2013-04-28T09:22:33Z</time>
      </trkpt>
      <trkpt lat="47.29401" lon="-0.31376">
        <ele>88.1</ele>
        <time>2013-04-28T09:22:38Z</time>
      </trkpt>
      <trkpt lat="47.29404" lon="-0.31372">
        <ele>88.58</ele>
        <time>2013-04-28T09:22:40Z</time>
      </trkpt>
      <trkpt lat="47.29404" lon="-0.3137">
        <ele>88.1</ele>
        <time>2013-04-28T09:22:41Z</time>
      </trkpt>
      <trkpt lat="47.29404" lon="-0.31367">
        <ele>88.1</ele>
        <time>2013-04-28T09:22:42Z</time>
      </trkpt>
      <trkpt lat="47.29404" lon="-0.31361">
        <ele>88.58</ele>
        <time>2013-04-28T09:22:46Z</time>
      </trkpt>
      <trkpt lat="47.29401" lon="-0.31353">
        <ele>88.1</ele>
        <time>2013-04-28T09:22:52Z</time>
      </trkpt>
      <trkpt lat="47.29402" lon="-0.31352">
        <ele>88.1</ele>
        <time>2013-04-28T09:24:25Z</time>
      </trkpt>
      <trkpt lat="47.29403" lon="-0.31352">
        <ele>87.62</ele>
        <time>2013-04-28T09:24:31Z</time>
      </trkpt>
      <trkpt lat="47.29405" lon="-0.3135">
        <ele>87.62</ele>
        <time>2013-04-28T09:27:36Z</time>
      </trkpt>
      <trkpt lat="47.29408" lon="-0.31351">
        <ele>87.62</ele>
        <time>2013-04-28T09:27:43Z</time>
      </trkpt>
      <trkpt lat="47.2941" lon="-0.3135">
        <ele>87.62</ele>
        <time>2013-04-28T09:27:57Z</time>
      </trkpt>
      <trkpt lat="47.29412" lon="-0.31347">
        <ele>88.1</ele>
        <time>2013-04-28T09:28:00Z</time>
      </trkpt>
      <trkpt lat="47.29415" lon="-0.31342">
        <ele>87.62</ele>
        <time>2013-04-28T09:28:03Z</time>
      </trkpt>
      <trkpt lat="47.29415" lon="-0.3134">
        <ele>88.1</ele>
        <time>2013-04-28T09:28:04Z</time>
      </trkpt>
      <trkpt lat="47.29417" lon="-0.31338">
        <ele>88.1</ele>
        <time>2013-04-28T09:28:05Z</time>
      </trkpt>
      <trkpt lat="47.29418" lon="-0.31337">
        <ele>88.1</ele>
        <time>2013-04-28T09:28:06Z</time>
      </trkpt>
      <trkpt lat="47.29421" lon="-0.31334">
        <ele>88.1</ele>
        <time>2013-04-28T09:28:07Z</time>
      </trkpt>
      <trkpt lat="47.29423" lon="-0.3133">
        <ele>89.06</ele>
        <time>2013-04-28T09:28:08Z</time>
      </trkpt>
      <trkpt lat="47.29425" lon="-0.31325">
        <ele>89.06</ele>
        <time>2013-04-28T09:28:09Z</time>
      </trkpt>
      <trkpt lat="47.29427" lon="-0.31322">
        <ele>89.06</ele>
        <time>2013-04-28T09:28:10Z</time>
      </trkpt>
      <trkpt lat="47.2943" lon="-0.31322">
        <ele>89.54</ele>
        <time>2013-04-28T09:28:11Z</time>
      </trkpt>
      <trkpt lat="47.29432" lon="-0.31321">
        <ele>89.06</ele>
        <time>2013-04-28T09:28:12Z</time>
      </trkpt>
      <trkpt lat="47.29445" lon="-0.31325">
        <ele>90.02</ele>
        <time>2013-04-28T09:28:17Z</time>
      </trkpt>
      <trkpt lat="47.29452" lon="-0.31329">
        <ele>88.1</ele>
        <time>2013-04-28T09:28:19Z</time>
      </trkpt>
      <trkpt lat="47.29455" lon="-0.31329">
        <ele>88.1</ele>
        <time>2013-04-28T09:28:20Z</time>
      </trkpt>
      <trkpt lat="47.29458" lon="-0.3133">
        <ele>89.06</ele>
        <time>2013-04-28T09:28:21Z</time>
      </trkpt>
      <trkpt lat="47.29461" lon="-0.31331">
        <ele>89.06</ele>
        <time>2013-04-28T09:28:22Z</time>
      </trkpt>
      <trkpt lat="47.29463" lon="-0.31333">
        <ele>88.1</ele>
        <time>2013-04-28T09:28:23Z</time>
      </trkpt>
      <trkpt lat="47.29465" lon="-0.31334">
        <ele>88.58</ele>
        <time>2013-04-28T09:28:24Z</time>
      </trkpt>
      <trkpt lat="47.29467" lon="-0.31334">
        <ele>88.58</ele>
        <time>2013-04-28T09:28:25Z</time>
      </trkpt>
      <trkpt lat="47.29476" lon="-0.31338">
        <ele>88.58</ele>
        <time>2013-04-28T09:28:28Z</time>
      </trkpt>
      <trkpt lat="47.29477" lon="-0.31341">
        <ele>88.58</ele>
        <time>2013-04-28T09:28:29Z</time>
      </trkpt>
      <trkpt lat="47.29481" lon="-0.31343">
        <ele>88.58</ele>
        <time>2013-04-28T09:28:31Z</time>
      </trkpt>
      <trkpt lat="47.29484" lon="-0.31342">
        <ele>88.1</ele>
        <time>2013-04-28T09:28:35Z</time>
      </trkpt>
      <trkpt lat="47.29487" lon="-0.31346">
        <ele>88.58</ele>
        <time>2013-04-28T09:28:36Z</time>
      </trkpt>
      <trkpt lat="47.29489" lon="-0.3135">
        <ele>87.62</ele>
        <time>2013-04-28T09:28:37Z</time>
      </trkpt>
      <trkpt lat="47.29491" lon="-0.31353">
        <ele>87.62</ele>
        <time>2013-04-28T09:28:38Z</time>
      </trkpt>
      <trkpt lat="47.29493" lon="-0.31356">
        <ele>89.06</ele>
        <time>2013-04-28T09:28:39Z</time>
      </trkpt>
      <trkpt lat="47.29494" lon="-0.31359">
        <ele>88.58</ele>
        <time>2013-04-28T09:28:40Z</time>
      </trkpt>
      <trkpt lat="47.29494" lon="-0.31361">
        <ele>88.1</ele>
        <time>2013-04-28T09:28:41Z</time>
      </trkpt>
      <trkpt lat="47.29493" lon="-0.31362">
        <ele>88.1</ele>
        <time>2013-04-28T09:28:42Z</time>
      </trkpt>
      <trkpt lat="47.29492" lon="-0.31363">
        <ele>88.58</ele>
        <time>2013-04-28T09:28:43Z</time>
      </trkpt>
      <trkpt lat="47.29495" lon="-0.31373">
        <ele>87.62</ele>
        <time>2013-04-28T09:28:46Z</time>
      </trkpt>
      <trkpt lat="47.29497" lon="-0.31378">
        <ele>88.58</ele>
        <time>2013-04-28T09:28:47Z</time>
      </trkpt>
      <trkpt lat="47.29505" lon="-0.31395">
        <ele>87.62</ele>
        <time>2013-04-28T09:28:51Z</time>
      </trkpt>
      <trkpt lat="47.29518" lon="-0.31415">
        <ele>87.14</ele>
        <time>2013-04-28T09:28:56Z</time>
      </trkpt>
      <trkpt lat="47.29526" lon="-0.31434">
        <ele>86.18</ele>
        <time>2013-04-28T09:29:00Z</time>
      </trkpt>
      <trkpt lat="47.29533" lon="-0.31447">
        <ele>83.29</ele>
        <time>2013-04-28T09:29:03Z</time>
      </trkpt>
      <trkpt lat="47.29538" lon="-0.31452">
        <ele>81.85</ele>
        <time>2013-04-28T09:29:05Z</time>
      </trkpt>
      <trkpt lat="47.29544" lon="-0.31456">
        <ele>82.33</ele>
        <time>2013-04-28T09:29:08Z</time>
      </trkpt>
      <trkpt lat="47.29552" lon="-0.31448">
        <ele>83.29</ele>
        <time>2013-04-28T09:29:13Z</time>
      </trkpt>
      <trkpt lat="47.29552" lon="-0.31443">
        <ele>82.81</ele>
        <time>2013-04-28T09:29:15Z</time>
      </trkpt>
      <trkpt lat="47.29548" lon="-0.31438">
        <ele>84.73</ele>
        <time>2013-04-28T09:29:18Z</time>
      </trkpt>
      <trkpt lat="47.29548" lon="-0.31432">
        <ele>84.25</ele>
        <time>2013-04-28T09:29:21Z</time>
      </trkpt>
      <trkpt lat="47.29552" lon="-0.31426">
        <ele>85.69</ele>
        <time>2013-04-28T09:29:26Z</time>
      </trkpt>
      <trkpt lat="47.29553" lon="-0.31425">
        <ele>86.18</ele>
        <time>2013-04-28T09:29:31Z</time>
      </trkpt>
      <trkpt lat="47.29559" lon="-0.31411">
        <ele>86.18</ele>
        <time>2013-04-28T09:29:37Z</time>
      </trkpt>
      <trkpt lat="47.29561" lon="-0.3141">
        <ele>86.66</ele>
        <time>2013-04-28T09:29:39Z</time>
      </trkpt>
      <trkpt lat="47.29569" lon="-0.31411">
        <ele>85.69</ele>
        <time>2013-04-28T09:29:43Z</time>
      </trkpt>
      <trkpt lat="47.29576" lon="-0.31424">
        <ele>85.69</ele>
        <time>2013-04-28T09:29:48Z</time>
      </trkpt>
      <trkpt lat="47.29578" lon="-0.31435">
        <ele>83.77</ele>
        <time>2013-04-28T09:29:50Z</time>
      </trkpt>
      <trkpt lat="47.29579" lon="-0.31441">
        <ele>83.77</ele>
        <time>2013-04-28T09:29:51Z</time>
      </trkpt>
      <trkpt lat="47.29579" lon="-0.31448">
        <ele>82.33</ele>
        <time>2013-04-28T09:29:52Z</time>
      </trkpt>
      <trkpt lat="47.29579" lon="-0.31461">
        <ele>80.89</ele>
        <time>2013-04-28T09:29:54Z</time>
      </trkpt>
      <trkpt lat="47.29582" lon="-0.31466">
        <ele>79.93</ele>
        <time>2013-04-28T09:29:55Z</time>
      </trkpt>
      <trkpt lat="47.29583" lon="-0.31472">
        <ele>79.45</ele>
        <time>2013-04-28T09:29:56Z</time>
      </trkpt>
      <trkpt lat="47.29584" lon="-0.31479">
        <ele>78.48</ele>
        <time>2013-04-28T09:29:57Z</time>
      </trkpt>
      <trkpt lat="47.29585" lon="-0.31485">
        <ele>77.04</ele>
        <time>2013-04-28T09:29:58Z</time>
      </trkpt>
      <trkpt lat="47.29587" lon="-0.3149">
        <ele>77.04</ele>
        <time>2013-04-28T09:29:59Z</time>
      </trkpt>
      <trkpt lat="47.2959" lon="-0.31494">
        <ele>76.56</ele>
        <time>2013-04-28T09:30:00Z</time>
      </trkpt>
      <trkpt lat="47.29594" lon="-0.31497">
        <ele>76.56</ele>
        <time>2013-04-28T09:30:01Z</time>
      </trkpt>
      <trkpt lat="47.29597" lon="-0.31501">
        <ele>75.6</ele>
        <time>2013-04-28T09:30:02Z</time>
      </trkpt>
      <trkpt lat="47.29599" lon="-0.31506">
        <ele>74.64</ele>
        <time>2013-04-28T09:30:03Z</time>
      </trkpt>
      <trkpt lat="47.296" lon="-0.31512">
        <ele>73.68</ele>
        <time>2013-04-28T09:30:04Z</time>
      </trkpt>
      <trkpt lat="47.29602" lon="-0.31517">
        <ele>73.2</ele>
        <time>2013-04-28T09:30:05Z</time>
      </trkpt>
      <trkpt lat="47.29606" lon="-0.3152">
        <ele>72.72</ele>
        <time>2013-04-28T09:30:06Z</time>
      </trkpt>
      <trkpt lat="47.2961" lon="-0.31521">
        <ele>73.68</ele>
        <time>2013-04-28T09:30:07Z</time>
      </trkpt>
      <trkpt lat="47.29613" lon="-0.31522">
        <ele>73.2</ele>
        <time>2013-04-28T09:30:08Z</time>
      </trkpt>
      <trkpt lat="47.29618" lon="-0.31523">
        <ele>72.72</ele>
        <time>2013-04-28T09:30:09Z</time>
      </trkpt>
      <trkpt lat="47.29622" lon="-0.31524">
        <ele>73.68</ele>
        <time>2013-04-28T09:30:10Z</time>
      </trkpt>
      <trkpt lat="47.29627" lon="-0.31525">
        <ele>73.68</ele>
        <time>2013-04-28T09:30:11Z</time>
      </trkpt>
      <trkpt lat="47.29631" lon="-0.31526">
        <ele>72.72</ele>
        <time>2013-04-28T09:30:12Z</time>
      </trkpt>
      <trkpt lat="47.29635" lon="-0.31526">
        <ele>72.24</ele>
        <time>2013-04-28T09:30:13Z</time>
      </trkpt>
      <trkpt lat="47.29639" lon="-0.31524">
        <ele>72.72</ele>
        <time>2013-04-28T09:30:14Z</time>
      </trkpt>
      <trkpt lat="47.29644" lon="-0.31522">
        <ele>73.2</ele>
        <time>2013-04-28T09:30:15Z</time>
      </trkpt>
      <trkpt lat="47.29653" lon="-0.3152">
        <ele>74.16</ele>
        <time>2013-04-28T09:30:17Z</time>
      </trkpt>
      <trkpt lat="47.29671" lon="-0.31515">
        <ele>72.72</ele>
        <time>2013-04-28T09:30:21Z</time>
      </trkpt>
      <trkpt lat="47.29676" lon="-0.31513">
        <ele>72.72</ele>
        <time>2013-04-28T09:30:22Z</time>
      </trkpt>
      <trkpt lat="47.2968" lon="-0.31514">
        <ele>71.76</ele>
        <time>2013-04-28T09:30:23Z</time>
      </trkpt>
      <trkpt lat="47.29683" lon="-0.31517">
        <ele>72.24</ele>
        <time>2013-04-28T09:30:24Z</time>
      </trkpt>
      <trkpt lat="47.29683" lon="-0.3152">
        <ele>71.76</ele>
        <time>2013-04-28T09:30:25Z</time>
      </trkpt>
      <trkpt lat="47.29682" lon="-0.31525">
        <ele>71.27</ele>
        <time>2013-04-28T09:30:26Z</time>
      </trkpt>
      <trkpt lat="47.2968" lon="-0.3153">
        <ele>70.79</ele>
        <time>2013-04-28T09:30:27Z</time>
      </trkpt>
      <trkpt lat="47.29679" lon="-0.31536">
        <ele>70.31</ele>
        <time>2013-04-28T09:30:28Z</time>
      </trkpt>
      <trkpt lat="47.29677" lon="-0.31542">
        <ele>70.79</ele>
        <time>2013-04-28T09:30:29Z</time>
      </trkpt>
      <trkpt lat="47.29675" lon="-0.31546">
        <ele>71.27</ele>
        <time>2013-04-28T09:30:30Z</time>
      </trkpt>
      <trkpt lat="47.29671" lon="-0.31549">
        <ele>70.31</ele>
        <time>2013-04-28T09:30:31Z</time>
      </trkpt>
      <trkpt lat="47.29667" lon="-0.31553">
        <ele>69.35</ele>
        <time>2013-04-28T09:30:32Z</time>
      </trkpt>
      <trkpt lat="47.29664" lon="-0.31557">
        <ele>69.83</ele>
        <time>2013-04-28T09:30:33Z</time>
      </trkpt>
      <trkpt lat="47.29655" lon="-0.31566">
        <ele>69.35</ele>
        <time>2013-04-28T09:30:35Z</time>
      </trkpt>
      <trkpt lat="47.2965" lon="-0.31572">
        <ele>68.87</ele>
        <time>2013-04-28T09:30:36Z</time>
      </trkpt>
      <trkpt lat="47.29645" lon="-0.31578">
        <ele>69.35</ele>
        <time>2013-04-28T09:30:37Z</time>
      </trkpt>
      <trkpt lat="47.29629" lon="-0.31591">
        <ele>68.39</ele>
        <time>2013-04-28T09:30:40Z</time>
      </trkpt>
      <trkpt lat="47.29618" lon="-0.31597">
        <ele>67.91</ele>
        <time>2013-04-28T09:30:42Z</time>
      </trkpt>
      <trkpt lat="47.29609" lon="-0.31605">
        <ele>67.43</ele>
        <time>2013-04-28T09:30:44Z</time>
      </trkpt>
      <trkpt lat="47.29606" lon="-0.3161">
        <ele>66.95</ele>
        <time>2013-04-28T09:30:45Z</time>
      </trkpt>
      <trkpt lat="47.29605" lon="-0.31613">
        <ele>66.47</ele>
        <time>2013-04-28T09:30:46Z</time>
      </trkpt>
      <trkpt lat="47.29602" lon="-0.31615">
        <ele>66.47</ele>
        <time>2013-04-28T09:30:47Z</time>
      </trkpt>
      <trkpt lat="47.29599" lon="-0.31616">
        <ele>66.47</ele>
        <time>2013-04-28T09:30:48Z</time>
      </trkpt>
      <trkpt lat="47.29596" lon="-0.31617">
        <ele>66.47</ele>
        <time>2013-04-28T09:30:49Z</time>
      </trkpt>
      <trkpt lat="47.29592" lon="-0.31619">
        <ele>66.95</ele>
        <time>2013-04-28T09:30:50Z</time>
      </trkpt>
      <trkpt lat="47.29587" lon="-0.31621">
        <ele>66.47</ele>
        <time>2013-04-28T09:30:51Z</time>
      </trkpt>
      <trkpt lat="47.29582" lon="-0.31624">
        <ele>66.95</ele>
        <time>2013-04-28T09:30:52Z</time>
      </trkpt>
      <trkpt lat="47.29578" lon="-0.31626">
        <ele>65.99</ele>
        <time>2013-04-28T09:30:53Z</time>
      </trkpt>
      <trkpt lat="47.29573" lon="-0.31628">
        <ele>65.51</ele>
        <time>2013-04-28T09:30:54Z</time>
      </trkpt>
      <trkpt lat="47.29568" lon="-0.31621">
        <ele>65.99</ele>
        <time>2013-04-28T09:30:57Z</time>
      </trkpt>
      <trkpt lat="47.29556" lon="-0.31613">
        <ele>65.99</ele>
        <time>2013-04-28T09:31:03Z</time>
      </trkpt>
      <trkpt lat="47.2955" lon="-0.31614">
        <ele>65.99</ele>
        <time>2013-04-28T09:31:04Z</time>
      </trkpt>
      <trkpt lat="47.29545" lon="-0.31634">
        <ele>65.03</ele>
        <time>2013-04-28T09:31:09Z</time>
      </trkpt>
      <trkpt lat="47.29544" lon="-0.31648">
        <ele>64.07</ele>
        <time>2013-04-28T09:31:12Z</time>
      </trkpt>
      <trkpt lat="47.29541" lon="-0.31664">
        <ele>62.62</ele>
        <time>2013-04-28T09:31:16Z</time>
      </trkpt>
      <trkpt lat="47.29529" lon="-0.31674">
        <ele>63.1</ele>
        <time>2013-04-28T09:31:21Z</time>
      </trkpt>
      <trkpt lat="47.29527" lon="-0.31672">
        <ele>63.1</ele>
        <time>2013-04-28T09:31:23Z</time>
      </trkpt>
      <trkpt lat="47.29526" lon="-0.31669">
        <ele>63.58</ele>
        <time>2013-04-28T09:31:25Z</time>
      </trkpt>
      <trkpt lat="47.2952" lon="-0.31654">
        <ele>65.03</ele>
        <time>2013-04-28T09:31:31Z</time>
      </trkpt>
      <trkpt lat="47.29515" lon="-0.31637">
        <ele>65.03</ele>
        <time>2013-04-28T09:31:37Z</time>
      </trkpt>
      <trkpt lat="47.29507" lon="-0.31623">
        <ele>66.95</ele>
        <time>2013-04-28T09:31:42Z</time>
      </trkpt>
      <trkpt lat="47.29502" lon="-0.31602">
        <ele>68.39</ele>
        <time>2013-04-28T09:31:48Z</time>
      </trkpt>
      <trkpt lat="47.29499" lon="-0.31595">
        <ele>69.35</ele>
        <time>2013-04-28T09:31:50Z</time>
      </trkpt>
      <trkpt lat="47.29495" lon="-0.31585">
        <ele>69.83</ele>
        <time>2013-04-28T09:31:53Z</time>
      </trkpt>
      <trkpt lat="47.29483" lon="-0.31577">
        <ele>70.79</ele>
        <time>2013-04-28T09:31:59Z</time>
      </trkpt>
      <trkpt lat="47.2948" lon="-0.31576">
        <ele>71.76</ele>
        <time>2013-04-28T09:32:00Z</time>
      </trkpt>
      <trkpt lat="47.2947" lon="-0.31575">
        <ele>72.24</ele>
        <time>2013-04-28T09:32:03Z</time>
      </trkpt>
      <trkpt lat="47.2946" lon="-0.31573">
        <ele>71.27</ele>
        <time>2013-04-28T09:32:07Z</time>
      </trkpt>
      <trkpt lat="47.29448" lon="-0.31565">
        <ele>71.27</ele>
        <time>2013-04-28T09:32:12Z</time>
      </trkpt>
      <trkpt lat="47.29444" lon="-0.31563">
        <ele>72.24</ele>
        <time>2013-04-28T09:32:13Z</time>
      </trkpt>
      <trkpt lat="47.29419" lon="-0.31554">
        <ele>71.27</ele>
        <time>2013-04-28T09:32:19Z</time>
      </trkpt>
      <trkpt lat="47.29415" lon="-0.31553">
        <ele>71.76</ele>
        <time>2013-04-28T09:32:20Z</time>
      </trkpt>
      <trkpt lat="47.29411" lon="-0.31551">
        <ele>71.76</ele>
        <time>2013-04-28T09:32:21Z</time>
      </trkpt>
      <trkpt lat="47.29407" lon="-0.31548">
        <ele>71.27</ele>
        <time>2013-04-28T09:32:22Z</time>
      </trkpt>
      <trkpt lat="47.29405" lon="-0.31545">
        <ele>71.27</ele>
        <time>2013-04-28T09:32:23Z</time>
      </trkpt>
      <trkpt lat="47.29403" lon="-0.3154">
        <ele>70.79</ele>
        <time>2013-04-28T09:32:24Z</time>
      </trkpt>
      <trkpt lat="47.29401" lon="-0.31537">
        <ele>70.31</ele>
        <time>2013-04-28T09:32:25Z</time>
      </trkpt>
      <trkpt lat="47.294" lon="-0.31535">
        <ele>70.79</ele>
        <time>2013-04-28T09:32:26Z</time>
      </trkpt>
      <trkpt lat="47.29396" lon="-0.31526">
        <ele>71.27</ele>
        <time>2013-04-28T09:32:29Z</time>
      </trkpt>
      <trkpt lat="47.29393" lon="-0.31524">
        <ele>71.76</ele>
        <time>2013-04-28T09:32:30Z</time>
      </trkpt>
      <trkpt lat="47.29391" lon="-0.31521">
        <ele>71.27</ele>
        <time>2013-04-28T09:32:31Z</time>
      </trkpt>
      <trkpt lat="47.2939" lon="-0.31517">
        <ele>72.24</ele>
        <time>2013-04-28T09:32:32Z</time>
      </trkpt>
      <trkpt lat="47.29388" lon="-0.31514">
        <ele>72.24</ele>
        <time>2013-04-28T09:32:33Z</time>
      </trkpt>
      <trkpt lat="47.29388" lon="-0.31501">
        <ele>73.2</ele>
        <time>2013-04-28T09:32:37Z</time>
      </trkpt>
      <trkpt lat="47.29388" lon="-0.31494">
        <ele>74.16</ele>
        <time>2013-04-28T09:32:39Z</time>
      </trkpt>
      <trkpt lat="47.29389" lon="-0.3148">
        <ele>76.08</ele>
        <time>2013-04-28T09:32:45Z</time>
      </trkpt>
      <trkpt lat="47.29387" lon="-0.31474">
        <ele>76.56</ele>
        <time>2013-04-28T09:32:47Z</time>
      </trkpt>
      <trkpt lat="47.29383" lon="-0.31469">
        <ele>76.56</ele>
        <time>2013-04-28T09:32:50Z</time>
      </trkpt>
      <trkpt lat="47.29386" lon="-0.31461">
        <ele>78.48</ele>
        <time>2013-04-28T09:32:54Z</time>
      </trkpt>
      <trkpt lat="47.29388" lon="-0.31458">
        <ele>78.97</ele>
        <time>2013-04-28T09:32:56Z</time>
      </trkpt>
      <trkpt lat="47.29399" lon="-0.31456">
        <ele>79.45</ele>
        <time>2013-04-28T09:33:02Z</time>
      </trkpt>
      <trkpt lat="47.29409" lon="-0.31452">
        <ele>81.37</ele>
        <time>2013-04-28T09:33:06Z</time>
      </trkpt>
      <trkpt lat="47.29413" lon="-0.31444">
        <ele>82.33</ele>
        <time>2013-04-28T09:33:09Z</time>
      </trkpt>
      <trkpt lat="47.29414" lon="-0.31439">
        <ele>82.81</ele>
        <time>2013-04-28T09:33:11Z</time>
      </trkpt>
      <trkpt lat="47.29412" lon="-0.3142">
        <ele>82.81</ele>
        <time>2013-04-28T09:33:17Z</time>
      </trkpt>
      <trkpt lat="47.29413" lon="-0.3141">
        <ele>84.25</ele>
        <time>2013-04-28T09:33:20Z</time>
      </trkpt>
      <trkpt lat="47.29415" lon="-0.31385">
        <ele>85.21</ele>
        <time>2013-04-28T09:33:27Z</time>
      </trkpt>
      <trkpt lat="47.29415" lon="-0.31379">
        <ele>85.21</ele>
        <time>2013-04-28T09:33:29Z</time>
      </trkpt>
      <trkpt lat="47.29412" lon="-0.31366">
        <ele>84.73</ele>
        <time>2013-04-28T09:33:36Z</time>
      </trkpt>
      <trkpt lat="47.2941" lon="-0.31362">
        <ele>84.73</ele>
        <time>2013-04-28T09:33:48Z</time>
      </trkpt>
      <trkpt lat="47.29409" lon="-0.31361">
        <ele>84.73</ele>
        <time>2013-04-28T09:34:06Z</time>
      </trkpt>
      <trkpt lat="47.29408" lon="-0.31358">
        <ele>84.73</ele>
        <time>2013-04-28T09:34:14Z</time>
      </trkpt>
      <trkpt lat="47.29408" lon="-0.31355">
        <ele>84.73</ele>
        <time>2013-04-28T09:35:00Z</time>
      </trkpt>
      <trkpt lat="47.29406" lon="-0.31352">
        <ele>84.73</ele>
        <time>2013-04-28T09:35:07Z</time>
      </trkpt>
      <trkpt lat="47.29405" lon="-0.3135">
        <ele>84.73</ele>
        <time>2013-04-28T09:35:22Z</time>
      </trkpt>
      <trkpt lat="47.29405" lon="-0.31349">
        <ele>85.21</ele>
        <time>2013-04-28T09:35:39Z</time>
      </trkpt>
      <trkpt lat="47.29406" lon="-0.31347">
        <ele>85.21</ele>
        <time>2013-04-28T09:35:48Z</time>
      </trkpt>
      <trkpt lat="47.29405" lon="-0.31347">
        <ele>85.21</ele>
        <time>2013-04-28T09:36:26Z</time>
      </trkpt>
      <trkpt lat="47.29405" lon="-0.31346">
        <ele>85.69</ele>
        <time>2013-04-28T09:36:38Z</time>
      </trkpt>
      <trkpt lat="47.29405" lon="-0.31342">
        <ele>84.73</ele>
        <time>2013-04-28T09:36:41Z</time>
      </trkpt>
      <trkpt lat="47.29407" lon="-0.31334">
        <ele>85.21</ele>
        <time>2013-04-28T09:36:46Z</time>
      </trkpt>
      <trkpt lat="47.2941" lon="-0.3131">
        <ele>85.69</ele>
        <time>2013-04-28T09:36:54Z</time>
      </trkpt>
      <trkpt lat="47.29411" lon="-0.31306">
        <ele>85.69</ele>
        <time>2013-04-28T09:36:55Z</time>
      </trkpt>
      <trkpt lat="47.29413" lon="-0.3129">
        <ele>86.18</ele>
        <time>2013-04-28T09:36:59Z</time>
      </trkpt>
      <trkpt lat="47.29418" lon="-0.31274">
        <ele>85.69</ele>
        <time>2013-04-28T09:37:03Z</time>
      </trkpt>
      <trkpt lat="47.29435" lon="-0.31277">
        <ele>86.66</ele>
        <time>2013-04-28T09:37:10Z</time>
      </trkpt>
      <trkpt lat="47.29455" lon="-0.31289">
        <ele>85.69</ele>
        <time>2013-04-28T09:37:16Z</time>
      </trkpt>
      <trkpt lat="47.2947" lon="-0.31283">
        <ele>87.14</ele>
        <time>2013-04-28T09:37:21Z</time>
      </trkpt>
      <trkpt lat="47.2948" lon="-0.31266">
        <ele>86.66</ele>
        <time>2013-04-28T09:37:25Z</time>
      </trkpt>
      <trkpt lat="47.29484" lon="-0.31262">
        <ele>86.66</ele>
        <time>2013-04-28T09:37:26Z</time>
      </trkpt>
      <trkpt lat="47.29487" lon="-0.31261">
        <ele>86.66</ele>
        <time>2013-04-28T09:37:27Z</time>
      </trkpt>
      <trkpt lat="47.29491" lon="-0.31261">
        <ele>86.18</ele>
        <time>2013-04-28T09:37:28Z</time>
      </trkpt>
      <trkpt lat="47.29495" lon="-0.31263">
        <ele>86.18</ele>
        <time>2013-04-28T09:37:29Z</time>
      </trkpt>
      <trkpt lat="47.29519" lon="-0.31266">
        <ele>86.66</ele>
        <time>2013-04-28T09:37:35Z</time>
      </trkpt>
      <trkpt lat="47.29539" lon="-0.31264">
        <ele>86.66</ele>
        <time>2013-04-28T09:37:40Z</time>
      </trkpt>
      <trkpt lat="47.29553" lon="-0.31255">
        <ele>85.69</ele>
        <time>2013-04-28T09:37:44Z</time>
      </trkpt>
      <trkpt lat="47.29561" lon="-0.31248">
        <ele>86.18</ele>
        <time>2013-04-28T09:37:46Z</time>
      </trkpt>
      <trkpt lat="47.29579" lon="-0.31235">
        <ele>86.18</ele>
        <time>2013-04-28T09:37:50Z</time>
      </trkpt>
      <trkpt lat="47.29583" lon="-0.31233">
        <ele>86.18</ele>
        <time>2013-04-28T09:37:51Z</time>
      </trkpt>
      <trkpt lat="47.29603" lon="-0.31226">
        <ele>85.21</ele>
        <time>2013-04-28T09:37:56Z</time>
      </trkpt>
      <trkpt lat="47.29622" lon="-0.31216">
        <ele>85.21</ele>
        <time>2013-04-28T09:38:00Z</time>
      </trkpt>
      <trkpt lat="47.29625" lon="-0.3121">
        <ele>85.21</ele>
        <time>2013-04-28T09:38:01Z</time>
      </trkpt>
      <trkpt lat="47.29626" lon="-0.31204">
        <ele>85.21</ele>
        <time>2013-04-28T09:38:02Z</time>
      </trkpt>
      <trkpt lat="47.29627" lon="-0.31197">
        <ele>84.73</ele>
        <time>2013-04-28T09:38:03Z</time>
      </trkpt>
      <trkpt lat="47.29627" lon="-0.3119">
        <ele>85.69</ele>
        <time>2013-04-28T09:38:04Z</time>
      </trkpt>
      <trkpt lat="47.29627" lon="-0.31183">
        <ele>84.73</ele>
        <time>2013-04-28T09:38:05Z</time>
      </trkpt>
      <trkpt lat="47.29626" lon="-0.31176">
        <ele>84.73</ele>
        <time>2013-04-28T09:38:06Z</time>
      </trkpt>
      <trkpt lat="47.29625" lon="-0.3117">
        <ele>84.73</ele>
        <time>2013-04-28T09:38:07Z</time>
      </trkpt>
      <trkpt lat="47.29624" lon="-0.31163">
        <ele>84.73</ele>
        <time>2013-04-28T09:38:08Z</time>
      </trkpt>
      <trkpt lat="47.29622" lon="-0.31158">
        <ele>85.21</ele>
        <time>2013-04-28T09:38:09Z</time>
      </trkpt>
      <trkpt lat="47.29619" lon="-0.31153">
        <ele>85.21</ele>
        <time>2013-04-28T09:38:10Z</time>
      </trkpt>
      <trkpt lat="47.29616" lon="-0.3115">
        <ele>84.25</ele>
        <time>2013-04-28T09:38:11Z</time>
      </trkpt>
      <trkpt lat="47.29612" lon="-0.31147">
        <ele>84.73</ele>
        <time>2013-04-28T09:38:12Z</time>
      </trkpt>
      <trkpt lat="47.29586" lon="-0.31133">
        <ele>84.25</ele>
        <time>2013-04-28T09:38:18Z</time>
      </trkpt>
      <trkpt lat="47.29573" lon="-0.31127">
        <ele>83.77</ele>
        <time>2013-04-28T09:38:21Z</time>
      </trkpt>
      <trkpt lat="47.2957" lon="-0.31124">
        <ele>83.77</ele>
        <time>2013-04-28T09:38:22Z</time>
      </trkpt>
      <trkpt lat="47.29567" lon="-0.3112">
        <ele>83.77</ele>
        <time>2013-04-28T09:38:23Z</time>
      </trkpt>
      <trkpt lat="47.29565" lon="-0.31114">
        <ele>83.77</ele>
        <time>2013-04-28T09:38:24Z</time>
      </trkpt>
      <trkpt lat="47.29562" lon="-0.31108">
        <ele>83.29</ele>
        <time>2013-04-28T09:38:25Z</time>
      </trkpt>
      <trkpt lat="47.2956" lon="-0.31101">
        <ele>83.29</ele>
        <time>2013-04-28T09:38:26Z</time>
      </trkpt>
      <trkpt lat="47.29559" lon="-0.31095">
        <ele>83.29</ele>
        <time>2013-04-28T09:38:27Z</time>
      </trkpt>
      <trkpt lat="47.29555" lon="-0.31082">
        <ele>82.33</ele>
        <time>2013-04-28T09:38:29Z</time>
      </trkpt>
      <trkpt lat="47.29553" lon="-0.31075">
        <ele>82.33</ele>
        <time>2013-04-28T09:38:30Z</time>
      </trkpt>
      <trkpt lat="47.29549" lon="-0.31063">
        <ele>82.33</ele>
        <time>2013-04-28T09:38:32Z</time>
      </trkpt>
      <trkpt lat="47.29548" lon="-0.31056">
        <ele>82.33</ele>
        <time>2013-04-28T09:38:33Z</time>
      </trkpt>
      <trkpt lat="47.29543" lon="-0.31021">
        <ele>80.41</ele>
        <time>2013-04-28T09:38:38Z</time>
      </trkpt>
      <trkpt lat="47.29541" lon="-0.31014">
        <ele>79.93</ele>
        <time>2013-04-28T09:38:39Z</time>
      </trkpt>
      <trkpt lat="47.29532" lon="-0.30987">
        <ele>79.45</ele>
        <time>2013-04-28T09:38:43Z</time>
      </trkpt>
      <trkpt lat="47.29528" lon="-0.30981">
        <ele>78.97</ele>
        <time>2013-04-28T09:38:44Z</time>
      </trkpt>
      <trkpt lat="47.29524" lon="-0.30977">
        <ele>78.48</ele>
        <time>2013-04-28T09:38:45Z</time>
      </trkpt>
      <trkpt lat="47.2952" lon="-0.30972">
        <ele>78.97</ele>
        <time>2013-04-28T09:38:46Z</time>
      </trkpt>
      <trkpt lat="47.29515" lon="-0.30968">
        <ele>78.97</ele>
        <time>2013-04-28T09:38:47Z</time>
      </trkpt>
      <trkpt lat="47.29506" lon="-0.30961">
        <ele>78</ele>
        <time>2013-04-28T09:38:49Z</time>
      </trkpt>
      <trkpt lat="47.29488" lon="-0.3095">
        <ele>77.52</ele>
        <time>2013-04-28T09:38:54Z</time>
      </trkpt>
      <trkpt lat="47.29476" lon="-0.30944">
        <ele>78</ele>
        <time>2013-04-28T09:38:57Z</time>
      </trkpt>
      <trkpt lat="47.29472" lon="-0.30943">
        <ele>76.56</ele>
        <time>2013-04-28T09:38:58Z</time>
      </trkpt>
      <trkpt lat="47.2946" lon="-0.30944">
        <ele>77.52</ele>
        <time>2013-04-28T09:39:01Z</time>
      </trkpt>
      <trkpt lat="47.29451" lon="-0.30946">
        <ele>77.52</ele>
        <time>2013-04-28T09:39:03Z</time>
      </trkpt>
      <trkpt lat="47.29445" lon="-0.30942">
        <ele>75.6</ele>
        <time>2013-04-28T09:39:06Z</time>
      </trkpt>
      <trkpt lat="47.29444" lon="-0.3094">
        <ele>76.08</ele>
        <time>2013-04-28T09:39:13Z</time>
      </trkpt>
      <trkpt lat="47.29441" lon="-0.30942">
        <ele>76.08</ele>
        <time>2013-04-28T09:39:23Z</time>
      </trkpt>
      <trkpt lat="47.29434" lon="-0.30939">
        <ele>76.56</ele>
        <time>2013-04-28T09:39:33Z</time>
      </trkpt>
      <trkpt lat="47.29434" lon="-0.30936">
        <ele>76.08</ele>
        <time>2013-04-28T09:39:40Z</time>
      </trkpt>
      <trkpt lat="47.29432" lon="-0.30933">
        <ele>76.08</ele>
        <time>2013-04-28T09:39:44Z</time>
      </trkpt>
      <trkpt lat="47.29429" lon="-0.30928">
        <ele>76.08</ele>
        <time>2013-04-28T09:39:47Z</time>
      </trkpt>
      <trkpt lat="47.29431" lon="-0.30907">
        <ele>77.04</ele>
        <time>2013-04-28T09:39:52Z</time>
      </trkpt>
      <trkpt lat="47.29432" lon="-0.30902">
        <ele>77.52</ele>
        <time>2013-04-28T09:39:53Z</time>
      </trkpt>
      <trkpt lat="47.29435" lon="-0.30886">
        <ele>77.04</ele>
        <time>2013-04-28T09:39:56Z</time>
      </trkpt>
      <trkpt lat="47.29437" lon="-0.30881">
        <ele>76.56</ele>
        <time>2013-04-28T09:39:57Z</time>
      </trkpt>
      <trkpt lat="47.29451" lon="-0.30848">
        <ele>75.6</ele>
        <time>2013-04-28T09:40:04Z</time>
      </trkpt>
      <trkpt lat="47.29449" lon="-0.3083">
        <ele>76.08</ele>
        <time>2013-04-28T09:40:08Z</time>
      </trkpt>
      <trkpt lat="47.29446" lon="-0.30822">
        <ele>75.6</ele>
        <time>2013-04-28T09:40:10Z</time>
      </trkpt>
      <trkpt lat="47.29451" lon="-0.30804">
        <ele>76.08</ele>
        <time>2013-04-28T09:40:14Z</time>
      </trkpt>
      <trkpt lat="47.29466" lon="-0.30772">
        <ele>76.08</ele>
        <time>2013-04-28T09:40:21Z</time>
      </trkpt>
      <trkpt lat="47.29476" lon="-0.30748">
        <ele>76.08</ele>
        <time>2013-04-28T09:40:27Z</time>
      </trkpt>
      <trkpt lat="47.2948" lon="-0.30743">
        <ele>74.64</ele>
        <time>2013-04-28T09:40:29Z</time>
      </trkpt>
      <trkpt lat="47.29488" lon="-0.30742">
        <ele>77.04</ele>
        <time>2013-04-28T09:40:32Z</time>
      </trkpt>
      <trkpt lat="47.29523" lon="-0.3075">
        <ele>76.08</ele>
        <time>2013-04-28T09:40:39Z</time>
      </trkpt>
      <trkpt lat="47.29529" lon="-0.30752">
        <ele>75.12</ele>
        <time>2013-04-28T09:40:40Z</time>
      </trkpt>
      <trkpt lat="47.29566" lon="-0.30774">
        <ele>75.12</ele>
        <time>2013-04-28T09:40:47Z</time>
      </trkpt>
      <trkpt lat="47.29613" lon="-0.30799">
        <ele>76.56</ele>
        <time>2013-04-28T09:40:56Z</time>
      </trkpt>
      <trkpt lat="47.29635" lon="-0.30809">
        <ele>77.52</ele>
        <time>2013-04-28T09:41:00Z</time>
      </trkpt>
      <trkpt lat="47.2964" lon="-0.30811">
        <ele>77.52</ele>
        <time>2013-04-28T09:41:01Z</time>
      </trkpt>
      <trkpt lat="47.29686" lon="-0.30833">
        <ele>78.48</ele>
        <time>2013-04-28T09:41:10Z</time>
      </trkpt>
      <trkpt lat="47.29719" lon="-0.30852">
        <ele>78.97</ele>
        <time>2013-04-28T09:41:17Z</time>
      </trkpt>
      <trkpt lat="47.2975" lon="-0.30876">
        <ele>80.89</ele>
        <time>2013-04-28T09:41:24Z</time>
      </trkpt>
      <trkpt lat="47.29754" lon="-0.30879">
        <ele>80.89</ele>
        <time>2013-04-28T09:41:25Z</time>
      </trkpt>
      <trkpt lat="47.29788" lon="-0.30904">
        <ele>81.37</ele>
        <time>2013-04-28T09:41:33Z</time>
      </trkpt>
      <trkpt lat="47.29809" lon="-0.30917">
        <ele>82.81</ele>
        <time>2013-04-28T09:41:38Z</time>
      </trkpt>
      <trkpt lat="47.29813" lon="-0.30918">
        <ele>82.33</ele>
        <time>2013-04-28T09:41:39Z</time>
      </trkpt>
      <trkpt lat="47.29848" lon="-0.30919">
        <ele>84.25</ele>
        <time>2013-04-28T09:41:47Z</time>
      </trkpt>
      <trkpt lat="47.29855" lon="-0.30919">
        <ele>82.33</ele>
        <time>2013-04-28T09:41:51Z</time>
      </trkpt>
      <trkpt lat="47.29856" lon="-0.30919">
        <ele>82.33</ele>
        <time>2013-04-28T09:43:09Z</time>
      </trkpt>
      <trkpt lat="47.29856" lon="-0.30918">
        <ele>83.77</ele>
        <time>2013-04-28T09:44:05Z</time>
      </trkpt>
      <trkpt lat="47.29856" lon="-0.30916">
        <ele>83.29</ele>
        <time>2013-04-28T09:44:37Z</time>
      </trkpt>
      <trkpt lat="47.29853" lon="-0.30913">
        <ele>83.29</ele>
        <time>2013-04-28T09:44:49Z</time>
      </trkpt>
      <trkpt lat="47.29852" lon="-0.30914">
        <ele>85.69</ele>
        <time>2013-04-28T09:45:35Z</time>
      </trkpt>
      <trkpt lat="47.29857" lon="-0.30919">
        <ele>84.73</ele>
        <time>2013-04-28T09:46:12Z</time>
      </trkpt>
      <trkpt lat="47.29857" lon="-0.3092">
        <ele>84.25</ele>
        <time>2013-04-28T09:46:16Z</time>
      </trkpt>
      <trkpt lat="47.29857" lon="-0.30922">
        <ele>86.18</ele>
        <time>2013-04-28T09:46:33Z</time>
      </trkpt>
      <trkpt lat="47.29857" lon="-0.30923">
        <ele>84.73</ele>
        <time>2013-04-28T09:49:08Z</time>
      </trkpt>
      <trkpt lat="47.29857" lon="-0.30922">
        <ele>87.62</ele>
        <time>2013-04-28T09:51:07Z</time>
      </trkpt>
      <trkpt lat="47.29856" lon="-0.30922">
        <ele>87.62</ele>
        <time>2013-04-28T09:53:39Z</time>
      </trkpt>
      <trkpt lat="47.29856" lon="-0.30923">
        <ele>87.62</ele>
        <time>2013-04-28T09:55:04Z</time>
      </trkpt>
      <trkpt lat="47.29855" lon="-0.30917">
        <ele>89.06</ele>
        <time>2013-04-28T09:55:12Z</time>
      </trkpt>
      <trkpt lat="47.29851" lon="-0.30918">
        <ele>88.58</ele>
        <time>2013-04-28T09:55:26Z</time>
      </trkpt>
      <trkpt lat="47.29851" lon="-0.30903">
        <ele>89.06</ele>
        <time>2013-04-28T09:55:33Z</time>
      </trkpt>
      <trkpt lat="47.29852" lon="-0.30876">
        <ele>89.54</ele>
        <time>2013-04-28T09:55:40Z</time>
      </trkpt>
      <trkpt lat="47.29851" lon="-0.30871">
        <ele>89.06</ele>
        <time>2013-04-28T09:55:41Z</time>
      </trkpt>
      <trkpt lat="47.29853" lon="-0.30856">
        <ele>88.58</ele>
        <time>2013-04-28T09:55:45Z</time>
      </trkpt>
      <trkpt lat="47.2986" lon="-0.3081">
        <ele>88.58</ele>
        <time>2013-04-28T09:55:54Z</time>
      </trkpt>
      <trkpt lat="47.29868" lon="-0.30775">
        <ele>88.58</ele>
        <time>2013-04-28T09:56:01Z</time>
      </trkpt>
      <trkpt lat="47.29875" lon="-0.30755">
        <ele>88.1</ele>
        <time>2013-04-28T09:56:05Z</time>
      </trkpt>
      <trkpt lat="47.29879" lon="-0.30735">
        <ele>88.58</ele>
        <time>2013-04-28T09:56:08Z</time>
      </trkpt>
      <trkpt lat="47.2988" lon="-0.30729">
        <ele>89.06</ele>
        <time>2013-04-28T09:56:09Z</time>
      </trkpt>
      <trkpt lat="47.29887" lon="-0.30682">
        <ele>89.06</ele>
        <time>2013-04-28T09:56:15Z</time>
      </trkpt>
      <trkpt lat="47.29896" lon="-0.30624">
        <ele>87.62</ele>
        <time>2013-04-28T09:56:23Z</time>
      </trkpt>
      <trkpt lat="47.299" lon="-0.30597">
        <ele>87.14</ele>
        <time>2013-04-28T09:56:27Z</time>
      </trkpt>
      <trkpt lat="47.299" lon="-0.3059">
        <ele>88.1</ele>
        <time>2013-04-28T09:56:28Z</time>
      </trkpt>
      <trkpt lat="47.29901" lon="-0.30583">
        <ele>87.62</ele>
        <time>2013-04-28T09:56:29Z</time>
      </trkpt>
      <trkpt lat="47.2991" lon="-0.30529">
        <ele>88.1</ele>
        <time>2013-04-28T09:56:37Z</time>
      </trkpt>
      <trkpt lat="47.29913" lon="-0.30523">
        <ele>87.14</ele>
        <time>2013-04-28T09:56:38Z</time>
      </trkpt>
      <trkpt lat="47.29916" lon="-0.30518">
        <ele>86.66</ele>
        <time>2013-04-28T09:56:39Z</time>
      </trkpt>
      <trkpt lat="47.2992" lon="-0.30517">
        <ele>86.66</ele>
        <time>2013-04-28T09:56:40Z</time>
      </trkpt>
      <trkpt lat="47.29925" lon="-0.30518">
        <ele>86.18</ele>
        <time>2013-04-28T09:56:41Z</time>
      </trkpt>
      <trkpt lat="47.2993" lon="-0.30519">
        <ele>86.66</ele>
        <time>2013-04-28T09:56:42Z</time>
      </trkpt>
      <trkpt lat="47.29935" lon="-0.30522">
        <ele>86.66</ele>
        <time>2013-04-28T09:56:43Z</time>
      </trkpt>
      <trkpt lat="47.29982" lon="-0.30532">
        <ele>85.21</ele>
        <time>2013-04-28T09:56:51Z</time>
      </trkpt>
      <trkpt lat="47.30024" lon="-0.30543">
        <ele>83.29</ele>
        <time>2013-04-28T09:56:58Z</time>
      </trkpt>
      <trkpt lat="47.3003" lon="-0.30544">
        <ele>81.85</ele>
        <time>2013-04-28T09:56:59Z</time>
      </trkpt>
      <trkpt lat="47.30037" lon="-0.30545">
        <ele>81.85</ele>
        <time>2013-04-28T09:57:00Z</time>
      </trkpt>
      <trkpt lat="47.30052" lon="-0.30544">
        <ele>79.93</ele>
        <time>2013-04-28T09:57:02Z</time>
      </trkpt>
      <trkpt lat="47.30059" lon="-0.30544">
        <ele>79.93</ele>
        <time>2013-04-28T09:57:03Z</time>
      </trkpt>
      <trkpt lat="47.30078" lon="-0.30547">
        <ele>81.85</ele>
        <time>2013-04-28T09:57:07Z</time>
      </trkpt>
      <trkpt lat="47.30093" lon="-0.3055">
        <ele>85.21</ele>
        <time>2013-04-28T09:57:12Z</time>
      </trkpt>
      <trkpt lat="47.30097" lon="-0.3055">
        <ele>85.21</ele>
        <time>2013-04-28T09:57:13Z</time>
      </trkpt>
      <trkpt lat="47.30111" lon="-0.30553">
        <ele>86.66</ele>
        <time>2013-04-28T09:57:17Z</time>
      </trkpt>
      <trkpt lat="47.30142" lon="-0.30553">
        <ele>90.02</ele>
        <time>2013-04-28T09:57:25Z</time>
      </trkpt>
      <trkpt lat="47.30171" lon="-0.30551">
        <ele>89.06</ele>
        <time>2013-04-28T09:57:33Z</time>
      </trkpt>
      <trkpt lat="47.3018" lon="-0.30552">
        <ele>90.5</ele>
        <time>2013-04-28T09:57:37Z</time>
      </trkpt>
      <trkpt lat="47.30182" lon="-0.30549">
        <ele>89.54</ele>
        <time>2013-04-28T09:57:38Z</time>
      </trkpt>
      <trkpt lat="47.30182" lon="-0.30546">
        <ele>90.98</ele>
        <time>2013-04-28T09:57:39Z</time>
      </trkpt>
      <trkpt lat="47.30189" lon="-0.30507">
        <ele>90.5</ele>
        <time>2013-04-28T09:57:47Z</time>
      </trkpt>
      <trkpt lat="47.30197" lon="-0.30464">
        <ele>91.46</ele>
        <time>2013-04-28T09:57:54Z</time>
      </trkpt>
      <trkpt lat="47.30201" lon="-0.30445">
        <ele>91.46</ele>
        <time>2013-04-28T09:57:57Z</time>
      </trkpt>
      <trkpt lat="47.30204" lon="-0.3044">
        <ele>91.46</ele>
        <time>2013-04-28T09:57:58Z</time>
      </trkpt>
      <trkpt lat="47.30208" lon="-0.30437">
        <ele>91.94</ele>
        <time>2013-04-28T09:57:59Z</time>
      </trkpt>
      <trkpt lat="47.30238" lon="-0.3042">
        <ele>91.94</ele>
        <time>2013-04-28T09:58:07Z</time>
      </trkpt>
      <trkpt lat="47.30255" lon="-0.3041">
        <ele>91.94</ele>
        <time>2013-04-28T09:58:11Z</time>
      </trkpt>
      <trkpt lat="47.30259" lon="-0.30407">
        <ele>91.46</ele>
        <time>2013-04-28T09:58:12Z</time>
      </trkpt>
      <trkpt lat="47.30272" lon="-0.30398">
        <ele>92.42</ele>
        <time>2013-04-28T09:58:15Z</time>
      </trkpt>
      <trkpt lat="47.30277" lon="-0.30396">
        <ele>91.94</ele>
        <time>2013-04-28T09:58:16Z</time>
      </trkpt>
      <trkpt lat="47.30307" lon="-0.30376">
        <ele>91.94</ele>
        <time>2013-04-28T09:58:23Z</time>
      </trkpt>
      <trkpt lat="47.30337" lon="-0.30355">
        <ele>91.94</ele>
        <time>2013-04-28T09:58:30Z</time>
      </trkpt>
      <trkpt lat="47.30366" lon="-0.30335">
        <ele>91.46</ele>
        <time>2013-04-28T09:58:36Z</time>
      </trkpt>
      <trkpt lat="47.3038" lon="-0.30326">
        <ele>91.46</ele>
        <time>2013-04-28T09:58:39Z</time>
      </trkpt>
      <trkpt lat="47.30386" lon="-0.30323">
        <ele>91.46</ele>
        <time>2013-04-28T09:58:40Z</time>
      </trkpt>
      <trkpt lat="47.30411" lon="-0.30307">
        <ele>91.94</ele>
        <time>2013-04-28T09:58:45Z</time>
      </trkpt>
      <trkpt lat="47.30417" lon="-0.30304">
        <ele>91.94</ele>
        <time>2013-04-28T09:58:46Z</time>
      </trkpt>
      <trkpt lat="47.30444" lon="-0.30289">
        <ele>90.5</ele>
        <time>2013-04-28T09:58:51Z</time>
      </trkpt>
      <trkpt lat="47.30449" lon="-0.30285">
        <ele>90.98</ele>
        <time>2013-04-28T09:58:52Z</time>
      </trkpt>
      <trkpt lat="47.30497" lon="-0.30252">
        <ele>91.94</ele>
        <time>2013-04-28T09:59:01Z</time>
      </trkpt>
      <trkpt lat="47.30533" lon="-0.30226">
        <ele>90.98</ele>
        <time>2013-04-28T09:59:08Z</time>
      </trkpt>
      <trkpt lat="47.30539" lon="-0.30223">
        <ele>90.98</ele>
        <time>2013-04-28T09:59:09Z</time>
      </trkpt>
      <trkpt lat="47.30544" lon="-0.30219">
        <ele>90.98</ele>
        <time>2013-04-28T09:59:10Z</time>
      </trkpt>
      <trkpt lat="47.30586" lon="-0.30192">
        <ele>90.5</ele>
        <time>2013-04-28T09:59:18Z</time>
      </trkpt>
      <trkpt lat="47.30618" lon="-0.30171">
        <ele>90.5</ele>
        <time>2013-04-28T09:59:24Z</time>
      </trkpt>
      <trkpt lat="47.30622" lon="-0.30168">
        <ele>88.58</ele>
        <time>2013-04-28T09:59:25Z</time>
      </trkpt>
      <trkpt lat="47.30626" lon="-0.30165">
        <ele>89.54</ele>
        <time>2013-04-28T09:59:26Z</time>
      </trkpt>
      <trkpt lat="47.30631" lon="-0.30162">
        <ele>89.06</ele>
        <time>2013-04-28T09:59:27Z</time>
      </trkpt>
      <trkpt lat="47.30636" lon="-0.30158">
        <ele>89.06</ele>
        <time>2013-04-28T09:59:28Z</time>
      </trkpt>
      <trkpt lat="47.30665" lon="-0.30139">
        <ele>89.54</ele>
        <time>2013-04-28T09:59:34Z</time>
      </trkpt>
      <trkpt lat="47.30672" lon="-0.30134">
        <ele>87.14</ele>
        <time>2013-04-28T09:59:36Z</time>
      </trkpt>
      <trkpt lat="47.30675" lon="-0.30129">
        <ele>88.1</ele>
        <time>2013-04-28T09:59:40Z</time>
      </trkpt>
      <trkpt lat="47.30678" lon="-0.30126">
        <ele>85.69</ele>
        <time>2013-04-28T10:00:13Z</time>
      </trkpt>
      <trkpt lat="47.3068" lon="-0.30124">
        <ele>85.69</ele>
        <time>2013-04-28T10:01:26Z</time>
      </trkpt>
      <trkpt lat="47.3068" lon="-0.30122">
        <ele>85.69</ele>
        <time>2013-04-28T10:01:32Z</time>
      </trkpt>
      <trkpt lat="47.30681" lon="-0.30122">
        <ele>85.21</ele>
        <time>2013-04-28T10:01:45Z</time>
      </trkpt>
      <trkpt lat="47.30682" lon="-0.30122">
        <ele>84.73</ele>
        <time>2013-04-28T10:02:08Z</time>
      </trkpt>
      <trkpt lat="47.30683" lon="-0.30123">
        <ele>85.21</ele>
        <time>2013-04-28T10:02:09Z</time>
      </trkpt>
      <trkpt lat="47.30683" lon="-0.30126">
        <ele>84.73</ele>
        <time>2013-04-28T10:02:10Z</time>
      </trkpt>
      <trkpt lat="47.30682" lon="-0.30128">
        <ele>84.25</ele>
        <time>2013-04-28T10:02:11Z</time>
      </trkpt>
      <trkpt lat="47.30681" lon="-0.30131">
        <ele>84.73</ele>
        <time>2013-04-28T10:02:12Z</time>
      </trkpt>
      <trkpt lat="47.30679" lon="-0.30137">
        <ele>85.69</ele>
        <time>2013-04-28T10:02:14Z</time>
      </trkpt>
      <trkpt lat="47.30673" lon="-0.30168">
        <ele>86.66</ele>
        <time>2013-04-28T10:02:21Z</time>
      </trkpt>
      <trkpt lat="47.30669" lon="-0.30185">
        <ele>87.62</ele>
        <time>2013-04-28T10:02:24Z</time>
      </trkpt>
      <trkpt lat="47.30668" lon="-0.30191">
        <ele>86.18</ele>
        <time>2013-04-28T10:02:25Z</time>
      </trkpt>
      <trkpt lat="47.30667" lon="-0.30198">
        <ele>85.69</ele>
        <time>2013-04-28T10:02:26Z</time>
      </trkpt>
      <trkpt lat="47.30665" lon="-0.30204">
        <ele>88.1</ele>
        <time>2013-04-28T10:02:27Z</time>
      </trkpt>
      <trkpt lat="47.30664" lon="-0.3021">
        <ele>86.66</ele>
        <time>2013-04-28T10:02:28Z</time>
      </trkpt>
      <trkpt lat="47.30651" lon="-0.30265">
        <ele>89.06</ele>
        <time>2013-04-28T10:02:36Z</time>
      </trkpt>
      <trkpt lat="47.30642" lon="-0.30301">
        <ele>89.06</ele>
        <time>2013-04-28T10:02:41Z</time>
      </trkpt>
      <trkpt lat="47.3064" lon="-0.30308">
        <ele>89.06</ele>
        <time>2013-04-28T10:02:42Z</time>
      </trkpt>
      <trkpt lat="47.30632" lon="-0.30336">
        <ele>89.06</ele>
        <time>2013-04-28T10:02:46Z</time>
      </trkpt>
      <trkpt lat="47.30627" lon="-0.30358">
        <ele>88.58</ele>
        <time>2013-04-28T10:02:49Z</time>
      </trkpt>
      <trkpt lat="47.30626" lon="-0.30365">
        <ele>87.14</ele>
        <time>2013-04-28T10:02:50Z</time>
      </trkpt>
      <trkpt lat="47.3061" lon="-0.30431">
        <ele>90.02</ele>
        <time>2013-04-28T10:02:59Z</time>
      </trkpt>
      <trkpt lat="47.30608" lon="-0.30438">
        <ele>87.62</ele>
        <time>2013-04-28T10:03:00Z</time>
      </trkpt>
      <trkpt lat="47.30606" lon="-0.30446">
        <ele>89.06</ele>
        <time>2013-04-28T10:03:01Z</time>
      </trkpt>
      <trkpt lat="47.30593" lon="-0.30503">
        <ele>89.06</ele>
        <time>2013-04-28T10:03:09Z</time>
      </trkpt>
      <trkpt lat="47.30579" lon="-0.30559">
        <ele>89.54</ele>
        <time>2013-04-28T10:03:17Z</time>
      </trkpt>
      <trkpt lat="47.30572" lon="-0.30587">
        <ele>88.58</ele>
        <time>2013-04-28T10:03:21Z</time>
      </trkpt>
      <trkpt lat="47.30566" lon="-0.30612">
        <ele>90.5</ele>
        <time>2013-04-28T10:03:25Z</time>
      </trkpt>
      <trkpt lat="47.30566" lon="-0.30617">
        <ele>89.06</ele>
        <time>2013-04-28T10:03:26Z</time>
      </trkpt>
      <trkpt lat="47.30569" lon="-0.30622">
        <ele>90.02</ele>
        <time>2013-04-28T10:03:27Z</time>
      </trkpt>
      <trkpt lat="47.30573" lon="-0.30624">
        <ele>88.58</ele>
        <time>2013-04-28T10:03:28Z</time>
      </trkpt>
      <trkpt lat="47.30577" lon="-0.30623">
        <ele>90.02</ele>
        <time>2013-04-28T10:03:29Z</time>
      </trkpt>
      <trkpt lat="47.30581" lon="-0.30622">
        <ele>90.5</ele>
        <time>2013-04-28T10:03:30Z</time>
      </trkpt>
      <trkpt lat="47.30585" lon="-0.3062">
        <ele>88.1</ele>
        <time>2013-04-28T10:03:31Z</time>
      </trkpt>
      <trkpt lat="47.30589" lon="-0.30618">
        <ele>88.1</ele>
        <time>2013-04-28T10:03:32Z</time>
      </trkpt>
      <trkpt lat="47.30627" lon="-0.30604">
        <ele>89.06</ele>
        <time>2013-04-28T10:03:40Z</time>
      </trkpt>
      <trkpt lat="47.30675" lon="-0.30586">
        <ele>89.54</ele>
        <time>2013-04-28T10:03:49Z</time>
      </trkpt>
      <trkpt lat="47.30681" lon="-0.30585">
        <ele>88.1</ele>
        <time>2013-04-28T10:03:50Z</time>
      </trkpt>
      <trkpt lat="47.30686" lon="-0.30585">
        <ele>88.58</ele>
        <time>2013-04-28T10:03:51Z</time>
      </trkpt>
      <trkpt lat="47.30691" lon="-0.30586">
        <ele>88.1</ele>
        <time>2013-04-28T10:03:52Z</time>
      </trkpt>
      <trkpt lat="47.30697" lon="-0.30589">
        <ele>87.14</ele>
        <time>2013-04-28T10:03:53Z</time>
      </trkpt>
      <trkpt lat="47.30702" lon="-0.30592">
        <ele>88.1</ele>
        <time>2013-04-28T10:03:54Z</time>
      </trkpt>
      <trkpt lat="47.30708" lon="-0.30594">
        <ele>87.62</ele>
        <time>2013-04-28T10:03:55Z</time>
      </trkpt>
      <trkpt lat="47.30739" lon="-0.30616">
        <ele>88.58</ele>
        <time>2013-04-28T10:04:01Z</time>
      </trkpt>
      <trkpt lat="47.30755" lon="-0.30627">
        <ele>84.25</ele>
        <time>2013-04-28T10:04:04Z</time>
      </trkpt>
      <trkpt lat="47.30761" lon="-0.30631">
        <ele>85.21</ele>
        <time>2013-04-28T10:04:05Z</time>
      </trkpt>
      <trkpt lat="47.30788" lon="-0.30649">
        <ele>84.73</ele>
        <time>2013-04-28T10:04:10Z</time>
      </trkpt>
      <trkpt lat="47.30824" lon="-0.30673">
        <ele>84.25</ele>
        <time>2013-04-28T10:04:17Z</time>
      </trkpt>
      <trkpt lat="47.30829" lon="-0.30676">
        <ele>83.77</ele>
        <time>2013-04-28T10:04:18Z</time>
      </trkpt>
      <trkpt lat="47.30845" lon="-0.30686">
        <ele>80.89</ele>
        <time>2013-04-28T10:04:21Z</time>
      </trkpt>
      <trkpt lat="47.30848" lon="-0.30687">
        <ele>79.93</ele>
        <time>2013-04-28T10:04:22Z</time>
      </trkpt>
      <trkpt lat="47.3085" lon="-0.30686">
        <ele>80.41</ele>
        <time>2013-04-28T10:04:23Z</time>
      </trkpt>
      <trkpt lat="47.30852" lon="-0.30683">
        <ele>78.48</ele>
        <time>2013-04-28T10:04:24Z</time>
      </trkpt>
      <trkpt lat="47.30852" lon="-0.30679">
        <ele>79.45</ele>
        <time>2013-04-28T10:04:25Z</time>
      </trkpt>
      <trkpt lat="47.30852" lon="-0.30675">
        <ele>80.41</ele>
        <time>2013-04-28T10:04:26Z</time>
      </trkpt>
      <trkpt lat="47.30851" lon="-0.30672">
        <ele>79.45</ele>
        <time>2013-04-28T10:04:27Z</time>
      </trkpt>
      <trkpt lat="47.30851" lon="-0.30667">
        <ele>79.45</ele>
        <time>2013-04-28T10:04:28Z</time>
      </trkpt>
      <trkpt lat="47.30852" lon="-0.30662">
        <ele>80.41</ele>
        <time>2013-04-28T10:04:29Z</time>
      </trkpt>
      <trkpt lat="47.30852" lon="-0.30658">
        <ele>77.04</ele>
        <time>2013-04-28T10:04:30Z</time>
      </trkpt>
      <trkpt lat="47.30852" lon="-0.30654">
        <ele>78</ele>
        <time>2013-04-28T10:04:31Z</time>
      </trkpt>
      <trkpt lat="47.30858" lon="-0.30634">
        <ele>78</ele>
        <time>2013-04-28T10:04:36Z</time>
      </trkpt>
      <trkpt lat="47.3087" lon="-0.30608">
        <ele>77.52</ele>
        <time>2013-04-28T10:04:41Z</time>
      </trkpt>
      <trkpt lat="47.30873" lon="-0.30603">
        <ele>78.48</ele>
        <time>2013-04-28T10:04:42Z</time>
      </trkpt>
      <trkpt lat="47.30884" lon="-0.3058">
        <ele>74.16</ele>
        <time>2013-04-28T10:04:47Z</time>
      </trkpt>
      <trkpt lat="47.30884" lon="-0.30578">
        <ele>74.64</ele>
        <time>2013-04-28T10:04:48Z</time>
      </trkpt>
      <trkpt lat="47.30889" lon="-0.30568">
        <ele>75.12</ele>
        <time>2013-04-28T10:04:52Z</time>
      </trkpt>
      <trkpt lat="47.30893" lon="-0.30563">
        <ele>73.68</ele>
        <time>2013-04-28T10:04:54Z</time>
      </trkpt>
      <trkpt lat="47.30896" lon="-0.30558">
        <ele>75.12</ele>
        <time>2013-04-28T10:04:56Z</time>
      </trkpt>
      <trkpt lat="47.30904" lon="-0.30546">
        <ele>74.16</ele>
        <time>2013-04-28T10:05:01Z</time>
      </trkpt>
      <trkpt lat="47.30905" lon="-0.30539">
        <ele>75.6</ele>
        <time>2013-04-28T10:05:03Z</time>
      </trkpt>
      <trkpt lat="47.30911" lon="-0.30519">
        <ele>72.24</ele>
        <time>2013-04-28T10:05:07Z</time>
      </trkpt>
      <trkpt lat="47.30918" lon="-0.30506">
        <ele>72.24</ele>
        <time>2013-04-28T10:05:10Z</time>
      </trkpt>
      <trkpt lat="47.30927" lon="-0.30491">
        <ele>74.16</ele>
        <time>2013-04-28T10:05:14Z</time>
      </trkpt>
      <trkpt lat="47.30934" lon="-0.30477">
        <ele>69.83</ele>
        <time>2013-04-28T10:05:17Z</time>
      </trkpt>
      <trkpt lat="47.30939" lon="-0.30468">
        <ele>71.76</ele>
        <time>2013-04-28T10:05:20Z</time>
      </trkpt>
      <trkpt lat="47.30952" lon="-0.30453">
        <ele>70.79</ele>
        <time>2013-04-28T10:05:25Z</time>
      </trkpt>
      <trkpt lat="47.30964" lon="-0.30441">
        <ele>69.83</ele>
        <time>2013-04-28T10:05:30Z</time>
      </trkpt>
      <trkpt lat="47.30976" lon="-0.30437">
        <ele>69.35</ele>
        <time>2013-04-28T10:05:36Z</time>
      </trkpt>
      <trkpt lat="47.3098" lon="-0.30439">
        <ele>66.47</ele>
        <time>2013-04-28T10:05:38Z</time>
      </trkpt>
      <trkpt lat="47.30984" lon="-0.30442">
        <ele>65.51</ele>
        <time>2013-04-28T10:05:42Z</time>
      </trkpt>
      <trkpt lat="47.30987" lon="-0.30441">
        <ele>69.35</ele>
        <time>2013-04-28T10:05:44Z</time>
      </trkpt>
      <trkpt lat="47.30989" lon="-0.3044">
        <ele>65.51</ele>
        <time>2013-04-28T10:05:48Z</time>
      </trkpt>
      <trkpt lat="47.30993" lon="-0.30438">
        <ele>71.76</ele>
        <time>2013-04-28T10:05:55Z</time>
      </trkpt>
      <trkpt lat="47.30994" lon="-0.30434">
        <ele>67.43</ele>
        <time>2013-04-28T10:06:05Z</time>
      </trkpt>
      <trkpt lat="47.31" lon="-0.30432">
        <ele>69.35</ele>
        <time>2013-04-28T10:06:07Z</time>
      </trkpt>
      <trkpt lat="47.31005" lon="-0.30432">
        <ele>70.31</ele>
        <time>2013-04-28T10:06:09Z</time>
      </trkpt>
      <trkpt lat="47.31015" lon="-0.30426">
        <ele>69.83</ele>
        <time>2013-04-28T10:06:13Z</time>
      </trkpt>
      <trkpt lat="47.31018" lon="-0.30421">
        <ele>71.27</ele>
        <time>2013-04-28T10:06:14Z</time>
      </trkpt>
      <trkpt lat="47.31023" lon="-0.30416">
        <ele>69.35</ele>
        <time>2013-04-28T10:06:15Z</time>
      </trkpt>
      <trkpt lat="47.31025" lon="-0.30417">
        <ele>71.27</ele>
        <time>2013-04-28T10:06:16Z</time>
      </trkpt>
      <trkpt lat="47.31026" lon="-0.30418">
        <ele>71.27</ele>
        <time>2013-04-28T10:06:17Z</time>
      </trkpt>
      <trkpt lat="47.31027" lon="-0.30423">
        <ele>72.24</ele>
        <time>2013-04-28T10:06:21Z</time>
      </trkpt>
      <trkpt lat="47.31037" lon="-0.3042">
        <ele>73.68</ele>
        <time>2013-04-28T10:06:26Z</time>
      </trkpt>
      <trkpt lat="47.31044" lon="-0.30418">
        <ele>76.08</ele>
        <time>2013-04-28T10:06:30Z</time>
      </trkpt>
      <trkpt lat="47.31052" lon="-0.30416">
        <ele>78</ele>
        <time>2013-04-28T10:06:36Z</time>
      </trkpt>
      <trkpt lat="47.31063" lon="-0.3042">
        <ele>77.52</ele>
        <time>2013-04-28T10:06:43Z</time>
      </trkpt>
      <trkpt lat="47.31075" lon="-0.30419">
        <ele>75.6</ele>
        <time>2013-04-28T10:06:50Z</time>
      </trkpt>
      <trkpt lat="47.31078" lon="-0.30419">
        <ele>76.08</ele>
        <time>2013-04-28T10:06:52Z</time>
      </trkpt>
      <trkpt lat="47.31079" lon="-0.30419">
        <ele>77.04</ele>
        <time>2013-04-28T10:06:53Z</time>
      </trkpt>
      <trkpt lat="47.3109" lon="-0.30415">
        <ele>76.08</ele>
        <time>2013-04-28T10:06:59Z</time>
      </trkpt>
      <trkpt lat="47.31091" lon="-0.30412">
        <ele>77.52</ele>
        <time>2013-04-28T10:07:01Z</time>
      </trkpt>
      <trkpt lat="47.31091" lon="-0.3041">
        <ele>78.48</ele>
        <time>2013-04-28T10:07:02Z</time>
      </trkpt>
      <trkpt lat="47.31091" lon="-0.30409">
        <ele>74.64</ele>
        <time>2013-04-28T10:07:03Z</time>
      </trkpt>
      <trkpt lat="47.3109" lon="-0.30407">
        <ele>78.48</ele>
        <time>2013-04-28T10:07:04Z</time>
      </trkpt>
      <trkpt lat="47.3109" lon="-0.30404">
        <ele>76.56</ele>
        <time>2013-04-28T10:07:05Z</time>
      </trkpt>
      <trkpt lat="47.3109" lon="-0.30401">
        <ele>76.56</ele>
        <time>2013-04-28T10:07:06Z</time>
      </trkpt>
      <trkpt lat="47.31089" lon="-0.30398">
        <ele>77.04</ele>
        <time>2013-04-28T10:07:07Z</time>
      </trkpt>
      <trkpt lat="47.31088" lon="-0.30396">
        <ele>75.6</ele>
        <time>2013-04-28T10:07:08Z</time>
      </trkpt>
      <trkpt lat="47.31088" lon="-0.30394">
        <ele>75.6</ele>
        <time>2013-04-28T10:07:09Z</time>
      </trkpt>
      <trkpt lat="47.31088" lon="-0.30391">
        <ele>75.6</ele>
        <time>2013-04-28T10:07:10Z</time>
      </trkpt>
      <trkpt lat="47.31087" lon="-0.30388">
        <ele>71.27</ele>
        <time>2013-04-28T10:07:11Z</time>
      </trkpt>
      <trkpt lat="47.31087" lon="-0.30384">
        <ele>72.72</ele>
        <time>2013-04-28T10:07:12Z</time>
      </trkpt>
      <trkpt lat="47.31086" lon="-0.30381">
        <ele>74.64</ele>
        <time>2013-04-28T10:07:13Z</time>
      </trkpt>
      <trkpt lat="47.31085" lon="-0.30377">
        <ele>72.72</ele>
        <time>2013-04-28T10:07:14Z</time>
      </trkpt>
      <trkpt lat="47.31083" lon="-0.30375">
        <ele>72.72</ele>
        <time>2013-04-28T10:07:15Z</time>
      </trkpt>
      <trkpt lat="47.31075" lon="-0.30375">
        <ele>73.2</ele>
        <time>2013-04-28T10:07:22Z</time>
      </trkpt>
      <trkpt lat="47.3107" lon="-0.30378">
        <ele>76.56</ele>
        <time>2013-04-28T10:07:24Z</time>
      </trkpt>
      <trkpt lat="47.31065" lon="-0.3038">
        <ele>71.76</ele>
        <time>2013-04-28T10:07:26Z</time>
      </trkpt>
      <trkpt lat="47.31062" lon="-0.3038">
        <ele>74.16</ele>
        <time>2013-04-28T10:07:27Z</time>
      </trkpt>
      <trkpt lat="47.31039" lon="-0.30387">
        <ele>68.39</ele>
        <time>2013-04-28T10:07:35Z</time>
      </trkpt>
      <trkpt lat="47.31035" lon="-0.30387">
        <ele>71.76</ele>
        <time>2013-04-28T10:07:36Z</time>
      </trkpt>
      <trkpt lat="47.31013" lon="-0.30385">
        <ele>67.43</ele>
        <time>2013-04-28T10:07:42Z</time>
      </trkpt>
      <trkpt lat="47.31008" lon="-0.30382">
        <ele>65.51</ele>
        <time>2013-04-28T10:07:44Z</time>
      </trkpt>
      <trkpt lat="47.31006" lon="-0.3038">
        <ele>65.03</ele>
        <time>2013-04-28T10:07:45Z</time>
      </trkpt>
      <trkpt lat="47.30994" lon="-0.30376">
        <ele>64.55</ele>
        <time>2013-04-28T10:07:51Z</time>
      </trkpt>
      <trkpt lat="47.30988" lon="-0.30364">
        <ele>65.99</ele>
        <time>2013-04-28T10:07:56Z</time>
      </trkpt>
      <trkpt lat="47.30988" lon="-0.3036">
        <ele>65.99</ele>
        <time>2013-04-28T10:07:57Z</time>
      </trkpt>
      <trkpt lat="47.30987" lon="-0.30347">
        <ele>65.03</ele>
        <time>2013-04-28T10:08:01Z</time>
      </trkpt>
      <trkpt lat="47.30987" lon="-0.30321">
        <ele>64.07</ele>
        <time>2013-04-28T10:08:07Z</time>
      </trkpt>
      <trkpt lat="47.30986" lon="-0.30293">
        <ele>63.1</ele>
        <time>2013-04-28T10:08:12Z</time>
      </trkpt>
      <trkpt lat="47.30985" lon="-0.30287">
        <ele>64.07</ele>
        <time>2013-04-28T10:08:13Z</time>
      </trkpt>
      <trkpt lat="47.30972" lon="-0.30266">
        <ele>63.58</ele>
        <time>2013-04-28T10:08:18Z</time>
      </trkpt>
      <trkpt lat="47.30954" lon="-0.30259">
        <ele>65.99</ele>
        <time>2013-04-28T10:08:24Z</time>
      </trkpt>
      <trkpt lat="47.30949" lon="-0.30259">
        <ele>66.95</ele>
        <time>2013-04-28T10:08:26Z</time>
      </trkpt>
      <trkpt lat="47.30947" lon="-0.3026">
        <ele>68.39</ele>
        <time>2013-04-28T10:08:28Z</time>
      </trkpt>
      <trkpt lat="47.30937" lon="-0.30256">
        <ele>70.31</ele>
        <time>2013-04-28T10:08:33Z</time>
      </trkpt>
      <trkpt lat="47.30933" lon="-0.30255">
        <ele>71.76</ele>
        <time>2013-04-28T10:08:35Z</time>
      </trkpt>
      <trkpt lat="47.30918" lon="-0.30245">
        <ele>72.72</ele>
        <time>2013-04-28T10:08:42Z</time>
      </trkpt>
      <trkpt lat="47.30914" lon="-0.30242">
        <ele>73.68</ele>
        <time>2013-04-28T10:08:44Z</time>
      </trkpt>
      <trkpt lat="47.30905" lon="-0.30236">
        <ele>74.64</ele>
        <time>2013-04-28T10:08:49Z</time>
      </trkpt>
      <trkpt lat="47.30887" lon="-0.30224">
        <ele>75.6</ele>
        <time>2013-04-28T10:08:55Z</time>
      </trkpt>
      <trkpt lat="47.3088" lon="-0.3022">
        <ele>71.27</ele>
        <time>2013-04-28T10:08:58Z</time>
      </trkpt>
      <trkpt lat="47.30879" lon="-0.30215">
        <ele>74.16</ele>
        <time>2013-04-28T10:09:00Z</time>
      </trkpt>
      <trkpt lat="47.30881" lon="-0.3021">
        <ele>74.16</ele>
        <time>2013-04-28T10:09:02Z</time>
      </trkpt>
      <trkpt lat="47.30881" lon="-0.30189">
        <ele>74.64</ele>
        <time>2013-04-28T10:09:08Z</time>
      </trkpt>
      <trkpt lat="47.3088" lon="-0.30187">
        <ele>71.76</ele>
        <time>2013-04-28T10:09:11Z</time>
      </trkpt>
      <trkpt lat="47.30879" lon="-0.30186">
        <ele>71.27</ele>
        <time>2013-04-28T10:09:44Z</time>
      </trkpt>
      <trkpt lat="47.30868" lon="-0.3018">
        <ele>74.64</ele>
        <time>2013-04-28T10:09:49Z</time>
      </trkpt>
      <trkpt lat="47.30865" lon="-0.30179">
        <ele>71.76</ele>
        <time>2013-04-28T10:09:50Z</time>
      </trkpt>
      <trkpt lat="47.30848" lon="-0.30161">
        <ele>74.64</ele>
        <time>2013-04-28T10:09:58Z</time>
      </trkpt>
      <trkpt lat="47.30833" lon="-0.30146">
        <ele>74.64</ele>
        <time>2013-04-28T10:10:04Z</time>
      </trkpt>
      <trkpt lat="47.30818" lon="-0.30137">
        <ele>73.68</ele>
        <time>2013-04-28T10:10:10Z</time>
      </trkpt>
      <trkpt lat="47.30803" lon="-0.30129">
        <ele>75.12</ele>
        <time>2013-04-28T10:10:15Z</time>
      </trkpt>
      <trkpt lat="47.30798" lon="-0.30125">
        <ele>76.08</ele>
        <time>2013-04-28T10:10:17Z</time>
      </trkpt>
      <trkpt lat="47.30785" lon="-0.30114">
        <ele>76.56</ele>
        <time>2013-04-28T10:10:22Z</time>
      </trkpt>
      <trkpt lat="47.30775" lon="-0.30104">
        <ele>77.52</ele>
        <time>2013-04-28T10:10:26Z</time>
      </trkpt>
      <trkpt lat="47.30774" lon="-0.30083">
        <ele>76.08</ele>
        <time>2013-04-28T10:10:31Z</time>
      </trkpt>
      <trkpt lat="47.30783" lon="-0.30067">
        <ele>77.52</ele>
        <time>2013-04-28T10:10:35Z</time>
      </trkpt>
      <trkpt lat="47.30799" lon="-0.30049">
        <ele>74.16</ele>
        <time>2013-04-28T10:10:39Z</time>
      </trkpt>
      <trkpt lat="47.30802" lon="-0.30044">
        <ele>75.12</ele>
        <time>2013-04-28T10:10:40Z</time>
      </trkpt>
      <trkpt lat="47.30806" lon="-0.30038">
        <ele>73.68</ele>
        <time>2013-04-28T10:10:41Z</time>
      </trkpt>
      <trkpt lat="47.30809" lon="-0.30034">
        <ele>74.64</ele>
        <time>2013-04-28T10:10:42Z</time>
      </trkpt>
      <trkpt lat="47.30812" lon="-0.30029">
        <ele>73.2</ele>
        <time>2013-04-28T10:10:43Z</time>
      </trkpt>
      <trkpt lat="47.30815" lon="-0.30025">
        <ele>74.64</ele>
        <time>2013-04-28T10:10:44Z</time>
      </trkpt>
      <trkpt lat="47.30819" lon="-0.30021">
        <ele>73.2</ele>
        <time>2013-04-28T10:10:45Z</time>
      </trkpt>
      <trkpt lat="47.30821" lon="-0.30017">
        <ele>73.2</ele>
        <time>2013-04-28T10:10:46Z</time>
      </trkpt>
      <trkpt lat="47.30824" lon="-0.30012">
        <ele>72.72</ele>
        <time>2013-04-28T10:10:47Z</time>
      </trkpt>
      <trkpt lat="47.30827" lon="-0.30007">
        <ele>73.2</ele>
        <time>2013-04-28T10:10:48Z</time>
      </trkpt>
      <trkpt lat="47.3084" lon="-0.29991">
        <ele>72.72</ele>
        <time>2013-04-28T10:10:52Z</time>
      </trkpt>
      <trkpt lat="47.30844" lon="-0.29987">
        <ele>71.76</ele>
        <time>2013-04-28T10:10:53Z</time>
      </trkpt>
      <trkpt lat="47.30847" lon="-0.29984">
        <ele>71.76</ele>
        <time>2013-04-28T10:10:54Z</time>
      </trkpt>
      <trkpt lat="47.30848" lon="-0.2998">
        <ele>71.76</ele>
        <time>2013-04-28T10:10:55Z</time>
      </trkpt>
      <trkpt lat="47.30848" lon="-0.29976">
        <ele>73.68</ele>
        <time>2013-04-28T10:10:56Z</time>
      </trkpt>
      <trkpt lat="47.30849" lon="-0.29973">
        <ele>70.79</ele>
        <time>2013-04-28T10:10:57Z</time>
      </trkpt>
      <trkpt lat="47.30851" lon="-0.2997">
        <ele>70.31</ele>
        <time>2013-04-28T10:10:58Z</time>
      </trkpt>
      <trkpt lat="47.30853" lon="-0.29968">
        <ele>71.76</ele>
        <time>2013-04-28T10:10:59Z</time>
      </trkpt>
      <trkpt lat="47.30855" lon="-0.29967">
        <ele>71.27</ele>
        <time>2013-04-28T10:11:00Z</time>
      </trkpt>
      <trkpt lat="47.30857" lon="-0.29966">
        <ele>70.79</ele>
        <time>2013-04-28T10:11:01Z</time>
      </trkpt>
      <trkpt lat="47.30859" lon="-0.29965">
        <ele>70.79</ele>
        <time>2013-04-28T10:11:02Z</time>
      </trkpt>
      <trkpt lat="47.30862" lon="-0.29965">
        <ele>71.27</ele>
        <time>2013-04-28T10:11:03Z</time>
      </trkpt>
      <trkpt lat="47.30865" lon="-0.29964">
        <ele>69.83</ele>
        <time>2013-04-28T10:11:04Z</time>
      </trkpt>
      <trkpt lat="47.30869" lon="-0.29964">
        <ele>69.35</ele>
        <time>2013-04-28T10:11:05Z</time>
      </trkpt>
      <trkpt lat="47.30885" lon="-0.29974">
        <ele>67.91</ele>
        <time>2013-04-28T10:11:10Z</time>
      </trkpt>
      <trkpt lat="47.30889" lon="-0.29979">
        <ele>67.43</ele>
        <time>2013-04-28T10:11:11Z</time>
      </trkpt>
      <trkpt lat="47.30893" lon="-0.29984">
        <ele>65.99</ele>
        <time>2013-04-28T10:11:12Z</time>
      </trkpt>
      <trkpt lat="47.30897" lon="-0.2999">
        <ele>65.51</ele>
        <time>2013-04-28T10:11:13Z</time>
      </trkpt>
      <trkpt lat="47.30901" lon="-0.29998">
        <ele>66.47</ele>
        <time>2013-04-28T10:11:14Z</time>
      </trkpt>
      <trkpt lat="47.30905" lon="-0.30007">
        <ele>66.95</ele>
        <time>2013-04-28T10:11:15Z</time>
      </trkpt>
      <trkpt lat="47.30917" lon="-0.30039">
        <ele>62.62</ele>
        <time>2013-04-28T10:11:18Z</time>
      </trkpt>
      <trkpt lat="47.30922" lon="-0.3005">
        <ele>63.1</ele>
        <time>2013-04-28T10:11:19Z</time>
      </trkpt>
      <trkpt lat="47.30938" lon="-0.30078">
        <ele>61.66</ele>
        <time>2013-04-28T10:11:22Z</time>
      </trkpt>
      <trkpt lat="47.30943" lon="-0.30085">
        <ele>61.18</ele>
        <time>2013-04-28T10:11:23Z</time>
      </trkpt>
      <trkpt lat="47.30954" lon="-0.30098">
        <ele>60.22</ele>
        <time>2013-04-28T10:11:25Z</time>
      </trkpt>
      <trkpt lat="47.30959" lon="-0.30103">
        <ele>60.22</ele>
        <time>2013-04-28T10:11:26Z</time>
      </trkpt>
      <trkpt lat="47.30965" lon="-0.30107">
        <ele>59.74</ele>
        <time>2013-04-28T10:11:27Z</time>
      </trkpt>
      <trkpt lat="47.30972" lon="-0.30109">
        <ele>59.74</ele>
        <time>2013-04-28T10:11:28Z</time>
      </trkpt>
      <trkpt lat="47.30978" lon="-0.3011">
        <ele>60.7</ele>
        <time>2013-04-28T10:11:29Z</time>
      </trkpt>
      <trkpt lat="47.30983" lon="-0.30108">
        <ele>60.22</ele>
        <time>2013-04-28T10:11:30Z</time>
      </trkpt>
      <trkpt lat="47.30988" lon="-0.30105">
        <ele>60.7</ele>
        <time>2013-04-28T10:11:31Z</time>
      </trkpt>
      <trkpt lat="47.30993" lon="-0.30103">
        <ele>61.18</ele>
        <time>2013-04-28T10:11:32Z</time>
      </trkpt>
      <trkpt lat="47.31005" lon="-0.30096">
        <ele>62.14</ele>
        <time>2013-04-28T10:11:36Z</time>
      </trkpt>
      <trkpt lat="47.31011" lon="-0.30095">
        <ele>63.58</ele>
        <time>2013-04-28T10:11:38Z</time>
      </trkpt>
      <trkpt lat="47.31016" lon="-0.30094">
        <ele>64.55</ele>
        <time>2013-04-28T10:11:40Z</time>
      </trkpt>
      <trkpt lat="47.31022" lon="-0.30093">
        <ele>64.07</ele>
        <time>2013-04-28T10:11:42Z</time>
      </trkpt>
      <trkpt lat="47.31024" lon="-0.30094">
        <ele>64.55</ele>
        <time>2013-04-28T10:11:43Z</time>
      </trkpt>
      <trkpt lat="47.31026" lon="-0.30097">
        <ele>65.51</ele>
        <time>2013-04-28T10:11:44Z</time>
      </trkpt>
      <trkpt lat="47.31029" lon="-0.301">
        <ele>65.03</ele>
        <time>2013-04-28T10:11:45Z</time>
      </trkpt>
      <trkpt lat="47.31031" lon="-0.30103">
        <ele>65.03</ele>
        <time>2013-04-28T10:11:46Z</time>
      </trkpt>
      <trkpt lat="47.31041" lon="-0.30128">
        <ele>65.99</ele>
        <time>2013-04-28T10:11:52Z</time>
      </trkpt>
      <trkpt lat="47.31047" lon="-0.30142">
        <ele>66.95</ele>
        <time>2013-04-28T10:11:55Z</time>
      </trkpt>
      <trkpt lat="47.3105" lon="-0.30145">
        <ele>65.51</ele>
        <time>2013-04-28T10:11:56Z</time>
      </trkpt>
      <trkpt lat="47.31053" lon="-0.30147">
        <ele>66.47</ele>
        <time>2013-04-28T10:11:57Z</time>
      </trkpt>
      <trkpt lat="47.31056" lon="-0.30148">
        <ele>66.95</ele>
        <time>2013-04-28T10:11:58Z</time>
      </trkpt>
      <trkpt lat="47.31059" lon="-0.30148">
        <ele>66.47</ele>
        <time>2013-04-28T10:11:59Z</time>
      </trkpt>
      <trkpt lat="47.31062" lon="-0.30149">
        <ele>66.47</ele>
        <time>2013-04-28T10:12:00Z</time>
      </trkpt>
      <trkpt lat="47.31065" lon="-0.30149">
        <ele>67.43</ele>
        <time>2013-04-28T10:12:01Z</time>
      </trkpt>
      <trkpt lat="47.31067" lon="-0.3015">
        <ele>67.43</ele>
        <time>2013-04-28T10:12:02Z</time>
      </trkpt>
      <trkpt lat="47.3107" lon="-0.3015">
        <ele>67.91</ele>
        <time>2013-04-28T10:12:03Z</time>
      </trkpt>
      <trkpt lat="47.31072" lon="-0.3015">
        <ele>67.43</ele>
        <time>2013-04-28T10:12:04Z</time>
      </trkpt>
      <trkpt lat="47.31074" lon="-0.3015">
        <ele>68.39</ele>
        <time>2013-04-28T10:12:05Z</time>
      </trkpt>
      <trkpt lat="47.31078" lon="-0.30149">
        <ele>69.35</ele>
        <time>2013-04-28T10:12:07Z</time>
      </trkpt>
      <trkpt lat="47.31081" lon="-0.30149">
        <ele>68.39</ele>
        <time>2013-04-28T10:12:08Z</time>
      </trkpt>
      <trkpt lat="47.31085" lon="-0.30149">
        <ele>69.35</ele>
        <time>2013-04-28T10:12:10Z</time>
      </trkpt>
      <trkpt lat="47.31087" lon="-0.3015">
        <ele>69.83</ele>
        <time>2013-04-28T10:12:11Z</time>
      </trkpt>
      <trkpt lat="47.3109" lon="-0.30149">
        <ele>72.24</ele>
        <time>2013-04-28T10:12:13Z</time>
      </trkpt>
      <trkpt lat="47.31095" lon="-0.30149">
        <ele>73.2</ele>
        <time>2013-04-28T10:12:16Z</time>
      </trkpt>
      <trkpt lat="47.31109" lon="-0.30155">
        <ele>73.2</ele>
        <time>2013-04-28T10:12:22Z</time>
      </trkpt>
      <trkpt lat="47.31111" lon="-0.30157">
        <ele>72.24</ele>
        <time>2013-04-28T10:12:23Z</time>
      </trkpt>
      <trkpt lat="47.31113" lon="-0.3016">
        <ele>72.24</ele>
        <time>2013-04-28T10:12:24Z</time>
      </trkpt>
      <trkpt lat="47.31115" lon="-0.30163">
        <ele>72.72</ele>
        <time>2013-04-28T10:12:25Z</time>
      </trkpt>
      <trkpt lat="47.31131" lon="-0.30181">
        <ele>73.68</ele>
        <time>2013-04-28T10:12:30Z</time>
      </trkpt>
      <trkpt lat="47.31135" lon="-0.30185">
        <ele>73.2</ele>
        <time>2013-04-28T10:12:31Z</time>
      </trkpt>
      <trkpt lat="47.31154" lon="-0.30205">
        <ele>71.27</ele>
        <time>2013-04-28T10:12:36Z</time>
      </trkpt>
      <trkpt lat="47.31157" lon="-0.30206">
        <ele>70.31</ele>
        <time>2013-04-28T10:12:37Z</time>
      </trkpt>
      <trkpt lat="47.31173" lon="-0.30211">
        <ele>72.24</ele>
        <time>2013-04-28T10:12:42Z</time>
      </trkpt>
      <trkpt lat="47.31192" lon="-0.30215">
        <ele>71.27</ele>
        <time>2013-04-28T10:12:47Z</time>
      </trkpt>
      <trkpt lat="47.31212" lon="-0.30224">
        <ele>72.72</ele>
        <time>2013-04-28T10:12:53Z</time>
      </trkpt>
      <trkpt lat="47.31231" lon="-0.30226">
        <ele>73.68</ele>
        <time>2013-04-28T10:12:59Z</time>
      </trkpt>
      <trkpt lat="47.31249" lon="-0.30227">
        <ele>74.16</ele>
        <time>2013-04-28T10:13:05Z</time>
      </trkpt>
      <trkpt lat="47.31271" lon="-0.30227">
        <ele>68.87</ele>
        <time>2013-04-28T10:13:12Z</time>
      </trkpt>
      <trkpt lat="47.31275" lon="-0.30227">
        <ele>74.16</ele>
        <time>2013-04-28T10:13:13Z</time>
      </trkpt>
      <trkpt lat="47.31288" lon="-0.3022">
        <ele>76.08</ele>
        <time>2013-04-28T10:13:17Z</time>
      </trkpt>
      <trkpt lat="47.31291" lon="-0.30213">
        <ele>74.64</ele>
        <time>2013-04-28T10:13:18Z</time>
      </trkpt>
      <trkpt lat="47.31293" lon="-0.30208">
        <ele>75.6</ele>
        <time>2013-04-28T10:13:19Z</time>
      </trkpt>
      <trkpt lat="47.31296" lon="-0.30206">
        <ele>76.56</ele>
        <time>2013-04-28T10:13:20Z</time>
      </trkpt>
      <trkpt lat="47.31299" lon="-0.3021">
        <ele>76.08</ele>
        <time>2013-04-28T10:13:21Z</time>
      </trkpt>
      <trkpt lat="47.31321" lon="-0.30224">
        <ele>77.52</ele>
        <time>2013-04-28T10:13:27Z</time>
      </trkpt>
      <trkpt lat="47.31346" lon="-0.30231">
        <ele>77.04</ele>
        <time>2013-04-28T10:13:34Z</time>
      </trkpt>
      <trkpt lat="47.31369" lon="-0.30231">
        <ele>78</ele>
        <time>2013-04-28T10:13:41Z</time>
      </trkpt>
      <trkpt lat="47.31372" lon="-0.30232">
        <ele>76.56</ele>
        <time>2013-04-28T10:13:42Z</time>
      </trkpt>
      <trkpt lat="47.31389" lon="-0.30237">
        <ele>78.97</ele>
        <time>2013-04-28T10:13:48Z</time>
      </trkpt>
      <trkpt lat="47.31391" lon="-0.30236">
        <ele>78.97</ele>
        <time>2013-04-28T10:13:49Z</time>
      </trkpt>
      <trkpt lat="47.31391" lon="-0.30234">
        <ele>78</ele>
        <time>2013-04-28T10:13:50Z</time>
      </trkpt>
      <trkpt lat="47.31392" lon="-0.30232">
        <ele>77.52</ele>
        <time>2013-04-28T10:13:51Z</time>
      </trkpt>
      <trkpt lat="47.31392" lon="-0.30229">
        <ele>78.48</ele>
        <time>2013-04-28T10:13:52Z</time>
      </trkpt>
      <trkpt lat="47.31392" lon="-0.30227">
        <ele>77.52</ele>
        <time>2013-04-28T10:13:53Z</time>
      </trkpt>
      <trkpt lat="47.31392" lon="-0.30225">
        <ele>77.52</ele>
        <time>2013-04-28T10:13:54Z</time>
      </trkpt>
      <trkpt lat="47.31392" lon="-0.30223">
        <ele>77.52</ele>
        <time>2013-04-28T10:13:55Z</time>
      </trkpt>
      <trkpt lat="47.31392" lon="-0.3022">
        <ele>77.52</ele>
        <time>2013-04-28T10:13:56Z</time>
      </trkpt>
      <trkpt lat="47.31393" lon="-0.30218">
        <ele>77.52</ele>
        <time>2013-04-28T10:13:57Z</time>
      </trkpt>
      <trkpt lat="47.31393" lon="-0.30215">
        <ele>78</ele>
        <time>2013-04-28T10:13:58Z</time>
      </trkpt>
      <trkpt lat="47.31392" lon="-0.30212">
        <ele>78</ele>
        <time>2013-04-28T10:13:59Z</time>
      </trkpt>
      <trkpt lat="47.31392" lon="-0.30209">
        <ele>78.48</ele>
        <time>2013-04-28T10:14:00Z</time>
      </trkpt>
      <trkpt lat="47.31392" lon="-0.30206">
        <ele>77.52</ele>
        <time>2013-04-28T10:14:01Z</time>
      </trkpt>
      <trkpt lat="47.31393" lon="-0.30199">
        <ele>77.52</ele>
        <time>2013-04-28T10:14:03Z</time>
      </trkpt>
      <trkpt lat="47.31394" lon="-0.30196">
        <ele>77.52</ele>
        <time>2013-04-28T10:14:04Z</time>
      </trkpt>
      <trkpt lat="47.31395" lon="-0.30173">
        <ele>76.56</ele>
        <time>2013-04-28T10:14:11Z</time>
      </trkpt>
      <trkpt lat="47.31395" lon="-0.30148">
        <ele>77.52</ele>
        <time>2013-04-28T10:14:18Z</time>
      </trkpt>
      <trkpt lat="47.31396" lon="-0.30145">
        <ele>77.04</ele>
        <time>2013-04-28T10:14:19Z</time>
      </trkpt>
      <trkpt lat="47.31397" lon="-0.30143">
        <ele>77.04</ele>
        <time>2013-04-28T10:14:20Z</time>
      </trkpt>
      <trkpt lat="47.31397" lon="-0.30141">
        <ele>77.04</ele>
        <time>2013-04-28T10:14:21Z</time>
      </trkpt>
      <trkpt lat="47.31398" lon="-0.30137">
        <ele>77.04</ele>
        <time>2013-04-28T10:14:22Z</time>
      </trkpt>
      <trkpt lat="47.31398" lon="-0.30111">
        <ele>78</ele>
        <time>2013-04-28T10:14:27Z</time>
      </trkpt>
      <trkpt lat="47.31399" lon="-0.301">
        <ele>76.56</ele>
        <time>2013-04-28T10:14:29Z</time>
      </trkpt>
      <trkpt lat="47.31399" lon="-0.30077">
        <ele>77.04</ele>
        <time>2013-04-28T10:14:34Z</time>
      </trkpt>
      <trkpt lat="47.314" lon="-0.30039">
        <ele>76.56</ele>
        <time>2013-04-28T10:14:41Z</time>
      </trkpt>
      <trkpt lat="47.31399" lon="-0.30013">
        <ele>77.52</ele>
        <time>2013-04-28T10:14:46Z</time>
      </trkpt>
      <trkpt lat="47.314" lon="-0.29964">
        <ele>77.04</ele>
        <time>2013-04-28T10:14:54Z</time>
      </trkpt>
      <trkpt lat="47.31399" lon="-0.29958">
        <ele>77.52</ele>
        <time>2013-04-28T10:14:55Z</time>
      </trkpt>
      <trkpt lat="47.31399" lon="-0.29951">
        <ele>77.52</ele>
        <time>2013-04-28T10:14:56Z</time>
      </trkpt>
      <trkpt lat="47.31399" lon="-0.29945">
        <ele>76.08</ele>
        <time>2013-04-28T10:14:57Z</time>
      </trkpt>
      <trkpt lat="47.31399" lon="-0.29938">
        <ele>77.04</ele>
        <time>2013-04-28T10:14:58Z</time>
      </trkpt>
      <trkpt lat="47.31399" lon="-0.29932">
        <ele>77.52</ele>
        <time>2013-04-28T10:14:59Z</time>
      </trkpt>
      <trkpt lat="47.314" lon="-0.29925">
        <ele>77.04</ele>
        <time>2013-04-28T10:15:00Z</time>
      </trkpt>
      <trkpt lat="47.31401" lon="-0.29885">
        <ele>77.52</ele>
        <time>2013-04-28T10:15:07Z</time>
      </trkpt>
      <trkpt lat="47.31404" lon="-0.29849">
        <ele>77.04</ele>
        <time>2013-04-28T10:15:13Z</time>
      </trkpt>
      <trkpt lat="47.31404" lon="-0.29843">
        <ele>77.04</ele>
        <time>2013-04-28T10:15:14Z</time>
      </trkpt>
      <trkpt lat="47.31405" lon="-0.29805">
        <ele>77.52</ele>
        <time>2013-04-28T10:15:20Z</time>
      </trkpt>
      <trkpt lat="47.31405" lon="-0.29798">
        <ele>77.04</ele>
        <time>2013-04-28T10:15:21Z</time>
      </trkpt>
      <trkpt lat="47.31405" lon="-0.29791">
        <ele>77.04</ele>
        <time>2013-04-28T10:15:22Z</time>
      </trkpt>
      <trkpt lat="47.31406" lon="-0.29784">
        <ele>76.56</ele>
        <time>2013-04-28T10:15:23Z</time>
      </trkpt>
      <trkpt lat="47.31406" lon="-0.29777">
        <ele>78</ele>
        <time>2013-04-28T10:15:24Z</time>
      </trkpt>
      <trkpt lat="47.31406" lon="-0.29756">
        <ele>76.56</ele>
        <time>2013-04-28T10:15:27Z</time>
      </trkpt>
      <trkpt lat="47.31407" lon="-0.29708">
        <ele>76.08</ele>
        <time>2013-04-28T10:15:34Z</time>
      </trkpt>
      <trkpt lat="47.31405" lon="-0.29672">
        <ele>75.12</ele>
        <time>2013-04-28T10:15:39Z</time>
      </trkpt>
      <trkpt lat="47.31402" lon="-0.29668">
        <ele>74.64</ele>
        <time>2013-04-28T10:15:40Z</time>
      </trkpt>
      <trkpt lat="47.31398" lon="-0.29666">
        <ele>73.2</ele>
        <time>2013-04-28T10:15:41Z</time>
      </trkpt>
      <trkpt lat="47.31394" lon="-0.29666">
        <ele>73.68</ele>
        <time>2013-04-28T10:15:42Z</time>
      </trkpt>
      <trkpt lat="47.31391" lon="-0.29665">
        <ele>73.2</ele>
        <time>2013-04-28T10:15:43Z</time>
      </trkpt>
      <trkpt lat="47.31387" lon="-0.29665">
        <ele>74.64</ele>
        <time>2013-04-28T10:15:44Z</time>
      </trkpt>
      <trkpt lat="47.31383" lon="-0.29665">
        <ele>74.16</ele>
        <time>2013-04-28T10:15:45Z</time>
      </trkpt>
      <trkpt lat="47.31372" lon="-0.29665">
        <ele>75.12</ele>
        <time>2013-04-28T10:15:48Z</time>
      </trkpt>
      <trkpt lat="47.31351" lon="-0.29669">
        <ele>75.6</ele>
        <time>2013-04-28T10:15:55Z</time>
      </trkpt>
      <trkpt lat="47.31332" lon="-0.29675">
        <ele>74.64</ele>
        <time>2013-04-28T10:16:01Z</time>
      </trkpt>
      <trkpt lat="47.31317" lon="-0.29681">
        <ele>76.08</ele>
        <time>2013-04-28T10:16:06Z</time>
      </trkpt>
      <trkpt lat="47.31315" lon="-0.29682">
        <ele>76.08</ele>
        <time>2013-04-28T10:16:07Z</time>
      </trkpt>
      <trkpt lat="47.31303" lon="-0.29692">
        <ele>76.08</ele>
        <time>2013-04-28T10:16:11Z</time>
      </trkpt>
      <trkpt lat="47.31302" lon="-0.29696">
        <ele>77.04</ele>
        <time>2013-04-28T10:16:12Z</time>
      </trkpt>
      <trkpt lat="47.313" lon="-0.297">
        <ele>76.56</ele>
        <time>2013-04-28T10:16:13Z</time>
      </trkpt>
      <trkpt lat="47.31287" lon="-0.29719">
        <ele>78</ele>
        <time>2013-04-28T10:16:19Z</time>
      </trkpt>
      <trkpt lat="47.31284" lon="-0.29719">
        <ele>77.04</ele>
        <time>2013-04-28T10:16:20Z</time>
      </trkpt>
      <trkpt lat="47.3128" lon="-0.29717">
        <ele>77.52</ele>
        <time>2013-04-28T10:16:21Z</time>
      </trkpt>
      <trkpt lat="47.31278" lon="-0.29715">
        <ele>77.04</ele>
        <time>2013-04-28T10:16:22Z</time>
      </trkpt>
      <trkpt lat="47.31276" lon="-0.29711">
        <ele>78</ele>
        <time>2013-04-28T10:16:23Z</time>
      </trkpt>
      <trkpt lat="47.31275" lon="-0.29708">
        <ele>78</ele>
        <time>2013-04-28T10:16:24Z</time>
      </trkpt>
      <trkpt lat="47.31273" lon="-0.29705">
        <ele>77.52</ele>
        <time>2013-04-28T10:16:25Z</time>
      </trkpt>
      <trkpt lat="47.31269" lon="-0.29703">
        <ele>77.04</ele>
        <time>2013-04-28T10:16:26Z</time>
      </trkpt>
      <trkpt lat="47.3126" lon="-0.29705">
        <ele>76.56</ele>
        <time>2013-04-28T10:16:29Z</time>
      </trkpt>
      <trkpt lat="47.31236" lon="-0.29711">
        <ele>78</ele>
        <time>2013-04-28T10:16:36Z</time>
      </trkpt>
      <trkpt lat="47.31217" lon="-0.29716">
        <ele>77.04</ele>
        <time>2013-04-28T10:16:41Z</time>
      </trkpt>
      <trkpt lat="47.31199" lon="-0.29722">
        <ele>77.52</ele>
        <time>2013-04-28T10:16:46Z</time>
      </trkpt>
      <trkpt lat="47.31173" lon="-0.29733">
        <ele>77.52</ele>
        <time>2013-04-28T10:16:52Z</time>
      </trkpt>
      <trkpt lat="47.31154" lon="-0.29741">
        <ele>76.56</ele>
        <time>2013-04-28T10:16:57Z</time>
      </trkpt>
      <trkpt lat="47.31139" lon="-0.29747">
        <ele>76.56</ele>
        <time>2013-04-28T10:17:01Z</time>
      </trkpt>
      <trkpt lat="47.31117" lon="-0.2975">
        <ele>73.2</ele>
        <time>2013-04-28T10:17:06Z</time>
      </trkpt>
      <trkpt lat="47.31104" lon="-0.29764">
        <ele>71.76</ele>
        <time>2013-04-28T10:17:10Z</time>
      </trkpt>
      <trkpt lat="47.31093" lon="-0.29772">
        <ele>69.83</ele>
        <time>2013-04-28T10:17:13Z</time>
      </trkpt>
      <trkpt lat="47.31087" lon="-0.29775">
        <ele>69.83</ele>
        <time>2013-04-28T10:17:14Z</time>
      </trkpt>
      <trkpt lat="47.31082" lon="-0.29777">
        <ele>67.91</ele>
        <time>2013-04-28T10:17:15Z</time>
      </trkpt>
      <trkpt lat="47.31077" lon="-0.2978">
        <ele>68.87</ele>
        <time>2013-04-28T10:17:16Z</time>
      </trkpt>
      <trkpt lat="47.31072" lon="-0.29783">
        <ele>66.95</ele>
        <time>2013-04-28T10:17:17Z</time>
      </trkpt>
      <trkpt lat="47.31067" lon="-0.29786">
        <ele>66.95</ele>
        <time>2013-04-28T10:17:18Z</time>
      </trkpt>
      <trkpt lat="47.31054" lon="-0.29789">
        <ele>61.66</ele>
        <time>2013-04-28T10:17:21Z</time>
      </trkpt>
      <trkpt lat="47.31051" lon="-0.29798">
        <ele>59.74</ele>
        <time>2013-04-28T10:17:24Z</time>
      </trkpt>
      <trkpt lat="47.31043" lon="-0.298">
        <ele>58.78</ele>
        <time>2013-04-28T10:17:28Z</time>
      </trkpt>
      <trkpt lat="47.31032" lon="-0.29793">
        <ele>58.78</ele>
        <time>2013-04-28T10:17:32Z</time>
      </trkpt>
      <trkpt lat="47.31024" lon="-0.29788">
        <ele>56.86</ele>
        <time>2013-04-28T10:17:35Z</time>
      </trkpt>
      <trkpt lat="47.31008" lon="-0.29773">
        <ele>57.34</ele>
        <time>2013-04-28T10:17:41Z</time>
      </trkpt>
      <trkpt lat="47.31002" lon="-0.29764">
        <ele>55.41</ele>
        <time>2013-04-28T10:17:43Z</time>
      </trkpt>
      <trkpt lat="47.31" lon="-0.29761">
        <ele>55.41</ele>
        <time>2013-04-28T10:17:44Z</time>
      </trkpt>
      <trkpt lat="47.31" lon="-0.29758">
        <ele>57.34</ele>
        <time>2013-04-28T10:17:45Z</time>
      </trkpt>
      <trkpt lat="47.31" lon="-0.29755">
        <ele>57.34</ele>
        <time>2013-04-28T10:17:46Z</time>
      </trkpt>
      <trkpt lat="47.30999" lon="-0.29752">
        <ele>54.93</ele>
        <time>2013-04-28T10:17:47Z</time>
      </trkpt>
      <trkpt lat="47.30999" lon="-0.29748">
        <ele>54.93</ele>
        <time>2013-04-28T10:17:48Z</time>
      </trkpt>
      <trkpt lat="47.31" lon="-0.29744">
        <ele>54.45</ele>
        <time>2013-04-28T10:17:49Z</time>
      </trkpt>
      <trkpt lat="47.31" lon="-0.29739">
        <ele>53.01</ele>
        <time>2013-04-28T10:17:50Z</time>
      </trkpt>
      <trkpt lat="47.30999" lon="-0.29734">
        <ele>53.49</ele>
        <time>2013-04-28T10:17:51Z</time>
      </trkpt>
      <trkpt lat="47.30999" lon="-0.29729">
        <ele>54.93</ele>
        <time>2013-04-28T10:17:52Z</time>
      </trkpt>
      <trkpt lat="47.30998" lon="-0.29713">
        <ele>55.41</ele>
        <time>2013-04-28T10:17:56Z</time>
      </trkpt>
      <trkpt lat="47.30998" lon="-0.29709">
        <ele>53.49</ele>
        <time>2013-04-28T10:17:57Z</time>
      </trkpt>
      <trkpt lat="47.30999" lon="-0.29698">
        <ele>54.45</ele>
        <time>2013-04-28T10:18:00Z</time>
      </trkpt>
      <trkpt lat="47.31" lon="-0.29695">
        <ele>56.37</ele>
        <time>2013-04-28T10:18:01Z</time>
      </trkpt>
      <trkpt lat="47.31" lon="-0.29691">
        <ele>56.37</ele>
        <time>2013-04-28T10:18:02Z</time>
      </trkpt>
      <trkpt lat="47.31003" lon="-0.29684">
        <ele>54.45</ele>
        <time>2013-04-28T10:18:04Z</time>
      </trkpt>
      <trkpt lat="47.31003" lon="-0.2968">
        <ele>55.89</ele>
        <time>2013-04-28T10:18:05Z</time>
      </trkpt>
      <trkpt lat="47.31003" lon="-0.29675">
        <ele>53.01</ele>
        <time>2013-04-28T10:18:06Z</time>
      </trkpt>
      <trkpt lat="47.31004" lon="-0.29671">
        <ele>53.49</ele>
        <time>2013-04-28T10:18:07Z</time>
      </trkpt>
      <trkpt lat="47.31005" lon="-0.29666">
        <ele>53.49</ele>
        <time>2013-04-28T10:18:08Z</time>
      </trkpt>
      <trkpt lat="47.31005" lon="-0.29661">
        <ele>55.41</ele>
        <time>2013-04-28T10:18:09Z</time>
      </trkpt>
      <trkpt lat="47.31004" lon="-0.29655">
        <ele>53.49</ele>
        <time>2013-04-28T10:18:10Z</time>
      </trkpt>
      <trkpt lat="47.31004" lon="-0.29649">
        <ele>53.01</ele>
        <time>2013-04-28T10:18:11Z</time>
      </trkpt>
      <trkpt lat="47.31004" lon="-0.29644">
        <ele>53.49</ele>
        <time>2013-04-28T10:18:12Z</time>
      </trkpt>
      <trkpt lat="47.31005" lon="-0.2964">
        <ele>53.49</ele>
        <time>2013-04-28T10:18:13Z</time>
      </trkpt>
      <trkpt lat="47.31006" lon="-0.29635">
        <ele>54.93</ele>
        <time>2013-04-28T10:18:14Z</time>
      </trkpt>
      <trkpt lat="47.31008" lon="-0.29631">
        <ele>53.49</ele>
        <time>2013-04-28T10:18:15Z</time>
      </trkpt>
      <trkpt lat="47.31008" lon="-0.29627">
        <ele>52.53</ele>
        <time>2013-04-28T10:18:16Z</time>
      </trkpt>
      <trkpt lat="47.31007" lon="-0.29622">
        <ele>52.53</ele>
        <time>2013-04-28T10:18:17Z</time>
      </trkpt>
      <trkpt lat="47.31007" lon="-0.29614">
        <ele>52.53</ele>
        <time>2013-04-28T10:18:19Z</time>
      </trkpt>
      <trkpt lat="47.31007" lon="-0.2961">
        <ele>53.97</ele>
        <time>2013-04-28T10:18:20Z</time>
      </trkpt>
      <trkpt lat="47.31005" lon="-0.29605">
        <ele>54.93</ele>
        <time>2013-04-28T10:18:21Z</time>
      </trkpt>
      <trkpt lat="47.31003" lon="-0.29604">
        <ele>52.05</ele>
        <time>2013-04-28T10:18:22Z</time>
      </trkpt>
      <trkpt lat="47.31" lon="-0.29601">
        <ele>54.45</ele>
        <time>2013-04-28T10:18:23Z</time>
      </trkpt>
      <trkpt lat="47.30998" lon="-0.29598">
        <ele>53.01</ele>
        <time>2013-04-28T10:18:24Z</time>
      </trkpt>
      <trkpt lat="47.30996" lon="-0.29599">
        <ele>53.49</ele>
        <time>2013-04-28T10:18:25Z</time>
      </trkpt>
      <trkpt lat="47.30988" lon="-0.29591">
        <ele>54.93</ele>
        <time>2013-04-28T10:18:28Z</time>
      </trkpt>
      <trkpt lat="47.30987" lon="-0.29588">
        <ele>53.49</ele>
        <time>2013-04-28T10:18:29Z</time>
      </trkpt>
      <trkpt lat="47.30985" lon="-0.29579">
        <ele>54.93</ele>
        <time>2013-04-28T10:18:31Z</time>
      </trkpt>
      <trkpt lat="47.30979" lon="-0.29566">
        <ele>56.86</ele>
        <time>2013-04-28T10:18:36Z</time>
      </trkpt>
      <trkpt lat="47.30977" lon="-0.29563">
        <ele>56.37</ele>
        <time>2013-04-28T10:18:37Z</time>
      </trkpt>
      <trkpt lat="47.30975" lon="-0.29561">
        <ele>56.86</ele>
        <time>2013-04-28T10:18:38Z</time>
      </trkpt>
      <trkpt lat="47.30973" lon="-0.2956">
        <ele>57.34</ele>
        <time>2013-04-28T10:18:39Z</time>
      </trkpt>
      <trkpt lat="47.30972" lon="-0.29559">
        <ele>57.34</ele>
        <time>2013-04-28T10:18:40Z</time>
      </trkpt>
      <trkpt lat="47.3097" lon="-0.29559">
        <ele>56.86</ele>
        <time>2013-04-28T10:18:41Z</time>
      </trkpt>
      <trkpt lat="47.30968" lon="-0.29558">
        <ele>56.86</ele>
        <time>2013-04-28T10:18:42Z</time>
      </trkpt>
      <trkpt lat="47.30965" lon="-0.29555">
        <ele>58.3</ele>
        <time>2013-04-28T10:18:43Z</time>
      </trkpt>
      <trkpt lat="47.30963" lon="-0.29554">
        <ele>58.3</ele>
        <time>2013-04-28T10:18:44Z</time>
      </trkpt>
      <trkpt lat="47.30961" lon="-0.29552">
        <ele>58.3</ele>
        <time>2013-04-28T10:18:45Z</time>
      </trkpt>
      <trkpt lat="47.30959" lon="-0.29553">
        <ele>58.3</ele>
        <time>2013-04-28T10:18:46Z</time>
      </trkpt>
      <trkpt lat="47.30957" lon="-0.29554">
        <ele>58.3</ele>
        <time>2013-04-28T10:18:47Z</time>
      </trkpt>
      <trkpt lat="47.30956" lon="-0.29554">
        <ele>59.74</ele>
        <time>2013-04-28T10:18:48Z</time>
      </trkpt>
      <trkpt lat="47.30954" lon="-0.29552">
        <ele>59.26</ele>
        <time>2013-04-28T10:18:49Z</time>
      </trkpt>
      <trkpt lat="47.3095" lon="-0.29551">
        <ele>61.18</ele>
        <time>2013-04-28T10:18:52Z</time>
      </trkpt>
      <trkpt lat="47.30948" lon="-0.29551">
        <ele>61.18</ele>
        <time>2013-04-28T10:18:53Z</time>
      </trkpt>
      <trkpt lat="47.30947" lon="-0.29551">
        <ele>62.14</ele>
        <time>2013-04-28T10:18:54Z</time>
      </trkpt>
      <trkpt lat="47.30945" lon="-0.2955">
        <ele>63.1</ele>
        <time>2013-04-28T10:18:55Z</time>
      </trkpt>
      <trkpt lat="47.30944" lon="-0.29549">
        <ele>63.1</ele>
        <time>2013-04-28T10:18:56Z</time>
      </trkpt>
      <trkpt lat="47.30943" lon="-0.2955">
        <ele>62.62</ele>
        <time>2013-04-28T10:18:57Z</time>
      </trkpt>
      <trkpt lat="47.3094" lon="-0.29551">
        <ele>63.58</ele>
        <time>2013-04-28T10:19:00Z</time>
      </trkpt>
      <trkpt lat="47.30938" lon="-0.29551">
        <ele>65.51</ele>
        <time>2013-04-28T10:19:02Z</time>
      </trkpt>
      <trkpt lat="47.30937" lon="-0.2955">
        <ele>64.55</ele>
        <time>2013-04-28T10:19:03Z</time>
      </trkpt>
      <trkpt lat="47.30932" lon="-0.29552">
        <ele>66.95</ele>
        <time>2013-04-28T10:19:08Z</time>
      </trkpt>
      <trkpt lat="47.3093" lon="-0.29553">
        <ele>67.91</ele>
        <time>2013-04-28T10:19:10Z</time>
      </trkpt>
      <trkpt lat="47.30924" lon="-0.29552">
        <ele>67.91</ele>
        <time>2013-04-28T10:19:14Z</time>
      </trkpt>
      <trkpt lat="47.30917" lon="-0.29551">
        <ele>68.87</ele>
        <time>2013-04-28T10:19:18Z</time>
      </trkpt>
      <trkpt lat="47.30908" lon="-0.2955">
        <ele>70.31</ele>
        <time>2013-04-28T10:19:26Z</time>
      </trkpt>
      <trkpt lat="47.30907" lon="-0.29549">
        <ele>70.79</ele>
        <time>2013-04-28T10:19:27Z</time>
      </trkpt>
      <trkpt lat="47.30906" lon="-0.29547">
        <ele>71.27</ele>
        <time>2013-04-28T10:19:28Z</time>
      </trkpt>
      <trkpt lat="47.30904" lon="-0.29546">
        <ele>71.76</ele>
        <time>2013-04-28T10:19:30Z</time>
      </trkpt>
      <trkpt lat="47.30903" lon="-0.29545">
        <ele>70.31</ele>
        <time>2013-04-28T10:19:31Z</time>
      </trkpt>
      <trkpt lat="47.30902" lon="-0.29544">
        <ele>71.27</ele>
        <time>2013-04-28T10:19:32Z</time>
      </trkpt>
      <trkpt lat="47.30899" lon="-0.29542">
        <ele>72.72</ele>
        <time>2013-04-28T10:19:40Z</time>
      </trkpt>
      <trkpt lat="47.30899" lon="-0.29541">
        <ele>73.68</ele>
        <time>2013-04-28T10:20:49Z</time>
      </trkpt>
      <trkpt lat="47.30897" lon="-0.29539">
        <ele>74.16</ele>
        <time>2013-04-28T10:20:59Z</time>
      </trkpt>
      <trkpt lat="47.30888" lon="-0.29537">
        <ele>73.68</ele>
        <time>2013-04-28T10:21:07Z</time>
      </trkpt>
      <trkpt lat="47.30886" lon="-0.29535">
        <ele>74.16</ele>
        <time>2013-04-28T10:21:14Z</time>
      </trkpt>
      <trkpt lat="47.30884" lon="-0.29535">
        <ele>74.64</ele>
        <time>2013-04-28T10:21:22Z</time>
      </trkpt>
      <trkpt lat="47.30876" lon="-0.29528">
        <ele>75.6</ele>
        <time>2013-04-28T10:21:28Z</time>
      </trkpt>
      <trkpt lat="47.30866" lon="-0.29528">
        <ele>76.08</ele>
        <time>2013-04-28T10:21:34Z</time>
      </trkpt>
      <trkpt lat="47.30862" lon="-0.29533">
        <ele>76.08</ele>
        <time>2013-04-28T10:21:38Z</time>
      </trkpt>
      <trkpt lat="47.30861" lon="-0.29535">
        <ele>77.04</ele>
        <time>2013-04-28T10:21:40Z</time>
      </trkpt>
      <trkpt lat="47.30861" lon="-0.29538">
        <ele>77.52</ele>
        <time>2013-04-28T10:21:47Z</time>
      </trkpt>
      <trkpt lat="47.30859" lon="-0.29541">
        <ele>76.08</ele>
        <time>2013-04-28T10:21:52Z</time>
      </trkpt>
      <trkpt lat="47.30857" lon="-0.29544">
        <ele>77.04</ele>
        <time>2013-04-28T10:21:58Z</time>
      </trkpt>
      <trkpt lat="47.30855" lon="-0.29547">
        <ele>77.52</ele>
        <time>2013-04-28T10:22:00Z</time>
      </trkpt>
      <trkpt lat="47.30848" lon="-0.29555">
        <ele>77.52</ele>
        <time>2013-04-28T10:22:07Z</time>
      </trkpt>
      <trkpt lat="47.30839" lon="-0.29562">
        <ele>77.04</ele>
        <time>2013-04-28T10:22:13Z</time>
      </trkpt>
      <trkpt lat="47.30837" lon="-0.29563">
        <ele>77.04</ele>
        <time>2013-04-28T10:22:15Z</time>
      </trkpt>
      <trkpt lat="47.30824" lon="-0.29557">
        <ele>76.08</ele>
        <time>2013-04-28T10:22:22Z</time>
      </trkpt>
      <trkpt lat="47.30823" lon="-0.29547">
        <ele>77.52</ele>
        <time>2013-04-28T10:22:26Z</time>
      </trkpt>
      <trkpt lat="47.30823" lon="-0.29544">
        <ele>77.04</ele>
        <time>2013-04-28T10:22:28Z</time>
      </trkpt>
      <trkpt lat="47.30826" lon="-0.29541">
        <ele>76.56</ele>
        <time>2013-04-28T10:22:34Z</time>
      </trkpt>
      <trkpt lat="47.30831" lon="-0.29541">
        <ele>77.52</ele>
        <time>2013-04-28T10:22:42Z</time>
      </trkpt>
      <trkpt lat="47.30834" lon="-0.29537">
        <ele>78.97</ele>
        <time>2013-04-28T10:22:51Z</time>
      </trkpt>
      <trkpt lat="47.30836" lon="-0.29534">
        <ele>78.97</ele>
        <time>2013-04-28T10:22:53Z</time>
      </trkpt>
      <trkpt lat="47.3084" lon="-0.29523">
        <ele>78.97</ele>
        <time>2013-04-28T10:23:00Z</time>
      </trkpt>
      <trkpt lat="47.30842" lon="-0.29509">
        <ele>76.08</ele>
        <time>2013-04-28T10:23:04Z</time>
      </trkpt>
      <trkpt lat="47.30844" lon="-0.29502">
        <ele>77.04</ele>
        <time>2013-04-28T10:23:07Z</time>
      </trkpt>
      <trkpt lat="47.30836" lon="-0.29498">
        <ele>77.04</ele>
        <time>2013-04-28T10:23:13Z</time>
      </trkpt>
      <trkpt lat="47.30835" lon="-0.29505">
        <ele>76.56</ele>
        <time>2013-04-28T10:23:19Z</time>
      </trkpt>
      <trkpt lat="47.30835" lon="-0.29508">
        <ele>76.08</ele>
        <time>2013-04-28T10:23:20Z</time>
      </trkpt>
      <trkpt lat="47.30824" lon="-0.29527">
        <ele>77.04</ele>
        <time>2013-04-28T10:23:28Z</time>
      </trkpt>
      <trkpt lat="47.30819" lon="-0.29536">
        <ele>78.97</ele>
        <time>2013-04-28T10:23:32Z</time>
      </trkpt>
      <trkpt lat="47.30813" lon="-0.29537">
        <ele>77.52</ele>
        <time>2013-04-28T10:23:36Z</time>
      </trkpt>
      <trkpt lat="47.30807" lon="-0.29537">
        <ele>76.56</ele>
        <time>2013-04-28T10:23:41Z</time>
      </trkpt>
      <trkpt lat="47.30803" lon="-0.29537">
        <ele>76.08</ele>
        <time>2013-04-28T10:23:46Z</time>
      </trkpt>
      <trkpt lat="47.30806" lon="-0.29548">
        <ele>78.48</ele>
        <time>2013-04-28T10:23:53Z</time>
      </trkpt>
      <trkpt lat="47.30803" lon="-0.29551">
        <ele>78</ele>
        <time>2013-04-28T10:24:05Z</time>
      </trkpt>
      <trkpt lat="47.30803" lon="-0.29552">
        <ele>78</ele>
        <time>2013-04-28T10:24:10Z</time>
      </trkpt>
      <trkpt lat="47.308" lon="-0.29557">
        <ele>78</ele>
        <time>2013-04-28T10:24:13Z</time>
      </trkpt>
      <trkpt lat="47.30794" lon="-0.29558">
        <ele>78</ele>
        <time>2013-04-28T10:24:19Z</time>
      </trkpt>
      <trkpt lat="47.30794" lon="-0.29557">
        <ele>78</ele>
        <time>2013-04-28T10:24:27Z</time>
      </trkpt>
      <trkpt lat="47.30794" lon="-0.29555">
        <ele>77.04</ele>
        <time>2013-04-28T10:24:32Z</time>
      </trkpt>
      <trkpt lat="47.30791" lon="-0.29547">
        <ele>77.04</ele>
        <time>2013-04-28T10:24:40Z</time>
      </trkpt>
      <trkpt lat="47.30788" lon="-0.29544">
        <ele>78</ele>
        <time>2013-04-28T10:24:45Z</time>
      </trkpt>
      <trkpt lat="47.30778" lon="-0.29545">
        <ele>77.04</ele>
        <time>2013-04-28T10:24:52Z</time>
      </trkpt>
      <trkpt lat="47.30771" lon="-0.29532">
        <ele>76.56</ele>
        <time>2013-04-28T10:24:58Z</time>
      </trkpt>
      <trkpt lat="47.3077" lon="-0.2953">
        <ele>76.56</ele>
        <time>2013-04-28T10:24:59Z</time>
      </trkpt>
      <trkpt lat="47.30767" lon="-0.29528">
        <ele>75.6</ele>
        <time>2013-04-28T10:25:06Z</time>
      </trkpt>
      <trkpt lat="47.30767" lon="-0.29529">
        <ele>76.56</ele>
        <time>2013-04-28T10:25:11Z</time>
      </trkpt>
      <trkpt lat="47.30754" lon="-0.29531">
        <ele>76.08</ele>
        <time>2013-04-28T10:25:18Z</time>
      </trkpt>
      <trkpt lat="47.30741" lon="-0.2951">
        <ele>75.6</ele>
        <time>2013-04-28T10:25:24Z</time>
      </trkpt>
      <trkpt lat="47.30722" lon="-0.29478">
        <ele>73.2</ele>
        <time>2013-04-28T10:25:29Z</time>
      </trkpt>
      <trkpt lat="47.30707" lon="-0.29452">
        <ele>69.83</ele>
        <time>2013-04-28T10:25:32Z</time>
      </trkpt>
      <trkpt lat="47.30701" lon="-0.29442">
        <ele>69.35</ele>
        <time>2013-04-28T10:25:33Z</time>
      </trkpt>
      <trkpt lat="47.30687" lon="-0.29423">
        <ele>68.87</ele>
        <time>2013-04-28T10:25:35Z</time>
      </trkpt>
      <trkpt lat="47.30673" lon="-0.29403">
        <ele>66.47</ele>
        <time>2013-04-28T10:25:37Z</time>
      </trkpt>
      <trkpt lat="47.3065" lon="-0.29369">
        <ele>62.62</ele>
        <time>2013-04-28T10:25:40Z</time>
      </trkpt>
      <trkpt lat="47.30628" lon="-0.29336">
        <ele>60.7</ele>
        <time>2013-04-28T10:25:43Z</time>
      </trkpt>
      <trkpt lat="47.30607" lon="-0.29306">
        <ele>57.34</ele>
        <time>2013-04-28T10:25:46Z</time>
      </trkpt>
      <trkpt lat="47.306" lon="-0.29295">
        <ele>57.34</ele>
        <time>2013-04-28T10:25:47Z</time>
      </trkpt>
      <trkpt lat="47.30575" lon="-0.29258">
        <ele>53.49</ele>
        <time>2013-04-28T10:25:51Z</time>
      </trkpt>
      <trkpt lat="47.30563" lon="-0.29242">
        <ele>48.68</ele>
        <time>2013-04-28T10:25:54Z</time>
      </trkpt>
      <trkpt lat="47.3056" lon="-0.29243">
        <ele>49.65</ele>
        <time>2013-04-28T10:25:55Z</time>
      </trkpt>
      <trkpt lat="47.30558" lon="-0.29246">
        <ele>49.65</ele>
        <time>2013-04-28T10:25:56Z</time>
      </trkpt>
      <trkpt lat="47.30555" lon="-0.2925">
        <ele>49.16</ele>
        <time>2013-04-28T10:25:57Z</time>
      </trkpt>
      <trkpt lat="47.30552" lon="-0.29253">
        <ele>49.16</ele>
        <time>2013-04-28T10:25:58Z</time>
      </trkpt>
      <trkpt lat="47.30548" lon="-0.29255">
        <ele>49.65</ele>
        <time>2013-04-28T10:25:59Z</time>
      </trkpt>
      <trkpt lat="47.30545" lon="-0.29253">
        <ele>49.65</ele>
        <time>2013-04-28T10:26:00Z</time>
      </trkpt>
      <trkpt lat="47.30542" lon="-0.2925">
        <ele>49.65</ele>
        <time>2013-04-28T10:26:01Z</time>
      </trkpt>
      <trkpt lat="47.3054" lon="-0.29246">
        <ele>50.61</ele>
        <time>2013-04-28T10:26:02Z</time>
      </trkpt>
      <trkpt lat="47.30538" lon="-0.29242">
        <ele>51.09</ele>
        <time>2013-04-28T10:26:03Z</time>
      </trkpt>
      <trkpt lat="47.30536" lon="-0.29238">
        <ele>51.57</ele>
        <time>2013-04-28T10:26:04Z</time>
      </trkpt>
      <trkpt lat="47.30522" lon="-0.29212">
        <ele>52.05</ele>
        <time>2013-04-28T10:26:10Z</time>
      </trkpt>
      <trkpt lat="47.30509" lon="-0.29187">
        <ele>53.49</ele>
        <time>2013-04-28T10:26:16Z</time>
      </trkpt>
      <trkpt lat="47.30498" lon="-0.29165">
        <ele>54.93</ele>
        <time>2013-04-28T10:26:22Z</time>
      </trkpt>
      <trkpt lat="47.30488" lon="-0.29147">
        <ele>56.37</ele>
        <time>2013-04-28T10:26:27Z</time>
      </trkpt>
      <trkpt lat="47.30486" lon="-0.29144">
        <ele>56.37</ele>
        <time>2013-04-28T10:26:28Z</time>
      </trkpt>
      <trkpt lat="47.30485" lon="-0.29141">
        <ele>57.82</ele>
        <time>2013-04-28T10:26:29Z</time>
      </trkpt>
      <trkpt lat="47.30483" lon="-0.29138">
        <ele>57.82</ele>
        <time>2013-04-28T10:26:30Z</time>
      </trkpt>
      <trkpt lat="47.30481" lon="-0.29135">
        <ele>57.82</ele>
        <time>2013-04-28T10:26:31Z</time>
      </trkpt>
      <trkpt lat="47.30479" lon="-0.29131">
        <ele>58.78</ele>
        <time>2013-04-28T10:26:32Z</time>
      </trkpt>
      <trkpt lat="47.30478" lon="-0.29127">
        <ele>58.78</ele>
        <time>2013-04-28T10:26:33Z</time>
      </trkpt>
      <trkpt lat="47.30467" lon="-0.29105">
        <ele>60.7</ele>
        <time>2013-04-28T10:26:39Z</time>
      </trkpt>
      <trkpt lat="47.30453" lon="-0.29077">
        <ele>63.58</ele>
        <time>2013-04-28T10:26:47Z</time>
      </trkpt>
      <trkpt lat="47.30438" lon="-0.29044">
        <ele>65.51</ele>
        <time>2013-04-28T10:26:57Z</time>
      </trkpt>
      <trkpt lat="47.30436" lon="-0.29041">
        <ele>65.51</ele>
        <time>2013-04-28T10:26:58Z</time>
      </trkpt>
      <trkpt lat="47.30419" lon="-0.29015">
        <ele>67.43</ele>
        <time>2013-04-28T10:27:07Z</time>
      </trkpt>
      <trkpt lat="47.30403" lon="-0.28998">
        <ele>69.35</ele>
        <time>2013-04-28T10:27:15Z</time>
      </trkpt>
      <trkpt lat="47.30383" lon="-0.28986">
        <ele>70.31</ele>
        <time>2013-04-28T10:27:23Z</time>
      </trkpt>
      <trkpt lat="47.30378" lon="-0.28983">
        <ele>71.27</ele>
        <time>2013-04-28T10:27:25Z</time>
      </trkpt>
      <trkpt lat="47.30357" lon="-0.28983">
        <ele>73.68</ele>
        <time>2013-04-28T10:27:32Z</time>
      </trkpt>
      <trkpt lat="47.30336" lon="-0.28994">
        <ele>74.16</ele>
        <time>2013-04-28T10:27:38Z</time>
      </trkpt>
      <trkpt lat="47.30329" lon="-0.29">
        <ele>73.68</ele>
        <time>2013-04-28T10:27:40Z</time>
      </trkpt>
      <trkpt lat="47.30326" lon="-0.29003">
        <ele>74.64</ele>
        <time>2013-04-28T10:27:41Z</time>
      </trkpt>
      <trkpt lat="47.30322" lon="-0.29006">
        <ele>74.64</ele>
        <time>2013-04-28T10:27:42Z</time>
      </trkpt>
      <trkpt lat="47.30297" lon="-0.29023">
        <ele>76.08</ele>
        <time>2013-04-28T10:27:50Z</time>
      </trkpt>
      <trkpt lat="47.30266" lon="-0.29043">
        <ele>77.04</ele>
        <time>2013-04-28T10:27:59Z</time>
      </trkpt>
      <trkpt lat="47.30238" lon="-0.29048">
        <ele>78.48</ele>
        <time>2013-04-28T10:28:07Z</time>
      </trkpt>
      <trkpt lat="47.3022" lon="-0.2903">
        <ele>78.97</ele>
        <time>2013-04-28T10:28:13Z</time>
      </trkpt>
      <trkpt lat="47.30208" lon="-0.29021">
        <ele>79.45</ele>
        <time>2013-04-28T10:28:19Z</time>
      </trkpt>
      <trkpt lat="47.30201" lon="-0.29015">
        <ele>78.97</ele>
        <time>2013-04-28T10:28:25Z</time>
      </trkpt>
      <trkpt lat="47.302" lon="-0.29014">
        <ele>78.97</ele>
        <time>2013-04-28T10:28:52Z</time>
      </trkpt>
      <trkpt lat="47.30198" lon="-0.29013">
        <ele>79.93</ele>
        <time>2013-04-28T10:28:53Z</time>
      </trkpt>
      <trkpt lat="47.30195" lon="-0.2901">
        <ele>79.93</ele>
        <time>2013-04-28T10:28:54Z</time>
      </trkpt>
      <trkpt lat="47.30191" lon="-0.29008">
        <ele>79.45</ele>
        <time>2013-04-28T10:28:55Z</time>
      </trkpt>
      <trkpt lat="47.30187" lon="-0.29005">
        <ele>79.45</ele>
        <time>2013-04-28T10:28:56Z</time>
      </trkpt>
      <trkpt lat="47.30156" lon="-0.28983">
        <ele>79.93</ele>
        <time>2013-04-28T10:29:03Z</time>
      </trkpt>
      <trkpt lat="47.30113" lon="-0.28952">
        <ele>79.93</ele>
        <time>2013-04-28T10:29:12Z</time>
      </trkpt>
      <trkpt lat="47.30108" lon="-0.2895">
        <ele>79.93</ele>
        <time>2013-04-28T10:29:13Z</time>
      </trkpt>
      <trkpt lat="47.30099" lon="-0.28943">
        <ele>78.97</ele>
        <time>2013-04-28T10:29:15Z</time>
      </trkpt>
      <trkpt lat="47.30089" lon="-0.28936">
        <ele>78.97</ele>
        <time>2013-04-28T10:29:17Z</time>
      </trkpt>
      <trkpt lat="47.30063" lon="-0.28919">
        <ele>78</ele>
        <time>2013-04-28T10:29:22Z</time>
      </trkpt>
      <trkpt lat="47.30058" lon="-0.28916">
        <ele>78</ele>
        <time>2013-04-28T10:29:23Z</time>
      </trkpt>
      <trkpt lat="47.30035" lon="-0.28898">
        <ele>78</ele>
        <time>2013-04-28T10:29:27Z</time>
      </trkpt>
      <trkpt lat="47.30025" lon="-0.28889">
        <ele>76.56</ele>
        <time>2013-04-28T10:29:29Z</time>
      </trkpt>
      <trkpt lat="47.30021" lon="-0.28885">
        <ele>76.08</ele>
        <time>2013-04-28T10:29:30Z</time>
      </trkpt>
      <trkpt lat="47.30017" lon="-0.28882">
        <ele>76.08</ele>
        <time>2013-04-28T10:29:31Z</time>
      </trkpt>
      <trkpt lat="47.3001" lon="-0.28876">
        <ele>75.6</ele>
        <time>2013-04-28T10:29:34Z</time>
      </trkpt>
      <trkpt lat="47.30009" lon="-0.28874">
        <ele>76.08</ele>
        <time>2013-04-28T10:29:35Z</time>
      </trkpt>
      <trkpt lat="47.30009" lon="-0.2887">
        <ele>75.6</ele>
        <time>2013-04-28T10:29:40Z</time>
      </trkpt>
      <trkpt lat="47.30009" lon="-0.28869">
        <ele>76.56</ele>
        <time>2013-04-28T10:29:42Z</time>
      </trkpt>
      <trkpt lat="47.30008" lon="-0.28865">
        <ele>76.08</ele>
        <time>2013-04-28T10:29:47Z</time>
      </trkpt>
      <trkpt lat="47.30007" lon="-0.28864">
        <ele>75.12</ele>
        <time>2013-04-28T10:29:50Z</time>
      </trkpt>
      <trkpt lat="47.30006" lon="-0.28863">
        <ele>76.08</ele>
        <time>2013-04-28T10:29:51Z</time>
      </trkpt>
      <trkpt lat="47.29995" lon="-0.28856">
        <ele>75.6</ele>
        <time>2013-04-28T10:29:56Z</time>
      </trkpt>
      <trkpt lat="47.2999" lon="-0.28857">
        <ele>76.08</ele>
        <time>2013-04-28T10:30:01Z</time>
      </trkpt>
      <trkpt lat="47.29987" lon="-0.28857">
        <ele>77.04</ele>
        <time>2013-04-28T10:30:04Z</time>
      </trkpt>
      <trkpt lat="47.29986" lon="-0.28858">
        <ele>76.08</ele>
        <time>2013-04-28T10:30:05Z</time>
      </trkpt>
      <trkpt lat="47.29985" lon="-0.28866">
        <ele>76.56</ele>
        <time>2013-04-28T10:30:12Z</time>
      </trkpt>
      <trkpt lat="47.29982" lon="-0.28873">
        <ele>76.56</ele>
        <time>2013-04-28T10:30:18Z</time>
      </trkpt>
      <trkpt lat="47.2998" lon="-0.28873">
        <ele>76.08</ele>
        <time>2013-04-28T10:30:21Z</time>
      </trkpt>
      <trkpt lat="47.29979" lon="-0.28874">
        <ele>76.08</ele>
        <time>2013-04-28T10:30:22Z</time>
      </trkpt>
      <trkpt lat="47.29977" lon="-0.28875">
        <ele>76.08</ele>
        <time>2013-04-28T10:30:23Z</time>
      </trkpt>
      <trkpt lat="47.29964" lon="-0.28882">
        <ele>76.08</ele>
        <time>2013-04-28T10:30:29Z</time>
      </trkpt>
      <trkpt lat="47.29947" lon="-0.28897">
        <ele>77.52</ele>
        <time>2013-04-28T10:30:35Z</time>
      </trkpt>
      <trkpt lat="47.29927" lon="-0.28912">
        <ele>78</ele>
        <time>2013-04-28T10:30:41Z</time>
      </trkpt>
      <trkpt lat="47.29908" lon="-0.28928">
        <ele>78.97</ele>
        <time>2013-04-28T10:30:47Z</time>
      </trkpt>
      <trkpt lat="47.29878" lon="-0.2895">
        <ele>80.41</ele>
        <time>2013-04-28T10:30:55Z</time>
      </trkpt>
      <trkpt lat="47.29856" lon="-0.2897">
        <ele>81.37</ele>
        <time>2013-04-28T10:31:02Z</time>
      </trkpt>
      <trkpt lat="47.29834" lon="-0.28978">
        <ele>82.81</ele>
        <time>2013-04-28T10:31:08Z</time>
      </trkpt>
      <trkpt lat="47.298" lon="-0.28986">
        <ele>83.77</ele>
        <time>2013-04-28T10:31:17Z</time>
      </trkpt>
      <trkpt lat="47.29777" lon="-0.28993">
        <ele>84.25</ele>
        <time>2013-04-28T10:31:23Z</time>
      </trkpt>
      <trkpt lat="47.29765" lon="-0.28997">
        <ele>84.73</ele>
        <time>2013-04-28T10:31:26Z</time>
      </trkpt>
      <trkpt lat="47.29756" lon="-0.29001">
        <ele>83.77</ele>
        <time>2013-04-28T10:31:28Z</time>
      </trkpt>
      <trkpt lat="47.29748" lon="-0.29004">
        <ele>84.73</ele>
        <time>2013-04-28T10:31:30Z</time>
      </trkpt>
      <trkpt lat="47.29743" lon="-0.29007">
        <ele>85.21</ele>
        <time>2013-04-28T10:31:31Z</time>
      </trkpt>
      <trkpt lat="47.29716" lon="-0.29028">
        <ele>83.77</ele>
        <time>2013-04-28T10:31:38Z</time>
      </trkpt>
      <trkpt lat="47.29697" lon="-0.2905">
        <ele>84.25</ele>
        <time>2013-04-28T10:31:43Z</time>
      </trkpt>
      <trkpt lat="47.29693" lon="-0.29055">
        <ele>83.77</ele>
        <time>2013-04-28T10:31:44Z</time>
      </trkpt>
      <trkpt lat="47.29686" lon="-0.29066">
        <ele>83.29</ele>
        <time>2013-04-28T10:31:46Z</time>
      </trkpt>
      <trkpt lat="47.29683" lon="-0.29072">
        <ele>83.77</ele>
        <time>2013-04-28T10:31:47Z</time>
      </trkpt>
      <trkpt lat="47.29679" lon="-0.29075">
        <ele>83.77</ele>
        <time>2013-04-28T10:31:48Z</time>
      </trkpt>
      <trkpt lat="47.29675" lon="-0.29075">
        <ele>82.33</ele>
        <time>2013-04-28T10:31:49Z</time>
      </trkpt>
      <trkpt lat="47.29672" lon="-0.29073">
        <ele>80.89</ele>
        <time>2013-04-28T10:31:50Z</time>
      </trkpt>
      <trkpt lat="47.29668" lon="-0.2907">
        <ele>82.81</ele>
        <time>2013-04-28T10:31:51Z</time>
      </trkpt>
      <trkpt lat="47.29648" lon="-0.29047">
        <ele>80.41</ele>
        <time>2013-04-28T10:31:56Z</time>
      </trkpt>
      <trkpt lat="47.29643" lon="-0.29041">
        <ele>80.41</ele>
        <time>2013-04-28T10:31:57Z</time>
      </trkpt>
      <trkpt lat="47.29627" lon="-0.29023">
        <ele>78.97</ele>
        <time>2013-04-28T10:32:00Z</time>
      </trkpt>
      <trkpt lat="47.29607" lon="-0.28998">
        <ele>76.56</ele>
        <time>2013-04-28T10:32:04Z</time>
      </trkpt>
      <trkpt lat="47.29601" lon="-0.28991">
        <ele>75.6</ele>
        <time>2013-04-28T10:32:05Z</time>
      </trkpt>
      <trkpt lat="47.29595" lon="-0.28985">
        <ele>77.52</ele>
        <time>2013-04-28T10:32:06Z</time>
      </trkpt>
      <trkpt lat="47.29579" lon="-0.28966">
        <ele>75.12</ele>
        <time>2013-04-28T10:32:09Z</time>
      </trkpt>
      <trkpt lat="47.29563" lon="-0.28947">
        <ele>73.68</ele>
        <time>2013-04-28T10:32:12Z</time>
      </trkpt>
      <trkpt lat="47.29557" lon="-0.2894">
        <ele>73.68</ele>
        <time>2013-04-28T10:32:13Z</time>
      </trkpt>
      <trkpt lat="47.29552" lon="-0.28932">
        <ele>72.72</ele>
        <time>2013-04-28T10:32:14Z</time>
      </trkpt>
      <trkpt lat="47.29547" lon="-0.28923">
        <ele>72.24</ele>
        <time>2013-04-28T10:32:15Z</time>
      </trkpt>
      <trkpt lat="47.29528" lon="-0.28882">
        <ele>69.35</ele>
        <time>2013-04-28T10:32:20Z</time>
      </trkpt>
      <trkpt lat="47.29522" lon="-0.28866">
        <ele>66.47</ele>
        <time>2013-04-28T10:32:23Z</time>
      </trkpt>
      <trkpt lat="47.2952" lon="-0.28857">
        <ele>67.91</ele>
        <time>2013-04-28T10:32:25Z</time>
      </trkpt>
      <trkpt lat="47.29522" lon="-0.28853">
        <ele>66.95</ele>
        <time>2013-04-28T10:32:26Z</time>
      </trkpt>
      <trkpt lat="47.29523" lon="-0.28846">
        <ele>66.47</ele>
        <time>2013-04-28T10:32:28Z</time>
      </trkpt>
      <trkpt lat="47.29524" lon="-0.28843">
        <ele>66.95</ele>
        <time>2013-04-28T10:32:29Z</time>
      </trkpt>
      <trkpt lat="47.29525" lon="-0.28841">
        <ele>67.43</ele>
        <time>2013-04-28T10:32:30Z</time>
      </trkpt>
      <trkpt lat="47.29529" lon="-0.28838">
        <ele>68.39</ele>
        <time>2013-04-28T10:32:32Z</time>
      </trkpt>
      <trkpt lat="47.29535" lon="-0.28832">
        <ele>70.31</ele>
        <time>2013-04-28T10:32:37Z</time>
      </trkpt>
      <trkpt lat="47.29536" lon="-0.28831">
        <ele>71.27</ele>
        <time>2013-04-28T10:32:38Z</time>
      </trkpt>
      <trkpt lat="47.29538" lon="-0.2883">
        <ele>70.79</ele>
        <time>2013-04-28T10:32:39Z</time>
      </trkpt>
      <trkpt lat="47.29546" lon="-0.28826">
        <ele>73.2</ele>
        <time>2013-04-28T10:32:45Z</time>
      </trkpt>
      <trkpt lat="47.29555" lon="-0.28819">
        <ele>75.6</ele>
        <time>2013-04-28T10:32:51Z</time>
      </trkpt>
      <trkpt lat="47.29564" lon="-0.28812">
        <ele>76.56</ele>
        <time>2013-04-28T10:32:58Z</time>
      </trkpt>
      <trkpt lat="47.29568" lon="-0.28809">
        <ele>77.52</ele>
        <time>2013-04-28T10:33:01Z</time>
      </trkpt>
      <trkpt lat="47.2957" lon="-0.28808">
        <ele>78</ele>
        <time>2013-04-28T10:33:02Z</time>
      </trkpt>
      <trkpt lat="47.29571" lon="-0.28806">
        <ele>78.48</ele>
        <time>2013-04-28T10:33:03Z</time>
      </trkpt>
      <trkpt lat="47.29572" lon="-0.28805">
        <ele>78.48</ele>
        <time>2013-04-28T10:33:04Z</time>
      </trkpt>
      <trkpt lat="47.29574" lon="-0.28803">
        <ele>78</ele>
        <time>2013-04-28T10:33:05Z</time>
      </trkpt>
      <trkpt lat="47.29576" lon="-0.28802">
        <ele>78.48</ele>
        <time>2013-04-28T10:33:06Z</time>
      </trkpt>
      <trkpt lat="47.29578" lon="-0.28802">
        <ele>78.97</ele>
        <time>2013-04-28T10:33:07Z</time>
      </trkpt>
      <trkpt lat="47.29586" lon="-0.28795">
        <ele>79.93</ele>
        <time>2013-04-28T10:33:12Z</time>
      </trkpt>
      <trkpt lat="47.29588" lon="-0.28794">
        <ele>79.93</ele>
        <time>2013-04-28T10:33:13Z</time>
      </trkpt>
      <trkpt lat="47.29589" lon="-0.28792">
        <ele>79.45</ele>
        <time>2013-04-28T10:33:14Z</time>
      </trkpt>
      <trkpt lat="47.29604" lon="-0.2878">
        <ele>80.41</ele>
        <time>2013-04-28T10:33:21Z</time>
      </trkpt>
      <trkpt lat="47.29625" lon="-0.28767">
        <ele>80.41</ele>
        <time>2013-04-28T10:33:28Z</time>
      </trkpt>
      <trkpt lat="47.29639" lon="-0.28759">
        <ele>81.37</ele>
        <time>2013-04-28T10:33:32Z</time>
      </trkpt>
      <trkpt lat="47.29641" lon="-0.28757">
        <ele>80.41</ele>
        <time>2013-04-28T10:33:33Z</time>
      </trkpt>
      <trkpt lat="47.29644" lon="-0.28755">
        <ele>80.41</ele>
        <time>2013-04-28T10:33:34Z</time>
      </trkpt>
      <trkpt lat="47.29647" lon="-0.28753">
        <ele>81.85</ele>
        <time>2013-04-28T10:33:35Z</time>
      </trkpt>
      <trkpt lat="47.2965" lon="-0.28752">
        <ele>81.37</ele>
        <time>2013-04-28T10:33:36Z</time>
      </trkpt>
      <trkpt lat="47.29653" lon="-0.28749">
        <ele>80.41</ele>
        <time>2013-04-28T10:33:37Z</time>
      </trkpt>
      <trkpt lat="47.29658" lon="-0.28747">
        <ele>80.89</ele>
        <time>2013-04-28T10:33:38Z</time>
      </trkpt>
      <trkpt lat="47.29662" lon="-0.28745">
        <ele>80.89</ele>
        <time>2013-04-28T10:33:39Z</time>
      </trkpt>
      <trkpt lat="47.29665" lon="-0.28743">
        <ele>81.37</ele>
        <time>2013-04-28T10:33:40Z</time>
      </trkpt>
      <trkpt lat="47.29686" lon="-0.28729">
        <ele>79.93</ele>
        <time>2013-04-28T10:33:45Z</time>
      </trkpt>
      <trkpt lat="47.29689" lon="-0.28725">
        <ele>80.41</ele>
        <time>2013-04-28T10:33:46Z</time>
      </trkpt>
      <trkpt lat="47.29714" lon="-0.28709">
        <ele>79.93</ele>
        <time>2013-04-28T10:33:52Z</time>
      </trkpt>
      <trkpt lat="47.29723" lon="-0.28704">
        <ele>79.93</ele>
        <time>2013-04-28T10:33:54Z</time>
      </trkpt>
      <trkpt lat="47.29737" lon="-0.28692">
        <ele>79.93</ele>
        <time>2013-04-28T10:33:58Z</time>
      </trkpt>
      <trkpt lat="47.29745" lon="-0.28686">
        <ele>78</ele>
        <time>2013-04-28T10:34:00Z</time>
      </trkpt>
      <trkpt lat="47.29762" lon="-0.28669">
        <ele>77.04</ele>
        <time>2013-04-28T10:34:05Z</time>
      </trkpt>
      <trkpt lat="47.29782" lon="-0.28655">
        <ele>77.04</ele>
        <time>2013-04-28T10:34:09Z</time>
      </trkpt>
      <trkpt lat="47.29803" lon="-0.28642">
        <ele>77.04</ele>
        <time>2013-04-28T10:34:13Z</time>
      </trkpt>
      <trkpt lat="47.29807" lon="-0.28639">
        <ele>76.08</ele>
        <time>2013-04-28T10:34:14Z</time>
      </trkpt>
      <trkpt lat="47.29812" lon="-0.28636">
        <ele>75.6</ele>
        <time>2013-04-28T10:34:15Z</time>
      </trkpt>
      <trkpt lat="47.29817" lon="-0.28632">
        <ele>75.6</ele>
        <time>2013-04-28T10:34:16Z</time>
      </trkpt>
      <trkpt lat="47.29822" lon="-0.28629">
        <ele>74.64</ele>
        <time>2013-04-28T10:34:17Z</time>
      </trkpt>
      <trkpt lat="47.29825" lon="-0.28626">
        <ele>73.2</ele>
        <time>2013-04-28T10:34:18Z</time>
      </trkpt>
      <trkpt lat="47.29828" lon="-0.28624">
        <ele>73.68</ele>
        <time>2013-04-28T10:34:19Z</time>
      </trkpt>
      <trkpt lat="47.29831" lon="-0.28622">
        <ele>72.72</ele>
        <time>2013-04-28T10:34:20Z</time>
      </trkpt>
      <trkpt lat="47.29833" lon="-0.28618">
        <ele>73.2</ele>
        <time>2013-04-28T10:34:21Z</time>
      </trkpt>
      <trkpt lat="47.29834" lon="-0.28614">
        <ele>72.72</ele>
        <time>2013-04-28T10:34:22Z</time>
      </trkpt>
      <trkpt lat="47.29836" lon="-0.28609">
        <ele>73.68</ele>
        <time>2013-04-28T10:34:23Z</time>
      </trkpt>
      <trkpt lat="47.29836" lon="-0.28604">
        <ele>73.2</ele>
        <time>2013-04-28T10:34:24Z</time>
      </trkpt>
      <trkpt lat="47.29837" lon="-0.28598">
        <ele>73.2</ele>
        <time>2013-04-28T10:34:25Z</time>
      </trkpt>
      <trkpt lat="47.29837" lon="-0.28592">
        <ele>72.24</ele>
        <time>2013-04-28T10:34:26Z</time>
      </trkpt>
      <trkpt lat="47.29837" lon="-0.28587">
        <ele>72.72</ele>
        <time>2013-04-28T10:34:27Z</time>
      </trkpt>
      <trkpt lat="47.29838" lon="-0.28574">
        <ele>71.27</ele>
        <time>2013-04-28T10:34:29Z</time>
      </trkpt>
      <trkpt lat="47.29837" lon="-0.28566">
        <ele>69.83</ele>
        <time>2013-04-28T10:34:30Z</time>
      </trkpt>
      <trkpt lat="47.29838" lon="-0.28557">
        <ele>68.87</ele>
        <time>2013-04-28T10:34:31Z</time>
      </trkpt>
      <trkpt lat="47.29838" lon="-0.28547">
        <ele>68.87</ele>
        <time>2013-04-28T10:34:32Z</time>
      </trkpt>
      <trkpt lat="47.29837" lon="-0.28535">
        <ele>67.91</ele>
        <time>2013-04-28T10:34:33Z</time>
      </trkpt>
      <trkpt lat="47.29835" lon="-0.28524">
        <ele>66.95</ele>
        <time>2013-04-28T10:34:34Z</time>
      </trkpt>
      <trkpt lat="47.2982" lon="-0.2849">
        <ele>64.55</ele>
        <time>2013-04-28T10:34:38Z</time>
      </trkpt>
      <trkpt lat="47.29818" lon="-0.28481">
        <ele>64.07</ele>
        <time>2013-04-28T10:34:39Z</time>
      </trkpt>
      <trkpt lat="47.29813" lon="-0.28461">
        <ele>64.07</ele>
        <time>2013-04-28T10:34:41Z</time>
      </trkpt>
      <trkpt lat="47.2981" lon="-0.28451">
        <ele>63.1</ele>
        <time>2013-04-28T10:34:42Z</time>
      </trkpt>
      <trkpt lat="47.29807" lon="-0.28442">
        <ele>63.1</ele>
        <time>2013-04-28T10:34:43Z</time>
      </trkpt>
      <trkpt lat="47.29805" lon="-0.28433">
        <ele>62.14</ele>
        <time>2013-04-28T10:34:44Z</time>
      </trkpt>
      <trkpt lat="47.29799" lon="-0.28405">
        <ele>61.66</ele>
        <time>2013-04-28T10:34:47Z</time>
      </trkpt>
      <trkpt lat="47.29795" lon="-0.2839">
        <ele>58.3</ele>
        <time>2013-04-28T10:34:49Z</time>
      </trkpt>
      <trkpt lat="47.29795" lon="-0.28384">
        <ele>58.3</ele>
        <time>2013-04-28T10:34:50Z</time>
      </trkpt>
      <trkpt lat="47.29804" lon="-0.28356">
        <ele>56.86</ele>
        <time>2013-04-28T10:34:55Z</time>
      </trkpt>
      <trkpt lat="47.29824" lon="-0.28327">
        <ele>57.34</ele>
        <time>2013-04-28T10:35:01Z</time>
      </trkpt>
      <trkpt lat="47.2984" lon="-0.283">
        <ele>57.34</ele>
        <time>2013-04-28T10:35:07Z</time>
      </trkpt>
      <trkpt lat="47.29857" lon="-0.28276">
        <ele>58.3</ele>
        <time>2013-04-28T10:35:13Z</time>
      </trkpt>
      <trkpt lat="47.2988" lon="-0.2824">
        <ele>59.74</ele>
        <time>2013-04-28T10:35:22Z</time>
      </trkpt>
      <trkpt lat="47.29893" lon="-0.28222">
        <ele>60.22</ele>
        <time>2013-04-28T10:35:28Z</time>
      </trkpt>
      <trkpt lat="47.29896" lon="-0.28215">
        <ele>60.7</ele>
        <time>2013-04-28T10:35:30Z</time>
      </trkpt>
      <trkpt lat="47.29903" lon="-0.28194">
        <ele>61.66</ele>
        <time>2013-04-28T10:35:36Z</time>
      </trkpt>
      <trkpt lat="47.29914" lon="-0.28169">
        <ele>61.66</ele>
        <time>2013-04-28T10:35:43Z</time>
      </trkpt>
      <trkpt lat="47.2992" lon="-0.2816">
        <ele>61.66</ele>
        <time>2013-04-28T10:35:46Z</time>
      </trkpt>
      <trkpt lat="47.29928" lon="-0.28142">
        <ele>61.66</ele>
        <time>2013-04-28T10:35:52Z</time>
      </trkpt>
      <trkpt lat="47.29941" lon="-0.28118">
        <ele>60.22</ele>
        <time>2013-04-28T10:35:58Z</time>
      </trkpt>
      <trkpt lat="47.29953" lon="-0.28104">
        <ele>59.74</ele>
        <time>2013-04-28T10:36:02Z</time>
      </trkpt>
      <trkpt lat="47.29956" lon="-0.281">
        <ele>58.78</ele>
        <time>2013-04-28T10:36:04Z</time>
      </trkpt>
      <trkpt lat="47.29956" lon="-0.28086">
        <ele>57.82</ele>
        <time>2013-04-28T10:36:09Z</time>
      </trkpt>
      <trkpt lat="47.29954" lon="-0.28082">
        <ele>59.26</ele>
        <time>2013-04-28T10:36:17Z</time>
      </trkpt>
      <trkpt lat="47.29951" lon="-0.2807">
        <ele>57.34</ele>
        <time>2013-04-28T10:36:48Z</time>
      </trkpt>
      <trkpt lat="47.29946" lon="-0.28053">
        <ele>56.37</ele>
        <time>2013-04-28T10:36:51Z</time>
      </trkpt>
      <trkpt lat="47.29944" lon="-0.28046">
        <ele>55.41</ele>
        <time>2013-04-28T10:36:52Z</time>
      </trkpt>
      <trkpt lat="47.29932" lon="-0.28">
        <ele>53.01</ele>
        <time>2013-04-28T10:36:57Z</time>
      </trkpt>
      <trkpt lat="47.29922" lon="-0.27967">
        <ele>51.09</ele>
        <time>2013-04-28T10:37:00Z</time>
      </trkpt>
      <trkpt lat="47.29912" lon="-0.27935">
        <ele>50.61</ele>
        <time>2013-04-28T10:37:03Z</time>
      </trkpt>
      <trkpt lat="47.29909" lon="-0.27925">
        <ele>50.61</ele>
        <time>2013-04-28T10:37:04Z</time>
      </trkpt>
      <trkpt lat="47.29907" lon="-0.27917">
        <ele>50.13</ele>
        <time>2013-04-28T10:37:05Z</time>
      </trkpt>
      <trkpt lat="47.299" lon="-0.27894">
        <ele>49.16</ele>
        <time>2013-04-28T10:37:09Z</time>
      </trkpt>
      <trkpt lat="47.29895" lon="-0.27871">
        <ele>50.61</ele>
        <time>2013-04-28T10:37:13Z</time>
      </trkpt>
      <trkpt lat="47.29884" lon="-0.27836">
        <ele>53.49</ele>
        <time>2013-04-28T10:37:19Z</time>
      </trkpt>
      <trkpt lat="47.29879" lon="-0.27818">
        <ele>51.57</ele>
        <time>2013-04-28T10:37:22Z</time>
      </trkpt>
      <trkpt lat="47.29873" lon="-0.27791">
        <ele>51.57</ele>
        <time>2013-04-28T10:37:26Z</time>
      </trkpt>
      <trkpt lat="47.29871" lon="-0.27784">
        <ele>51.57</ele>
        <time>2013-04-28T10:37:27Z</time>
      </trkpt>
      <trkpt lat="47.29864" lon="-0.27764">
        <ele>52.05</ele>
        <time>2013-04-28T10:37:30Z</time>
      </trkpt>
      <trkpt lat="47.29863" lon="-0.27757">
        <ele>53.01</ele>
        <time>2013-04-28T10:37:31Z</time>
      </trkpt>
      <trkpt lat="47.29862" lon="-0.27751">
        <ele>52.53</ele>
        <time>2013-04-28T10:37:32Z</time>
      </trkpt>
      <trkpt lat="47.2986" lon="-0.27745">
        <ele>52.53</ele>
        <time>2013-04-28T10:37:33Z</time>
      </trkpt>
      <trkpt lat="47.29858" lon="-0.27739">
        <ele>53.01</ele>
        <time>2013-04-28T10:37:34Z</time>
      </trkpt>
      <trkpt lat="47.29854" lon="-0.27722">
        <ele>56.37</ele>
        <time>2013-04-28T10:37:37Z</time>
      </trkpt>
      <trkpt lat="47.29852" lon="-0.27718">
        <ele>56.37</ele>
        <time>2013-04-28T10:37:38Z</time>
      </trkpt>
      <trkpt lat="47.29851" lon="-0.27714">
        <ele>55.89</ele>
        <time>2013-04-28T10:37:39Z</time>
      </trkpt>
      <trkpt lat="47.29851" lon="-0.2771">
        <ele>54.93</ele>
        <time>2013-04-28T10:37:40Z</time>
      </trkpt>
      <trkpt lat="47.2985" lon="-0.27707">
        <ele>55.41</ele>
        <time>2013-04-28T10:37:41Z</time>
      </trkpt>
      <trkpt lat="47.29849" lon="-0.27703">
        <ele>54.93</ele>
        <time>2013-04-28T10:37:42Z</time>
      </trkpt>
      <trkpt lat="47.29849" lon="-0.277">
        <ele>55.41</ele>
        <time>2013-04-28T10:37:43Z</time>
      </trkpt>
      <trkpt lat="47.29848" lon="-0.27695">
        <ele>56.86</ele>
        <time>2013-04-28T10:37:44Z</time>
      </trkpt>
      <trkpt lat="47.29847" lon="-0.27691">
        <ele>59.74</ele>
        <time>2013-04-28T10:37:45Z</time>
      </trkpt>
      <trkpt lat="47.29846" lon="-0.27687">
        <ele>57.82</ele>
        <time>2013-04-28T10:37:46Z</time>
      </trkpt>
      <trkpt lat="47.2984" lon="-0.27671">
        <ele>59.26</ele>
        <time>2013-04-28T10:37:50Z</time>
      </trkpt>
      <trkpt lat="47.29831" lon="-0.27641">
        <ele>60.22</ele>
        <time>2013-04-28T10:37:58Z</time>
      </trkpt>
      <trkpt lat="47.29827" lon="-0.27626">
        <ele>62.62</ele>
        <time>2013-04-28T10:38:02Z</time>
      </trkpt>
      <trkpt lat="47.29826" lon="-0.27623">
        <ele>59.74</ele>
        <time>2013-04-28T10:38:03Z</time>
      </trkpt>
      <trkpt lat="47.29825" lon="-0.27621">
        <ele>61.18</ele>
        <time>2013-04-28T10:38:04Z</time>
      </trkpt>
      <trkpt lat="47.29824" lon="-0.27619">
        <ele>63.58</ele>
        <time>2013-04-28T10:38:05Z</time>
      </trkpt>
      <trkpt lat="47.29819" lon="-0.27598">
        <ele>61.18</ele>
        <time>2013-04-28T10:38:10Z</time>
      </trkpt>
      <trkpt lat="47.29818" lon="-0.27593">
        <ele>62.14</ele>
        <time>2013-04-28T10:38:11Z</time>
      </trkpt>
      <trkpt lat="47.29815" lon="-0.2758">
        <ele>60.7</ele>
        <time>2013-04-28T10:38:13Z</time>
      </trkpt>
      <trkpt lat="47.29812" lon="-0.27574">
        <ele>61.66</ele>
        <time>2013-04-28T10:38:14Z</time>
      </trkpt>
      <trkpt lat="47.2981" lon="-0.27566">
        <ele>63.1</ele>
        <time>2013-04-28T10:38:15Z</time>
      </trkpt>
      <trkpt lat="47.29808" lon="-0.27559">
        <ele>61.18</ele>
        <time>2013-04-28T10:38:16Z</time>
      </trkpt>
      <trkpt lat="47.29805" lon="-0.2755">
        <ele>63.1</ele>
        <time>2013-04-28T10:38:17Z</time>
      </trkpt>
      <trkpt lat="47.29803" lon="-0.27542">
        <ele>61.66</ele>
        <time>2013-04-28T10:38:18Z</time>
      </trkpt>
      <trkpt lat="47.298" lon="-0.27533">
        <ele>59.74</ele>
        <time>2013-04-28T10:38:19Z</time>
      </trkpt>
      <trkpt lat="47.29794" lon="-0.27513">
        <ele>59.26</ele>
        <time>2013-04-28T10:38:21Z</time>
      </trkpt>
      <trkpt lat="47.29777" lon="-0.27452">
        <ele>54.93</ele>
        <time>2013-04-28T10:38:27Z</time>
      </trkpt>
      <trkpt lat="47.29774" lon="-0.27443">
        <ele>55.41</ele>
        <time>2013-04-28T10:38:28Z</time>
      </trkpt>
      <trkpt lat="47.29769" lon="-0.27426">
        <ele>58.78</ele>
        <time>2013-04-28T10:38:30Z</time>
      </trkpt>
      <trkpt lat="47.29765" lon="-0.27408">
        <ele>56.86</ele>
        <time>2013-04-28T10:38:32Z</time>
      </trkpt>
      <trkpt lat="47.29763" lon="-0.27399">
        <ele>55.89</ele>
        <time>2013-04-28T10:38:33Z</time>
      </trkpt>
      <trkpt lat="47.29754" lon="-0.27362">
        <ele>57.34</ele>
        <time>2013-04-28T10:38:38Z</time>
      </trkpt>
      <trkpt lat="47.29749" lon="-0.27345">
        <ele>56.37</ele>
        <time>2013-04-28T10:38:40Z</time>
      </trkpt>
      <trkpt lat="47.29746" lon="-0.27337">
        <ele>56.86</ele>
        <time>2013-04-28T10:38:41Z</time>
      </trkpt>
      <trkpt lat="47.29735" lon="-0.273">
        <ele>60.22</ele>
        <time>2013-04-28T10:38:46Z</time>
      </trkpt>
      <trkpt lat="47.29722" lon="-0.27278">
        <ele>56.37</ele>
        <time>2013-04-28T10:38:52Z</time>
      </trkpt>
      <trkpt lat="47.29721" lon="-0.27276">
        <ele>61.66</ele>
        <time>2013-04-28T10:38:53Z</time>
      </trkpt>
      <trkpt lat="47.2972" lon="-0.27276">
        <ele>61.66</ele>
        <time>2013-04-28T10:38:54Z</time>
      </trkpt>
      <trkpt lat="47.29717" lon="-0.27271">
        <ele>60.7</ele>
        <time>2013-04-28T10:39:02Z</time>
      </trkpt>
      <trkpt lat="47.29718" lon="-0.27269">
        <ele>62.14</ele>
        <time>2013-04-28T10:39:05Z</time>
      </trkpt>
      <trkpt lat="47.29718" lon="-0.27268">
        <ele>57.82</ele>
        <time>2013-04-28T10:41:32Z</time>
      </trkpt>
      <trkpt lat="47.29719" lon="-0.27269">
        <ele>58.78</ele>
        <time>2013-04-28T10:45:13Z</time>
      </trkpt>
      <trkpt lat="47.2972" lon="-0.27269">
        <ele>58.78</ele>
        <time>2013-04-28T10:45:23Z</time>
      </trkpt>
      <trkpt lat="47.29723" lon="-0.27268">
        <ele>58.78</ele>
        <time>2013-04-28T10:45:26Z</time>
      </trkpt>
      <trkpt lat="47.29725" lon="-0.27266">
        <ele>58.3</ele>
        <time>2013-04-28T10:45:27Z</time>
      </trkpt>
      <trkpt lat="47.29727" lon="-0.27264">
        <ele>58.78</ele>
        <time>2013-04-28T10:45:28Z</time>
      </trkpt>
      <trkpt lat="47.29745" lon="-0.27253">
        <ele>59.26</ele>
        <time>2013-04-28T10:45:35Z</time>
      </trkpt>
      <trkpt lat="47.2976" lon="-0.27239">
        <ele>60.22</ele>
        <time>2013-04-28T10:45:41Z</time>
      </trkpt>
      <trkpt lat="47.29778" lon="-0.27229">
        <ele>62.14</ele>
        <time>2013-04-28T10:45:46Z</time>
      </trkpt>
      <trkpt lat="47.29802" lon="-0.27216">
        <ele>63.58</ele>
        <time>2013-04-28T10:45:53Z</time>
      </trkpt>
      <trkpt lat="47.29805" lon="-0.27214">
        <ele>63.58</ele>
        <time>2013-04-28T10:45:54Z</time>
      </trkpt>
      <trkpt lat="47.29835" lon="-0.27201">
        <ele>65.03</ele>
        <time>2013-04-28T10:46:03Z</time>
      </trkpt>
      <trkpt lat="47.29859" lon="-0.27187">
        <ele>67.91</ele>
        <time>2013-04-28T10:46:11Z</time>
      </trkpt>
      <trkpt lat="47.2988" lon="-0.27176">
        <ele>70.31</ele>
        <time>2013-04-28T10:46:19Z</time>
      </trkpt>
      <trkpt lat="47.29895" lon="-0.27165">
        <ele>72.24</ele>
        <time>2013-04-28T10:46:26Z</time>
      </trkpt>
      <trkpt lat="47.29898" lon="-0.27164">
        <ele>71.76</ele>
        <time>2013-04-28T10:46:28Z</time>
      </trkpt>
      <trkpt lat="47.299" lon="-0.27164">
        <ele>72.24</ele>
        <time>2013-04-28T10:46:29Z</time>
      </trkpt>
      <trkpt lat="47.299" lon="-0.27166">
        <ele>72.24</ele>
        <time>2013-04-28T10:46:30Z</time>
      </trkpt>
      <trkpt lat="47.29903" lon="-0.2717">
        <ele>72.24</ele>
        <time>2013-04-28T10:46:32Z</time>
      </trkpt>
      <trkpt lat="47.29903" lon="-0.27173">
        <ele>72.24</ele>
        <time>2013-04-28T10:46:33Z</time>
      </trkpt>
      <trkpt lat="47.29904" lon="-0.27176">
        <ele>71.27</ele>
        <time>2013-04-28T10:46:34Z</time>
      </trkpt>
      <trkpt lat="47.2991" lon="-0.27203">
        <ele>72.24</ele>
        <time>2013-04-28T10:46:42Z</time>
      </trkpt>
      <trkpt lat="47.29915" lon="-0.27224">
        <ele>72.24</ele>
        <time>2013-04-28T10:46:48Z</time>
      </trkpt>
      <trkpt lat="47.29921" lon="-0.2725">
        <ele>73.68</ele>
        <time>2013-04-28T10:46:55Z</time>
      </trkpt>
      <trkpt lat="47.29923" lon="-0.27258">
        <ele>72.72</ele>
        <time>2013-04-28T10:46:57Z</time>
      </trkpt>
      <trkpt lat="47.29929" lon="-0.27278">
        <ele>73.2</ele>
        <time>2013-04-28T10:47:02Z</time>
      </trkpt>
      <trkpt lat="47.29933" lon="-0.27303">
        <ele>74.16</ele>
        <time>2013-04-28T10:47:09Z</time>
      </trkpt>
      <trkpt lat="47.29939" lon="-0.27325">
        <ele>74.16</ele>
        <time>2013-04-28T10:47:14Z</time>
      </trkpt>
      <trkpt lat="47.29947" lon="-0.27357">
        <ele>73.68</ele>
        <time>2013-04-28T10:47:22Z</time>
      </trkpt>
      <trkpt lat="47.29953" lon="-0.27378">
        <ele>74.16</ele>
        <time>2013-04-28T10:47:27Z</time>
      </trkpt>
      <trkpt lat="47.29959" lon="-0.27401">
        <ele>73.68</ele>
        <time>2013-04-28T10:47:32Z</time>
      </trkpt>
      <trkpt lat="47.29966" lon="-0.27425">
        <ele>72.24</ele>
        <time>2013-04-28T10:47:37Z</time>
      </trkpt>
      <trkpt lat="47.29974" lon="-0.27457">
        <ele>68.87</ele>
        <time>2013-04-28T10:47:44Z</time>
      </trkpt>
      <trkpt lat="47.29975" lon="-0.27461">
        <ele>68.87</ele>
        <time>2013-04-28T10:47:45Z</time>
      </trkpt>
      <trkpt lat="47.29976" lon="-0.27482">
        <ele>67.43</ele>
        <time>2013-04-28T10:47:48Z</time>
      </trkpt>
      <trkpt lat="47.29978" lon="-0.27492">
        <ele>66.95</ele>
        <time>2013-04-28T10:47:49Z</time>
      </trkpt>
      <trkpt lat="47.29981" lon="-0.27499">
        <ele>68.39</ele>
        <time>2013-04-28T10:47:50Z</time>
      </trkpt>
      <trkpt lat="47.29983" lon="-0.27506">
        <ele>67.43</ele>
        <time>2013-04-28T10:47:51Z</time>
      </trkpt>
      <trkpt lat="47.29988" lon="-0.2752">
        <ele>69.35</ele>
        <time>2013-04-28T10:47:54Z</time>
      </trkpt>
      <trkpt lat="47.29993" lon="-0.27539">
        <ele>71.76</ele>
        <time>2013-04-28T10:48:00Z</time>
      </trkpt>
      <trkpt lat="47.3" lon="-0.27556">
        <ele>73.68</ele>
        <time>2013-04-28T10:48:07Z</time>
      </trkpt>
      <trkpt lat="47.30001" lon="-0.27559">
        <ele>72.72</ele>
        <time>2013-04-28T10:48:08Z</time>
      </trkpt>
      <trkpt lat="47.30001" lon="-0.27562">
        <ele>73.2</ele>
        <time>2013-04-28T10:48:09Z</time>
      </trkpt>
      <trkpt lat="47.30002" lon="-0.27567">
        <ele>73.68</ele>
        <time>2013-04-28T10:48:11Z</time>
      </trkpt>
      <trkpt lat="47.30005" lon="-0.27577">
        <ele>74.16</ele>
        <time>2013-04-28T10:48:15Z</time>
      </trkpt>
      <trkpt lat="47.30005" lon="-0.27579">
        <ele>74.64</ele>
        <time>2013-04-28T10:48:16Z</time>
      </trkpt>
      <trkpt lat="47.30006" lon="-0.27582">
        <ele>74.16</ele>
        <time>2013-04-28T10:48:17Z</time>
      </trkpt>
      <trkpt lat="47.30006" lon="-0.27585">
        <ele>75.12</ele>
        <time>2013-04-28T10:48:18Z</time>
      </trkpt>
      <trkpt lat="47.30007" lon="-0.27587">
        <ele>74.64</ele>
        <time>2013-04-28T10:48:19Z</time>
      </trkpt>
      <trkpt lat="47.30007" lon="-0.27589">
        <ele>74.64</ele>
        <time>2013-04-28T10:48:20Z</time>
      </trkpt>
      <trkpt lat="47.30008" lon="-0.27592">
        <ele>74.16</ele>
        <time>2013-04-28T10:48:21Z</time>
      </trkpt>
      <trkpt lat="47.30008" lon="-0.27594">
        <ele>74.64</ele>
        <time>2013-04-28T10:48:22Z</time>
      </trkpt>
      <trkpt lat="47.30009" lon="-0.27597">
        <ele>75.12</ele>
        <time>2013-04-28T10:48:23Z</time>
      </trkpt>
      <trkpt lat="47.3001" lon="-0.276">
        <ele>75.6</ele>
        <time>2013-04-28T10:48:24Z</time>
      </trkpt>
      <trkpt lat="47.30012" lon="-0.27603">
        <ele>75.6</ele>
        <time>2013-04-28T10:48:25Z</time>
      </trkpt>
      <trkpt lat="47.30013" lon="-0.27607">
        <ele>75.6</ele>
        <time>2013-04-28T10:48:26Z</time>
      </trkpt>
      <trkpt lat="47.30018" lon="-0.27627">
        <ele>75.6</ele>
        <time>2013-04-28T10:48:31Z</time>
      </trkpt>
      <trkpt lat="47.30021" lon="-0.27642">
        <ele>76.08</ele>
        <time>2013-04-28T10:48:35Z</time>
      </trkpt>
      <trkpt lat="47.30022" lon="-0.27645">
        <ele>76.56</ele>
        <time>2013-04-28T10:48:36Z</time>
      </trkpt>
      <trkpt lat="47.30023" lon="-0.27649">
        <ele>77.04</ele>
        <time>2013-04-28T10:48:37Z</time>
      </trkpt>
      <trkpt lat="47.30024" lon="-0.27652">
        <ele>76.08</ele>
        <time>2013-04-28T10:48:38Z</time>
      </trkpt>
      <trkpt lat="47.30025" lon="-0.27655">
        <ele>75.12</ele>
        <time>2013-04-28T10:48:39Z</time>
      </trkpt>
      <trkpt lat="47.30029" lon="-0.27674">
        <ele>75.12</ele>
        <time>2013-04-28T10:48:43Z</time>
      </trkpt>
      <trkpt lat="47.30031" lon="-0.27677">
        <ele>74.64</ele>
        <time>2013-04-28T10:48:44Z</time>
      </trkpt>
      <trkpt lat="47.30032" lon="-0.27681">
        <ele>75.6</ele>
        <time>2013-04-28T10:48:45Z</time>
      </trkpt>
      <trkpt lat="47.30033" lon="-0.27684">
        <ele>75.12</ele>
        <time>2013-04-28T10:48:46Z</time>
      </trkpt>
      <trkpt lat="47.30034" lon="-0.27689">
        <ele>75.6</ele>
        <time>2013-04-28T10:48:47Z</time>
      </trkpt>
      <trkpt lat="47.30035" lon="-0.27694">
        <ele>74.64</ele>
        <time>2013-04-28T10:48:48Z</time>
      </trkpt>
      <trkpt lat="47.30036" lon="-0.27698">
        <ele>74.16</ele>
        <time>2013-04-28T10:48:49Z</time>
      </trkpt>
      <trkpt lat="47.30038" lon="-0.27702">
        <ele>72.72</ele>
        <time>2013-04-28T10:48:50Z</time>
      </trkpt>
      <trkpt lat="47.30042" lon="-0.27723">
        <ele>69.83</ele>
        <time>2013-04-28T10:48:54Z</time>
      </trkpt>
      <trkpt lat="47.30044" lon="-0.27733">
        <ele>67.43</ele>
        <time>2013-04-28T10:48:56Z</time>
      </trkpt>
      <trkpt lat="47.30044" lon="-0.27738">
        <ele>66.95</ele>
        <time>2013-04-28T10:48:57Z</time>
      </trkpt>
      <trkpt lat="47.30044" lon="-0.27742">
        <ele>65.99</ele>
        <time>2013-04-28T10:48:58Z</time>
      </trkpt>
      <trkpt lat="47.30046" lon="-0.27757">
        <ele>62.62</ele>
        <time>2013-04-28T10:49:01Z</time>
      </trkpt>
      <trkpt lat="47.30049" lon="-0.27768">
        <ele>60.22</ele>
        <time>2013-04-28T10:49:04Z</time>
      </trkpt>
      <trkpt lat="47.3005" lon="-0.27776">
        <ele>58.78</ele>
        <time>2013-04-28T10:49:06Z</time>
      </trkpt>
      <trkpt lat="47.3005" lon="-0.2778">
        <ele>57.34</ele>
        <time>2013-04-28T10:49:07Z</time>
      </trkpt>
      <trkpt lat="47.3005" lon="-0.27785">
        <ele>55.89</ele>
        <time>2013-04-28T10:49:08Z</time>
      </trkpt>
      <trkpt lat="47.3005" lon="-0.27796">
        <ele>53.97</ele>
        <time>2013-04-28T10:49:11Z</time>
      </trkpt>
      <trkpt lat="47.3005" lon="-0.27798">
        <ele>53.97</ele>
        <time>2013-04-28T10:49:12Z</time>
      </trkpt>
      <trkpt lat="47.3005" lon="-0.27801">
        <ele>52.53</ele>
        <time>2013-04-28T10:49:13Z</time>
      </trkpt>
      <trkpt lat="47.3005" lon="-0.27802">
        <ele>52.53</ele>
        <time>2013-04-28T10:49:14Z</time>
      </trkpt>
      <trkpt lat="47.30049" lon="-0.27804">
        <ele>52.53</ele>
        <time>2013-04-28T10:49:15Z</time>
      </trkpt>
      <trkpt lat="47.30048" lon="-0.27806">
        <ele>52.53</ele>
        <time>2013-04-28T10:49:16Z</time>
      </trkpt>
      <trkpt lat="47.30048" lon="-0.27809">
        <ele>52.53</ele>
        <time>2013-04-28T10:49:17Z</time>
      </trkpt>
      <trkpt lat="47.30047" lon="-0.27811">
        <ele>52.53</ele>
        <time>2013-04-28T10:49:18Z</time>
      </trkpt>
      <trkpt lat="47.30046" lon="-0.27814">
        <ele>51.09</ele>
        <time>2013-04-28T10:49:19Z</time>
      </trkpt>
      <trkpt lat="47.30045" lon="-0.27817">
        <ele>51.09</ele>
        <time>2013-04-28T10:49:20Z</time>
      </trkpt>
      <trkpt lat="47.30045" lon="-0.27821">
        <ele>49.65</ele>
        <time>2013-04-28T10:49:22Z</time>
      </trkpt>
      <trkpt lat="47.30045" lon="-0.27824">
        <ele>49.16</ele>
        <time>2013-04-28T10:49:23Z</time>
      </trkpt>
      <trkpt lat="47.30047" lon="-0.27825">
        <ele>48.2</ele>
        <time>2013-04-28T10:49:24Z</time>
      </trkpt>
      <trkpt lat="47.30048" lon="-0.27826">
        <ele>47.72</ele>
        <time>2013-04-28T10:49:25Z</time>
      </trkpt>
      <trkpt lat="47.30056" lon="-0.27818">
        <ele>47.72</ele>
        <time>2013-04-28T10:49:30Z</time>
      </trkpt>
      <trkpt lat="47.30057" lon="-0.27817">
        <ele>47.24</ele>
        <time>2013-04-28T10:49:31Z</time>
      </trkpt>
      <trkpt lat="47.30058" lon="-0.27815">
        <ele>47.72</ele>
        <time>2013-04-28T10:49:32Z</time>
      </trkpt>
      <trkpt lat="47.30059" lon="-0.27813">
        <ele>47.24</ele>
        <time>2013-04-28T10:49:33Z</time>
      </trkpt>
      <trkpt lat="47.30067" lon="-0.27807">
        <ele>47.24</ele>
        <time>2013-04-28T10:49:39Z</time>
      </trkpt>
      <trkpt lat="47.3007" lon="-0.27805">
        <ele>46.76</ele>
        <time>2013-04-28T10:49:41Z</time>
      </trkpt>
      <trkpt lat="47.30073" lon="-0.27803">
        <ele>47.72</ele>
        <time>2013-04-28T10:49:42Z</time>
      </trkpt>
      <trkpt lat="47.30076" lon="-0.27801">
        <ele>47.72</ele>
        <time>2013-04-28T10:49:43Z</time>
      </trkpt>
      <trkpt lat="47.30079" lon="-0.278">
        <ele>47.72</ele>
        <time>2013-04-28T10:49:44Z</time>
      </trkpt>
      <trkpt lat="47.30082" lon="-0.27797">
        <ele>48.2</ele>
        <time>2013-04-28T10:49:45Z</time>
      </trkpt>
      <trkpt lat="47.30098" lon="-0.2779">
        <ele>47.24</ele>
        <time>2013-04-28T10:49:50Z</time>
      </trkpt>
      <trkpt lat="47.30115" lon="-0.27782">
        <ele>47.24</ele>
        <time>2013-04-28T10:49:56Z</time>
      </trkpt>
      <trkpt lat="47.3013" lon="-0.27765">
        <ele>47.24</ele>
        <time>2013-04-28T10:50:02Z</time>
      </trkpt>
      <trkpt lat="47.30131" lon="-0.27759">
        <ele>42.44</ele>
        <time>2013-04-28T10:50:03Z</time>
      </trkpt>
      <trkpt lat="47.30131" lon="-0.27753">
        <ele>46.28</ele>
        <time>2013-04-28T10:50:05Z</time>
      </trkpt>
      <trkpt lat="47.30133" lon="-0.27749">
        <ele>45.8</ele>
        <time>2013-04-28T10:50:07Z</time>
      </trkpt>
      <trkpt lat="47.30151" lon="-0.27735">
        <ele>45.8</ele>
        <time>2013-04-28T10:50:13Z</time>
      </trkpt>
      <trkpt lat="47.3016" lon="-0.27729">
        <ele>45.8</ele>
        <time>2013-04-28T10:50:15Z</time>
      </trkpt>
      <trkpt lat="47.30166" lon="-0.27726">
        <ele>46.28</ele>
        <time>2013-04-28T10:50:16Z</time>
      </trkpt>
      <trkpt lat="47.30171" lon="-0.27724">
        <ele>45.8</ele>
        <time>2013-04-28T10:50:17Z</time>
      </trkpt>
      <trkpt lat="47.30201" lon="-0.27709">
        <ele>46.76</ele>
        <time>2013-04-28T10:50:23Z</time>
      </trkpt>
      <trkpt lat="47.3023" lon="-0.27689">
        <ele>46.76</ele>
        <time>2013-04-28T10:50:30Z</time>
      </trkpt>
      <trkpt lat="47.30232" lon="-0.27686">
        <ele>45.32</ele>
        <time>2013-04-28T10:50:31Z</time>
      </trkpt>
      <trkpt lat="47.30233" lon="-0.27684">
        <ele>45.32</ele>
        <time>2013-04-28T10:50:32Z</time>
      </trkpt>
      <trkpt lat="47.30232" lon="-0.27682">
        <ele>46.76</ele>
        <time>2013-04-28T10:50:33Z</time>
      </trkpt>
      <trkpt lat="47.30232" lon="-0.2768">
        <ele>47.24</ele>
        <time>2013-04-28T10:50:34Z</time>
      </trkpt>
      <trkpt lat="47.30231" lon="-0.27678">
        <ele>48.2</ele>
        <time>2013-04-28T10:50:35Z</time>
      </trkpt>
      <trkpt lat="47.30232" lon="-0.27676">
        <ele>49.65</ele>
        <time>2013-04-28T10:50:41Z</time>
      </trkpt>
      <trkpt lat="47.30233" lon="-0.27678">
        <ele>46.28</ele>
        <time>2013-04-28T10:50:45Z</time>
      </trkpt>
      <trkpt lat="47.30233" lon="-0.2768">
        <ele>47.24</ele>
        <time>2013-04-28T10:50:46Z</time>
      </trkpt>
      <trkpt lat="47.30233" lon="-0.27682">
        <ele>47.24</ele>
        <time>2013-04-28T10:50:47Z</time>
      </trkpt>
      <trkpt lat="47.30237" lon="-0.27689">
        <ele>45.8</ele>
        <time>2013-04-28T10:50:52Z</time>
      </trkpt>
      <trkpt lat="47.30238" lon="-0.27688">
        <ele>46.76</ele>
        <time>2013-04-28T10:50:58Z</time>
      </trkpt>
      <trkpt lat="47.30239" lon="-0.27685">
        <ele>47.24</ele>
        <time>2013-04-28T10:51:00Z</time>
      </trkpt>
      <trkpt lat="47.30238" lon="-0.27673">
        <ele>50.13</ele>
        <time>2013-04-28T10:51:07Z</time>
      </trkpt>
      <trkpt lat="47.30235" lon="-0.27665">
        <ele>51.57</ele>
        <time>2013-04-28T10:51:12Z</time>
      </trkpt>
      <trkpt lat="47.30231" lon="-0.27658">
        <ele>53.49</ele>
        <time>2013-04-28T10:51:18Z</time>
      </trkpt>
      <trkpt lat="47.3023" lon="-0.27653">
        <ele>55.89</ele>
        <time>2013-04-28T10:51:22Z</time>
      </trkpt>
      <trkpt lat="47.30229" lon="-0.2765">
        <ele>56.86</ele>
        <time>2013-04-28T10:51:25Z</time>
      </trkpt>
      <trkpt lat="47.30228" lon="-0.27641">
        <ele>58.3</ele>
        <time>2013-04-28T10:51:30Z</time>
      </trkpt>
      <trkpt lat="47.30227" lon="-0.2763">
        <ele>60.7</ele>
        <time>2013-04-28T10:51:37Z</time>
      </trkpt>
      <trkpt lat="47.30225" lon="-0.27627">
        <ele>60.7</ele>
        <time>2013-04-28T10:51:47Z</time>
      </trkpt>
      <trkpt lat="47.30224" lon="-0.27624">
        <ele>61.66</ele>
        <time>2013-04-28T10:51:53Z</time>
      </trkpt>
      <trkpt lat="47.30223" lon="-0.27617">
        <ele>64.07</ele>
        <time>2013-04-28T10:52:02Z</time>
      </trkpt>
      <trkpt lat="47.30221" lon="-0.27611">
        <ele>65.51</ele>
        <time>2013-04-28T10:52:11Z</time>
      </trkpt>
      <trkpt lat="47.30221" lon="-0.27605">
        <ele>65.99</ele>
        <time>2013-04-28T10:52:17Z</time>
      </trkpt>
      <trkpt lat="47.3022" lon="-0.27601">
        <ele>68.87</ele>
        <time>2013-04-28T10:52:26Z</time>
      </trkpt>
      <trkpt lat="47.30218" lon="-0.27598">
        <ele>69.35</ele>
        <time>2013-04-28T10:52:33Z</time>
      </trkpt>
      <trkpt lat="47.30216" lon="-0.27592">
        <ele>71.27</ele>
        <time>2013-04-28T10:52:41Z</time>
      </trkpt>
      <trkpt lat="47.30212" lon="-0.27581">
        <ele>73.68</ele>
        <time>2013-04-28T10:52:51Z</time>
      </trkpt>
      <trkpt lat="47.3021" lon="-0.27573">
        <ele>74.64</ele>
        <time>2013-04-28T10:52:59Z</time>
      </trkpt>
      <trkpt lat="47.30209" lon="-0.27563">
        <ele>74.64</ele>
        <time>2013-04-28T10:53:06Z</time>
      </trkpt>
      <trkpt lat="47.30209" lon="-0.27562">
        <ele>76.08</ele>
        <time>2013-04-28T10:53:17Z</time>
      </trkpt>
      <trkpt lat="47.30218" lon="-0.27554">
        <ele>75.6</ele>
        <time>2013-04-28T10:53:25Z</time>
      </trkpt>
      <trkpt lat="47.30221" lon="-0.2755">
        <ele>76.08</ele>
        <time>2013-04-28T10:53:28Z</time>
      </trkpt>
      <trkpt lat="47.30237" lon="-0.27539">
        <ele>77.04</ele>
        <time>2013-04-28T10:53:35Z</time>
      </trkpt>
      <trkpt lat="47.30248" lon="-0.27539">
        <ele>75.6</ele>
        <time>2013-04-28T10:53:40Z</time>
      </trkpt>
      <trkpt lat="47.30251" lon="-0.27547">
        <ele>73.68</ele>
        <time>2013-04-28T10:53:44Z</time>
      </trkpt>
      <trkpt lat="47.30261" lon="-0.27552">
        <ele>71.27</ele>
        <time>2013-04-28T10:53:50Z</time>
      </trkpt>
      <trkpt lat="47.30265" lon="-0.27553">
        <ele>70.31</ele>
        <time>2013-04-28T10:53:52Z</time>
      </trkpt>
      <trkpt lat="47.30273" lon="-0.27551">
        <ele>69.83</ele>
        <time>2013-04-28T10:53:57Z</time>
      </trkpt>
      <trkpt lat="47.30281" lon="-0.27549">
        <ele>70.31</ele>
        <time>2013-04-28T10:54:01Z</time>
      </trkpt>
      <trkpt lat="47.30282" lon="-0.27548">
        <ele>69.83</ele>
        <time>2013-04-28T10:54:02Z</time>
      </trkpt>
      <trkpt lat="47.30286" lon="-0.27544">
        <ele>70.31</ele>
        <time>2013-04-28T10:54:06Z</time>
      </trkpt>
      <trkpt lat="47.30297" lon="-0.2754">
        <ele>70.79</ele>
        <time>2013-04-28T10:54:12Z</time>
      </trkpt>
      <trkpt lat="47.30302" lon="-0.27538">
        <ele>71.76</ele>
        <time>2013-04-28T10:54:15Z</time>
      </trkpt>
      <trkpt lat="47.30311" lon="-0.27538">
        <ele>71.76</ele>
        <time>2013-04-28T10:54:22Z</time>
      </trkpt>
      <trkpt lat="47.30314" lon="-0.27536">
        <ele>72.24</ele>
        <time>2013-04-28T10:54:28Z</time>
      </trkpt>
      <trkpt lat="47.30327" lon="-0.27528">
        <ele>73.2</ele>
        <time>2013-04-28T10:54:35Z</time>
      </trkpt>
      <trkpt lat="47.30334" lon="-0.27518">
        <ele>75.12</ele>
        <time>2013-04-28T10:54:42Z</time>
      </trkpt>
      <trkpt lat="47.30335" lon="-0.27515">
        <ele>75.12</ele>
        <time>2013-04-28T10:54:44Z</time>
      </trkpt>
      <trkpt lat="47.30336" lon="-0.27508">
        <ele>76.08</ele>
        <time>2013-04-28T10:54:47Z</time>
      </trkpt>
      <trkpt lat="47.30343" lon="-0.27493">
        <ele>77.04</ele>
        <time>2013-04-28T10:54:54Z</time>
      </trkpt>
      <trkpt lat="47.30343" lon="-0.27483">
        <ele>77.52</ele>
        <time>2013-04-28T10:54:58Z</time>
      </trkpt>
      <trkpt lat="47.30348" lon="-0.27474">
        <ele>76.56</ele>
        <time>2013-04-28T10:55:03Z</time>
      </trkpt>
      <trkpt lat="47.30353" lon="-0.27471">
        <ele>76.56</ele>
        <time>2013-04-28T10:55:06Z</time>
      </trkpt>
      <trkpt lat="47.30371" lon="-0.27462">
        <ele>76.08</ele>
        <time>2013-04-28T10:55:13Z</time>
      </trkpt>
      <trkpt lat="47.30377" lon="-0.27461">
        <ele>77.04</ele>
        <time>2013-04-28T10:55:15Z</time>
      </trkpt>
      <trkpt lat="47.30383" lon="-0.27461">
        <ele>76.56</ele>
        <time>2013-04-28T10:55:18Z</time>
      </trkpt>
      <trkpt lat="47.304" lon="-0.27452">
        <ele>76.08</ele>
        <time>2013-04-28T10:55:25Z</time>
      </trkpt>
      <trkpt lat="47.30404" lon="-0.27451">
        <ele>76.56</ele>
        <time>2013-04-28T10:55:31Z</time>
      </trkpt>
      <trkpt lat="47.3041" lon="-0.27449">
        <ele>76.56</ele>
        <time>2013-04-28T10:55:36Z</time>
      </trkpt>
      <trkpt lat="47.30425" lon="-0.27444">
        <ele>77.04</ele>
        <time>2013-04-28T10:55:42Z</time>
      </trkpt>
      <trkpt lat="47.30443" lon="-0.27429">
        <ele>75.12</ele>
        <time>2013-04-28T10:55:48Z</time>
      </trkpt>
      <trkpt lat="47.30466" lon="-0.2741">
        <ele>74.64</ele>
        <time>2013-04-28T10:55:53Z</time>
      </trkpt>
      <trkpt lat="47.30471" lon="-0.27406">
        <ele>73.2</ele>
        <time>2013-04-28T10:55:54Z</time>
      </trkpt>
      <trkpt lat="47.30477" lon="-0.27401">
        <ele>73.2</ele>
        <time>2013-04-28T10:55:55Z</time>
      </trkpt>
      <trkpt lat="47.30514" lon="-0.2737">
        <ele>69.83</ele>
        <time>2013-04-28T10:56:01Z</time>
      </trkpt>
      <trkpt lat="47.30522" lon="-0.27363">
        <ele>70.31</ele>
        <time>2013-04-28T10:56:02Z</time>
      </trkpt>
      <trkpt lat="47.30537" lon="-0.2735">
        <ele>66.47</ele>
        <time>2013-04-28T10:56:04Z</time>
      </trkpt>
      <trkpt lat="47.30544" lon="-0.27345">
        <ele>64.55</ele>
        <time>2013-04-28T10:56:05Z</time>
      </trkpt>
      <trkpt lat="47.30551" lon="-0.2734">
        <ele>62.62</ele>
        <time>2013-04-28T10:56:06Z</time>
      </trkpt>
      <trkpt lat="47.30558" lon="-0.27337">
        <ele>61.66</ele>
        <time>2013-04-28T10:56:07Z</time>
      </trkpt>
      <trkpt lat="47.30565" lon="-0.27337">
        <ele>60.22</ele>
        <time>2013-04-28T10:56:08Z</time>
      </trkpt>
      <trkpt lat="47.30571" lon="-0.27339">
        <ele>59.74</ele>
        <time>2013-04-28T10:56:09Z</time>
      </trkpt>
      <trkpt lat="47.30578" lon="-0.27341">
        <ele>58.3</ele>
        <time>2013-04-28T10:56:10Z</time>
      </trkpt>
      <trkpt lat="47.30586" lon="-0.27344">
        <ele>57.34</ele>
        <time>2013-04-28T10:56:11Z</time>
      </trkpt>
      <trkpt lat="47.30592" lon="-0.27349">
        <ele>55.89</ele>
        <time>2013-04-28T10:56:12Z</time>
      </trkpt>
      <trkpt lat="47.30596" lon="-0.27355">
        <ele>54.45</ele>
        <time>2013-04-28T10:56:13Z</time>
      </trkpt>
      <trkpt lat="47.30598" lon="-0.27362">
        <ele>53.97</ele>
        <time>2013-04-28T10:56:14Z</time>
      </trkpt>
      <trkpt lat="47.306" lon="-0.27369">
        <ele>53.97</ele>
        <time>2013-04-28T10:56:15Z</time>
      </trkpt>
      <trkpt lat="47.30602" lon="-0.27377">
        <ele>53.49</ele>
        <time>2013-04-28T10:56:16Z</time>
      </trkpt>
      <trkpt lat="47.30603" lon="-0.27383">
        <ele>52.53</ele>
        <time>2013-04-28T10:56:17Z</time>
      </trkpt>
      <trkpt lat="47.30605" lon="-0.27389">
        <ele>51.57</ele>
        <time>2013-04-28T10:56:18Z</time>
      </trkpt>
      <trkpt lat="47.30605" lon="-0.27394">
        <ele>50.61</ele>
        <time>2013-04-28T10:56:19Z</time>
      </trkpt>
      <trkpt lat="47.30603" lon="-0.27401">
        <ele>49.65</ele>
        <time>2013-04-28T10:56:20Z</time>
      </trkpt>
      <trkpt lat="47.306" lon="-0.27408">
        <ele>48.68</ele>
        <time>2013-04-28T10:56:21Z</time>
      </trkpt>
      <trkpt lat="47.30597" lon="-0.27414">
        <ele>46.76</ele>
        <time>2013-04-28T10:56:22Z</time>
      </trkpt>
      <trkpt lat="47.30595" lon="-0.27419">
        <ele>45.32</ele>
        <time>2013-04-28T10:56:23Z</time>
      </trkpt>
      <trkpt lat="47.306" lon="-0.27429">
        <ele>44.36</ele>
        <time>2013-04-28T10:56:26Z</time>
      </trkpt>
      <trkpt lat="47.30606" lon="-0.27427">
        <ele>43.88</ele>
        <time>2013-04-28T10:56:28Z</time>
      </trkpt>
      <trkpt lat="47.3061" lon="-0.27426">
        <ele>43.88</ele>
        <time>2013-04-28T10:56:29Z</time>
      </trkpt>
      <trkpt lat="47.30614" lon="-0.27424">
        <ele>43.4</ele>
        <time>2013-04-28T10:56:30Z</time>
      </trkpt>
      <trkpt lat="47.30619" lon="-0.27424">
        <ele>44.36</ele>
        <time>2013-04-28T10:56:31Z</time>
      </trkpt>
      <trkpt lat="47.30622" lon="-0.27425">
        <ele>43.88</ele>
        <time>2013-04-28T10:56:32Z</time>
      </trkpt>
      <trkpt lat="47.30625" lon="-0.27428">
        <ele>43.88</ele>
        <time>2013-04-28T10:56:33Z</time>
      </trkpt>
      <trkpt lat="47.30629" lon="-0.27433">
        <ele>43.4</ele>
        <time>2013-04-28T10:56:34Z</time>
      </trkpt>
      <trkpt lat="47.30643" lon="-0.27445">
        <ele>43.4</ele>
        <time>2013-04-28T10:56:37Z</time>
      </trkpt>
      <trkpt lat="47.30648" lon="-0.27447">
        <ele>43.88</ele>
        <time>2013-04-28T10:56:38Z</time>
      </trkpt>
      <trkpt lat="47.30654" lon="-0.27449">
        <ele>43.88</ele>
        <time>2013-04-28T10:56:39Z</time>
      </trkpt>
      <trkpt lat="47.30678" lon="-0.27445">
        <ele>43.88</ele>
        <time>2013-04-28T10:56:43Z</time>
      </trkpt>
      <trkpt lat="47.30683" lon="-0.27443">
        <ele>44.36</ele>
        <time>2013-04-28T10:56:44Z</time>
      </trkpt>
      <trkpt lat="47.30688" lon="-0.2744">
        <ele>43.88</ele>
        <time>2013-04-28T10:56:45Z</time>
      </trkpt>
      <trkpt lat="47.30696" lon="-0.27434">
        <ele>42.92</ele>
        <time>2013-04-28T10:56:47Z</time>
      </trkpt>
      <trkpt lat="47.30714" lon="-0.27421">
        <ele>43.88</ele>
        <time>2013-04-28T10:56:51Z</time>
      </trkpt>
      <trkpt lat="47.30761" lon="-0.27385">
        <ele>44.36</ele>
        <time>2013-04-28T10:57:01Z</time>
      </trkpt>
      <trkpt lat="47.30806" lon="-0.27342">
        <ele>43.4</ele>
        <time>2013-04-28T10:57:11Z</time>
      </trkpt>
      <trkpt lat="47.30829" lon="-0.27321">
        <ele>44.36</ele>
        <time>2013-04-28T10:57:16Z</time>
      </trkpt>
      <trkpt lat="47.3086" lon="-0.27293">
        <ele>43.4</ele>
        <time>2013-04-28T10:57:23Z</time>
      </trkpt>
      <trkpt lat="47.30901" lon="-0.27255">
        <ele>42.92</ele>
        <time>2013-04-28T10:57:32Z</time>
      </trkpt>
      <trkpt lat="47.30905" lon="-0.27251">
        <ele>42.92</ele>
        <time>2013-04-28T10:57:33Z</time>
      </trkpt>
      <trkpt lat="47.30941" lon="-0.27216">
        <ele>43.4</ele>
        <time>2013-04-28T10:57:41Z</time>
      </trkpt>
      <trkpt lat="47.30981" lon="-0.27164">
        <ele>42.44</ele>
        <time>2013-04-28T10:57:51Z</time>
      </trkpt>
      <trkpt lat="47.30995" lon="-0.2715">
        <ele>42.92</ele>
        <time>2013-04-28T10:57:54Z</time>
      </trkpt>
      <trkpt lat="47.31034" lon="-0.27117">
        <ele>43.88</ele>
        <time>2013-04-28T10:58:03Z</time>
      </trkpt>
      <trkpt lat="47.31046" lon="-0.27106">
        <ele>43.4</ele>
        <time>2013-04-28T10:58:06Z</time>
      </trkpt>
      <trkpt lat="47.31048" lon="-0.271">
        <ele>43.88</ele>
        <time>2013-04-28T10:58:07Z</time>
      </trkpt>
      <trkpt lat="47.31049" lon="-0.27094">
        <ele>43.88</ele>
        <time>2013-04-28T10:58:08Z</time>
      </trkpt>
      <trkpt lat="47.31049" lon="-0.27088">
        <ele>43.88</ele>
        <time>2013-04-28T10:58:09Z</time>
      </trkpt>
      <trkpt lat="47.31048" lon="-0.27081">
        <ele>43.4</ele>
        <time>2013-04-28T10:58:10Z</time>
      </trkpt>
      <trkpt lat="47.31047" lon="-0.27067">
        <ele>43.4</ele>
        <time>2013-04-28T10:58:12Z</time>
      </trkpt>
      <trkpt lat="47.31045" lon="-0.27061">
        <ele>43.88</ele>
        <time>2013-04-28T10:58:13Z</time>
      </trkpt>
      <trkpt lat="47.31043" lon="-0.27055">
        <ele>44.84</ele>
        <time>2013-04-28T10:58:14Z</time>
      </trkpt>
      <trkpt lat="47.31035" lon="-0.27026">
        <ele>44.84</ele>
        <time>2013-04-28T10:58:19Z</time>
      </trkpt>
      <trkpt lat="47.31035" lon="-0.2702">
        <ele>45.32</ele>
        <time>2013-04-28T10:58:20Z</time>
      </trkpt>
      <trkpt lat="47.31035" lon="-0.27014">
        <ele>44.84</ele>
        <time>2013-04-28T10:58:21Z</time>
      </trkpt>
      <trkpt lat="47.31036" lon="-0.27008">
        <ele>44.84</ele>
        <time>2013-04-28T10:58:22Z</time>
      </trkpt>
      <trkpt lat="47.31038" lon="-0.27003">
        <ele>45.32</ele>
        <time>2013-04-28T10:58:23Z</time>
      </trkpt>
      <trkpt lat="47.31039" lon="-0.26999">
        <ele>46.28</ele>
        <time>2013-04-28T10:58:24Z</time>
      </trkpt>
      <trkpt lat="47.3104" lon="-0.26993">
        <ele>45.8</ele>
        <time>2013-04-28T10:58:25Z</time>
      </trkpt>
      <trkpt lat="47.31041" lon="-0.26987">
        <ele>45.8</ele>
        <time>2013-04-28T10:58:26Z</time>
      </trkpt>
      <trkpt lat="47.31042" lon="-0.26981">
        <ele>46.28</ele>
        <time>2013-04-28T10:58:27Z</time>
      </trkpt>
      <trkpt lat="47.31049" lon="-0.2695">
        <ele>46.76</ele>
        <time>2013-04-28T10:58:33Z</time>
      </trkpt>
      <trkpt lat="47.31052" lon="-0.26932">
        <ele>47.24</ele>
        <time>2013-04-28T10:58:37Z</time>
      </trkpt>
      <trkpt lat="47.31055" lon="-0.26905">
        <ele>47.72</ele>
        <time>2013-04-28T10:58:42Z</time>
      </trkpt>
      <trkpt lat="47.31057" lon="-0.26882">
        <ele>48.68</ele>
        <time>2013-04-28T10:58:47Z</time>
      </trkpt>
      <trkpt lat="47.31056" lon="-0.26846">
        <ele>49.16</ele>
        <time>2013-04-28T10:58:53Z</time>
      </trkpt>
      <trkpt lat="47.3106" lon="-0.26825">
        <ele>49.65</ele>
        <time>2013-04-28T10:58:58Z</time>
      </trkpt>
      <trkpt lat="47.31062" lon="-0.26818">
        <ele>50.13</ele>
        <time>2013-04-28T10:59:00Z</time>
      </trkpt>
      <trkpt lat="47.31063" lon="-0.26813">
        <ele>50.61</ele>
        <time>2013-04-28T10:59:01Z</time>
      </trkpt>
      <trkpt lat="47.31063" lon="-0.26809">
        <ele>50.13</ele>
        <time>2013-04-28T10:59:02Z</time>
      </trkpt>
      <trkpt lat="47.31065" lon="-0.26804">
        <ele>50.61</ele>
        <time>2013-04-28T10:59:03Z</time>
      </trkpt>
      <trkpt lat="47.31066" lon="-0.26801">
        <ele>51.57</ele>
        <time>2013-04-28T10:59:04Z</time>
      </trkpt>
      <trkpt lat="47.31068" lon="-0.26796">
        <ele>50.61</ele>
        <time>2013-04-28T10:59:05Z</time>
      </trkpt>
      <trkpt lat="47.31082" lon="-0.26764">
        <ele>50.61</ele>
        <time>2013-04-28T10:59:12Z</time>
      </trkpt>
      <trkpt lat="47.31093" lon="-0.2674">
        <ele>52.53</ele>
        <time>2013-04-28T10:59:19Z</time>
      </trkpt>
      <trkpt lat="47.31105" lon="-0.2672">
        <ele>51.09</ele>
        <time>2013-04-28T10:59:25Z</time>
      </trkpt>
      <trkpt lat="47.31111" lon="-0.26708">
        <ele>53.97</ele>
        <time>2013-04-28T10:59:29Z</time>
      </trkpt>
      <trkpt lat="47.31112" lon="-0.26706">
        <ele>52.53</ele>
        <time>2013-04-28T10:59:30Z</time>
      </trkpt>
      <trkpt lat="47.31113" lon="-0.26703">
        <ele>53.01</ele>
        <time>2013-04-28T10:59:31Z</time>
      </trkpt>
      <trkpt lat="47.31115" lon="-0.26701">
        <ele>53.01</ele>
        <time>2013-04-28T10:59:32Z</time>
      </trkpt>
      <trkpt lat="47.31129" lon="-0.26685">
        <ele>54.45</ele>
        <time>2013-04-28T10:59:39Z</time>
      </trkpt>
      <trkpt lat="47.31134" lon="-0.26679">
        <ele>54.93</ele>
        <time>2013-04-28T10:59:42Z</time>
      </trkpt>
      <trkpt lat="47.31135" lon="-0.26677">
        <ele>55.41</ele>
        <time>2013-04-28T10:59:43Z</time>
      </trkpt>
      <trkpt lat="47.31137" lon="-0.26675">
        <ele>55.41</ele>
        <time>2013-04-28T10:59:44Z</time>
      </trkpt>
      <trkpt lat="47.3115" lon="-0.26666">
        <ele>55.89</ele>
        <time>2013-04-28T10:59:51Z</time>
      </trkpt>
      <trkpt lat="47.31168" lon="-0.26651">
        <ele>57.34</ele>
        <time>2013-04-28T10:59:59Z</time>
      </trkpt>
      <trkpt lat="47.31185" lon="-0.26638">
        <ele>58.78</ele>
        <time>2013-04-28T11:00:07Z</time>
      </trkpt>
      <trkpt lat="47.31195" lon="-0.26624">
        <ele>58.78</ele>
        <time>2013-04-28T11:00:13Z</time>
      </trkpt>
      <trkpt lat="47.31201" lon="-0.26617">
        <ele>60.22</ele>
        <time>2013-04-28T11:00:16Z</time>
      </trkpt>
      <trkpt lat="47.31214" lon="-0.26604">
        <ele>60.7</ele>
        <time>2013-04-28T11:00:21Z</time>
      </trkpt>
      <trkpt lat="47.31222" lon="-0.26596">
        <ele>61.66</ele>
        <time>2013-04-28T11:00:24Z</time>
      </trkpt>
      <trkpt lat="47.31225" lon="-0.26595">
        <ele>61.66</ele>
        <time>2013-04-28T11:00:25Z</time>
      </trkpt>
      <trkpt lat="47.31229" lon="-0.26593">
        <ele>61.66</ele>
        <time>2013-04-28T11:00:26Z</time>
      </trkpt>
      <trkpt lat="47.31231" lon="-0.2659">
        <ele>61.66</ele>
        <time>2013-04-28T11:00:27Z</time>
      </trkpt>
      <trkpt lat="47.31234" lon="-0.26586">
        <ele>61.66</ele>
        <time>2013-04-28T11:00:28Z</time>
      </trkpt>
      <trkpt lat="47.31245" lon="-0.26574">
        <ele>63.1</ele>
        <time>2013-04-28T11:00:33Z</time>
      </trkpt>
      <trkpt lat="47.31251" lon="-0.26558">
        <ele>63.1</ele>
        <time>2013-04-28T11:00:38Z</time>
      </trkpt>
      <trkpt lat="47.31253" lon="-0.26541">
        <ele>65.51</ele>
        <time>2013-04-28T11:00:43Z</time>
      </trkpt>
      <trkpt lat="47.31254" lon="-0.26521">
        <ele>65.51</ele>
        <time>2013-04-28T11:00:48Z</time>
      </trkpt>
      <trkpt lat="47.31258" lon="-0.265">
        <ele>67.43</ele>
        <time>2013-04-28T11:00:54Z</time>
      </trkpt>
      <trkpt lat="47.31265" lon="-0.26479">
        <ele>67.91</ele>
        <time>2013-04-28T11:01:00Z</time>
      </trkpt>
      <trkpt lat="47.31274" lon="-0.26455">
        <ele>68.39</ele>
        <time>2013-04-28T11:01:06Z</time>
      </trkpt>
      <trkpt lat="47.31289" lon="-0.26422">
        <ele>70.79</ele>
        <time>2013-04-28T11:01:16Z</time>
      </trkpt>
      <trkpt lat="47.31299" lon="-0.26405">
        <ele>71.76</ele>
        <time>2013-04-28T11:01:23Z</time>
      </trkpt>
      <trkpt lat="47.313" lon="-0.26406">
        <ele>71.76</ele>
        <time>2013-04-28T11:01:24Z</time>
      </trkpt>
      <trkpt lat="47.31302" lon="-0.26407">
        <ele>72.24</ele>
        <time>2013-04-28T11:01:25Z</time>
      </trkpt>
      <trkpt lat="47.31303" lon="-0.26408">
        <ele>71.76</ele>
        <time>2013-04-28T11:01:26Z</time>
      </trkpt>
      <trkpt lat="47.31305" lon="-0.26409">
        <ele>72.24</ele>
        <time>2013-04-28T11:01:27Z</time>
      </trkpt>
      <trkpt lat="47.31306" lon="-0.26412">
        <ele>72.72</ele>
        <time>2013-04-28T11:01:28Z</time>
      </trkpt>
      <trkpt lat="47.31318" lon="-0.2643">
        <ele>72.72</ele>
        <time>2013-04-28T11:01:35Z</time>
      </trkpt>
      <trkpt lat="47.31339" lon="-0.26459">
        <ele>73.2</ele>
        <time>2013-04-28T11:01:44Z</time>
      </trkpt>
      <trkpt lat="47.31365" lon="-0.26496">
        <ele>73.68</ele>
        <time>2013-04-28T11:01:54Z</time>
      </trkpt>
      <trkpt lat="47.31388" lon="-0.2653">
        <ele>74.16</ele>
        <time>2013-04-28T11:02:03Z</time>
      </trkpt>
      <trkpt lat="47.31407" lon="-0.26558">
        <ele>73.68</ele>
        <time>2013-04-28T11:02:10Z</time>
      </trkpt>
      <trkpt lat="47.31429" lon="-0.26589">
        <ele>73.68</ele>
        <time>2013-04-28T11:02:18Z</time>
      </trkpt>
      <trkpt lat="47.31456" lon="-0.26621">
        <ele>74.16</ele>
        <time>2013-04-28T11:02:27Z</time>
      </trkpt>
      <trkpt lat="47.31472" lon="-0.26643">
        <ele>74.16</ele>
        <time>2013-04-28T11:02:32Z</time>
      </trkpt>
      <trkpt lat="47.3151" lon="-0.26692">
        <ele>72.72</ele>
        <time>2013-04-28T11:02:43Z</time>
      </trkpt>
      <trkpt lat="47.31544" lon="-0.26735">
        <ele>72.72</ele>
        <time>2013-04-28T11:02:52Z</time>
      </trkpt>
      <trkpt lat="47.31551" lon="-0.26745">
        <ele>71.27</ele>
        <time>2013-04-28T11:02:54Z</time>
      </trkpt>
      <trkpt lat="47.31554" lon="-0.26749">
        <ele>72.24</ele>
        <time>2013-04-28T11:02:55Z</time>
      </trkpt>
      <trkpt lat="47.31556" lon="-0.2675">
        <ele>71.76</ele>
        <time>2013-04-28T11:02:56Z</time>
      </trkpt>
      <trkpt lat="47.31558" lon="-0.26748">
        <ele>72.24</ele>
        <time>2013-04-28T11:02:57Z</time>
      </trkpt>
      <trkpt lat="47.31562" lon="-0.26746">
        <ele>71.76</ele>
        <time>2013-04-28T11:02:58Z</time>
      </trkpt>
      <trkpt lat="47.31565" lon="-0.26744">
        <ele>72.24</ele>
        <time>2013-04-28T11:02:59Z</time>
      </trkpt>
      <trkpt lat="47.31568" lon="-0.26741">
        <ele>71.27</ele>
        <time>2013-04-28T11:03:00Z</time>
      </trkpt>
      <trkpt lat="47.31574" lon="-0.26732">
        <ele>71.27</ele>
        <time>2013-04-28T11:03:02Z</time>
      </trkpt>
      <trkpt lat="47.31578" lon="-0.26728">
        <ele>71.27</ele>
        <time>2013-04-28T11:03:03Z</time>
      </trkpt>
      <trkpt lat="47.3159" lon="-0.26716">
        <ele>69.83</ele>
        <time>2013-04-28T11:03:06Z</time>
      </trkpt>
      <trkpt lat="47.31594" lon="-0.26713">
        <ele>69.83</ele>
        <time>2013-04-28T11:03:07Z</time>
      </trkpt>
      <trkpt lat="47.31602" lon="-0.26709">
        <ele>69.83</ele>
        <time>2013-04-28T11:03:09Z</time>
      </trkpt>
      <trkpt lat="47.31606" lon="-0.26705">
        <ele>69.83</ele>
        <time>2013-04-28T11:03:10Z</time>
      </trkpt>
      <trkpt lat="47.31611" lon="-0.26701">
        <ele>69.35</ele>
        <time>2013-04-28T11:03:11Z</time>
      </trkpt>
      <trkpt lat="47.31615" lon="-0.26696">
        <ele>67.43</ele>
        <time>2013-04-28T11:03:12Z</time>
      </trkpt>
      <trkpt lat="47.3162" lon="-0.2669">
        <ele>68.39</ele>
        <time>2013-04-28T11:03:13Z</time>
      </trkpt>
      <trkpt lat="47.31625" lon="-0.26684">
        <ele>67.91</ele>
        <time>2013-04-28T11:03:14Z</time>
      </trkpt>
      <trkpt lat="47.31629" lon="-0.26679">
        <ele>67.91</ele>
        <time>2013-04-28T11:03:15Z</time>
      </trkpt>
      <trkpt lat="47.31632" lon="-0.26674">
        <ele>67.91</ele>
        <time>2013-04-28T11:03:16Z</time>
      </trkpt>
      <trkpt lat="47.31638" lon="-0.26665">
        <ele>67.91</ele>
        <time>2013-04-28T11:03:18Z</time>
      </trkpt>
      <trkpt lat="47.31642" lon="-0.2666">
        <ele>68.87</ele>
        <time>2013-04-28T11:03:19Z</time>
      </trkpt>
      <trkpt lat="47.31646" lon="-0.26655">
        <ele>68.87</ele>
        <time>2013-04-28T11:03:20Z</time>
      </trkpt>
      <trkpt lat="47.31649" lon="-0.2665">
        <ele>70.31</ele>
        <time>2013-04-28T11:03:21Z</time>
      </trkpt>
      <trkpt lat="47.31652" lon="-0.26646">
        <ele>69.35</ele>
        <time>2013-04-28T11:03:22Z</time>
      </trkpt>
      <trkpt lat="47.31654" lon="-0.26641">
        <ele>69.83</ele>
        <time>2013-04-28T11:03:23Z</time>
      </trkpt>
      <trkpt lat="47.31656" lon="-0.26638">
        <ele>69.83</ele>
        <time>2013-04-28T11:03:24Z</time>
      </trkpt>
      <trkpt lat="47.31659" lon="-0.26634">
        <ele>70.31</ele>
        <time>2013-04-28T11:03:25Z</time>
      </trkpt>
      <trkpt lat="47.31662" lon="-0.2663">
        <ele>70.79</ele>
        <time>2013-04-28T11:03:26Z</time>
      </trkpt>
      <trkpt lat="47.31665" lon="-0.26628">
        <ele>70.79</ele>
        <time>2013-04-28T11:03:27Z</time>
      </trkpt>
      <trkpt lat="47.31669" lon="-0.26624">
        <ele>71.27</ele>
        <time>2013-04-28T11:03:29Z</time>
      </trkpt>
      <trkpt lat="47.31673" lon="-0.26622">
        <ele>71.27</ele>
        <time>2013-04-28T11:03:30Z</time>
      </trkpt>
      <trkpt lat="47.31693" lon="-0.26611">
        <ele>70.79</ele>
        <time>2013-04-28T11:03:36Z</time>
      </trkpt>
      <trkpt lat="47.31695" lon="-0.26609">
        <ele>70.31</ele>
        <time>2013-04-28T11:03:37Z</time>
      </trkpt>
      <trkpt lat="47.31697" lon="-0.26605">
        <ele>70.31</ele>
        <time>2013-04-28T11:03:38Z</time>
      </trkpt>
      <trkpt lat="47.31717" lon="-0.26583">
        <ele>67.91</ele>
        <time>2013-04-28T11:03:43Z</time>
      </trkpt>
      <trkpt lat="47.3173" lon="-0.26565">
        <ele>65.03</ele>
        <time>2013-04-28T11:03:47Z</time>
      </trkpt>
      <trkpt lat="47.31733" lon="-0.2656">
        <ele>65.03</ele>
        <time>2013-04-28T11:03:48Z</time>
      </trkpt>
      <trkpt lat="47.31737" lon="-0.26556">
        <ele>64.07</ele>
        <time>2013-04-28T11:03:49Z</time>
      </trkpt>
      <trkpt lat="47.31746" lon="-0.26547">
        <ele>63.1</ele>
        <time>2013-04-28T11:03:51Z</time>
      </trkpt>
      <trkpt lat="47.31751" lon="-0.26541">
        <ele>63.58</ele>
        <time>2013-04-28T11:03:52Z</time>
      </trkpt>
      <trkpt lat="47.31755" lon="-0.26534">
        <ele>62.62</ele>
        <time>2013-04-28T11:03:53Z</time>
      </trkpt>
      <trkpt lat="47.31759" lon="-0.26528">
        <ele>61.66</ele>
        <time>2013-04-28T11:03:54Z</time>
      </trkpt>
      <trkpt lat="47.31763" lon="-0.26523">
        <ele>60.22</ele>
        <time>2013-04-28T11:03:55Z</time>
      </trkpt>
      <trkpt lat="47.31767" lon="-0.26518">
        <ele>59.74</ele>
        <time>2013-04-28T11:03:56Z</time>
      </trkpt>
      <trkpt lat="47.31771" lon="-0.26513">
        <ele>57.82</ele>
        <time>2013-04-28T11:03:57Z</time>
      </trkpt>
      <trkpt lat="47.3178" lon="-0.26508">
        <ele>57.34</ele>
        <time>2013-04-28T11:03:58Z</time>
      </trkpt>
      <trkpt lat="47.31787" lon="-0.26502">
        <ele>55.41</ele>
        <time>2013-04-28T11:03:59Z</time>
      </trkpt>
      <trkpt lat="47.31793" lon="-0.26497">
        <ele>55.41</ele>
        <time>2013-04-28T11:04:00Z</time>
      </trkpt>
      <trkpt lat="47.31829" lon="-0.26453">
        <ele>54.45</ele>
        <time>2013-04-28T11:04:06Z</time>
      </trkpt>
      <trkpt lat="47.31833" lon="-0.26446">
        <ele>54.45</ele>
        <time>2013-04-28T11:04:07Z</time>
      </trkpt>
      <trkpt lat="47.31836" lon="-0.2644">
        <ele>54.45</ele>
        <time>2013-04-28T11:04:08Z</time>
      </trkpt>
      <trkpt lat="47.31839" lon="-0.26434">
        <ele>53.97</ele>
        <time>2013-04-28T11:04:09Z</time>
      </trkpt>
      <trkpt lat="47.31842" lon="-0.26428">
        <ele>54.45</ele>
        <time>2013-04-28T11:04:10Z</time>
      </trkpt>
      <trkpt lat="47.31844" lon="-0.26422">
        <ele>54.93</ele>
        <time>2013-04-28T11:04:11Z</time>
      </trkpt>
      <trkpt lat="47.31864" lon="-0.26391">
        <ele>56.86</ele>
        <time>2013-04-28T11:04:18Z</time>
      </trkpt>
      <trkpt lat="47.31866" lon="-0.26386">
        <ele>55.89</ele>
        <time>2013-04-28T11:04:19Z</time>
      </trkpt>
      <trkpt lat="47.31866" lon="-0.26381">
        <ele>55.89</ele>
        <time>2013-04-28T11:04:20Z</time>
      </trkpt>
      <trkpt lat="47.31866" lon="-0.26376">
        <ele>55.89</ele>
        <time>2013-04-28T11:04:21Z</time>
      </trkpt>
      <trkpt lat="47.31867" lon="-0.26372">
        <ele>56.37</ele>
        <time>2013-04-28T11:04:22Z</time>
      </trkpt>
      <trkpt lat="47.31867" lon="-0.26367">
        <ele>55.89</ele>
        <time>2013-04-28T11:04:23Z</time>
      </trkpt>
      <trkpt lat="47.31869" lon="-0.26362">
        <ele>55.41</ele>
        <time>2013-04-28T11:04:24Z</time>
      </trkpt>
      <trkpt lat="47.31871" lon="-0.26357">
        <ele>56.37</ele>
        <time>2013-04-28T11:04:25Z</time>
      </trkpt>
      <trkpt lat="47.31873" lon="-0.26353">
        <ele>56.37</ele>
        <time>2013-04-28T11:04:26Z</time>
      </trkpt>
      <trkpt lat="47.31876" lon="-0.26349">
        <ele>55.89</ele>
        <time>2013-04-28T11:04:27Z</time>
      </trkpt>
      <trkpt lat="47.31879" lon="-0.26345">
        <ele>56.86</ele>
        <time>2013-04-28T11:04:28Z</time>
      </trkpt>
      <trkpt lat="47.31882" lon="-0.26342">
        <ele>55.89</ele>
        <time>2013-04-28T11:04:29Z</time>
      </trkpt>
      <trkpt lat="47.31912" lon="-0.26304">
        <ele>53.97</ele>
        <time>2013-04-28T11:04:37Z</time>
      </trkpt>
      <trkpt lat="47.31916" lon="-0.26298">
        <ele>53.97</ele>
        <time>2013-04-28T11:04:38Z</time>
      </trkpt>
      <trkpt lat="47.3192" lon="-0.26293">
        <ele>53.01</ele>
        <time>2013-04-28T11:04:39Z</time>
      </trkpt>
      <trkpt lat="47.31923" lon="-0.26289">
        <ele>52.53</ele>
        <time>2013-04-28T11:04:40Z</time>
      </trkpt>
      <trkpt lat="47.31927" lon="-0.26284">
        <ele>52.53</ele>
        <time>2013-04-28T11:04:41Z</time>
      </trkpt>
      <trkpt lat="47.3193" lon="-0.26279">
        <ele>52.53</ele>
        <time>2013-04-28T11:04:42Z</time>
      </trkpt>
      <trkpt lat="47.31933" lon="-0.26274">
        <ele>52.53</ele>
        <time>2013-04-28T11:04:43Z</time>
      </trkpt>
      <trkpt lat="47.31934" lon="-0.26268">
        <ele>52.05</ele>
        <time>2013-04-28T11:04:44Z</time>
      </trkpt>
      <trkpt lat="47.31936" lon="-0.26261">
        <ele>52.53</ele>
        <time>2013-04-28T11:04:45Z</time>
      </trkpt>
      <trkpt lat="47.31939" lon="-0.26232">
        <ele>53.49</ele>
        <time>2013-04-28T11:04:51Z</time>
      </trkpt>
      <trkpt lat="47.31942" lon="-0.26225">
        <ele>54.93</ele>
        <time>2013-04-28T11:04:54Z</time>
      </trkpt>
      <trkpt lat="47.31943" lon="-0.2622">
        <ele>55.89</ele>
        <time>2013-04-28T11:04:57Z</time>
      </trkpt>
      <trkpt lat="47.31943" lon="-0.26218">
        <ele>55.89</ele>
        <time>2013-04-28T11:04:58Z</time>
      </trkpt>
      <trkpt lat="47.31944" lon="-0.26216">
        <ele>56.86</ele>
        <time>2013-04-28T11:04:59Z</time>
      </trkpt>
      <trkpt lat="47.31944" lon="-0.26214">
        <ele>56.86</ele>
        <time>2013-04-28T11:05:00Z</time>
      </trkpt>
      <trkpt lat="47.31947" lon="-0.26206">
        <ele>58.3</ele>
        <time>2013-04-28T11:05:05Z</time>
      </trkpt>
      <trkpt lat="47.31947" lon="-0.26205">
        <ele>58.3</ele>
        <time>2013-04-28T11:05:06Z</time>
      </trkpt>
      <trkpt lat="47.31948" lon="-0.26202">
        <ele>59.26</ele>
        <time>2013-04-28T11:05:07Z</time>
      </trkpt>
      <trkpt lat="47.31949" lon="-0.26199">
        <ele>59.26</ele>
        <time>2013-04-28T11:05:09Z</time>
      </trkpt>
      <trkpt lat="47.3195" lon="-0.26198">
        <ele>59.74</ele>
        <time>2013-04-28T11:05:10Z</time>
      </trkpt>
      <trkpt lat="47.3195" lon="-0.26195">
        <ele>60.7</ele>
        <time>2013-04-28T11:05:11Z</time>
      </trkpt>
      <trkpt lat="47.3195" lon="-0.26184">
        <ele>63.1</ele>
        <time>2013-04-28T11:05:17Z</time>
      </trkpt>
      <trkpt lat="47.3195" lon="-0.26182">
        <ele>63.1</ele>
        <time>2013-04-28T11:05:18Z</time>
      </trkpt>
      <trkpt lat="47.31952" lon="-0.26171">
        <ele>64.55</ele>
        <time>2013-04-28T11:05:25Z</time>
      </trkpt>
      <trkpt lat="47.31952" lon="-0.26169">
        <ele>64.55</ele>
        <time>2013-04-28T11:05:26Z</time>
      </trkpt>
      <trkpt lat="47.31951" lon="-0.26159">
        <ele>66.47</ele>
        <time>2013-04-28T11:05:32Z</time>
      </trkpt>
      <trkpt lat="47.31951" lon="-0.26158">
        <ele>66.47</ele>
        <time>2013-04-28T11:05:33Z</time>
      </trkpt>
      <trkpt lat="47.31951" lon="-0.26146">
        <ele>67.91</ele>
        <time>2013-04-28T11:05:39Z</time>
      </trkpt>
      <trkpt lat="47.31954" lon="-0.26138">
        <ele>68.87</ele>
        <time>2013-04-28T11:05:44Z</time>
      </trkpt>
      <trkpt lat="47.31957" lon="-0.26133">
        <ele>69.83</ele>
        <time>2013-04-28T11:05:47Z</time>
      </trkpt>
      <trkpt lat="47.31958" lon="-0.26132">
        <ele>70.31</ele>
        <time>2013-04-28T11:05:48Z</time>
      </trkpt>
      <trkpt lat="47.31959" lon="-0.2613">
        <ele>70.31</ele>
        <time>2013-04-28T11:05:49Z</time>
      </trkpt>
      <trkpt lat="47.3196" lon="-0.26128">
        <ele>69.35</ele>
        <time>2013-04-28T11:05:50Z</time>
      </trkpt>
      <trkpt lat="47.31961" lon="-0.26126">
        <ele>70.31</ele>
        <time>2013-04-28T11:05:51Z</time>
      </trkpt>
      <trkpt lat="47.31965" lon="-0.26114">
        <ele>70.79</ele>
        <time>2013-04-28T11:05:56Z</time>
      </trkpt>
      <trkpt lat="47.31972" lon="-0.26097">
        <ele>70.31</ele>
        <time>2013-04-28T11:06:02Z</time>
      </trkpt>
      <trkpt lat="47.31982" lon="-0.26082">
        <ele>70.79</ele>
        <time>2013-04-28T11:06:07Z</time>
      </trkpt>
      <trkpt lat="47.31984" lon="-0.26078">
        <ele>71.76</ele>
        <time>2013-04-28T11:06:08Z</time>
      </trkpt>
      <trkpt lat="47.31986" lon="-0.26074">
        <ele>70.79</ele>
        <time>2013-04-28T11:06:09Z</time>
      </trkpt>
      <trkpt lat="47.31988" lon="-0.2607">
        <ele>70.79</ele>
        <time>2013-04-28T11:06:10Z</time>
      </trkpt>
      <trkpt lat="47.31991" lon="-0.26065">
        <ele>69.83</ele>
        <time>2013-04-28T11:06:11Z</time>
      </trkpt>
      <trkpt lat="47.31993" lon="-0.2606">
        <ele>70.79</ele>
        <time>2013-04-28T11:06:12Z</time>
      </trkpt>
      <trkpt lat="47.31995" lon="-0.26056">
        <ele>71.27</ele>
        <time>2013-04-28T11:06:13Z</time>
      </trkpt>
      <trkpt lat="47.32008" lon="-0.26037">
        <ele>69.83</ele>
        <time>2013-04-28T11:06:18Z</time>
      </trkpt>
      <trkpt lat="47.32019" lon="-0.26006">
        <ele>69.83</ele>
        <time>2013-04-28T11:06:24Z</time>
      </trkpt>
      <trkpt lat="47.32016" lon="-0.25977">
        <ele>70.31</ele>
        <time>2013-04-28T11:06:30Z</time>
      </trkpt>
      <trkpt lat="47.32012" lon="-0.25943">
        <ele>69.83</ele>
        <time>2013-04-28T11:06:35Z</time>
      </trkpt>
      <trkpt lat="47.32011" lon="-0.25913">
        <ele>69.35</ele>
        <time>2013-04-28T11:06:40Z</time>
      </trkpt>
      <trkpt lat="47.32011" lon="-0.25899">
        <ele>69.83</ele>
        <time>2013-04-28T11:06:42Z</time>
      </trkpt>
      <trkpt lat="47.32011" lon="-0.25884">
        <ele>70.31</ele>
        <time>2013-04-28T11:06:44Z</time>
      </trkpt>
      <trkpt lat="47.32013" lon="-0.25863">
        <ele>70.79</ele>
        <time>2013-04-28T11:06:47Z</time>
      </trkpt>
      <trkpt lat="47.32026" lon="-0.25797">
        <ele>69.83</ele>
        <time>2013-04-28T11:06:56Z</time>
      </trkpt>
      <trkpt lat="47.32027" lon="-0.25783">
        <ele>69.83</ele>
        <time>2013-04-28T11:06:58Z</time>
      </trkpt>
      <trkpt lat="47.32029" lon="-0.25763">
        <ele>69.83</ele>
        <time>2013-04-28T11:07:01Z</time>
      </trkpt>
      <trkpt lat="47.32029" lon="-0.25755">
        <ele>69.35</ele>
        <time>2013-04-28T11:07:02Z</time>
      </trkpt>
      <trkpt lat="47.32032" lon="-0.25717">
        <ele>68.87</ele>
        <time>2013-04-28T11:07:07Z</time>
      </trkpt>
      <trkpt lat="47.32041" lon="-0.2564">
        <ele>68.39</ele>
        <time>2013-04-28T11:07:16Z</time>
      </trkpt>
      <trkpt lat="47.3205" lon="-0.25594">
        <ele>67.91</ele>
        <time>2013-04-28T11:07:23Z</time>
      </trkpt>
      <trkpt lat="47.32054" lon="-0.25563">
        <ele>66.47</ele>
        <time>2013-04-28T11:07:28Z</time>
      </trkpt>
      <trkpt lat="47.32056" lon="-0.25556">
        <ele>66.95</ele>
        <time>2013-04-28T11:07:29Z</time>
      </trkpt>
      <trkpt lat="47.32063" lon="-0.2549">
        <ele>65.51</ele>
        <time>2013-04-28T11:07:37Z</time>
      </trkpt>
      <trkpt lat="47.3207" lon="-0.25419">
        <ele>62.14</ele>
        <time>2013-04-28T11:07:45Z</time>
      </trkpt>
      <trkpt lat="47.32078" lon="-0.25336">
        <ele>60.22</ele>
        <time>2013-04-28T11:07:54Z</time>
      </trkpt>
      <trkpt lat="47.32081" lon="-0.25304">
        <ele>59.26</ele>
        <time>2013-04-28T11:07:58Z</time>
      </trkpt>
      <trkpt lat="47.32086" lon="-0.25281">
        <ele>58.3</ele>
        <time>2013-04-28T11:08:01Z</time>
      </trkpt>
      <trkpt lat="47.32099" lon="-0.25236">
        <ele>56.37</ele>
        <time>2013-04-28T11:08:07Z</time>
      </trkpt>
      <trkpt lat="47.32101" lon="-0.25228">
        <ele>57.34</ele>
        <time>2013-04-28T11:08:08Z</time>
      </trkpt>
      <trkpt lat="47.32121" lon="-0.25157">
        <ele>56.37</ele>
        <time>2013-04-28T11:08:17Z</time>
      </trkpt>
      <trkpt lat="47.3214" lon="-0.25087">
        <ele>54.45</ele>
        <time>2013-04-28T11:08:26Z</time>
      </trkpt>
      <trkpt lat="47.32164" lon="-0.25004">
        <ele>53.01</ele>
        <time>2013-04-28T11:08:37Z</time>
      </trkpt>
      <trkpt lat="47.32185" lon="-0.24929">
        <ele>52.53</ele>
        <time>2013-04-28T11:08:47Z</time>
      </trkpt>
      <trkpt lat="47.32205" lon="-0.24857">
        <ele>50.61</ele>
        <time>2013-04-28T11:08:58Z</time>
      </trkpt>
      <trkpt lat="47.32214" lon="-0.24825">
        <ele>50.61</ele>
        <time>2013-04-28T11:09:03Z</time>
      </trkpt>
      <trkpt lat="47.32217" lon="-0.2482">
        <ele>51.09</ele>
        <time>2013-04-28T11:09:04Z</time>
      </trkpt>
      <trkpt lat="47.3222" lon="-0.24816">
        <ele>51.09</ele>
        <time>2013-04-28T11:09:05Z</time>
      </trkpt>
      <trkpt lat="47.32224" lon="-0.24813">
        <ele>50.61</ele>
        <time>2013-04-28T11:09:06Z</time>
      </trkpt>
      <trkpt lat="47.32229" lon="-0.24811">
        <ele>50.61</ele>
        <time>2013-04-28T11:09:07Z</time>
      </trkpt>
      <trkpt lat="47.32233" lon="-0.2481">
        <ele>51.09</ele>
        <time>2013-04-28T11:09:08Z</time>
      </trkpt>
      <trkpt lat="47.32268" lon="-0.24807">
        <ele>51.57</ele>
        <time>2013-04-28T11:09:16Z</time>
      </trkpt>
      <trkpt lat="47.32296" lon="-0.24806">
        <ele>53.01</ele>
        <time>2013-04-28T11:09:23Z</time>
      </trkpt>
      <trkpt lat="47.32303" lon="-0.24804">
        <ele>54.45</ele>
        <time>2013-04-28T11:09:25Z</time>
      </trkpt>
      <trkpt lat="47.32312" lon="-0.2479">
        <ele>54.93</ele>
        <time>2013-04-28T11:09:29Z</time>
      </trkpt>
      <trkpt lat="47.32311" lon="-0.24754">
        <ele>53.97</ele>
        <time>2013-04-28T11:09:35Z</time>
      </trkpt>
      <trkpt lat="47.32311" lon="-0.24748">
        <ele>54.45</ele>
        <time>2013-04-28T11:09:36Z</time>
      </trkpt>
      <trkpt lat="47.32313" lon="-0.24734">
        <ele>54.45</ele>
        <time>2013-04-28T11:09:38Z</time>
      </trkpt>
      <trkpt lat="47.32329" lon="-0.24679">
        <ele>53.97</ele>
        <time>2013-04-28T11:09:46Z</time>
      </trkpt>
      <trkpt lat="47.32342" lon="-0.24645">
        <ele>52.53</ele>
        <time>2013-04-28T11:09:51Z</time>
      </trkpt>
      <trkpt lat="47.32345" lon="-0.24628">
        <ele>51.09</ele>
        <time>2013-04-28T11:09:53Z</time>
      </trkpt>
      <trkpt lat="47.32346" lon="-0.24601">
        <ele>50.61</ele>
        <time>2013-04-28T11:09:56Z</time>
      </trkpt>
      <trkpt lat="47.32345" lon="-0.24582">
        <ele>49.65</ele>
        <time>2013-04-28T11:09:58Z</time>
      </trkpt>
      <trkpt lat="47.32344" lon="-0.24574">
        <ele>49.16</ele>
        <time>2013-04-28T11:09:59Z</time>
      </trkpt>
      <trkpt lat="47.32343" lon="-0.24564">
        <ele>49.16</ele>
        <time>2013-04-28T11:10:00Z</time>
      </trkpt>
      <trkpt lat="47.32342" lon="-0.24554">
        <ele>48.68</ele>
        <time>2013-04-28T11:10:01Z</time>
      </trkpt>
      <trkpt lat="47.32343" lon="-0.24545">
        <ele>48.2</ele>
        <time>2013-04-28T11:10:02Z</time>
      </trkpt>
      <trkpt lat="47.32344" lon="-0.24535">
        <ele>47.72</ele>
        <time>2013-04-28T11:10:03Z</time>
      </trkpt>
      <trkpt lat="47.32344" lon="-0.24526">
        <ele>47.24</ele>
        <time>2013-04-28T11:10:04Z</time>
      </trkpt>
      <trkpt lat="47.32345" lon="-0.24518">
        <ele>47.24</ele>
        <time>2013-04-28T11:10:05Z</time>
      </trkpt>
      <trkpt lat="47.32346" lon="-0.24511">
        <ele>47.72</ele>
        <time>2013-04-28T11:10:06Z</time>
      </trkpt>
      <trkpt lat="47.32348" lon="-0.24503">
        <ele>47.24</ele>
        <time>2013-04-28T11:10:07Z</time>
      </trkpt>
      <trkpt lat="47.32351" lon="-0.24499">
        <ele>46.28</ele>
        <time>2013-04-28T11:10:08Z</time>
      </trkpt>
      <trkpt lat="47.32353" lon="-0.24496">
        <ele>46.28</ele>
        <time>2013-04-28T11:10:09Z</time>
      </trkpt>
      <trkpt lat="47.32354" lon="-0.24493">
        <ele>46.28</ele>
        <time>2013-04-28T11:10:14Z</time>
      </trkpt>
      <trkpt lat="47.32356" lon="-0.2449">
        <ele>46.28</ele>
        <time>2013-04-28T11:10:54Z</time>
      </trkpt>
      <trkpt lat="47.32364" lon="-0.24479">
        <ele>47.24</ele>
        <time>2013-04-28T11:11:01Z</time>
      </trkpt>
      <trkpt lat="47.32377" lon="-0.24463">
        <ele>47.72</ele>
        <time>2013-04-28T11:11:07Z</time>
      </trkpt>
      <trkpt lat="47.32378" lon="-0.2446">
        <ele>47.72</ele>
        <time>2013-04-28T11:11:08Z</time>
      </trkpt>
      <trkpt lat="47.3238" lon="-0.24458">
        <ele>47.72</ele>
        <time>2013-04-28T11:11:09Z</time>
      </trkpt>
      <trkpt lat="47.32391" lon="-0.24435">
        <ele>49.16</ele>
        <time>2013-04-28T11:11:15Z</time>
      </trkpt>
      <trkpt lat="47.32399" lon="-0.24409">
        <ele>49.16</ele>
        <time>2013-04-28T11:11:21Z</time>
      </trkpt>
      <trkpt lat="47.32402" lon="-0.24401">
        <ele>49.65</ele>
        <time>2013-04-28T11:11:23Z</time>
      </trkpt>
      <trkpt lat="47.32401" lon="-0.2439">
        <ele>50.13</ele>
        <time>2013-04-28T11:11:27Z</time>
      </trkpt>
      <trkpt lat="47.32403" lon="-0.24376">
        <ele>50.13</ele>
        <time>2013-04-28T11:11:32Z</time>
      </trkpt>
      <trkpt lat="47.32395" lon="-0.24363">
        <ele>53.01</ele>
        <time>2013-04-28T11:11:39Z</time>
      </trkpt>
      <trkpt lat="47.32391" lon="-0.24359">
        <ele>52.53</ele>
        <time>2013-04-28T11:11:42Z</time>
      </trkpt>
      <trkpt lat="47.32383" lon="-0.24356">
        <ele>54.45</ele>
        <time>2013-04-28T11:11:47Z</time>
      </trkpt>
      <trkpt lat="47.32372" lon="-0.24357">
        <ele>55.89</ele>
        <time>2013-04-28T11:11:55Z</time>
      </trkpt>
      <trkpt lat="47.32362" lon="-0.24357">
        <ele>57.34</ele>
        <time>2013-04-28T11:12:02Z</time>
      </trkpt>
      <trkpt lat="47.3236" lon="-0.24358">
        <ele>56.86</ele>
        <time>2013-04-28T11:12:03Z</time>
      </trkpt>
      <trkpt lat="47.32359" lon="-0.24359">
        <ele>56.86</ele>
        <time>2013-04-28T11:12:04Z</time>
      </trkpt>
      <trkpt lat="47.32357" lon="-0.2436">
        <ele>56.86</ele>
        <time>2013-04-28T11:12:06Z</time>
      </trkpt>
      <trkpt lat="47.32355" lon="-0.24376">
        <ele>57.34</ele>
        <time>2013-04-28T11:12:13Z</time>
      </trkpt>
      <trkpt lat="47.32353" lon="-0.24386">
        <ele>57.82</ele>
        <time>2013-04-28T11:12:17Z</time>
      </trkpt>
      <trkpt lat="47.32351" lon="-0.24388">
        <ele>57.82</ele>
        <time>2013-04-28T11:12:18Z</time>
      </trkpt>
      <trkpt lat="47.32349" lon="-0.24392">
        <ele>56.37</ele>
        <time>2013-04-28T11:12:20Z</time>
      </trkpt>
      <trkpt lat="47.32342" lon="-0.24396">
        <ele>55.89</ele>
        <time>2013-04-28T11:12:25Z</time>
      </trkpt>
      <trkpt lat="47.32341" lon="-0.24397">
        <ele>54.93</ele>
        <time>2013-04-28T11:12:26Z</time>
      </trkpt>
      <trkpt lat="47.32333" lon="-0.24397">
        <ele>53.49</ele>
        <time>2013-04-28T11:12:32Z</time>
      </trkpt>
      <trkpt lat="47.32326" lon="-0.24396">
        <ele>51.57</ele>
        <time>2013-04-28T11:12:35Z</time>
      </trkpt>
      <trkpt lat="47.32322" lon="-0.244">
        <ele>50.61</ele>
        <time>2013-04-28T11:12:39Z</time>
      </trkpt>
      <trkpt lat="47.32321" lon="-0.24402">
        <ele>50.61</ele>
        <time>2013-04-28T11:12:40Z</time>
      </trkpt>
      <trkpt lat="47.32315" lon="-0.24407">
        <ele>47.72</ele>
        <time>2013-04-28T11:12:43Z</time>
      </trkpt>
      <trkpt lat="47.32306" lon="-0.24401">
        <ele>47.72</ele>
        <time>2013-04-28T11:12:48Z</time>
      </trkpt>
      <trkpt lat="47.32305" lon="-0.24392">
        <ele>48.2</ele>
        <time>2013-04-28T11:12:54Z</time>
      </trkpt>
      <trkpt lat="47.32313" lon="-0.24387">
        <ele>50.13</ele>
        <time>2013-04-28T11:13:02Z</time>
      </trkpt>
      <trkpt lat="47.32318" lon="-0.24385">
        <ele>51.09</ele>
        <time>2013-04-28T11:13:06Z</time>
      </trkpt>
      <trkpt lat="47.32322" lon="-0.24386">
        <ele>52.05</ele>
        <time>2013-04-28T11:13:09Z</time>
      </trkpt>
      <trkpt lat="47.32326" lon="-0.24385">
        <ele>52.05</ele>
        <time>2013-04-28T11:13:16Z</time>
      </trkpt>
      <trkpt lat="47.32327" lon="-0.24382">
        <ele>53.49</ele>
        <time>2013-04-28T11:13:23Z</time>
      </trkpt>
      <trkpt lat="47.32332" lon="-0.24375">
        <ele>54.93</ele>
        <time>2013-04-28T11:13:32Z</time>
      </trkpt>
      <trkpt lat="47.32333" lon="-0.24373">
        <ele>55.89</ele>
        <time>2013-04-28T11:13:40Z</time>
      </trkpt>
      <trkpt lat="47.32336" lon="-0.24368">
        <ele>56.37</ele>
        <time>2013-04-28T11:13:50Z</time>
      </trkpt>
      <trkpt lat="47.32337" lon="-0.24366">
        <ele>57.82</ele>
        <time>2013-04-28T11:13:53Z</time>
      </trkpt>
      <trkpt lat="47.32338" lon="-0.24366">
        <ele>57.82</ele>
        <time>2013-04-28T11:13:58Z</time>
      </trkpt>
      <trkpt lat="47.32339" lon="-0.24365">
        <ele>57.34</ele>
        <time>2013-04-28T11:14:03Z</time>
      </trkpt>
      <trkpt lat="47.32342" lon="-0.24361">
        <ele>57.82</ele>
        <time>2013-04-28T11:14:07Z</time>
      </trkpt>
      <trkpt lat="47.32341" lon="-0.24358">
        <ele>58.3</ele>
        <time>2013-04-28T11:14:09Z</time>
      </trkpt>
      <trkpt lat="47.32343" lon="-0.24353">
        <ele>57.82</ele>
        <time>2013-04-28T11:14:16Z</time>
      </trkpt>
      <trkpt lat="47.32345" lon="-0.24349">
        <ele>56.86</ele>
        <time>2013-04-28T11:14:26Z</time>
      </trkpt>
      <trkpt lat="47.32352" lon="-0.24341">
        <ele>59.74</ele>
        <time>2013-04-28T11:14:33Z</time>
      </trkpt>
      <trkpt lat="47.3236" lon="-0.24332">
        <ele>58.78</ele>
        <time>2013-04-28T11:14:40Z</time>
      </trkpt>
      <trkpt lat="47.32369" lon="-0.24322">
        <ele>58.3</ele>
        <time>2013-04-28T11:14:46Z</time>
      </trkpt>
      <trkpt lat="47.32372" lon="-0.24316">
        <ele>56.86</ele>
        <time>2013-04-28T11:14:52Z</time>
      </trkpt>
      <trkpt lat="47.32375" lon="-0.24316">
        <ele>55.89</ele>
        <time>2013-04-28T11:14:54Z</time>
      </trkpt>
      <trkpt lat="47.32377" lon="-0.2431">
        <ele>54.93</ele>
        <time>2013-04-28T11:14:56Z</time>
      </trkpt>
      <trkpt lat="47.32376" lon="-0.24303">
        <ele>55.41</ele>
        <time>2013-04-28T11:15:00Z</time>
      </trkpt>
      <trkpt lat="47.32379" lon="-0.243">
        <ele>55.41</ele>
        <time>2013-04-28T11:15:02Z</time>
      </trkpt>
      <trkpt lat="47.32392" lon="-0.24293">
        <ele>56.86</ele>
        <time>2013-04-28T11:15:08Z</time>
      </trkpt>
      <trkpt lat="47.32403" lon="-0.24285">
        <ele>59.74</ele>
        <time>2013-04-28T11:15:16Z</time>
      </trkpt>
      <trkpt lat="47.32408" lon="-0.24282">
        <ele>60.7</ele>
        <time>2013-04-28T11:15:20Z</time>
      </trkpt>
      <trkpt lat="47.3241" lon="-0.24279">
        <ele>60.7</ele>
        <time>2013-04-28T11:15:23Z</time>
      </trkpt>
      <trkpt lat="47.32413" lon="-0.24276">
        <ele>61.18</ele>
        <time>2013-04-28T11:15:26Z</time>
      </trkpt>
      <trkpt lat="47.32417" lon="-0.24272">
        <ele>63.1</ele>
        <time>2013-04-28T11:15:30Z</time>
      </trkpt>
      <trkpt lat="47.32423" lon="-0.24268">
        <ele>63.1</ele>
        <time>2013-04-28T11:15:35Z</time>
      </trkpt>
      <trkpt lat="47.32428" lon="-0.24262">
        <ele>64.07</ele>
        <time>2013-04-28T11:15:41Z</time>
      </trkpt>
      <trkpt lat="47.32429" lon="-0.24261">
        <ele>63.58</ele>
        <time>2013-04-28T11:15:42Z</time>
      </trkpt>
      <trkpt lat="47.32433" lon="-0.24258">
        <ele>65.03</ele>
        <time>2013-04-28T11:15:45Z</time>
      </trkpt>
      <trkpt lat="47.32441" lon="-0.2426">
        <ele>64.55</ele>
        <time>2013-04-28T11:15:51Z</time>
      </trkpt>
      <trkpt lat="47.32445" lon="-0.24268">
        <ele>63.58</ele>
        <time>2013-04-28T11:15:56Z</time>
      </trkpt>
      <trkpt lat="47.32446" lon="-0.24269">
        <ele>63.1</ele>
        <time>2013-04-28T11:16:10Z</time>
      </trkpt>
      <trkpt lat="47.32447" lon="-0.24281">
        <ele>62.62</ele>
        <time>2013-04-28T11:16:16Z</time>
      </trkpt>
      <trkpt lat="47.32447" lon="-0.24285">
        <ele>62.62</ele>
        <time>2013-04-28T11:16:18Z</time>
      </trkpt>
      <trkpt lat="47.32449" lon="-0.24291">
        <ele>65.03</ele>
        <time>2013-04-28T11:16:21Z</time>
      </trkpt>
      <trkpt lat="47.3245" lon="-0.24294">
        <ele>64.07</ele>
        <time>2013-04-28T11:16:22Z</time>
      </trkpt>
      <trkpt lat="47.32451" lon="-0.24295">
        <ele>63.58</ele>
        <time>2013-04-28T11:16:23Z</time>
      </trkpt>
      <trkpt lat="47.32452" lon="-0.24299">
        <ele>62.14</ele>
        <time>2013-04-28T11:16:25Z</time>
      </trkpt>
      <trkpt lat="47.32461" lon="-0.24314">
        <ele>58.78</ele>
        <time>2013-04-28T11:16:30Z</time>
      </trkpt>
      <trkpt lat="47.32471" lon="-0.24332">
        <ele>56.86</ele>
        <time>2013-04-28T11:16:34Z</time>
      </trkpt>
      <trkpt lat="47.32475" lon="-0.24352">
        <ele>59.74</ele>
        <time>2013-04-28T11:16:40Z</time>
      </trkpt>
      <trkpt lat="47.32474" lon="-0.2436">
        <ele>61.18</ele>
        <time>2013-04-28T11:16:42Z</time>
      </trkpt>
      <trkpt lat="47.32474" lon="-0.24366">
        <ele>59.26</ele>
        <time>2013-04-28T11:16:44Z</time>
      </trkpt>
      <trkpt lat="47.32474" lon="-0.24371">
        <ele>60.7</ele>
        <time>2013-04-28T11:16:46Z</time>
      </trkpt>
      <trkpt lat="47.32476" lon="-0.24383">
        <ele>61.66</ele>
        <time>2013-04-28T11:16:50Z</time>
      </trkpt>
      <trkpt lat="47.32477" lon="-0.24392">
        <ele>59.26</ele>
        <time>2013-04-28T11:16:52Z</time>
      </trkpt>
      <trkpt lat="47.3248" lon="-0.24401">
        <ele>57.82</ele>
        <time>2013-04-28T11:16:54Z</time>
      </trkpt>
      <trkpt lat="47.32491" lon="-0.24424">
        <ele>60.7</ele>
        <time>2013-04-28T11:16:59Z</time>
      </trkpt>
      <trkpt lat="47.32493" lon="-0.24428">
        <ele>59.74</ele>
        <time>2013-04-28T11:17:00Z</time>
      </trkpt>
      <trkpt lat="47.32505" lon="-0.24438">
        <ele>62.14</ele>
        <time>2013-04-28T11:17:06Z</time>
      </trkpt>
      <trkpt lat="47.32512" lon="-0.24445">
        <ele>59.74</ele>
        <time>2013-04-28T11:17:12Z</time>
      </trkpt>
      <trkpt lat="47.32514" lon="-0.2445">
        <ele>60.22</ele>
        <time>2013-04-28T11:17:15Z</time>
      </trkpt>
      <trkpt lat="47.32519" lon="-0.24452">
        <ele>63.1</ele>
        <time>2013-04-28T11:17:18Z</time>
      </trkpt>
      <trkpt lat="47.32521" lon="-0.24453">
        <ele>62.14</ele>
        <time>2013-04-28T11:17:19Z</time>
      </trkpt>
      <trkpt lat="47.32525" lon="-0.24456">
        <ele>61.66</ele>
        <time>2013-04-28T11:17:22Z</time>
      </trkpt>
      <trkpt lat="47.32531" lon="-0.24463">
        <ele>61.66</ele>
        <time>2013-04-28T11:17:28Z</time>
      </trkpt>
      <trkpt lat="47.32538" lon="-0.24467">
        <ele>63.1</ele>
        <time>2013-04-28T11:17:33Z</time>
      </trkpt>
      <trkpt lat="47.32543" lon="-0.2447">
        <ele>64.55</ele>
        <time>2013-04-28T11:17:36Z</time>
      </trkpt>
      <trkpt lat="47.32549" lon="-0.24478">
        <ele>60.7</ele>
        <time>2013-04-28T11:17:41Z</time>
      </trkpt>
      <trkpt lat="47.32556" lon="-0.24479">
        <ele>60.22</ele>
        <time>2013-04-28T11:17:46Z</time>
      </trkpt>
      <trkpt lat="47.32563" lon="-0.24485">
        <ele>61.18</ele>
        <time>2013-04-28T11:17:50Z</time>
      </trkpt>
      <trkpt lat="47.3257" lon="-0.24493">
        <ele>57.82</ele>
        <time>2013-04-28T11:17:53Z</time>
      </trkpt>
      <trkpt lat="47.32573" lon="-0.24495">
        <ele>59.26</ele>
        <time>2013-04-28T11:17:54Z</time>
      </trkpt>
      <trkpt lat="47.32576" lon="-0.24495">
        <ele>58.78</ele>
        <time>2013-04-28T11:17:55Z</time>
      </trkpt>
      <trkpt lat="47.32584" lon="-0.24494">
        <ele>59.26</ele>
        <time>2013-04-28T11:18:00Z</time>
      </trkpt>
      <trkpt lat="47.32588" lon="-0.24498">
        <ele>58.3</ele>
        <time>2013-04-28T11:18:02Z</time>
      </trkpt>
      <trkpt lat="47.32594" lon="-0.24504">
        <ele>57.34</ele>
        <time>2013-04-28T11:18:04Z</time>
      </trkpt>
      <trkpt lat="47.32598" lon="-0.24513">
        <ele>54.45</ele>
        <time>2013-04-28T11:18:07Z</time>
      </trkpt>
      <trkpt lat="47.32601" lon="-0.24519">
        <ele>52.05</ele>
        <time>2013-04-28T11:18:10Z</time>
      </trkpt>
      <trkpt lat="47.32605" lon="-0.24524">
        <ele>49.65</ele>
        <time>2013-04-28T11:18:12Z</time>
      </trkpt>
      <trkpt lat="47.32611" lon="-0.24535">
        <ele>45.8</ele>
        <time>2013-04-28T11:18:16Z</time>
      </trkpt>
      <trkpt lat="47.32612" lon="-0.2454">
        <ele>45.8</ele>
        <time>2013-04-28T11:18:17Z</time>
      </trkpt>
      <trkpt lat="47.3262" lon="-0.24543">
        <ele>44.36</ele>
        <time>2013-04-28T11:18:20Z</time>
      </trkpt>
      <trkpt lat="47.32625" lon="-0.24541">
        <ele>47.24</ele>
        <time>2013-04-28T11:18:22Z</time>
      </trkpt>
      <trkpt lat="47.32631" lon="-0.24537">
        <ele>45.32</ele>
        <time>2013-04-28T11:18:24Z</time>
      </trkpt>
      <trkpt lat="47.3264" lon="-0.24534">
        <ele>44.84</ele>
        <time>2013-04-28T11:18:27Z</time>
      </trkpt>
      <trkpt lat="47.32655" lon="-0.24529">
        <ele>45.32</ele>
        <time>2013-04-28T11:18:31Z</time>
      </trkpt>
      <trkpt lat="47.32663" lon="-0.24523">
        <ele>43.88</ele>
        <time>2013-04-28T11:18:34Z</time>
      </trkpt>
      <trkpt lat="47.32681" lon="-0.24509">
        <ele>46.28</ele>
        <time>2013-04-28T11:18:40Z</time>
      </trkpt>
      <trkpt lat="47.32691" lon="-0.24498">
        <ele>42.44</ele>
        <time>2013-04-28T11:18:44Z</time>
      </trkpt>
      <trkpt lat="47.32712" lon="-0.24473">
        <ele>44.36</ele>
        <time>2013-04-28T11:18:51Z</time>
      </trkpt>
      <trkpt lat="47.32727" lon="-0.24463">
        <ele>42.92</ele>
        <time>2013-04-28T11:18:55Z</time>
      </trkpt>
      <trkpt lat="47.3273" lon="-0.2446">
        <ele>42.92</ele>
        <time>2013-04-28T11:18:56Z</time>
      </trkpt>
      <trkpt lat="47.32734" lon="-0.24457">
        <ele>42.92</ele>
        <time>2013-04-28T11:18:57Z</time>
      </trkpt>
      <trkpt lat="47.32737" lon="-0.24455">
        <ele>43.88</ele>
        <time>2013-04-28T11:18:58Z</time>
      </trkpt>
      <trkpt lat="47.32739" lon="-0.24453">
        <ele>44.36</ele>
        <time>2013-04-28T11:18:59Z</time>
      </trkpt>
      <trkpt lat="47.32748" lon="-0.24445">
        <ele>45.32</ele>
        <time>2013-04-28T11:19:04Z</time>
      </trkpt>
      <trkpt lat="47.3275" lon="-0.24443">
        <ele>41.47</ele>
        <time>2013-04-28T11:19:05Z</time>
      </trkpt>
      <trkpt lat="47.32752" lon="-0.24442">
        <ele>43.88</ele>
        <time>2013-04-28T11:19:06Z</time>
      </trkpt>
      <trkpt lat="47.32754" lon="-0.24441">
        <ele>40.03</ele>
        <time>2013-04-28T11:19:10Z</time>
      </trkpt>
      <trkpt lat="47.32753" lon="-0.2444">
        <ele>42.44</ele>
        <time>2013-04-28T11:19:45Z</time>
      </trkpt>
      <trkpt lat="47.32755" lon="-0.24439">
        <ele>44.36</ele>
        <time>2013-04-28T11:19:57Z</time>
      </trkpt>
      <trkpt lat="47.32757" lon="-0.24437">
        <ele>41.95</ele>
        <time>2013-04-28T11:19:58Z</time>
      </trkpt>
      <trkpt lat="47.32775" lon="-0.24425">
        <ele>42.44</ele>
        <time>2013-04-28T11:20:03Z</time>
      </trkpt>
      <trkpt lat="47.32797" lon="-0.24408">
        <ele>41.47</ele>
        <time>2013-04-28T11:20:09Z</time>
      </trkpt>
      <trkpt lat="47.32819" lon="-0.24385">
        <ele>44.84</ele>
        <time>2013-04-28T11:20:16Z</time>
      </trkpt>
      <trkpt lat="47.3283" lon="-0.2437">
        <ele>44.36</ele>
        <time>2013-04-28T11:20:20Z</time>
      </trkpt>
      <trkpt lat="47.32833" lon="-0.24366">
        <ele>45.8</ele>
        <time>2013-04-28T11:20:21Z</time>
      </trkpt>
      <trkpt lat="47.32855" lon="-0.24343">
        <ele>42.92</ele>
        <time>2013-04-28T11:20:28Z</time>
      </trkpt>
      <trkpt lat="47.3288" lon="-0.24321">
        <ele>41.95</ele>
        <time>2013-04-28T11:20:35Z</time>
      </trkpt>
      <trkpt lat="47.32904" lon="-0.243">
        <ele>42.44</ele>
        <time>2013-04-28T11:20:41Z</time>
      </trkpt>
      <trkpt lat="47.32914" lon="-0.24291">
        <ele>43.4</ele>
        <time>2013-04-28T11:20:44Z</time>
      </trkpt>
      <trkpt lat="47.32919" lon="-0.24289">
        <ele>42.92</ele>
        <time>2013-04-28T11:20:45Z</time>
      </trkpt>
      <trkpt lat="47.3294" lon="-0.2429">
        <ele>42.92</ele>
        <time>2013-04-28T11:20:50Z</time>
      </trkpt>
      <trkpt lat="47.32952" lon="-0.24295">
        <ele>42.44</ele>
        <time>2013-04-28T11:20:53Z</time>
      </trkpt>
      <trkpt lat="47.32981" lon="-0.24295">
        <ele>42.92</ele>
        <time>2013-04-28T11:20:59Z</time>
      </trkpt>
      <trkpt lat="47.32986" lon="-0.24294">
        <ele>42.44</ele>
        <time>2013-04-28T11:21:00Z</time>
      </trkpt>
      <trkpt lat="47.33014" lon="-0.24295">
        <ele>40.51</ele>
        <time>2013-04-28T11:21:06Z</time>
      </trkpt>
      <trkpt lat="47.33019" lon="-0.24296">
        <ele>40.99</ele>
        <time>2013-04-28T11:21:07Z</time>
      </trkpt>
      <trkpt lat="47.33029" lon="-0.24302">
        <ele>40.99</ele>
        <time>2013-04-28T11:21:09Z</time>
      </trkpt>
      <trkpt lat="47.33061" lon="-0.24326">
        <ele>41.47</ele>
        <time>2013-04-28T11:21:16Z</time>
      </trkpt>
      <trkpt lat="47.33075" lon="-0.24336">
        <ele>40.03</ele>
        <time>2013-04-28T11:21:19Z</time>
      </trkpt>
      <trkpt lat="47.3308" lon="-0.2434">
        <ele>40.99</ele>
        <time>2013-04-28T11:21:20Z</time>
      </trkpt>
      <trkpt lat="47.33084" lon="-0.24344">
        <ele>40.51</ele>
        <time>2013-04-28T11:21:21Z</time>
      </trkpt>
      <trkpt lat="47.33089" lon="-0.24348">
        <ele>40.99</ele>
        <time>2013-04-28T11:21:22Z</time>
      </trkpt>
      <trkpt lat="47.33094" lon="-0.2435">
        <ele>42.44</ele>
        <time>2013-04-28T11:21:23Z</time>
      </trkpt>
      <trkpt lat="47.33098" lon="-0.24353">
        <ele>40.03</ele>
        <time>2013-04-28T11:21:24Z</time>
      </trkpt>
      <trkpt lat="47.33116" lon="-0.2436">
        <ele>41.47</ele>
        <time>2013-04-28T11:21:28Z</time>
      </trkpt>
      <trkpt lat="47.3312" lon="-0.24361">
        <ele>41.47</ele>
        <time>2013-04-28T11:21:29Z</time>
      </trkpt>
      <trkpt lat="47.33125" lon="-0.24363">
        <ele>42.92</ele>
        <time>2013-04-28T11:21:30Z</time>
      </trkpt>
      <trkpt lat="47.33133" lon="-0.24365">
        <ele>40.99</ele>
        <time>2013-04-28T11:21:32Z</time>
      </trkpt>
      <trkpt lat="47.33138" lon="-0.24368">
        <ele>40.99</ele>
        <time>2013-04-28T11:21:33Z</time>
      </trkpt>
      <trkpt lat="47.33146" lon="-0.24375">
        <ele>41.47</ele>
        <time>2013-04-28T11:21:35Z</time>
      </trkpt>
      <trkpt lat="47.33149" lon="-0.2438">
        <ele>42.44</ele>
        <time>2013-04-28T11:21:36Z</time>
      </trkpt>
      <trkpt lat="47.33158" lon="-0.24396">
        <ele>40.03</ele>
        <time>2013-04-28T11:21:39Z</time>
      </trkpt>
      <trkpt lat="47.33173" lon="-0.24419">
        <ele>37.63</ele>
        <time>2013-04-28T11:21:43Z</time>
      </trkpt>
      <trkpt lat="47.33177" lon="-0.24421">
        <ele>38.11</ele>
        <time>2013-04-28T11:21:44Z</time>
      </trkpt>
      <trkpt lat="47.3318" lon="-0.24421">
        <ele>39.55</ele>
        <time>2013-04-28T11:21:45Z</time>
      </trkpt>
      <trkpt lat="47.33183" lon="-0.2442">
        <ele>40.03</ele>
        <time>2013-04-28T11:21:46Z</time>
      </trkpt>
      <trkpt lat="47.33185" lon="-0.24419">
        <ele>39.55</ele>
        <time>2013-04-28T11:21:47Z</time>
      </trkpt>
      <trkpt lat="47.33187" lon="-0.24417">
        <ele>40.51</ele>
        <time>2013-04-28T11:21:48Z</time>
      </trkpt>
      <trkpt lat="47.332" lon="-0.24399">
        <ele>43.88</ele>
        <time>2013-04-28T11:21:56Z</time>
      </trkpt>
      <trkpt lat="47.33203" lon="-0.24389">
        <ele>47.24</ele>
        <time>2013-04-28T11:22:00Z</time>
      </trkpt>
      <trkpt lat="47.33204" lon="-0.24387">
        <ele>46.76</ele>
        <time>2013-04-28T11:22:01Z</time>
      </trkpt>
      <trkpt lat="47.33207" lon="-0.24384">
        <ele>43.88</ele>
        <time>2013-04-28T11:22:03Z</time>
      </trkpt>
      <trkpt lat="47.33217" lon="-0.2438">
        <ele>46.76</ele>
        <time>2013-04-28T11:22:08Z</time>
      </trkpt>
      <trkpt lat="47.33222" lon="-0.24381">
        <ele>48.2</ele>
        <time>2013-04-28T11:22:10Z</time>
      </trkpt>
      <trkpt lat="47.33243" lon="-0.24381">
        <ele>48.2</ele>
        <time>2013-04-28T11:22:17Z</time>
      </trkpt>
      <trkpt lat="47.33253" lon="-0.24376">
        <ele>51.57</ele>
        <time>2013-04-28T11:22:20Z</time>
      </trkpt>
      <trkpt lat="47.33256" lon="-0.24374">
        <ele>47.72</ele>
        <time>2013-04-28T11:22:21Z</time>
      </trkpt>
      <trkpt lat="47.33268" lon="-0.24362">
        <ele>49.16</ele>
        <time>2013-04-28T11:22:26Z</time>
      </trkpt>
      <trkpt lat="47.33269" lon="-0.24359">
        <ele>49.65</ele>
        <time>2013-04-28T11:22:27Z</time>
      </trkpt>
      <trkpt lat="47.3327" lon="-0.24356">
        <ele>49.65</ele>
        <time>2013-04-28T11:22:28Z</time>
      </trkpt>
      <trkpt lat="47.3327" lon="-0.24354">
        <ele>49.65</ele>
        <time>2013-04-28T11:22:29Z</time>
      </trkpt>
      <trkpt lat="47.33268" lon="-0.24351">
        <ele>48.68</ele>
        <time>2013-04-28T11:22:30Z</time>
      </trkpt>
      <trkpt lat="47.33268" lon="-0.24348">
        <ele>50.13</ele>
        <time>2013-04-28T11:22:31Z</time>
      </trkpt>
      <trkpt lat="47.33266" lon="-0.24345">
        <ele>50.13</ele>
        <time>2013-04-28T11:22:32Z</time>
      </trkpt>
      <trkpt lat="47.33265" lon="-0.24342">
        <ele>50.61</ele>
        <time>2013-04-28T11:22:33Z</time>
      </trkpt>
      <trkpt lat="47.33264" lon="-0.24339">
        <ele>50.13</ele>
        <time>2013-04-28T11:22:34Z</time>
      </trkpt>
      <trkpt lat="47.33262" lon="-0.24337">
        <ele>51.57</ele>
        <time>2013-04-28T11:22:35Z</time>
      </trkpt>
      <trkpt lat="47.33258" lon="-0.24327">
        <ele>52.53</ele>
        <time>2013-04-28T11:22:38Z</time>
      </trkpt>
      <trkpt lat="47.33245" lon="-0.24301">
        <ele>53.49</ele>
        <time>2013-04-28T11:22:47Z</time>
      </trkpt>
      <trkpt lat="47.33243" lon="-0.24298">
        <ele>53.49</ele>
        <time>2013-04-28T11:22:48Z</time>
      </trkpt>
      <trkpt lat="47.33228" lon="-0.24267">
        <ele>55.89</ele>
        <time>2013-04-28T11:22:58Z</time>
      </trkpt>
      <trkpt lat="47.33222" lon="-0.24256">
        <ele>54.93</ele>
        <time>2013-04-28T11:23:02Z</time>
      </trkpt>
      <trkpt lat="47.33219" lon="-0.24255">
        <ele>54.93</ele>
        <time>2013-04-28T11:23:03Z</time>
      </trkpt>
      <trkpt lat="47.33217" lon="-0.24254">
        <ele>53.97</ele>
        <time>2013-04-28T11:23:04Z</time>
      </trkpt>
      <trkpt lat="47.3321" lon="-0.24254">
        <ele>53.97</ele>
        <time>2013-04-28T11:23:06Z</time>
      </trkpt>
      <trkpt lat="47.33207" lon="-0.24252">
        <ele>54.45</ele>
        <time>2013-04-28T11:23:07Z</time>
      </trkpt>
      <trkpt lat="47.33186" lon="-0.24239">
        <ele>54.45</ele>
        <time>2013-04-28T11:23:13Z</time>
      </trkpt>
      <trkpt lat="47.33177" lon="-0.24234">
        <ele>54.93</ele>
        <time>2013-04-28T11:23:15Z</time>
      </trkpt>
      <trkpt lat="47.33169" lon="-0.24229">
        <ele>55.89</ele>
        <time>2013-04-28T11:23:17Z</time>
      </trkpt>
      <trkpt lat="47.33165" lon="-0.24227">
        <ele>55.41</ele>
        <time>2013-04-28T11:23:18Z</time>
      </trkpt>
      <trkpt lat="47.33162" lon="-0.24224">
        <ele>55.41</ele>
        <time>2013-04-28T11:23:19Z</time>
      </trkpt>
      <trkpt lat="47.33158" lon="-0.24223">
        <ele>54.93</ele>
        <time>2013-04-28T11:23:20Z</time>
      </trkpt>
      <trkpt lat="47.33154" lon="-0.24221">
        <ele>56.37</ele>
        <time>2013-04-28T11:23:21Z</time>
      </trkpt>
      <trkpt lat="47.33139" lon="-0.24213">
        <ele>56.86</ele>
        <time>2013-04-28T11:23:25Z</time>
      </trkpt>
      <trkpt lat="47.33135" lon="-0.24211">
        <ele>55.41</ele>
        <time>2013-04-28T11:23:26Z</time>
      </trkpt>
      <trkpt lat="47.33102" lon="-0.24192">
        <ele>55.89</ele>
        <time>2013-04-28T11:23:34Z</time>
      </trkpt>
      <trkpt lat="47.3308" lon="-0.24178">
        <ele>56.37</ele>
        <time>2013-04-28T11:23:39Z</time>
      </trkpt>
      <trkpt lat="47.33075" lon="-0.24175">
        <ele>57.82</ele>
        <time>2013-04-28T11:23:40Z</time>
      </trkpt>
      <trkpt lat="47.33067" lon="-0.24169">
        <ele>57.82</ele>
        <time>2013-04-28T11:23:42Z</time>
      </trkpt>
      <trkpt lat="47.33063" lon="-0.24167">
        <ele>57.34</ele>
        <time>2013-04-28T11:23:43Z</time>
      </trkpt>
      <trkpt lat="47.33059" lon="-0.24163">
        <ele>57.82</ele>
        <time>2013-04-28T11:23:44Z</time>
      </trkpt>
      <trkpt lat="47.33046" lon="-0.24154">
        <ele>57.34</ele>
        <time>2013-04-28T11:23:47Z</time>
      </trkpt>
      <trkpt lat="47.33042" lon="-0.24151">
        <ele>56.37</ele>
        <time>2013-04-28T11:23:48Z</time>
      </trkpt>
      <trkpt lat="47.33039" lon="-0.24148">
        <ele>57.82</ele>
        <time>2013-04-28T11:23:49Z</time>
      </trkpt>
      <trkpt lat="47.33035" lon="-0.24145">
        <ele>57.34</ele>
        <time>2013-04-28T11:23:50Z</time>
      </trkpt>
      <trkpt lat="47.33031" lon="-0.24142">
        <ele>58.78</ele>
        <time>2013-04-28T11:23:51Z</time>
      </trkpt>
      <trkpt lat="47.33028" lon="-0.24138">
        <ele>57.82</ele>
        <time>2013-04-28T11:23:52Z</time>
      </trkpt>
      <trkpt lat="47.33024" lon="-0.24135">
        <ele>59.26</ele>
        <time>2013-04-28T11:23:53Z</time>
      </trkpt>
      <trkpt lat="47.32995" lon="-0.24109">
        <ele>60.7</ele>
        <time>2013-04-28T11:24:01Z</time>
      </trkpt>
      <trkpt lat="47.32979" lon="-0.24095">
        <ele>60.7</ele>
        <time>2013-04-28T11:24:06Z</time>
      </trkpt>
      <trkpt lat="47.32953" lon="-0.24071">
        <ele>61.66</ele>
        <time>2013-04-28T11:24:14Z</time>
      </trkpt>
      <trkpt lat="47.32942" lon="-0.24059">
        <ele>61.66</ele>
        <time>2013-04-28T11:24:17Z</time>
      </trkpt>
      <trkpt lat="47.32911" lon="-0.24037">
        <ele>65.51</ele>
        <time>2013-04-28T11:24:25Z</time>
      </trkpt>
      <trkpt lat="47.32907" lon="-0.24035">
        <ele>62.14</ele>
        <time>2013-04-28T11:24:26Z</time>
      </trkpt>
      <trkpt lat="47.32886" lon="-0.24024">
        <ele>64.07</ele>
        <time>2013-04-28T11:24:33Z</time>
      </trkpt>
      <trkpt lat="47.32871" lon="-0.24017">
        <ele>65.03</ele>
        <time>2013-04-28T11:24:39Z</time>
      </trkpt>
      <trkpt lat="47.32856" lon="-0.24011">
        <ele>64.55</ele>
        <time>2013-04-28T11:24:45Z</time>
      </trkpt>
      <trkpt lat="47.32843" lon="-0.24003">
        <ele>66.95</ele>
        <time>2013-04-28T11:24:51Z</time>
      </trkpt>
      <trkpt lat="47.32828" lon="-0.23994">
        <ele>66.95</ele>
        <time>2013-04-28T11:24:57Z</time>
      </trkpt>
      <trkpt lat="47.32811" lon="-0.23982">
        <ele>67.91</ele>
        <time>2013-04-28T11:25:04Z</time>
      </trkpt>
      <trkpt lat="47.32803" lon="-0.23977">
        <ele>66.95</ele>
        <time>2013-04-28T11:25:08Z</time>
      </trkpt>
      <trkpt lat="47.32789" lon="-0.23968">
        <ele>72.24</ele>
        <time>2013-04-28T11:25:14Z</time>
      </trkpt>
      <trkpt lat="47.3277" lon="-0.2396">
        <ele>69.83</ele>
        <time>2013-04-28T11:25:21Z</time>
      </trkpt>
      <trkpt lat="47.3276" lon="-0.23953">
        <ele>72.24</ele>
        <time>2013-04-28T11:25:25Z</time>
      </trkpt>
      <trkpt lat="47.32758" lon="-0.23952">
        <ele>72.24</ele>
        <time>2013-04-28T11:25:26Z</time>
      </trkpt>
      <trkpt lat="47.32753" lon="-0.23953">
        <ele>70.79</ele>
        <time>2013-04-28T11:25:29Z</time>
      </trkpt>
      <trkpt lat="47.32751" lon="-0.23952">
        <ele>69.83</ele>
        <time>2013-04-28T11:25:30Z</time>
      </trkpt>
      <trkpt lat="47.3275" lon="-0.23952">
        <ele>71.27</ele>
        <time>2013-04-28T11:25:31Z</time>
      </trkpt>
      <trkpt lat="47.32747" lon="-0.23951">
        <ele>69.83</ele>
        <time>2013-04-28T11:25:32Z</time>
      </trkpt>
      <trkpt lat="47.32746" lon="-0.23948">
        <ele>69.35</ele>
        <time>2013-04-28T11:25:33Z</time>
      </trkpt>
      <trkpt lat="47.32744" lon="-0.23945">
        <ele>71.27</ele>
        <time>2013-04-28T11:25:34Z</time>
      </trkpt>
      <trkpt lat="47.32731" lon="-0.23926">
        <ele>68.87</ele>
        <time>2013-04-28T11:25:40Z</time>
      </trkpt>
      <trkpt lat="47.32712" lon="-0.23905">
        <ele>70.31</ele>
        <time>2013-04-28T11:25:48Z</time>
      </trkpt>
      <trkpt lat="47.32702" lon="-0.23893">
        <ele>73.68</ele>
        <time>2013-04-28T11:25:53Z</time>
      </trkpt>
      <trkpt lat="47.32696" lon="-0.23886">
        <ele>68.87</ele>
        <time>2013-04-28T11:25:57Z</time>
      </trkpt>
      <trkpt lat="47.3269" lon="-0.23877">
        <ele>73.68</ele>
        <time>2013-04-28T11:26:00Z</time>
      </trkpt>
      <trkpt lat="47.32687" lon="-0.23868">
        <ele>69.35</ele>
        <time>2013-04-28T11:26:02Z</time>
      </trkpt>
      <trkpt lat="47.32685" lon="-0.23863">
        <ele>73.2</ele>
        <time>2013-04-28T11:26:03Z</time>
      </trkpt>
      <trkpt lat="47.32679" lon="-0.23854">
        <ele>74.64</ele>
        <time>2013-04-28T11:26:06Z</time>
      </trkpt>
      <trkpt lat="47.32677" lon="-0.23852">
        <ele>68.87</ele>
        <time>2013-04-28T11:26:07Z</time>
      </trkpt>
      <trkpt lat="47.32675" lon="-0.2385">
        <ele>70.79</ele>
        <time>2013-04-28T11:26:08Z</time>
      </trkpt>
      <trkpt lat="47.32673" lon="-0.23848">
        <ele>73.2</ele>
        <time>2013-04-28T11:26:09Z</time>
      </trkpt>
      <trkpt lat="47.32671" lon="-0.23845">
        <ele>72.24</ele>
        <time>2013-04-28T11:26:10Z</time>
      </trkpt>
      <trkpt lat="47.32661" lon="-0.23828">
        <ele>71.27</ele>
        <time>2013-04-28T11:26:17Z</time>
      </trkpt>
      <trkpt lat="47.32658" lon="-0.23823">
        <ele>71.76</ele>
        <time>2013-04-28T11:26:20Z</time>
      </trkpt>
      <trkpt lat="47.32656" lon="-0.23821">
        <ele>72.72</ele>
        <time>2013-04-28T11:26:21Z</time>
      </trkpt>
      <trkpt lat="47.32655" lon="-0.2382">
        <ele>69.35</ele>
        <time>2013-04-28T11:26:22Z</time>
      </trkpt>
      <trkpt lat="47.32651" lon="-0.23817">
        <ele>70.79</ele>
        <time>2013-04-28T11:26:24Z</time>
      </trkpt>
      <trkpt lat="47.32649" lon="-0.23815">
        <ele>71.76</ele>
        <time>2013-04-28T11:26:25Z</time>
      </trkpt>
      <trkpt lat="47.32647" lon="-0.23813">
        <ele>73.2</ele>
        <time>2013-04-28T11:26:26Z</time>
      </trkpt>
      <trkpt lat="47.32645" lon="-0.23811">
        <ele>72.24</ele>
        <time>2013-04-28T11:26:27Z</time>
      </trkpt>
      <trkpt lat="47.32644" lon="-0.23808">
        <ele>72.72</ele>
        <time>2013-04-28T11:26:28Z</time>
      </trkpt>
      <trkpt lat="47.32643" lon="-0.23804">
        <ele>71.76</ele>
        <time>2013-04-28T11:26:29Z</time>
      </trkpt>
      <trkpt lat="47.32642" lon="-0.238">
        <ele>71.27</ele>
        <time>2013-04-28T11:26:30Z</time>
      </trkpt>
      <trkpt lat="47.32641" lon="-0.23797">
        <ele>70.31</ele>
        <time>2013-04-28T11:26:31Z</time>
      </trkpt>
      <trkpt lat="47.32639" lon="-0.23795">
        <ele>73.2</ele>
        <time>2013-04-28T11:26:32Z</time>
      </trkpt>
      <trkpt lat="47.32638" lon="-0.23793">
        <ele>72.24</ele>
        <time>2013-04-28T11:26:33Z</time>
      </trkpt>
      <trkpt lat="47.3263" lon="-0.23788">
        <ele>71.76</ele>
        <time>2013-04-28T11:26:37Z</time>
      </trkpt>
      <trkpt lat="47.32629" lon="-0.23786">
        <ele>71.76</ele>
        <time>2013-04-28T11:26:38Z</time>
      </trkpt>
      <trkpt lat="47.32608" lon="-0.23762">
        <ele>72.24</ele>
        <time>2013-04-28T11:26:46Z</time>
      </trkpt>
      <trkpt lat="47.32601" lon="-0.23751">
        <ele>71.27</ele>
        <time>2013-04-28T11:26:49Z</time>
      </trkpt>
      <trkpt lat="47.32608" lon="-0.23739">
        <ele>71.76</ele>
        <time>2013-04-28T11:26:53Z</time>
      </trkpt>
      <trkpt lat="47.32624" lon="-0.23724">
        <ele>71.76</ele>
        <time>2013-04-28T11:26:58Z</time>
      </trkpt>
      <trkpt lat="47.32637" lon="-0.23714">
        <ele>71.27</ele>
        <time>2013-04-28T11:27:02Z</time>
      </trkpt>
      <trkpt lat="47.32674" lon="-0.23684">
        <ele>72.24</ele>
        <time>2013-04-28T11:27:12Z</time>
      </trkpt>
      <trkpt lat="47.32684" lon="-0.23674">
        <ele>71.76</ele>
        <time>2013-04-28T11:27:15Z</time>
      </trkpt>
      <trkpt lat="47.32699" lon="-0.23665">
        <ele>70.79</ele>
        <time>2013-04-28T11:27:19Z</time>
      </trkpt>
      <trkpt lat="47.32704" lon="-0.23658">
        <ele>71.76</ele>
        <time>2013-04-28T11:27:21Z</time>
      </trkpt>
      <trkpt lat="47.3271" lon="-0.23642">
        <ele>71.27</ele>
        <time>2013-04-28T11:27:27Z</time>
      </trkpt>
      <trkpt lat="47.32736" lon="-0.2362">
        <ele>70.79</ele>
        <time>2013-04-28T11:27:35Z</time>
      </trkpt>
      <trkpt lat="47.32737" lon="-0.23611">
        <ele>71.76</ele>
        <time>2013-04-28T11:27:37Z</time>
      </trkpt>
      <trkpt lat="47.32726" lon="-0.23568">
        <ele>70.79</ele>
        <time>2013-04-28T11:27:46Z</time>
      </trkpt>
      <trkpt lat="47.32716" lon="-0.2353">
        <ele>70.79</ele>
        <time>2013-04-28T11:27:54Z</time>
      </trkpt>
      <trkpt lat="47.3271" lon="-0.23503">
        <ele>71.76</ele>
        <time>2013-04-28T11:28:00Z</time>
      </trkpt>
      <trkpt lat="47.32705" lon="-0.23474">
        <ele>70.79</ele>
        <time>2013-04-28T11:28:06Z</time>
      </trkpt>
      <trkpt lat="47.327" lon="-0.23444">
        <ele>71.27</ele>
        <time>2013-04-28T11:28:12Z</time>
      </trkpt>
      <trkpt lat="47.32701" lon="-0.23421">
        <ele>71.76</ele>
        <time>2013-04-28T11:28:17Z</time>
      </trkpt>
      <trkpt lat="47.32703" lon="-0.23388">
        <ele>71.27</ele>
        <time>2013-04-28T11:28:24Z</time>
      </trkpt>
      <trkpt lat="47.327" lon="-0.23357">
        <ele>70.79</ele>
        <time>2013-04-28T11:28:30Z</time>
      </trkpt>
      <trkpt lat="47.32703" lon="-0.2333">
        <ele>73.68</ele>
        <time>2013-04-28T11:28:36Z</time>
      </trkpt>
      <trkpt lat="47.32724" lon="-0.23301">
        <ele>73.2</ele>
        <time>2013-04-28T11:28:44Z</time>
      </trkpt>
      <trkpt lat="47.32734" lon="-0.23292">
        <ele>72.72</ele>
        <time>2013-04-28T11:28:47Z</time>
      </trkpt>
      <trkpt lat="47.32749" lon="-0.2328">
        <ele>72.24</ele>
        <time>2013-04-28T11:28:51Z</time>
      </trkpt>
      <trkpt lat="47.32764" lon="-0.23265">
        <ele>69.83</ele>
        <time>2013-04-28T11:28:55Z</time>
      </trkpt>
      <trkpt lat="47.32772" lon="-0.23243">
        <ele>69.83</ele>
        <time>2013-04-28T11:28:59Z</time>
      </trkpt>
      <trkpt lat="47.3277" lon="-0.23231">
        <ele>70.31</ele>
        <time>2013-04-28T11:29:01Z</time>
      </trkpt>
      <trkpt lat="47.32776" lon="-0.23213">
        <ele>69.35</ele>
        <time>2013-04-28T11:29:05Z</time>
      </trkpt>
      <trkpt lat="47.32786" lon="-0.23208">
        <ele>71.76</ele>
        <time>2013-04-28T11:29:08Z</time>
      </trkpt>
      <trkpt lat="47.3279" lon="-0.23206">
        <ele>71.27</ele>
        <time>2013-04-28T11:29:09Z</time>
      </trkpt>
      <trkpt lat="47.32809" lon="-0.23194">
        <ele>70.31</ele>
        <time>2013-04-28T11:29:14Z</time>
      </trkpt>
      <trkpt lat="47.32814" lon="-0.23186">
        <ele>65.03</ele>
        <time>2013-04-28T11:29:16Z</time>
      </trkpt>
      <trkpt lat="47.32814" lon="-0.23182">
        <ele>67.91</ele>
        <time>2013-04-28T11:29:17Z</time>
      </trkpt>
      <trkpt lat="47.32812" lon="-0.23179">
        <ele>69.35</ele>
        <time>2013-04-28T11:29:18Z</time>
      </trkpt>
      <trkpt lat="47.32805" lon="-0.23168">
        <ele>68.87</ele>
        <time>2013-04-28T11:29:23Z</time>
      </trkpt>
      <trkpt lat="47.32799" lon="-0.23147">
        <ele>66.95</ele>
        <time>2013-04-28T11:29:28Z</time>
      </trkpt>
      <trkpt lat="47.32801" lon="-0.23121">
        <ele>67.43</ele>
        <time>2013-04-28T11:29:33Z</time>
      </trkpt>
      <trkpt lat="47.32791" lon="-0.23105">
        <ele>66.95</ele>
        <time>2013-04-28T11:29:37Z</time>
      </trkpt>
      <trkpt lat="47.32787" lon="-0.23097">
        <ele>65.99</ele>
        <time>2013-04-28T11:29:39Z</time>
      </trkpt>
      <trkpt lat="47.32782" lon="-0.23085">
        <ele>65.03</ele>
        <time>2013-04-28T11:29:42Z</time>
      </trkpt>
      <trkpt lat="47.32778" lon="-0.23059">
        <ele>63.58</ele>
        <time>2013-04-28T11:29:47Z</time>
      </trkpt>
      <trkpt lat="47.32776" lon="-0.23054">
        <ele>63.1</ele>
        <time>2013-04-28T11:29:48Z</time>
      </trkpt>
      <trkpt lat="47.3277" lon="-0.23048">
        <ele>61.66</ele>
        <time>2013-04-28T11:29:50Z</time>
      </trkpt>
      <trkpt lat="47.32765" lon="-0.23042">
        <ele>63.1</ele>
        <time>2013-04-28T11:29:52Z</time>
      </trkpt>
      <trkpt lat="47.32762" lon="-0.23027">
        <ele>60.7</ele>
        <time>2013-04-28T11:29:55Z</time>
      </trkpt>
      <trkpt lat="47.32756" lon="-0.23008">
        <ele>60.7</ele>
        <time>2013-04-28T11:30:00Z</time>
      </trkpt>
      <trkpt lat="47.32755" lon="-0.23002">
        <ele>59.26</ele>
        <time>2013-04-28T11:30:06Z</time>
      </trkpt>
      <trkpt lat="47.32751" lon="-0.22989">
        <ele>59.74</ele>
        <time>2013-04-28T11:30:15Z</time>
      </trkpt>
      <trkpt lat="47.32751" lon="-0.22986">
        <ele>59.74</ele>
        <time>2013-04-28T11:31:02Z</time>
      </trkpt>
      <trkpt lat="47.32753" lon="-0.22966">
        <ele>59.26</ele>
        <time>2013-04-28T11:31:10Z</time>
      </trkpt>
      <trkpt lat="47.32762" lon="-0.22953">
        <ele>59.74</ele>
        <time>2013-04-28T11:31:15Z</time>
      </trkpt>
      <trkpt lat="47.32767" lon="-0.22951">
        <ele>58.78</ele>
        <time>2013-04-28T11:31:17Z</time>
      </trkpt>
      <trkpt lat="47.32781" lon="-0.22966">
        <ele>60.22</ele>
        <time>2013-04-28T11:31:23Z</time>
      </trkpt>
      <trkpt lat="47.32782" lon="-0.22969">
        <ele>60.7</ele>
        <time>2013-04-28T11:31:24Z</time>
      </trkpt>
      <trkpt lat="47.32785" lon="-0.22971">
        <ele>60.22</ele>
        <time>2013-04-28T11:31:25Z</time>
      </trkpt>
      <trkpt lat="47.32798" lon="-0.22958">
        <ele>59.74</ele>
        <time>2013-04-28T11:31:30Z</time>
      </trkpt>
      <trkpt lat="47.32797" lon="-0.22938">
        <ele>59.26</ele>
        <time>2013-04-28T11:31:34Z</time>
      </trkpt>
      <trkpt lat="47.32799" lon="-0.22933">
        <ele>59.26</ele>
        <time>2013-04-28T11:31:35Z</time>
      </trkpt>
      <trkpt lat="47.32806" lon="-0.22919">
        <ele>59.26</ele>
        <time>2013-04-28T11:31:38Z</time>
      </trkpt>
      <trkpt lat="47.32821" lon="-0.22881">
        <ele>58.3</ele>
        <time>2013-04-28T11:31:45Z</time>
      </trkpt>
      <trkpt lat="47.32824" lon="-0.22873">
        <ele>61.18</ele>
        <time>2013-04-28T11:31:47Z</time>
      </trkpt>
      <trkpt lat="47.32836" lon="-0.22831">
        <ele>59.26</ele>
        <time>2013-04-28T11:31:55Z</time>
      </trkpt>
      <trkpt lat="47.32836" lon="-0.22816">
        <ele>58.3</ele>
        <time>2013-04-28T11:31:58Z</time>
      </trkpt>
      <trkpt lat="47.32825" lon="-0.22812">
        <ele>59.26</ele>
        <time>2013-04-28T11:32:02Z</time>
      </trkpt>
      <trkpt lat="47.32824" lon="-0.22824">
        <ele>59.26</ele>
        <time>2013-04-28T11:32:05Z</time>
      </trkpt>
      <trkpt lat="47.32824" lon="-0.22837">
        <ele>60.7</ele>
        <time>2013-04-28T11:32:09Z</time>
      </trkpt>
      <trkpt lat="47.32823" lon="-0.22845">
        <ele>61.18</ele>
        <time>2013-04-28T11:32:12Z</time>
      </trkpt>
      <trkpt lat="47.32815" lon="-0.22851">
        <ele>61.18</ele>
        <time>2013-04-28T11:32:17Z</time>
      </trkpt>
      <trkpt lat="47.32793" lon="-0.22864">
        <ele>58.3</ele>
        <time>2013-04-28T11:32:21Z</time>
      </trkpt>
      <trkpt lat="47.3278" lon="-0.22872">
        <ele>59.74</ele>
        <time>2013-04-28T11:32:24Z</time>
      </trkpt>
      <trkpt lat="47.32776" lon="-0.22875">
        <ele>58.78</ele>
        <time>2013-04-28T11:32:25Z</time>
      </trkpt>
      <trkpt lat="47.32765" lon="-0.22883">
        <ele>58.3</ele>
        <time>2013-04-28T11:32:29Z</time>
      </trkpt>
      <trkpt lat="47.32753" lon="-0.2287">
        <ele>57.34</ele>
        <time>2013-04-28T11:32:35Z</time>
      </trkpt>
      <trkpt lat="47.32747" lon="-0.22854">
        <ele>56.86</ele>
        <time>2013-04-28T11:32:39Z</time>
      </trkpt>
      <trkpt lat="47.32744" lon="-0.22847">
        <ele>58.3</ele>
        <time>2013-04-28T11:32:41Z</time>
      </trkpt>
      <trkpt lat="47.32741" lon="-0.22838">
        <ele>56.37</ele>
        <time>2013-04-28T11:32:43Z</time>
      </trkpt>
      <trkpt lat="47.32731" lon="-0.2281">
        <ele>56.86</ele>
        <time>2013-04-28T11:32:50Z</time>
      </trkpt>
      <trkpt lat="47.32725" lon="-0.22797">
        <ele>56.37</ele>
        <time>2013-04-28T11:32:54Z</time>
      </trkpt>
      <trkpt lat="47.32698" lon="-0.22807">
        <ele>55.89</ele>
        <time>2013-04-28T11:33:03Z</time>
      </trkpt>
      <trkpt lat="47.32692" lon="-0.22809">
        <ele>56.37</ele>
        <time>2013-04-28T11:33:05Z</time>
      </trkpt>
      <trkpt lat="47.32674" lon="-0.2282">
        <ele>54.93</ele>
        <time>2013-04-28T11:33:10Z</time>
      </trkpt>
      <trkpt lat="47.32656" lon="-0.22833">
        <ele>56.37</ele>
        <time>2013-04-28T11:33:14Z</time>
      </trkpt>
      <trkpt lat="47.32651" lon="-0.22835">
        <ele>56.37</ele>
        <time>2013-04-28T11:33:15Z</time>
      </trkpt>
      <trkpt lat="47.32646" lon="-0.22836">
        <ele>55.41</ele>
        <time>2013-04-28T11:33:16Z</time>
      </trkpt>
      <trkpt lat="47.32615" lon="-0.22853">
        <ele>54.93</ele>
        <time>2013-04-28T11:33:22Z</time>
      </trkpt>
      <trkpt lat="47.32582" lon="-0.22871">
        <ele>56.86</ele>
        <time>2013-04-28T11:33:28Z</time>
      </trkpt>
      <trkpt lat="47.32577" lon="-0.22874">
        <ele>55.41</ele>
        <time>2013-04-28T11:33:29Z</time>
      </trkpt>
      <trkpt lat="47.32572" lon="-0.22878">
        <ele>55.89</ele>
        <time>2013-04-28T11:33:30Z</time>
      </trkpt>
      <trkpt lat="47.32567" lon="-0.22882">
        <ele>56.37</ele>
        <time>2013-04-28T11:33:31Z</time>
      </trkpt>
      <trkpt lat="47.32562" lon="-0.22885">
        <ele>58.3</ele>
        <time>2013-04-28T11:33:32Z</time>
      </trkpt>
      <trkpt lat="47.32557" lon="-0.22888">
        <ele>57.82</ele>
        <time>2013-04-28T11:33:33Z</time>
      </trkpt>
      <trkpt lat="47.32552" lon="-0.22891">
        <ele>58.3</ele>
        <time>2013-04-28T11:33:34Z</time>
      </trkpt>
      <trkpt lat="47.32547" lon="-0.22894">
        <ele>58.3</ele>
        <time>2013-04-28T11:33:35Z</time>
      </trkpt>
      <trkpt lat="47.32542" lon="-0.22897">
        <ele>58.3</ele>
        <time>2013-04-28T11:33:36Z</time>
      </trkpt>
      <trkpt lat="47.32514" lon="-0.2291">
        <ele>56.86</ele>
        <time>2013-04-28T11:33:41Z</time>
      </trkpt>
      <trkpt lat="47.32509" lon="-0.22913">
        <ele>57.82</ele>
        <time>2013-04-28T11:33:42Z</time>
      </trkpt>
      <trkpt lat="47.32497" lon="-0.22917">
        <ele>56.37</ele>
        <time>2013-04-28T11:33:44Z</time>
      </trkpt>
      <trkpt lat="47.32458" lon="-0.22929">
        <ele>57.82</ele>
        <time>2013-04-28T11:33:51Z</time>
      </trkpt>
      <trkpt lat="47.32429" lon="-0.22935">
        <ele>59.74</ele>
        <time>2013-04-28T11:33:56Z</time>
      </trkpt>
      <trkpt lat="47.32424" lon="-0.22936">
        <ele>59.26</ele>
        <time>2013-04-28T11:33:57Z</time>
      </trkpt>
      <trkpt lat="47.32408" lon="-0.22938">
        <ele>58.78</ele>
        <time>2013-04-28T11:34:00Z</time>
      </trkpt>
      <trkpt lat="47.32404" lon="-0.22937">
        <ele>58.78</ele>
        <time>2013-04-28T11:34:01Z</time>
      </trkpt>
      <trkpt lat="47.324" lon="-0.22934">
        <ele>57.34</ele>
        <time>2013-04-28T11:34:02Z</time>
      </trkpt>
      <trkpt lat="47.32396" lon="-0.22931">
        <ele>60.7</ele>
        <time>2013-04-28T11:34:03Z</time>
      </trkpt>
      <trkpt lat="47.32394" lon="-0.22928">
        <ele>60.7</ele>
        <time>2013-04-28T11:34:04Z</time>
      </trkpt>
      <trkpt lat="47.32392" lon="-0.22924">
        <ele>58.78</ele>
        <time>2013-04-28T11:34:05Z</time>
      </trkpt>
      <trkpt lat="47.32391" lon="-0.22921">
        <ele>58.3</ele>
        <time>2013-04-28T11:34:06Z</time>
      </trkpt>
      <trkpt lat="47.3239" lon="-0.22918">
        <ele>60.22</ele>
        <time>2013-04-28T11:34:07Z</time>
      </trkpt>
      <trkpt lat="47.32391" lon="-0.22914">
        <ele>58.78</ele>
        <time>2013-04-28T11:34:08Z</time>
      </trkpt>
      <trkpt lat="47.32385" lon="-0.22889">
        <ele>61.18</ele>
        <time>2013-04-28T11:34:14Z</time>
      </trkpt>
      <trkpt lat="47.3238" lon="-0.22847">
        <ele>60.7</ele>
        <time>2013-04-28T11:34:22Z</time>
      </trkpt>
      <trkpt lat="47.32374" lon="-0.22833">
        <ele>56.86</ele>
        <time>2013-04-28T11:34:26Z</time>
      </trkpt>
      <trkpt lat="47.32372" lon="-0.2283">
        <ele>60.7</ele>
        <time>2013-04-28T11:34:27Z</time>
      </trkpt>
      <trkpt lat="47.32366" lon="-0.22817">
        <ele>59.26</ele>
        <time>2013-04-28T11:34:30Z</time>
      </trkpt>
      <trkpt lat="47.32349" lon="-0.22812">
        <ele>59.26</ele>
        <time>2013-04-28T11:34:35Z</time>
      </trkpt>
      <trkpt lat="47.32342" lon="-0.22811">
        <ele>57.34</ele>
        <time>2013-04-28T11:34:37Z</time>
      </trkpt>
      <trkpt lat="47.32326" lon="-0.2281">
        <ele>56.86</ele>
        <time>2013-04-28T11:34:43Z</time>
      </trkpt>
      <trkpt lat="47.32319" lon="-0.22816">
        <ele>56.86</ele>
        <time>2013-04-28T11:34:46Z</time>
      </trkpt>
      <trkpt lat="47.32315" lon="-0.22818">
        <ele>57.34</ele>
        <time>2013-04-28T11:34:48Z</time>
      </trkpt>
      <trkpt lat="47.32292" lon="-0.2282">
        <ele>56.86</ele>
        <time>2013-04-28T11:34:55Z</time>
      </trkpt>
      <trkpt lat="47.32282" lon="-0.22828">
        <ele>56.37</ele>
        <time>2013-04-28T11:34:59Z</time>
      </trkpt>
      <trkpt lat="47.32269" lon="-0.2283">
        <ele>56.86</ele>
        <time>2013-04-28T11:35:03Z</time>
      </trkpt>
      <trkpt lat="47.32259" lon="-0.22832">
        <ele>56.37</ele>
        <time>2013-04-28T11:35:06Z</time>
      </trkpt>
      <trkpt lat="47.32239" lon="-0.22828">
        <ele>56.86</ele>
        <time>2013-04-28T11:35:12Z</time>
      </trkpt>
      <trkpt lat="47.32233" lon="-0.22825">
        <ele>55.41</ele>
        <time>2013-04-28T11:35:14Z</time>
      </trkpt>
      <trkpt lat="47.32213" lon="-0.22818">
        <ele>56.37</ele>
        <time>2013-04-28T11:35:20Z</time>
      </trkpt>
      <trkpt lat="47.32195" lon="-0.22828">
        <ele>56.37</ele>
        <time>2013-04-28T11:35:26Z</time>
      </trkpt>
      <trkpt lat="47.32189" lon="-0.2284">
        <ele>56.86</ele>
        <time>2013-04-28T11:35:30Z</time>
      </trkpt>
      <trkpt lat="47.32168" lon="-0.22854">
        <ele>55.89</ele>
        <time>2013-04-28T11:35:37Z</time>
      </trkpt>
      <trkpt lat="47.32149" lon="-0.2286">
        <ele>56.86</ele>
        <time>2013-04-28T11:35:42Z</time>
      </trkpt>
      <trkpt lat="47.32132" lon="-0.22866">
        <ele>56.86</ele>
        <time>2013-04-28T11:35:46Z</time>
      </trkpt>
      <trkpt lat="47.32128" lon="-0.22868">
        <ele>57.34</ele>
        <time>2013-04-28T11:35:47Z</time>
      </trkpt>
      <trkpt lat="47.32124" lon="-0.22868">
        <ele>56.37</ele>
        <time>2013-04-28T11:35:48Z</time>
      </trkpt>
      <trkpt lat="47.3212" lon="-0.22867">
        <ele>56.86</ele>
        <time>2013-04-28T11:35:49Z</time>
      </trkpt>
      <trkpt lat="47.32117" lon="-0.22863">
        <ele>56.86</ele>
        <time>2013-04-28T11:35:50Z</time>
      </trkpt>
      <trkpt lat="47.32116" lon="-0.2286">
        <ele>56.37</ele>
        <time>2013-04-28T11:35:51Z</time>
      </trkpt>
      <trkpt lat="47.32116" lon="-0.22839">
        <ele>57.82</ele>
        <time>2013-04-28T11:35:55Z</time>
      </trkpt>
      <trkpt lat="47.32122" lon="-0.22812">
        <ele>57.34</ele>
        <time>2013-04-28T11:36:01Z</time>
      </trkpt>
      <trkpt lat="47.3212" lon="-0.2281">
        <ele>56.86</ele>
        <time>2013-04-28T11:36:02Z</time>
      </trkpt>
      <trkpt lat="47.32118" lon="-0.22809">
        <ele>57.82</ele>
        <time>2013-04-28T11:36:03Z</time>
      </trkpt>
      <trkpt lat="47.32108" lon="-0.22811">
        <ele>59.26</ele>
        <time>2013-04-28T11:36:09Z</time>
      </trkpt>
      <trkpt lat="47.32094" lon="-0.2281">
        <ele>61.18</ele>
        <time>2013-04-28T11:36:15Z</time>
      </trkpt>
      <trkpt lat="47.32083" lon="-0.22804">
        <ele>61.66</ele>
        <time>2013-04-28T11:36:21Z</time>
      </trkpt>
      <trkpt lat="47.32075" lon="-0.228">
        <ele>63.1</ele>
        <time>2013-04-28T11:36:25Z</time>
      </trkpt>
      <trkpt lat="47.32074" lon="-0.22799">
        <ele>63.1</ele>
        <time>2013-04-28T11:36:26Z</time>
      </trkpt>
      <trkpt lat="47.32073" lon="-0.22793">
        <ele>63.58</ele>
        <time>2013-04-28T11:36:30Z</time>
      </trkpt>
      <trkpt lat="47.32073" lon="-0.2279">
        <ele>64.55</ele>
        <time>2013-04-28T11:36:31Z</time>
      </trkpt>
      <trkpt lat="47.32073" lon="-0.22787">
        <ele>64.07</ele>
        <time>2013-04-28T11:36:32Z</time>
      </trkpt>
      <trkpt lat="47.32073" lon="-0.22785">
        <ele>64.55</ele>
        <time>2013-04-28T11:36:33Z</time>
      </trkpt>
      <trkpt lat="47.32071" lon="-0.22783">
        <ele>64.07</ele>
        <time>2013-04-28T11:36:34Z</time>
      </trkpt>
      <trkpt lat="47.32071" lon="-0.22781">
        <ele>64.07</ele>
        <time>2013-04-28T11:36:35Z</time>
      </trkpt>
      <trkpt lat="47.3207" lon="-0.22779">
        <ele>64.55</ele>
        <time>2013-04-28T11:36:36Z</time>
      </trkpt>
      <trkpt lat="47.3207" lon="-0.22778">
        <ele>65.03</ele>
        <time>2013-04-28T11:36:37Z</time>
      </trkpt>
      <trkpt lat="47.32071" lon="-0.22776">
        <ele>65.03</ele>
        <time>2013-04-28T11:36:38Z</time>
      </trkpt>
      <trkpt lat="47.32071" lon="-0.22774">
        <ele>64.55</ele>
        <time>2013-04-28T11:36:39Z</time>
      </trkpt>
      <trkpt lat="47.32072" lon="-0.22772">
        <ele>64.55</ele>
        <time>2013-04-28T11:36:40Z</time>
      </trkpt>
      <trkpt lat="47.32072" lon="-0.22769">
        <ele>65.03</ele>
        <time>2013-04-28T11:36:41Z</time>
      </trkpt>
      <trkpt lat="47.32072" lon="-0.22765">
        <ele>65.03</ele>
        <time>2013-04-28T11:36:42Z</time>
      </trkpt>
      <trkpt lat="47.32072" lon="-0.22764">
        <ele>65.51</ele>
        <time>2013-04-28T11:36:43Z</time>
      </trkpt>
      <trkpt lat="47.32072" lon="-0.22762">
        <ele>65.03</ele>
        <time>2013-04-28T11:36:44Z</time>
      </trkpt>
      <trkpt lat="47.32072" lon="-0.22759">
        <ele>65.51</ele>
        <time>2013-04-28T11:36:45Z</time>
      </trkpt>
      <trkpt lat="47.32071" lon="-0.22736">
        <ele>66.47</ele>
        <time>2013-04-28T11:36:52Z</time>
      </trkpt>
      <trkpt lat="47.32072" lon="-0.22733">
        <ele>66.47</ele>
        <time>2013-04-28T11:36:53Z</time>
      </trkpt>
      <trkpt lat="47.32071" lon="-0.22727">
        <ele>65.99</ele>
        <time>2013-04-28T11:36:55Z</time>
      </trkpt>
      <trkpt lat="47.3207" lon="-0.22724">
        <ele>66.47</ele>
        <time>2013-04-28T11:36:56Z</time>
      </trkpt>
      <trkpt lat="47.3207" lon="-0.22721">
        <ele>66.47</ele>
        <time>2013-04-28T11:36:57Z</time>
      </trkpt>
      <trkpt lat="47.32069" lon="-0.22718">
        <ele>66.95</ele>
        <time>2013-04-28T11:36:58Z</time>
      </trkpt>
      <trkpt lat="47.32068" lon="-0.22714">
        <ele>66.95</ele>
        <time>2013-04-28T11:36:59Z</time>
      </trkpt>
      <trkpt lat="47.32067" lon="-0.22711">
        <ele>66.95</ele>
        <time>2013-04-28T11:37:00Z</time>
      </trkpt>
      <trkpt lat="47.32068" lon="-0.22707">
        <ele>67.91</ele>
        <time>2013-04-28T11:37:01Z</time>
      </trkpt>
      <trkpt lat="47.32068" lon="-0.227">
        <ele>65.99</ele>
        <time>2013-04-28T11:37:03Z</time>
      </trkpt>
      <trkpt lat="47.32064" lon="-0.22688">
        <ele>66.47</ele>
        <time>2013-04-28T11:37:07Z</time>
      </trkpt>
      <trkpt lat="47.32064" lon="-0.22683">
        <ele>66.95</ele>
        <time>2013-04-28T11:37:09Z</time>
      </trkpt>
      <trkpt lat="47.32072" lon="-0.2266">
        <ele>67.43</ele>
        <time>2013-04-28T11:37:16Z</time>
      </trkpt>
      <trkpt lat="47.32081" lon="-0.22646">
        <ele>67.91</ele>
        <time>2013-04-28T11:37:21Z</time>
      </trkpt>
      <trkpt lat="47.32096" lon="-0.22638">
        <ele>67.91</ele>
        <time>2013-04-28T11:37:27Z</time>
      </trkpt>
      <trkpt lat="47.32103" lon="-0.2265">
        <ele>66.95</ele>
        <time>2013-04-28T11:37:32Z</time>
      </trkpt>
      <trkpt lat="47.32108" lon="-0.22664">
        <ele>66.47</ele>
        <time>2013-04-28T11:37:38Z</time>
      </trkpt>
      <trkpt lat="47.32109" lon="-0.2267">
        <ele>67.43</ele>
        <time>2013-04-28T11:37:42Z</time>
      </trkpt>
      <trkpt lat="47.32108" lon="-0.22675">
        <ele>66.47</ele>
        <time>2013-04-28T11:37:44Z</time>
      </trkpt>
      <trkpt lat="47.32114" lon="-0.22688">
        <ele>65.03</ele>
        <time>2013-04-28T11:37:49Z</time>
      </trkpt>
      <trkpt lat="47.32116" lon="-0.2269">
        <ele>65.51</ele>
        <time>2013-04-28T11:37:50Z</time>
      </trkpt>
      <trkpt lat="47.3212" lon="-0.22693">
        <ele>64.55</ele>
        <time>2013-04-28T11:37:53Z</time>
      </trkpt>
      <trkpt lat="47.32127" lon="-0.22664">
        <ele>61.66</ele>
        <time>2013-04-28T11:38:08Z</time>
      </trkpt>
      <trkpt lat="47.32124" lon="-0.22721">
        <ele>62.62</ele>
        <time>2013-04-28T11:38:22Z</time>
      </trkpt>
      <trkpt lat="47.32124" lon="-0.22718">
        <ele>65.03</ele>
        <time>2013-04-28T11:38:29Z</time>
      </trkpt>
      <trkpt lat="47.32124" lon="-0.22713">
        <ele>62.62</ele>
        <time>2013-04-28T11:38:52Z</time>
      </trkpt>
      <trkpt lat="47.32128" lon="-0.2271">
        <ele>64.55</ele>
        <time>2013-04-28T11:38:58Z</time>
      </trkpt>
      <trkpt lat="47.32126" lon="-0.22707">
        <ele>65.51</ele>
        <time>2013-04-28T11:39:26Z</time>
      </trkpt>
      <trkpt lat="47.32132" lon="-0.22706">
        <ele>64.55</ele>
        <time>2013-04-28T11:39:32Z</time>
      </trkpt>
      <trkpt lat="47.3213" lon="-0.2271">
        <ele>65.51</ele>
        <time>2013-04-28T11:39:35Z</time>
      </trkpt>
      <trkpt lat="47.32142" lon="-0.22726">
        <ele>64.55</ele>
        <time>2013-04-28T11:39:41Z</time>
      </trkpt>
      <trkpt lat="47.32148" lon="-0.22733">
        <ele>63.1</ele>
        <time>2013-04-28T11:39:45Z</time>
      </trkpt>
      <trkpt lat="47.3215" lon="-0.2274">
        <ele>60.22</ele>
        <time>2013-04-28T11:39:53Z</time>
      </trkpt>
      <trkpt lat="47.3215" lon="-0.22742">
        <ele>58.78</ele>
        <time>2013-04-28T11:40:04Z</time>
      </trkpt>
      <trkpt lat="47.32151" lon="-0.22743">
        <ele>57.34</ele>
        <time>2013-04-28T11:40:05Z</time>
      </trkpt>
      <trkpt lat="47.32159" lon="-0.22738">
        <ele>57.34</ele>
        <time>2013-04-28T11:40:12Z</time>
      </trkpt>
      <trkpt lat="47.32168" lon="-0.22728">
        <ele>57.82</ele>
        <time>2013-04-28T11:40:18Z</time>
      </trkpt>
      <trkpt lat="47.32172" lon="-0.22721">
        <ele>57.82</ele>
        <time>2013-04-28T11:40:21Z</time>
      </trkpt>
      <trkpt lat="47.32183" lon="-0.22703">
        <ele>58.78</ele>
        <time>2013-04-28T11:40:28Z</time>
      </trkpt>
      <trkpt lat="47.32185" lon="-0.22697">
        <ele>58.78</ele>
        <time>2013-04-28T11:40:30Z</time>
      </trkpt>
      <trkpt lat="47.32192" lon="-0.2269">
        <ele>59.26</ele>
        <time>2013-04-28T11:40:33Z</time>
      </trkpt>
      <trkpt lat="47.32203" lon="-0.22671">
        <ele>58.3</ele>
        <time>2013-04-28T11:40:39Z</time>
      </trkpt>
      <trkpt lat="47.32219" lon="-0.22663">
        <ele>57.82</ele>
        <time>2013-04-28T11:40:45Z</time>
      </trkpt>
      <trkpt lat="47.3223" lon="-0.22663">
        <ele>58.3</ele>
        <time>2013-04-28T11:40:49Z</time>
      </trkpt>
      <trkpt lat="47.32236" lon="-0.22656">
        <ele>58.3</ele>
        <time>2013-04-28T11:40:53Z</time>
      </trkpt>
      <trkpt lat="47.32239" lon="-0.22639">
        <ele>58.3</ele>
        <time>2013-04-28T11:41:00Z</time>
      </trkpt>
      <trkpt lat="47.32239" lon="-0.22621">
        <ele>58.3</ele>
        <time>2013-04-28T11:41:07Z</time>
      </trkpt>
      <trkpt lat="47.32239" lon="-0.22613">
        <ele>56.37</ele>
        <time>2013-04-28T11:41:10Z</time>
      </trkpt>
      <trkpt lat="47.32238" lon="-0.22606">
        <ele>57.34</ele>
        <time>2013-04-28T11:41:12Z</time>
      </trkpt>
      <trkpt lat="47.3224" lon="-0.2259">
        <ele>58.3</ele>
        <time>2013-04-28T11:41:16Z</time>
      </trkpt>
      <trkpt lat="47.32239" lon="-0.22584">
        <ele>59.26</ele>
        <time>2013-04-28T11:41:18Z</time>
      </trkpt>
      <trkpt lat="47.32247" lon="-0.22565">
        <ele>58.3</ele>
        <time>2013-04-28T11:41:24Z</time>
      </trkpt>
      <trkpt lat="47.32259" lon="-0.22546">
        <ele>58.3</ele>
        <time>2013-04-28T11:41:30Z</time>
      </trkpt>
      <trkpt lat="47.32269" lon="-0.22528">
        <ele>57.82</ele>
        <time>2013-04-28T11:41:35Z</time>
      </trkpt>
      <trkpt lat="47.3227" lon="-0.22525">
        <ele>58.3</ele>
        <time>2013-04-28T11:41:36Z</time>
      </trkpt>
      <trkpt lat="47.3228" lon="-0.22502">
        <ele>57.34</ele>
        <time>2013-04-28T11:41:43Z</time>
      </trkpt>
      <trkpt lat="47.32296" lon="-0.22483">
        <ele>57.82</ele>
        <time>2013-04-28T11:41:49Z</time>
      </trkpt>
      <trkpt lat="47.32305" lon="-0.22476">
        <ele>57.82</ele>
        <time>2013-04-28T11:41:52Z</time>
      </trkpt>
      <trkpt lat="47.32307" lon="-0.22458">
        <ele>59.74</ele>
        <time>2013-04-28T11:41:57Z</time>
      </trkpt>
      <trkpt lat="47.32304" lon="-0.2245">
        <ele>57.82</ele>
        <time>2013-04-28T11:42:00Z</time>
      </trkpt>
      <trkpt lat="47.32303" lon="-0.22447">
        <ele>59.26</ele>
        <time>2013-04-28T11:42:01Z</time>
      </trkpt>
      <trkpt lat="47.32297" lon="-0.22441">
        <ele>58.3</ele>
        <time>2013-04-28T11:42:04Z</time>
      </trkpt>
      <trkpt lat="47.3229" lon="-0.22433">
        <ele>58.78</ele>
        <time>2013-04-28T11:42:08Z</time>
      </trkpt>
      <trkpt lat="47.3228" lon="-0.22415">
        <ele>61.18</ele>
        <time>2013-04-28T11:42:15Z</time>
      </trkpt>
      <trkpt lat="47.3228" lon="-0.22413">
        <ele>60.7</ele>
        <time>2013-04-28T11:42:16Z</time>
      </trkpt>
      <trkpt lat="47.32273" lon="-0.22389">
        <ele>60.7</ele>
        <time>2013-04-28T11:42:23Z</time>
      </trkpt>
      <trkpt lat="47.32272" lon="-0.22359">
        <ele>61.18</ele>
        <time>2013-04-28T11:42:29Z</time>
      </trkpt>
      <trkpt lat="47.32264" lon="-0.22322">
        <ele>61.18</ele>
        <time>2013-04-28T11:42:36Z</time>
      </trkpt>
      <trkpt lat="47.32259" lon="-0.22284">
        <ele>61.66</ele>
        <time>2013-04-28T11:42:42Z</time>
      </trkpt>
      <trkpt lat="47.32263" lon="-0.22246">
        <ele>62.62</ele>
        <time>2013-04-28T11:42:48Z</time>
      </trkpt>
      <trkpt lat="47.32267" lon="-0.22218">
        <ele>62.14</ele>
        <time>2013-04-28T11:42:53Z</time>
      </trkpt>
      <trkpt lat="47.32268" lon="-0.22212">
        <ele>62.14</ele>
        <time>2013-04-28T11:42:54Z</time>
      </trkpt>
      <trkpt lat="47.3229" lon="-0.22161">
        <ele>63.1</ele>
        <time>2013-04-28T11:43:03Z</time>
      </trkpt>
      <trkpt lat="47.32305" lon="-0.22152">
        <ele>62.14</ele>
        <time>2013-04-28T11:43:08Z</time>
      </trkpt>
      <trkpt lat="47.32327" lon="-0.22147">
        <ele>63.1</ele>
        <time>2013-04-28T11:43:14Z</time>
      </trkpt>
      <trkpt lat="47.32332" lon="-0.22148">
        <ele>63.1</ele>
        <time>2013-04-28T11:43:15Z</time>
      </trkpt>
      <trkpt lat="47.32336" lon="-0.22149">
        <ele>62.14</ele>
        <time>2013-04-28T11:43:16Z</time>
      </trkpt>
      <trkpt lat="47.32346" lon="-0.22153">
        <ele>62.62</ele>
        <time>2013-04-28T11:43:18Z</time>
      </trkpt>
      <trkpt lat="47.32349" lon="-0.22154">
        <ele>62.14</ele>
        <time>2013-04-28T11:43:19Z</time>
      </trkpt>
      <trkpt lat="47.32382" lon="-0.22164">
        <ele>61.66</ele>
        <time>2013-04-28T11:43:26Z</time>
      </trkpt>
      <trkpt lat="47.32386" lon="-0.22166">
        <ele>61.18</ele>
        <time>2013-04-28T11:43:27Z</time>
      </trkpt>
      <trkpt lat="47.3239" lon="-0.22167">
        <ele>60.7</ele>
        <time>2013-04-28T11:43:28Z</time>
      </trkpt>
      <trkpt lat="47.32394" lon="-0.22169">
        <ele>61.18</ele>
        <time>2013-04-28T11:43:29Z</time>
      </trkpt>
      <trkpt lat="47.32412" lon="-0.22177">
        <ele>60.7</ele>
        <time>2013-04-28T11:43:34Z</time>
      </trkpt>
      <trkpt lat="47.32429" lon="-0.22184">
        <ele>60.7</ele>
        <time>2013-04-28T11:43:39Z</time>
      </trkpt>
      <trkpt lat="47.32442" lon="-0.22187">
        <ele>60.22</ele>
        <time>2013-04-28T11:43:44Z</time>
      </trkpt>
      <trkpt lat="47.32443" lon="-0.22185">
        <ele>60.22</ele>
        <time>2013-04-28T11:43:46Z</time>
      </trkpt>
      <trkpt lat="47.32443" lon="-0.22184">
        <ele>59.74</ele>
        <time>2013-04-28T11:43:47Z</time>
      </trkpt>
      <trkpt lat="47.32443" lon="-0.22182">
        <ele>60.22</ele>
        <time>2013-04-28T11:43:48Z</time>
      </trkpt>
      <trkpt lat="47.32444" lon="-0.2218">
        <ele>60.7</ele>
        <time>2013-04-28T11:43:49Z</time>
      </trkpt>
      <trkpt lat="47.32445" lon="-0.22177">
        <ele>60.7</ele>
        <time>2013-04-28T11:43:50Z</time>
      </trkpt>
      <trkpt lat="47.32446" lon="-0.22175">
        <ele>60.7</ele>
        <time>2013-04-28T11:43:51Z</time>
      </trkpt>
      <trkpt lat="47.32446" lon="-0.22172">
        <ele>60.7</ele>
        <time>2013-04-28T11:43:52Z</time>
      </trkpt>
      <trkpt lat="47.32446" lon="-0.2217">
        <ele>60.7</ele>
        <time>2013-04-28T11:43:53Z</time>
      </trkpt>
      <trkpt lat="47.32446" lon="-0.22167">
        <ele>61.66</ele>
        <time>2013-04-28T11:43:54Z</time>
      </trkpt>
      <trkpt lat="47.32446" lon="-0.22163">
        <ele>61.18</ele>
        <time>2013-04-28T11:43:55Z</time>
      </trkpt>
      <trkpt lat="47.32446" lon="-0.2216">
        <ele>62.14</ele>
        <time>2013-04-28T11:43:56Z</time>
      </trkpt>
      <trkpt lat="47.32446" lon="-0.22157">
        <ele>61.66</ele>
        <time>2013-04-28T11:43:57Z</time>
      </trkpt>
      <trkpt lat="47.32446" lon="-0.22153">
        <ele>62.14</ele>
        <time>2013-04-28T11:43:58Z</time>
      </trkpt>
      <trkpt lat="47.32446" lon="-0.22149">
        <ele>62.14</ele>
        <time>2013-04-28T11:43:59Z</time>
      </trkpt>
      <trkpt lat="47.32445" lon="-0.22133">
        <ele>65.03</ele>
        <time>2013-04-28T11:44:04Z</time>
      </trkpt>
      <trkpt lat="47.32446" lon="-0.2213">
        <ele>65.03</ele>
        <time>2013-04-28T11:44:05Z</time>
      </trkpt>
      <trkpt lat="47.32447" lon="-0.2211">
        <ele>66.47</ele>
        <time>2013-04-28T11:44:12Z</time>
      </trkpt>
      <trkpt lat="47.32447" lon="-0.22105">
        <ele>66.47</ele>
        <time>2013-04-28T11:44:14Z</time>
      </trkpt>
      <trkpt lat="47.32448" lon="-0.22101">
        <ele>67.43</ele>
        <time>2013-04-28T11:44:15Z</time>
      </trkpt>
      <trkpt lat="47.32447" lon="-0.22099">
        <ele>67.43</ele>
        <time>2013-04-28T11:44:16Z</time>
      </trkpt>
      <trkpt lat="47.32448" lon="-0.22089">
        <ele>68.39</ele>
        <time>2013-04-28T11:44:20Z</time>
      </trkpt>
      <trkpt lat="47.32448" lon="-0.22083">
        <ele>68.39</ele>
        <time>2013-04-28T11:44:22Z</time>
      </trkpt>
      <trkpt lat="47.32449" lon="-0.22069">
        <ele>70.31</ele>
        <time>2013-04-28T11:44:28Z</time>
      </trkpt>
      <trkpt lat="47.32449" lon="-0.22066">
        <ele>71.27</ele>
        <time>2013-04-28T11:44:29Z</time>
      </trkpt>
      <trkpt lat="47.32448" lon="-0.22062">
        <ele>70.79</ele>
        <time>2013-04-28T11:44:30Z</time>
      </trkpt>
      <trkpt lat="47.32449" lon="-0.22059">
        <ele>71.27</ele>
        <time>2013-04-28T11:44:31Z</time>
      </trkpt>
      <trkpt lat="47.32449" lon="-0.22055">
        <ele>72.24</ele>
        <time>2013-04-28T11:44:32Z</time>
      </trkpt>
      <trkpt lat="47.3245" lon="-0.22051">
        <ele>71.27</ele>
        <time>2013-04-28T11:44:33Z</time>
      </trkpt>
      <trkpt lat="47.32451" lon="-0.22048">
        <ele>72.24</ele>
        <time>2013-04-28T11:44:34Z</time>
      </trkpt>
      <trkpt lat="47.32452" lon="-0.22046">
        <ele>72.24</ele>
        <time>2013-04-28T11:44:35Z</time>
      </trkpt>
      <trkpt lat="47.32453" lon="-0.22044">
        <ele>71.76</ele>
        <time>2013-04-28T11:44:36Z</time>
      </trkpt>
      <trkpt lat="47.32453" lon="-0.22041">
        <ele>72.72</ele>
        <time>2013-04-28T11:44:37Z</time>
      </trkpt>
      <trkpt lat="47.32453" lon="-0.22038">
        <ele>72.24</ele>
        <time>2013-04-28T11:44:38Z</time>
      </trkpt>
      <trkpt lat="47.32454" lon="-0.22035">
        <ele>73.2</ele>
        <time>2013-04-28T11:44:39Z</time>
      </trkpt>
      <trkpt lat="47.32453" lon="-0.22032">
        <ele>73.68</ele>
        <time>2013-04-28T11:44:40Z</time>
      </trkpt>
      <trkpt lat="47.32453" lon="-0.22029">
        <ele>73.2</ele>
        <time>2013-04-28T11:44:41Z</time>
      </trkpt>
      <trkpt lat="47.32454" lon="-0.22026">
        <ele>73.68</ele>
        <time>2013-04-28T11:44:42Z</time>
      </trkpt>
      <trkpt lat="47.32454" lon="-0.22022">
        <ele>73.68</ele>
        <time>2013-04-28T11:44:43Z</time>
      </trkpt>
      <trkpt lat="47.32454" lon="-0.22018">
        <ele>73.2</ele>
        <time>2013-04-28T11:44:44Z</time>
      </trkpt>
      <trkpt lat="47.32454" lon="-0.22015">
        <ele>73.2</ele>
        <time>2013-04-28T11:44:45Z</time>
      </trkpt>
      <trkpt lat="47.32454" lon="-0.22011">
        <ele>73.2</ele>
        <time>2013-04-28T11:44:46Z</time>
      </trkpt>
      <trkpt lat="47.3246" lon="-0.2198">
        <ele>74.16</ele>
        <time>2013-04-28T11:44:53Z</time>
      </trkpt>
      <trkpt lat="47.32466" lon="-0.21947">
        <ele>74.64</ele>
        <time>2013-04-28T11:45:00Z</time>
      </trkpt>
      <trkpt lat="47.32474" lon="-0.21908">
        <ele>74.64</ele>
        <time>2013-04-28T11:45:08Z</time>
      </trkpt>
      <trkpt lat="47.32482" lon="-0.21873">
        <ele>75.12</ele>
        <time>2013-04-28T11:45:15Z</time>
      </trkpt>
      <trkpt lat="47.32483" lon="-0.2187">
        <ele>75.12</ele>
        <time>2013-04-28T11:45:16Z</time>
      </trkpt>
      <trkpt lat="47.32484" lon="-0.21869">
        <ele>75.12</ele>
        <time>2013-04-28T11:45:17Z</time>
      </trkpt>
      <trkpt lat="47.32483" lon="-0.2187">
        <ele>74.64</ele>
        <time>2013-04-28T11:46:18Z</time>
      </trkpt>
      <trkpt lat="47.32486" lon="-0.21871">
        <ele>75.12</ele>
        <time>2013-04-28T11:46:42Z</time>
      </trkpt>
      <trkpt lat="47.32488" lon="-0.21872">
        <ele>74.16</ele>
        <time>2013-04-28T11:46:43Z</time>
      </trkpt>
      <trkpt lat="47.3249" lon="-0.21874">
        <ele>74.64</ele>
        <time>2013-04-28T11:46:44Z</time>
      </trkpt>
      <trkpt lat="47.32493" lon="-0.21876">
        <ele>74.64</ele>
        <time>2013-04-28T11:46:45Z</time>
      </trkpt>
      <trkpt lat="47.32495" lon="-0.21878">
        <ele>75.6</ele>
        <time>2013-04-28T11:46:46Z</time>
      </trkpt>
      <trkpt lat="47.32505" lon="-0.21888">
        <ele>76.08</ele>
        <time>2013-04-28T11:46:50Z</time>
      </trkpt>
      <trkpt lat="47.32524" lon="-0.21907">
        <ele>73.68</ele>
        <time>2013-04-28T11:46:56Z</time>
      </trkpt>
      <trkpt lat="47.32546" lon="-0.21932">
        <ele>74.64</ele>
        <time>2013-04-28T11:47:04Z</time>
      </trkpt>
      <trkpt lat="47.32566" lon="-0.21965">
        <ele>74.64</ele>
        <time>2013-04-28T11:47:12Z</time>
      </trkpt>
      <trkpt lat="47.32587" lon="-0.21996">
        <ele>74.16</ele>
        <time>2013-04-28T11:47:19Z</time>
      </trkpt>
      <trkpt lat="47.32602" lon="-0.22015">
        <ele>74.16</ele>
        <time>2013-04-28T11:47:24Z</time>
      </trkpt>
      <trkpt lat="47.32609" lon="-0.22024">
        <ele>72.24</ele>
        <time>2013-04-28T11:47:26Z</time>
      </trkpt>
      <trkpt lat="47.32616" lon="-0.22033">
        <ele>74.16</ele>
        <time>2013-04-28T11:47:28Z</time>
      </trkpt>
      <trkpt lat="47.32625" lon="-0.22044">
        <ele>73.68</ele>
        <time>2013-04-28T11:47:31Z</time>
      </trkpt>
      <trkpt lat="47.32632" lon="-0.2205">
        <ele>74.16</ele>
        <time>2013-04-28T11:47:33Z</time>
      </trkpt>
      <trkpt lat="47.32636" lon="-0.22053">
        <ele>74.16</ele>
        <time>2013-04-28T11:47:34Z</time>
      </trkpt>
      <trkpt lat="47.32657" lon="-0.22069">
        <ele>73.68</ele>
        <time>2013-04-28T11:47:40Z</time>
      </trkpt>
      <trkpt lat="47.32676" lon="-0.22093">
        <ele>74.16</ele>
        <time>2013-04-28T11:47:46Z</time>
      </trkpt>
      <trkpt lat="47.32681" lon="-0.22102">
        <ele>73.68</ele>
        <time>2013-04-28T11:47:48Z</time>
      </trkpt>
      <trkpt lat="47.32681" lon="-0.22108">
        <ele>74.16</ele>
        <time>2013-04-28T11:47:49Z</time>
      </trkpt>
      <trkpt lat="47.32681" lon="-0.22115">
        <ele>73.68</ele>
        <time>2013-04-28T11:47:50Z</time>
      </trkpt>
      <trkpt lat="47.32679" lon="-0.22132">
        <ele>72.72</ele>
        <time>2013-04-28T11:47:52Z</time>
      </trkpt>
      <trkpt lat="47.32672" lon="-0.22193">
        <ele>71.27</ele>
        <time>2013-04-28T11:47:58Z</time>
      </trkpt>
      <trkpt lat="47.32669" lon="-0.22214">
        <ele>70.31</ele>
        <time>2013-04-28T11:48:00Z</time>
      </trkpt>
      <trkpt lat="47.32669" lon="-0.22224">
        <ele>70.31</ele>
        <time>2013-04-28T11:48:01Z</time>
      </trkpt>
      <trkpt lat="47.32669" lon="-0.22231">
        <ele>69.35</ele>
        <time>2013-04-28T11:48:02Z</time>
      </trkpt>
      <trkpt lat="47.32671" lon="-0.22236">
        <ele>68.39</ele>
        <time>2013-04-28T11:48:03Z</time>
      </trkpt>
      <trkpt lat="47.32675" lon="-0.22239">
        <ele>66.95</ele>
        <time>2013-04-28T11:48:04Z</time>
      </trkpt>
      <trkpt lat="47.32679" lon="-0.22241">
        <ele>65.51</ele>
        <time>2013-04-28T11:48:05Z</time>
      </trkpt>
      <trkpt lat="47.32683" lon="-0.22243">
        <ele>65.99</ele>
        <time>2013-04-28T11:48:06Z</time>
      </trkpt>
      <trkpt lat="47.32687" lon="-0.22245">
        <ele>67.43</ele>
        <time>2013-04-28T11:48:07Z</time>
      </trkpt>
      <trkpt lat="47.3269" lon="-0.22246">
        <ele>66.95</ele>
        <time>2013-04-28T11:48:08Z</time>
      </trkpt>
      <trkpt lat="47.32696" lon="-0.22254">
        <ele>65.03</ele>
        <time>2013-04-28T11:48:11Z</time>
      </trkpt>
      <trkpt lat="47.32699" lon="-0.22255">
        <ele>64.07</ele>
        <time>2013-04-28T11:48:12Z</time>
      </trkpt>
      <trkpt lat="47.32702" lon="-0.22257">
        <ele>65.51</ele>
        <time>2013-04-28T11:48:13Z</time>
      </trkpt>
      <trkpt lat="47.32704" lon="-0.2226">
        <ele>64.55</ele>
        <time>2013-04-28T11:48:14Z</time>
      </trkpt>
      <trkpt lat="47.32707" lon="-0.22262">
        <ele>65.51</ele>
        <time>2013-04-28T11:48:15Z</time>
      </trkpt>
      <trkpt lat="47.3271" lon="-0.22263">
        <ele>64.55</ele>
        <time>2013-04-28T11:48:16Z</time>
      </trkpt>
      <trkpt lat="47.32713" lon="-0.22264">
        <ele>65.03</ele>
        <time>2013-04-28T11:48:17Z</time>
      </trkpt>
      <trkpt lat="47.32715" lon="-0.22266">
        <ele>65.99</ele>
        <time>2013-04-28T11:48:18Z</time>
      </trkpt>
      <trkpt lat="47.32717" lon="-0.22266">
        <ele>65.51</ele>
        <time>2013-04-28T11:48:19Z</time>
      </trkpt>
      <trkpt lat="47.32719" lon="-0.22266">
        <ele>64.07</ele>
        <time>2013-04-28T11:48:20Z</time>
      </trkpt>
      <trkpt lat="47.32722" lon="-0.22265">
        <ele>64.07</ele>
        <time>2013-04-28T11:48:21Z</time>
      </trkpt>
      <trkpt lat="47.32726" lon="-0.22264">
        <ele>64.55</ele>
        <time>2013-04-28T11:48:22Z</time>
      </trkpt>
      <trkpt lat="47.32748" lon="-0.22257">
        <ele>65.03</ele>
        <time>2013-04-28T11:48:28Z</time>
      </trkpt>
      <trkpt lat="47.3275" lon="-0.22257">
        <ele>64.55</ele>
        <time>2013-04-28T11:48:29Z</time>
      </trkpt>
      <trkpt lat="47.32752" lon="-0.22258">
        <ele>64.55</ele>
        <time>2013-04-28T11:48:30Z</time>
      </trkpt>
      <trkpt lat="47.32754" lon="-0.22261">
        <ele>65.03</ele>
        <time>2013-04-28T11:48:31Z</time>
      </trkpt>
      <trkpt lat="47.32757" lon="-0.22265">
        <ele>62.62</ele>
        <time>2013-04-28T11:48:32Z</time>
      </trkpt>
      <trkpt lat="47.32759" lon="-0.2227">
        <ele>64.07</ele>
        <time>2013-04-28T11:48:33Z</time>
      </trkpt>
      <trkpt lat="47.32762" lon="-0.22275">
        <ele>65.03</ele>
        <time>2013-04-28T11:48:34Z</time>
      </trkpt>
      <trkpt lat="47.32765" lon="-0.22279">
        <ele>65.51</ele>
        <time>2013-04-28T11:48:35Z</time>
      </trkpt>
      <trkpt lat="47.32777" lon="-0.22297">
        <ele>63.58</ele>
        <time>2013-04-28T11:48:40Z</time>
      </trkpt>
      <trkpt lat="47.32788" lon="-0.22316">
        <ele>59.74</ele>
        <time>2013-04-28T11:48:44Z</time>
      </trkpt>
      <trkpt lat="47.32793" lon="-0.22329">
        <ele>65.03</ele>
        <time>2013-04-28T11:48:47Z</time>
      </trkpt>
      <trkpt lat="47.32793" lon="-0.22333">
        <ele>65.03</ele>
        <time>2013-04-28T11:48:48Z</time>
      </trkpt>
      <trkpt lat="47.32793" lon="-0.22335">
        <ele>63.58</ele>
        <time>2013-04-28T11:48:49Z</time>
      </trkpt>
      <trkpt lat="47.32792" lon="-0.22338">
        <ele>63.58</ele>
        <time>2013-04-28T11:48:50Z</time>
      </trkpt>
      <trkpt lat="47.32791" lon="-0.22342">
        <ele>60.7</ele>
        <time>2013-04-28T11:48:51Z</time>
      </trkpt>
      <trkpt lat="47.32791" lon="-0.22346">
        <ele>59.26</ele>
        <time>2013-04-28T11:48:52Z</time>
      </trkpt>
      <trkpt lat="47.32791" lon="-0.22349">
        <ele>63.58</ele>
        <time>2013-04-28T11:48:53Z</time>
      </trkpt>
      <trkpt lat="47.32791" lon="-0.22353">
        <ele>61.66</ele>
        <time>2013-04-28T11:48:58Z</time>
      </trkpt>
      <trkpt lat="47.32791" lon="-0.22358">
        <ele>63.1</ele>
        <time>2013-04-28T11:49:02Z</time>
      </trkpt>
      <trkpt lat="47.32788" lon="-0.22357">
        <ele>63.1</ele>
        <time>2013-04-28T11:49:06Z</time>
      </trkpt>
      <trkpt lat="47.32788" lon="-0.22367">
        <ele>65.03</ele>
        <time>2013-04-28T11:49:23Z</time>
      </trkpt>
      <trkpt lat="47.32792" lon="-0.22378">
        <ele>65.99</ele>
        <time>2013-04-28T11:49:26Z</time>
      </trkpt>
      <trkpt lat="47.32798" lon="-0.22389">
        <ele>65.03</ele>
        <time>2013-04-28T11:49:31Z</time>
      </trkpt>
      <trkpt lat="47.32801" lon="-0.22394">
        <ele>64.07</ele>
        <time>2013-04-28T11:49:35Z</time>
      </trkpt>
      <trkpt lat="47.32807" lon="-0.2242">
        <ele>65.51</ele>
        <time>2013-04-28T11:49:40Z</time>
      </trkpt>
      <trkpt lat="47.32809" lon="-0.22426">
        <ele>64.55</ele>
        <time>2013-04-28T11:49:41Z</time>
      </trkpt>
      <trkpt lat="47.32811" lon="-0.22438">
        <ele>62.62</ele>
        <time>2013-04-28T11:49:44Z</time>
      </trkpt>
      <trkpt lat="47.32805" lon="-0.22451">
        <ele>62.62</ele>
        <time>2013-04-28T11:49:48Z</time>
      </trkpt>
      <trkpt lat="47.32802" lon="-0.22461">
        <ele>64.07</ele>
        <time>2013-04-28T11:49:50Z</time>
      </trkpt>
      <trkpt lat="47.328" lon="-0.22466">
        <ele>62.14</ele>
        <time>2013-04-28T11:49:51Z</time>
      </trkpt>
      <trkpt lat="47.32801" lon="-0.22471">
        <ele>63.58</ele>
        <time>2013-04-28T11:49:52Z</time>
      </trkpt>
      <trkpt lat="47.32803" lon="-0.22476">
        <ele>61.66</ele>
        <time>2013-04-28T11:49:53Z</time>
      </trkpt>
      <trkpt lat="47.32805" lon="-0.22481">
        <ele>60.22</ele>
        <time>2013-04-28T11:49:54Z</time>
      </trkpt>
      <trkpt lat="47.32807" lon="-0.22486">
        <ele>60.7</ele>
        <time>2013-04-28T11:49:55Z</time>
      </trkpt>
      <trkpt lat="47.32814" lon="-0.22502">
        <ele>60.22</ele>
        <time>2013-04-28T11:49:58Z</time>
      </trkpt>
      <trkpt lat="47.32816" lon="-0.22508">
        <ele>60.22</ele>
        <time>2013-04-28T11:49:59Z</time>
      </trkpt>
      <trkpt lat="47.32818" lon="-0.22513">
        <ele>57.34</ele>
        <time>2013-04-28T11:50:00Z</time>
      </trkpt>
      <trkpt lat="47.32821" lon="-0.22515">
        <ele>57.34</ele>
        <time>2013-04-28T11:50:01Z</time>
      </trkpt>
      <trkpt lat="47.32824" lon="-0.22517">
        <ele>57.34</ele>
        <time>2013-04-28T11:50:02Z</time>
      </trkpt>
      <trkpt lat="47.32828" lon="-0.2252">
        <ele>57.34</ele>
        <time>2013-04-28T11:50:04Z</time>
      </trkpt>
      <trkpt lat="47.32831" lon="-0.2252">
        <ele>55.89</ele>
        <time>2013-04-28T11:50:05Z</time>
      </trkpt>
      <trkpt lat="47.32833" lon="-0.2252">
        <ele>57.34</ele>
        <time>2013-04-28T11:50:06Z</time>
      </trkpt>
      <trkpt lat="47.32837" lon="-0.22522">
        <ele>55.41</ele>
        <time>2013-04-28T11:50:08Z</time>
      </trkpt>
      <trkpt lat="47.3284" lon="-0.22524">
        <ele>55.89</ele>
        <time>2013-04-28T11:50:09Z</time>
      </trkpt>
      <trkpt lat="47.32844" lon="-0.2253">
        <ele>56.86</ele>
        <time>2013-04-28T11:50:11Z</time>
      </trkpt>
      <trkpt lat="47.32845" lon="-0.22532">
        <ele>55.41</ele>
        <time>2013-04-28T11:50:12Z</time>
      </trkpt>
      <trkpt lat="47.32846" lon="-0.22535">
        <ele>55.89</ele>
        <time>2013-04-28T11:50:13Z</time>
      </trkpt>
      <trkpt lat="47.32849" lon="-0.22539">
        <ele>55.89</ele>
        <time>2013-04-28T11:50:17Z</time>
      </trkpt>
      <trkpt lat="47.3285" lon="-0.22538">
        <ele>55.89</ele>
        <time>2013-04-28T11:50:18Z</time>
      </trkpt>
      <trkpt lat="47.32851" lon="-0.22537">
        <ele>56.37</ele>
        <time>2013-04-28T11:50:19Z</time>
      </trkpt>
      <trkpt lat="47.32853" lon="-0.22539">
        <ele>55.41</ele>
        <time>2013-04-28T11:50:21Z</time>
      </trkpt>
      <trkpt lat="47.32855" lon="-0.2254">
        <ele>55.41</ele>
        <time>2013-04-28T11:50:22Z</time>
      </trkpt>
      <trkpt lat="47.32858" lon="-0.22541">
        <ele>56.37</ele>
        <time>2013-04-28T11:50:23Z</time>
      </trkpt>
      <trkpt lat="47.32867" lon="-0.22555">
        <ele>57.82</ele>
        <time>2013-04-28T11:50:26Z</time>
      </trkpt>
      <trkpt lat="47.32869" lon="-0.22558">
        <ele>55.89</ele>
        <time>2013-04-28T11:50:27Z</time>
      </trkpt>
      <trkpt lat="47.32871" lon="-0.22563">
        <ele>57.34</ele>
        <time>2013-04-28T11:50:28Z</time>
      </trkpt>
      <trkpt lat="47.32874" lon="-0.22567">
        <ele>58.3</ele>
        <time>2013-04-28T11:50:29Z</time>
      </trkpt>
      <trkpt lat="47.32876" lon="-0.22569">
        <ele>54.93</ele>
        <time>2013-04-28T11:50:30Z</time>
      </trkpt>
      <trkpt lat="47.32878" lon="-0.22572">
        <ele>54.45</ele>
        <time>2013-04-28T11:50:31Z</time>
      </trkpt>
      <trkpt lat="47.3288" lon="-0.22573">
        <ele>58.3</ele>
        <time>2013-04-28T11:50:33Z</time>
      </trkpt>
      <trkpt lat="47.32881" lon="-0.22573">
        <ele>56.86</ele>
        <time>2013-04-28T11:50:34Z</time>
      </trkpt>
      <trkpt lat="47.32884" lon="-0.22574">
        <ele>60.22</ele>
        <time>2013-04-28T11:50:45Z</time>
      </trkpt>
      <trkpt lat="47.32885" lon="-0.22574">
        <ele>57.34</ele>
        <time>2013-04-28T11:50:46Z</time>
      </trkpt>
      <trkpt lat="47.32886" lon="-0.22572">
        <ele>60.7</ele>
        <time>2013-04-28T11:50:55Z</time>
      </trkpt>
      <trkpt lat="47.32886" lon="-0.22571">
        <ele>60.7</ele>
        <time>2013-04-28T11:51:08Z</time>
      </trkpt>
      <trkpt lat="47.32888" lon="-0.22573">
        <ele>60.7</ele>
        <time>2013-04-28T11:51:16Z</time>
      </trkpt>
      <trkpt lat="47.32894" lon="-0.22575">
        <ele>60.7</ele>
        <time>2013-04-28T11:51:22Z</time>
      </trkpt>
      <trkpt lat="47.32899" lon="-0.22576">
        <ele>61.66</ele>
        <time>2013-04-28T11:51:26Z</time>
      </trkpt>
      <trkpt lat="47.32907" lon="-0.22578">
        <ele>60.7</ele>
        <time>2013-04-28T11:51:31Z</time>
      </trkpt>
      <trkpt lat="47.32909" lon="-0.2258">
        <ele>59.26</ele>
        <time>2013-04-28T11:51:32Z</time>
      </trkpt>
      <trkpt lat="47.32917" lon="-0.22584">
        <ele>59.74</ele>
        <time>2013-04-28T11:51:36Z</time>
      </trkpt>
      <trkpt lat="47.32918" lon="-0.22584">
        <ele>56.37</ele>
        <time>2013-04-28T11:51:37Z</time>
      </trkpt>
      <trkpt lat="47.3292" lon="-0.22584">
        <ele>54.93</ele>
        <time>2013-04-28T11:51:38Z</time>
      </trkpt>
      <trkpt lat="47.32922" lon="-0.22583">
        <ele>55.89</ele>
        <time>2013-04-28T11:51:39Z</time>
      </trkpt>
      <trkpt lat="47.32924" lon="-0.22581">
        <ele>55.89</ele>
        <time>2013-04-28T11:51:40Z</time>
      </trkpt>
      <trkpt lat="47.32926" lon="-0.22579">
        <ele>57.82</ele>
        <time>2013-04-28T11:51:41Z</time>
      </trkpt>
      <trkpt lat="47.32927" lon="-0.22578">
        <ele>57.34</ele>
        <time>2013-04-28T11:51:42Z</time>
      </trkpt>
      <trkpt lat="47.32929" lon="-0.22578">
        <ele>55.41</ele>
        <time>2013-04-28T11:51:43Z</time>
      </trkpt>
      <trkpt lat="47.3293" lon="-0.22576">
        <ele>55.89</ele>
        <time>2013-04-28T11:51:44Z</time>
      </trkpt>
      <trkpt lat="47.32931" lon="-0.22575">
        <ele>56.37</ele>
        <time>2013-04-28T11:51:45Z</time>
      </trkpt>
      <trkpt lat="47.32932" lon="-0.22572">
        <ele>57.34</ele>
        <time>2013-04-28T11:51:46Z</time>
      </trkpt>
      <trkpt lat="47.32933" lon="-0.22569">
        <ele>55.41</ele>
        <time>2013-04-28T11:51:47Z</time>
      </trkpt>
      <trkpt lat="47.32933" lon="-0.22567">
        <ele>57.34</ele>
        <time>2013-04-28T11:51:48Z</time>
      </trkpt>
      <trkpt lat="47.32933" lon="-0.22562">
        <ele>56.86</ele>
        <time>2013-04-28T11:51:50Z</time>
      </trkpt>
      <trkpt lat="47.32935" lon="-0.22556">
        <ele>57.82</ele>
        <time>2013-04-28T11:51:52Z</time>
      </trkpt>
      <trkpt lat="47.32947" lon="-0.22538">
        <ele>58.78</ele>
        <time>2013-04-28T11:51:58Z</time>
      </trkpt>
      <trkpt lat="47.32953" lon="-0.22522">
        <ele>56.37</ele>
        <time>2013-04-28T11:52:02Z</time>
      </trkpt>
      <trkpt lat="47.3296" lon="-0.22511">
        <ele>58.78</ele>
        <time>2013-04-28T11:52:06Z</time>
      </trkpt>
      <trkpt lat="47.32969" lon="-0.22497">
        <ele>57.82</ele>
        <time>2013-04-28T11:52:11Z</time>
      </trkpt>
      <trkpt lat="47.3297" lon="-0.22494">
        <ele>58.3</ele>
        <time>2013-04-28T11:52:12Z</time>
      </trkpt>
      <trkpt lat="47.32982" lon="-0.22485">
        <ele>56.86</ele>
        <time>2013-04-28T11:52:17Z</time>
      </trkpt>
      <trkpt lat="47.32989" lon="-0.22477">
        <ele>55.41</ele>
        <time>2013-04-28T11:52:23Z</time>
      </trkpt>
      <trkpt lat="47.32989" lon="-0.22476">
        <ele>58.78</ele>
        <time>2013-04-28T11:52:36Z</time>
      </trkpt>
      <trkpt lat="47.32991" lon="-0.22469">
        <ele>57.34</ele>
        <time>2013-04-28T11:52:46Z</time>
      </trkpt>
      <trkpt lat="47.32993" lon="-0.22465">
        <ele>60.22</ele>
        <time>2013-04-28T11:52:55Z</time>
      </trkpt>
      <trkpt lat="47.32994" lon="-0.2246">
        <ele>60.22</ele>
        <time>2013-04-28T11:53:06Z</time>
      </trkpt>
      <trkpt lat="47.32998" lon="-0.2245">
        <ele>60.22</ele>
        <time>2013-04-28T11:53:12Z</time>
      </trkpt>
      <trkpt lat="47.33" lon="-0.22444">
        <ele>60.7</ele>
        <time>2013-04-28T11:53:15Z</time>
      </trkpt>
      <trkpt lat="47.33003" lon="-0.22435">
        <ele>59.26</ele>
        <time>2013-04-28T11:53:23Z</time>
      </trkpt>
      <trkpt lat="47.33007" lon="-0.22428">
        <ele>61.66</ele>
        <time>2013-04-28T11:53:50Z</time>
      </trkpt>
      <trkpt lat="47.3301" lon="-0.22425">
        <ele>60.7</ele>
        <time>2013-04-28T11:53:57Z</time>
      </trkpt>
      <trkpt lat="47.33012" lon="-0.2242">
        <ele>60.7</ele>
        <time>2013-04-28T11:54:06Z</time>
      </trkpt>
      <trkpt lat="47.33013" lon="-0.22418">
        <ele>64.55</ele>
        <time>2013-04-28T11:54:07Z</time>
      </trkpt>
      <trkpt lat="47.33014" lon="-0.22416">
        <ele>60.7</ele>
        <time>2013-04-28T11:54:08Z</time>
      </trkpt>
      <trkpt lat="47.3302" lon="-0.2241">
        <ele>63.1</ele>
        <time>2013-04-28T11:54:11Z</time>
      </trkpt>
      <trkpt lat="47.33024" lon="-0.22404">
        <ele>63.58</ele>
        <time>2013-04-28T11:54:18Z</time>
      </trkpt>
      <trkpt lat="47.33025" lon="-0.22404">
        <ele>59.74</ele>
        <time>2013-04-28T11:54:26Z</time>
      </trkpt>
      <trkpt lat="47.33026" lon="-0.22405">
        <ele>61.18</ele>
        <time>2013-04-28T11:54:41Z</time>
      </trkpt>
      <trkpt lat="47.33024" lon="-0.22402">
        <ele>62.62</ele>
        <time>2013-04-28T11:54:44Z</time>
      </trkpt>
      <trkpt lat="47.33018" lon="-0.22397">
        <ele>63.58</ele>
        <time>2013-04-28T11:54:50Z</time>
      </trkpt>
      <trkpt lat="47.33011" lon="-0.22389">
        <ele>64.55</ele>
        <time>2013-04-28T11:54:55Z</time>
      </trkpt>
      <trkpt lat="47.33003" lon="-0.22379">
        <ele>64.07</ele>
        <time>2013-04-28T11:55:03Z</time>
      </trkpt>
      <trkpt lat="47.33002" lon="-0.22378">
        <ele>64.55</ele>
        <time>2013-04-28T11:55:04Z</time>
      </trkpt>
      <trkpt lat="47.32998" lon="-0.22377">
        <ele>65.51</ele>
        <time>2013-04-28T11:55:06Z</time>
      </trkpt>
      <trkpt lat="47.32986" lon="-0.22376">
        <ele>64.55</ele>
        <time>2013-04-28T11:55:12Z</time>
      </trkpt>
      <trkpt lat="47.32978" lon="-0.22365">
        <ele>64.55</ele>
        <time>2013-04-28T11:55:16Z</time>
      </trkpt>
      <trkpt lat="47.32964" lon="-0.22353">
        <ele>63.58</ele>
        <time>2013-04-28T11:55:21Z</time>
      </trkpt>
      <trkpt lat="47.32957" lon="-0.22339">
        <ele>65.51</ele>
        <time>2013-04-28T11:55:27Z</time>
      </trkpt>
      <trkpt lat="47.32956" lon="-0.22337">
        <ele>65.51</ele>
        <time>2013-04-28T11:55:28Z</time>
      </trkpt>
      <trkpt lat="47.32958" lon="-0.2233">
        <ele>66.95</ele>
        <time>2013-04-28T11:55:31Z</time>
      </trkpt>
      <trkpt lat="47.3296" lon="-0.22317">
        <ele>69.35</ele>
        <time>2013-04-28T11:55:37Z</time>
      </trkpt>
      <trkpt lat="47.32963" lon="-0.22303">
        <ele>71.76</ele>
        <time>2013-04-28T11:55:44Z</time>
      </trkpt>
      <trkpt lat="47.32963" lon="-0.223">
        <ele>71.76</ele>
        <time>2013-04-28T11:55:45Z</time>
      </trkpt>
      <trkpt lat="47.32962" lon="-0.22288">
        <ele>72.24</ele>
        <time>2013-04-28T11:55:50Z</time>
      </trkpt>
      <trkpt lat="47.32953" lon="-0.22274">
        <ele>72.24</ele>
        <time>2013-04-28T11:55:57Z</time>
      </trkpt>
      <trkpt lat="47.32951" lon="-0.2226">
        <ele>71.76</ele>
        <time>2013-04-28T11:56:01Z</time>
      </trkpt>
      <trkpt lat="47.32952" lon="-0.22252">
        <ele>71.27</ele>
        <time>2013-04-28T11:56:04Z</time>
      </trkpt>
      <trkpt lat="47.32955" lon="-0.22233">
        <ele>72.24</ele>
        <time>2013-04-28T11:56:10Z</time>
      </trkpt>
      <trkpt lat="47.32951" lon="-0.2223">
        <ele>71.76</ele>
        <time>2013-04-28T11:56:13Z</time>
      </trkpt>
      <trkpt lat="47.32933" lon="-0.22233">
        <ele>69.83</ele>
        <time>2013-04-28T11:56:19Z</time>
      </trkpt>
      <trkpt lat="47.32915" lon="-0.22239">
        <ele>71.27</ele>
        <time>2013-04-28T11:56:25Z</time>
      </trkpt>
      <trkpt lat="47.32897" lon="-0.22239">
        <ele>70.31</ele>
        <time>2013-04-28T11:56:30Z</time>
      </trkpt>
      <trkpt lat="47.32888" lon="-0.22233">
        <ele>68.87</ele>
        <time>2013-04-28T11:56:33Z</time>
      </trkpt>
      <trkpt lat="47.32864" lon="-0.2221">
        <ele>72.24</ele>
        <time>2013-04-28T11:56:39Z</time>
      </trkpt>
      <trkpt lat="47.32861" lon="-0.22205">
        <ele>70.79</ele>
        <time>2013-04-28T11:56:40Z</time>
      </trkpt>
      <trkpt lat="47.32851" lon="-0.22182">
        <ele>69.83</ele>
        <time>2013-04-28T11:56:45Z</time>
      </trkpt>
      <trkpt lat="47.32835" lon="-0.22151">
        <ele>71.76</ele>
        <time>2013-04-28T11:56:52Z</time>
      </trkpt>
      <trkpt lat="47.32821" lon="-0.22122">
        <ele>72.24</ele>
        <time>2013-04-28T11:56:58Z</time>
      </trkpt>
      <trkpt lat="47.32819" lon="-0.22117">
        <ele>72.24</ele>
        <time>2013-04-28T11:56:59Z</time>
      </trkpt>
      <trkpt lat="47.32817" lon="-0.22112">
        <ele>73.2</ele>
        <time>2013-04-28T11:57:00Z</time>
      </trkpt>
      <trkpt lat="47.32816" lon="-0.22107">
        <ele>73.2</ele>
        <time>2013-04-28T11:57:01Z</time>
      </trkpt>
      <trkpt lat="47.32815" lon="-0.22102">
        <ele>73.2</ele>
        <time>2013-04-28T11:57:02Z</time>
      </trkpt>
      <trkpt lat="47.32816" lon="-0.22097">
        <ele>73.2</ele>
        <time>2013-04-28T11:57:03Z</time>
      </trkpt>
      <trkpt lat="47.32817" lon="-0.22092">
        <ele>72.72</ele>
        <time>2013-04-28T11:57:04Z</time>
      </trkpt>
      <trkpt lat="47.32819" lon="-0.22087">
        <ele>73.68</ele>
        <time>2013-04-28T11:57:05Z</time>
      </trkpt>
      <trkpt lat="47.32829" lon="-0.22064">
        <ele>73.68</ele>
        <time>2013-04-28T11:57:10Z</time>
      </trkpt>
      <trkpt lat="47.32835" lon="-0.22044">
        <ele>74.16</ele>
        <time>2013-04-28T11:57:15Z</time>
      </trkpt>
      <trkpt lat="47.32838" lon="-0.22038">
        <ele>75.6</ele>
        <time>2013-04-28T11:57:17Z</time>
      </trkpt>
      <trkpt lat="47.3284" lon="-0.22037">
        <ele>76.08</ele>
        <time>2013-04-28T11:57:18Z</time>
      </trkpt>
      <trkpt lat="47.32841" lon="-0.22035">
        <ele>75.6</ele>
        <time>2013-04-28T11:57:19Z</time>
      </trkpt>
      <trkpt lat="47.32843" lon="-0.22033">
        <ele>75.6</ele>
        <time>2013-04-28T11:57:20Z</time>
      </trkpt>
      <trkpt lat="47.32844" lon="-0.22031">
        <ele>75.6</ele>
        <time>2013-04-28T11:57:21Z</time>
      </trkpt>
      <trkpt lat="47.32845" lon="-0.22029">
        <ele>76.08</ele>
        <time>2013-04-28T11:57:22Z</time>
      </trkpt>
      <trkpt lat="47.32847" lon="-0.22024">
        <ele>77.04</ele>
        <time>2013-04-28T11:57:24Z</time>
      </trkpt>
      <trkpt lat="47.32849" lon="-0.2202">
        <ele>76.08</ele>
        <time>2013-04-28T11:57:25Z</time>
      </trkpt>
      <trkpt lat="47.32854" lon="-0.22012">
        <ele>77.04</ele>
        <time>2013-04-28T11:57:29Z</time>
      </trkpt>
      <trkpt lat="47.32855" lon="-0.22008">
        <ele>77.04</ele>
        <time>2013-04-28T11:57:30Z</time>
      </trkpt>
      <trkpt lat="47.32856" lon="-0.22005">
        <ele>78</ele>
        <time>2013-04-28T11:57:31Z</time>
      </trkpt>
      <trkpt lat="47.32858" lon="-0.22003">
        <ele>78</ele>
        <time>2013-04-28T11:57:32Z</time>
      </trkpt>
      <trkpt lat="47.3286" lon="-0.22001">
        <ele>78</ele>
        <time>2013-04-28T11:57:33Z</time>
      </trkpt>
      <trkpt lat="47.32862" lon="-0.22">
        <ele>77.52</ele>
        <time>2013-04-28T11:57:34Z</time>
      </trkpt>
      <trkpt lat="47.32863" lon="-0.21997">
        <ele>78.48</ele>
        <time>2013-04-28T11:57:35Z</time>
      </trkpt>
      <trkpt lat="47.32865" lon="-0.21994">
        <ele>77.52</ele>
        <time>2013-04-28T11:57:36Z</time>
      </trkpt>
      <trkpt lat="47.32867" lon="-0.21991">
        <ele>77.52</ele>
        <time>2013-04-28T11:57:37Z</time>
      </trkpt>
      <trkpt lat="47.32876" lon="-0.21974">
        <ele>78.97</ele>
        <time>2013-04-28T11:57:42Z</time>
      </trkpt>
      <trkpt lat="47.3288" lon="-0.21955">
        <ele>77.04</ele>
        <time>2013-04-28T11:57:46Z</time>
      </trkpt>
      <trkpt lat="47.32881" lon="-0.21949">
        <ele>78</ele>
        <time>2013-04-28T11:57:47Z</time>
      </trkpt>
      <trkpt lat="47.32883" lon="-0.21943">
        <ele>75.6</ele>
        <time>2013-04-28T11:57:48Z</time>
      </trkpt>
      <trkpt lat="47.32885" lon="-0.21937">
        <ele>75.6</ele>
        <time>2013-04-28T11:57:49Z</time>
      </trkpt>
      <trkpt lat="47.32887" lon="-0.21931">
        <ele>76.08</ele>
        <time>2013-04-28T11:57:50Z</time>
      </trkpt>
      <trkpt lat="47.32896" lon="-0.21901">
        <ele>76.08</ele>
        <time>2013-04-28T11:57:55Z</time>
      </trkpt>
      <trkpt lat="47.329" lon="-0.2189">
        <ele>74.64</ele>
        <time>2013-04-28T11:57:57Z</time>
      </trkpt>
      <trkpt lat="47.32903" lon="-0.21886">
        <ele>75.12</ele>
        <time>2013-04-28T11:57:58Z</time>
      </trkpt>
      <trkpt lat="47.32905" lon="-0.21886">
        <ele>74.16</ele>
        <time>2013-04-28T11:57:59Z</time>
      </trkpt>
      <trkpt lat="47.32913" lon="-0.21889">
        <ele>73.2</ele>
        <time>2013-04-28T11:58:03Z</time>
      </trkpt>
      <trkpt lat="47.32919" lon="-0.21903">
        <ele>75.12</ele>
        <time>2013-04-28T11:58:07Z</time>
      </trkpt>
      <trkpt lat="47.32928" lon="-0.21934">
        <ele>75.6</ele>
        <time>2013-04-28T11:58:14Z</time>
      </trkpt>
      <trkpt lat="47.3293" lon="-0.21938">
        <ele>76.08</ele>
        <time>2013-04-28T11:58:15Z</time>
      </trkpt>
      <trkpt lat="47.32933" lon="-0.21954">
        <ele>75.6</ele>
        <time>2013-04-28T11:58:19Z</time>
      </trkpt>
      <trkpt lat="47.32939" lon="-0.21979">
        <ele>76.08</ele>
        <time>2013-04-28T11:58:25Z</time>
      </trkpt>
      <trkpt lat="47.3294" lon="-0.21983">
        <ele>76.08</ele>
        <time>2013-04-28T11:58:26Z</time>
      </trkpt>
      <trkpt lat="47.32938" lon="-0.22017">
        <ele>77.52</ele>
        <time>2013-04-28T11:58:32Z</time>
      </trkpt>
      <trkpt lat="47.3294" lon="-0.22036">
        <ele>76.08</ele>
        <time>2013-04-28T11:58:36Z</time>
      </trkpt>
      <trkpt lat="47.32944" lon="-0.22051">
        <ele>76.08</ele>
        <time>2013-04-28T11:58:39Z</time>
      </trkpt>
      <trkpt lat="47.32958" lon="-0.22067">
        <ele>75.12</ele>
        <time>2013-04-28T11:58:44Z</time>
      </trkpt>
      <trkpt lat="47.32973" lon="-0.22072">
        <ele>76.08</ele>
        <time>2013-04-28T11:58:48Z</time>
      </trkpt>
      <trkpt lat="47.32988" lon="-0.22086">
        <ele>75.12</ele>
        <time>2013-04-28T11:58:53Z</time>
      </trkpt>
      <trkpt lat="47.3299" lon="-0.22089">
        <ele>74.64</ele>
        <time>2013-04-28T11:58:54Z</time>
      </trkpt>
      <trkpt lat="47.32994" lon="-0.2211">
        <ele>75.6</ele>
        <time>2013-04-28T11:58:58Z</time>
      </trkpt>
      <trkpt lat="47.32993" lon="-0.22115">
        <ele>74.16</ele>
        <time>2013-04-28T11:58:59Z</time>
      </trkpt>
      <trkpt lat="47.33003" lon="-0.22128">
        <ele>74.16</ele>
        <time>2013-04-28T11:59:04Z</time>
      </trkpt>
      <trkpt lat="47.33013" lon="-0.22142">
        <ele>76.08</ele>
        <time>2013-04-28T11:59:08Z</time>
      </trkpt>
      <trkpt lat="47.33012" lon="-0.22147">
        <ele>75.6</ele>
        <time>2013-04-28T11:59:09Z</time>
      </trkpt>
      <trkpt lat="47.3301" lon="-0.22151">
        <ele>75.6</ele>
        <time>2013-04-28T11:59:10Z</time>
      </trkpt>
      <trkpt lat="47.33008" lon="-0.22155">
        <ele>75.12</ele>
        <time>2013-04-28T11:59:11Z</time>
      </trkpt>
      <trkpt lat="47.33007" lon="-0.22156">
        <ele>75.6</ele>
        <time>2013-04-28T11:59:12Z</time>
      </trkpt>
      <trkpt lat="47.33006" lon="-0.2216">
        <ele>75.12</ele>
        <time>2013-04-28T11:59:13Z</time>
      </trkpt>
      <trkpt lat="47.33004" lon="-0.22165">
        <ele>75.6</ele>
        <time>2013-04-28T11:59:14Z</time>
      </trkpt>
      <trkpt lat="47.33" lon="-0.22169">
        <ele>74.64</ele>
        <time>2013-04-28T11:59:15Z</time>
      </trkpt>
      <trkpt lat="47.32996" lon="-0.22173">
        <ele>74.64</ele>
        <time>2013-04-28T11:59:16Z</time>
      </trkpt>
      <trkpt lat="47.32993" lon="-0.22175">
        <ele>74.16</ele>
        <time>2013-04-28T11:59:17Z</time>
      </trkpt>
      <trkpt lat="47.32989" lon="-0.22177">
        <ele>74.16</ele>
        <time>2013-04-28T11:59:18Z</time>
      </trkpt>
      <trkpt lat="47.32985" lon="-0.22179">
        <ele>74.16</ele>
        <time>2013-04-28T11:59:19Z</time>
      </trkpt>
      <trkpt lat="47.32981" lon="-0.22183">
        <ele>73.68</ele>
        <time>2013-04-28T11:59:20Z</time>
      </trkpt>
      <trkpt lat="47.3298" lon="-0.22189">
        <ele>74.16</ele>
        <time>2013-04-28T11:59:21Z</time>
      </trkpt>
      <trkpt lat="47.3298" lon="-0.22196">
        <ele>73.68</ele>
        <time>2013-04-28T11:59:22Z</time>
      </trkpt>
      <trkpt lat="47.32981" lon="-0.22201">
        <ele>74.64</ele>
        <time>2013-04-28T11:59:23Z</time>
      </trkpt>
      <trkpt lat="47.32983" lon="-0.22206">
        <ele>74.16</ele>
        <time>2013-04-28T11:59:24Z</time>
      </trkpt>
      <trkpt lat="47.32984" lon="-0.2221">
        <ele>75.12</ele>
        <time>2013-04-28T11:59:25Z</time>
      </trkpt>
      <trkpt lat="47.32984" lon="-0.22215">
        <ele>75.12</ele>
        <time>2013-04-28T11:59:26Z</time>
      </trkpt>
      <trkpt lat="47.32983" lon="-0.2222">
        <ele>75.12</ele>
        <time>2013-04-28T11:59:27Z</time>
      </trkpt>
      <trkpt lat="47.32982" lon="-0.22224">
        <ele>74.64</ele>
        <time>2013-04-28T11:59:28Z</time>
      </trkpt>
      <trkpt lat="47.3298" lon="-0.22227">
        <ele>75.6</ele>
        <time>2013-04-28T11:59:29Z</time>
      </trkpt>
      <trkpt lat="47.32976" lon="-0.22233">
        <ele>74.64</ele>
        <time>2013-04-28T11:59:32Z</time>
      </trkpt>
      <trkpt lat="47.32975" lon="-0.22235">
        <ele>75.6</ele>
        <time>2013-04-28T11:59:33Z</time>
      </trkpt>
      <trkpt lat="47.32976" lon="-0.22237">
        <ele>76.08</ele>
        <time>2013-04-28T11:59:34Z</time>
      </trkpt>
      <trkpt lat="47.32978" lon="-0.22241">
        <ele>74.64</ele>
        <time>2013-04-28T11:59:35Z</time>
      </trkpt>
      <trkpt lat="47.3298" lon="-0.22245">
        <ele>76.08</ele>
        <time>2013-04-28T11:59:36Z</time>
      </trkpt>
      <trkpt lat="47.32981" lon="-0.22251">
        <ele>75.12</ele>
        <time>2013-04-28T11:59:37Z</time>
      </trkpt>
      <trkpt lat="47.32982" lon="-0.22257">
        <ele>74.16</ele>
        <time>2013-04-28T11:59:38Z</time>
      </trkpt>
      <trkpt lat="47.32983" lon="-0.22281">
        <ele>75.12</ele>
        <time>2013-04-28T11:59:41Z</time>
      </trkpt>
      <trkpt lat="47.32985" lon="-0.22288">
        <ele>73.2</ele>
        <time>2013-04-28T11:59:42Z</time>
      </trkpt>
      <trkpt lat="47.32987" lon="-0.22292">
        <ele>73.2</ele>
        <time>2013-04-28T11:59:43Z</time>
      </trkpt>
      <trkpt lat="47.32989" lon="-0.22294">
        <ele>71.27</ele>
        <time>2013-04-28T11:59:44Z</time>
      </trkpt>
      <trkpt lat="47.32992" lon="-0.22297">
        <ele>72.72</ele>
        <time>2013-04-28T11:59:45Z</time>
      </trkpt>
      <trkpt lat="47.32995" lon="-0.22299">
        <ele>72.72</ele>
        <time>2013-04-28T11:59:46Z</time>
      </trkpt>
      <trkpt lat="47.32999" lon="-0.22302">
        <ele>71.76</ele>
        <time>2013-04-28T11:59:47Z</time>
      </trkpt>
      <trkpt lat="47.33002" lon="-0.22304">
        <ele>72.72</ele>
        <time>2013-04-28T11:59:48Z</time>
      </trkpt>
      <trkpt lat="47.33005" lon="-0.22308">
        <ele>73.2</ele>
        <time>2013-04-28T11:59:49Z</time>
      </trkpt>
      <trkpt lat="47.33006" lon="-0.22314">
        <ele>71.76</ele>
        <time>2013-04-28T11:59:50Z</time>
      </trkpt>
      <trkpt lat="47.33007" lon="-0.22319">
        <ele>71.27</ele>
        <time>2013-04-28T11:59:51Z</time>
      </trkpt>
      <trkpt lat="47.33009" lon="-0.22323">
        <ele>72.24</ele>
        <time>2013-04-28T11:59:52Z</time>
      </trkpt>
      <trkpt lat="47.33012" lon="-0.22328">
        <ele>71.76</ele>
        <time>2013-04-28T11:59:53Z</time>
      </trkpt>
      <trkpt lat="47.33015" lon="-0.22332">
        <ele>71.27</ele>
        <time>2013-04-28T11:59:54Z</time>
      </trkpt>
      <trkpt lat="47.33017" lon="-0.22335">
        <ele>69.35</ele>
        <time>2013-04-28T11:59:55Z</time>
      </trkpt>
      <trkpt lat="47.3302" lon="-0.22339">
        <ele>69.35</ele>
        <time>2013-04-28T11:59:56Z</time>
      </trkpt>
      <trkpt lat="47.33024" lon="-0.22342">
        <ele>68.87</ele>
        <time>2013-04-28T11:59:57Z</time>
      </trkpt>
      <trkpt lat="47.33027" lon="-0.22345">
        <ele>69.83</ele>
        <time>2013-04-28T11:59:58Z</time>
      </trkpt>
      <trkpt lat="47.33029" lon="-0.22348">
        <ele>69.83</ele>
        <time>2013-04-28T11:59:59Z</time>
      </trkpt>
      <trkpt lat="47.33032" lon="-0.22353">
        <ele>70.31</ele>
        <time>2013-04-28T12:00:01Z</time>
      </trkpt>
      <trkpt lat="47.33033" lon="-0.22356">
        <ele>68.87</ele>
        <time>2013-04-28T12:00:02Z</time>
      </trkpt>
      <trkpt lat="47.33037" lon="-0.22363">
        <ele>67.43</ele>
        <time>2013-04-28T12:00:05Z</time>
      </trkpt>
      <trkpt lat="47.33048" lon="-0.22373">
        <ele>66.95</ele>
        <time>2013-04-28T12:00:11Z</time>
      </trkpt>
      <trkpt lat="47.33053" lon="-0.22379">
        <ele>65.99</ele>
        <time>2013-04-28T12:00:17Z</time>
      </trkpt>
      <trkpt lat="47.33054" lon="-0.2238">
        <ele>72.72</ele>
        <time>2013-04-28T12:00:29Z</time>
      </trkpt>
      <trkpt lat="47.33055" lon="-0.22381">
        <ele>69.35</ele>
        <time>2013-04-28T12:00:31Z</time>
      </trkpt>
      <trkpt lat="47.33057" lon="-0.22379">
        <ele>67.91</ele>
        <time>2013-04-28T12:00:38Z</time>
      </trkpt>
      <trkpt lat="47.33061" lon="-0.22385">
        <ele>65.99</ele>
        <time>2013-04-28T12:00:58Z</time>
      </trkpt>
      <trkpt lat="47.33062" lon="-0.22389">
        <ele>65.03</ele>
        <time>2013-04-28T12:00:59Z</time>
      </trkpt>
      <trkpt lat="47.33062" lon="-0.22393">
        <ele>64.55</ele>
        <time>2013-04-28T12:01:00Z</time>
      </trkpt>
      <trkpt lat="47.33063" lon="-0.22395">
        <ele>64.07</ele>
        <time>2013-04-28T12:01:01Z</time>
      </trkpt>
      <trkpt lat="47.33063" lon="-0.22396">
        <ele>65.03</ele>
        <time>2013-04-28T12:01:02Z</time>
      </trkpt>
      <trkpt lat="47.33065" lon="-0.22398">
        <ele>63.58</ele>
        <time>2013-04-28T12:01:09Z</time>
      </trkpt>
      <trkpt lat="47.33068" lon="-0.22416">
        <ele>63.1</ele>
        <time>2013-04-28T12:01:20Z</time>
      </trkpt>
      <trkpt lat="47.33071" lon="-0.22431">
        <ele>62.62</ele>
        <time>2013-04-28T12:01:22Z</time>
      </trkpt>
      <trkpt lat="47.33072" lon="-0.22459">
        <ele>61.66</ele>
        <time>2013-04-28T12:01:26Z</time>
      </trkpt>
      <trkpt lat="47.33075" lon="-0.22478">
        <ele>62.14</ele>
        <time>2013-04-28T12:01:29Z</time>
      </trkpt>
      <trkpt lat="47.33076" lon="-0.22485">
        <ele>64.55</ele>
        <time>2013-04-28T12:01:30Z</time>
      </trkpt>
      <trkpt lat="47.33081" lon="-0.22503">
        <ele>63.1</ele>
        <time>2013-04-28T12:01:33Z</time>
      </trkpt>
      <trkpt lat="47.33092" lon="-0.22538">
        <ele>63.58</ele>
        <time>2013-04-28T12:01:39Z</time>
      </trkpt>
      <trkpt lat="47.33103" lon="-0.22579">
        <ele>65.03</ele>
        <time>2013-04-28T12:01:46Z</time>
      </trkpt>
      <trkpt lat="47.33116" lon="-0.22613">
        <ele>66.47</ele>
        <time>2013-04-28T12:01:53Z</time>
      </trkpt>
      <trkpt lat="47.33118" lon="-0.22619">
        <ele>67.43</ele>
        <time>2013-04-28T12:01:54Z</time>
      </trkpt>
      <trkpt lat="47.33119" lon="-0.22632">
        <ele>66.95</ele>
        <time>2013-04-28T12:01:58Z</time>
      </trkpt>
      <trkpt lat="47.33119" lon="-0.22635">
        <ele>66.47</ele>
        <time>2013-04-28T12:01:59Z</time>
      </trkpt>
      <trkpt lat="47.33119" lon="-0.22637">
        <ele>67.43</ele>
        <time>2013-04-28T12:02:00Z</time>
      </trkpt>
      <trkpt lat="47.33121" lon="-0.22639">
        <ele>67.43</ele>
        <time>2013-04-28T12:02:01Z</time>
      </trkpt>
      <trkpt lat="47.33125" lon="-0.22642">
        <ele>67.91</ele>
        <time>2013-04-28T12:02:02Z</time>
      </trkpt>
      <trkpt lat="47.33144" lon="-0.22659">
        <ele>66.95</ele>
        <time>2013-04-28T12:02:08Z</time>
      </trkpt>
      <trkpt lat="47.33172" lon="-0.22703">
        <ele>69.35</ele>
        <time>2013-04-28T12:02:17Z</time>
      </trkpt>
      <trkpt lat="47.33175" lon="-0.22707">
        <ele>68.87</ele>
        <time>2013-04-28T12:02:18Z</time>
      </trkpt>
      <trkpt lat="47.33177" lon="-0.22713">
        <ele>68.39</ele>
        <time>2013-04-28T12:02:19Z</time>
      </trkpt>
      <trkpt lat="47.33177" lon="-0.22718">
        <ele>66.95</ele>
        <time>2013-04-28T12:02:20Z</time>
      </trkpt>
      <trkpt lat="47.33177" lon="-0.22723">
        <ele>67.43</ele>
        <time>2013-04-28T12:02:21Z</time>
      </trkpt>
      <trkpt lat="47.33176" lon="-0.22727">
        <ele>67.43</ele>
        <time>2013-04-28T12:02:22Z</time>
      </trkpt>
      <trkpt lat="47.33174" lon="-0.22732">
        <ele>66.95</ele>
        <time>2013-04-28T12:02:23Z</time>
      </trkpt>
      <trkpt lat="47.33172" lon="-0.22736">
        <ele>67.43</ele>
        <time>2013-04-28T12:02:24Z</time>
      </trkpt>
      <trkpt lat="47.33165" lon="-0.22751">
        <ele>68.39</ele>
        <time>2013-04-28T12:02:27Z</time>
      </trkpt>
      <trkpt lat="47.33156" lon="-0.22783">
        <ele>68.39</ele>
        <time>2013-04-28T12:02:33Z</time>
      </trkpt>
      <trkpt lat="47.33155" lon="-0.22789">
        <ele>68.87</ele>
        <time>2013-04-28T12:02:34Z</time>
      </trkpt>
      <trkpt lat="47.33154" lon="-0.22795">
        <ele>67.91</ele>
        <time>2013-04-28T12:02:35Z</time>
      </trkpt>
      <trkpt lat="47.33154" lon="-0.22802">
        <ele>67.91</ele>
        <time>2013-04-28T12:02:36Z</time>
      </trkpt>
      <trkpt lat="47.33154" lon="-0.22808">
        <ele>68.87</ele>
        <time>2013-04-28T12:02:37Z</time>
      </trkpt>
      <trkpt lat="47.33154" lon="-0.22815">
        <ele>68.87</ele>
        <time>2013-04-28T12:02:38Z</time>
      </trkpt>
      <trkpt lat="47.33154" lon="-0.22821">
        <ele>69.35</ele>
        <time>2013-04-28T12:02:39Z</time>
      </trkpt>
      <trkpt lat="47.33155" lon="-0.22827">
        <ele>69.83</ele>
        <time>2013-04-28T12:02:40Z</time>
      </trkpt>
      <trkpt lat="47.33156" lon="-0.22833">
        <ele>69.35</ele>
        <time>2013-04-28T12:02:41Z</time>
      </trkpt>
      <trkpt lat="47.33157" lon="-0.22839">
        <ele>69.35</ele>
        <time>2013-04-28T12:02:42Z</time>
      </trkpt>
      <trkpt lat="47.33165" lon="-0.22897">
        <ele>70.31</ele>
        <time>2013-04-28T12:02:51Z</time>
      </trkpt>
      <trkpt lat="47.33166" lon="-0.22904">
        <ele>70.31</ele>
        <time>2013-04-28T12:02:52Z</time>
      </trkpt>
      <trkpt lat="47.33168" lon="-0.2293">
        <ele>70.79</ele>
        <time>2013-04-28T12:02:56Z</time>
      </trkpt>
      <trkpt lat="47.33168" lon="-0.22957">
        <ele>71.27</ele>
        <time>2013-04-28T12:03:00Z</time>
      </trkpt>
      <trkpt lat="47.33167" lon="-0.2297">
        <ele>69.83</ele>
        <time>2013-04-28T12:03:02Z</time>
      </trkpt>
      <trkpt lat="47.33166" lon="-0.22988">
        <ele>70.31</ele>
        <time>2013-04-28T12:03:05Z</time>
      </trkpt>
      <trkpt lat="47.3316" lon="-0.2305">
        <ele>70.79</ele>
        <time>2013-04-28T12:03:15Z</time>
      </trkpt>
      <trkpt lat="47.3316" lon="-0.23062">
        <ele>71.27</ele>
        <time>2013-04-28T12:03:17Z</time>
      </trkpt>
      <trkpt lat="47.33161" lon="-0.23068">
        <ele>72.24</ele>
        <time>2013-04-28T12:03:18Z</time>
      </trkpt>
      <trkpt lat="47.33162" lon="-0.23074">
        <ele>72.24</ele>
        <time>2013-04-28T12:03:19Z</time>
      </trkpt>
      <trkpt lat="47.33164" lon="-0.2308">
        <ele>71.76</ele>
        <time>2013-04-28T12:03:20Z</time>
      </trkpt>
      <trkpt lat="47.33164" lon="-0.23085">
        <ele>72.24</ele>
        <time>2013-04-28T12:03:21Z</time>
      </trkpt>
      <trkpt lat="47.33164" lon="-0.23092">
        <ele>71.27</ele>
        <time>2013-04-28T12:03:22Z</time>
      </trkpt>
      <trkpt lat="47.33163" lon="-0.23097">
        <ele>72.24</ele>
        <time>2013-04-28T12:03:23Z</time>
      </trkpt>
      <trkpt lat="47.33163" lon="-0.23104">
        <ele>72.24</ele>
        <time>2013-04-28T12:03:24Z</time>
      </trkpt>
      <trkpt lat="47.33163" lon="-0.2311">
        <ele>72.72</ele>
        <time>2013-04-28T12:03:25Z</time>
      </trkpt>
      <trkpt lat="47.33163" lon="-0.23116">
        <ele>72.24</ele>
        <time>2013-04-28T12:03:26Z</time>
      </trkpt>
      <trkpt lat="47.33162" lon="-0.23122">
        <ele>72.24</ele>
        <time>2013-04-28T12:03:27Z</time>
      </trkpt>
      <trkpt lat="47.3316" lon="-0.23128">
        <ele>73.2</ele>
        <time>2013-04-28T12:03:28Z</time>
      </trkpt>
      <trkpt lat="47.33158" lon="-0.23134">
        <ele>72.72</ele>
        <time>2013-04-28T12:03:29Z</time>
      </trkpt>
      <trkpt lat="47.33156" lon="-0.23139">
        <ele>74.16</ele>
        <time>2013-04-28T12:03:30Z</time>
      </trkpt>
      <trkpt lat="47.33153" lon="-0.23143">
        <ele>74.16</ele>
        <time>2013-04-28T12:03:31Z</time>
      </trkpt>
      <trkpt lat="47.3315" lon="-0.23148">
        <ele>73.68</ele>
        <time>2013-04-28T12:03:32Z</time>
      </trkpt>
      <trkpt lat="47.33147" lon="-0.23152">
        <ele>75.12</ele>
        <time>2013-04-28T12:03:33Z</time>
      </trkpt>
      <trkpt lat="47.33144" lon="-0.23155">
        <ele>73.2</ele>
        <time>2013-04-28T12:03:34Z</time>
      </trkpt>
      <trkpt lat="47.33141" lon="-0.23159">
        <ele>74.64</ele>
        <time>2013-04-28T12:03:35Z</time>
      </trkpt>
      <trkpt lat="47.33121" lon="-0.23189">
        <ele>76.08</ele>
        <time>2013-04-28T12:03:43Z</time>
      </trkpt>
      <trkpt lat="47.33104" lon="-0.23205">
        <ele>77.04</ele>
        <time>2013-04-28T12:03:51Z</time>
      </trkpt>
      <trkpt lat="47.33099" lon="-0.23215">
        <ele>79.45</ele>
        <time>2013-04-28T12:03:55Z</time>
      </trkpt>
      <trkpt lat="47.33099" lon="-0.23253">
        <ele>78</ele>
        <time>2013-04-28T12:04:04Z</time>
      </trkpt>
      <trkpt lat="47.33097" lon="-0.23277">
        <ele>78</ele>
        <time>2013-04-28T12:04:10Z</time>
      </trkpt>
      <trkpt lat="47.33098" lon="-0.23286">
        <ele>79.45</ele>
        <time>2013-04-28T12:04:15Z</time>
      </trkpt>
      <trkpt lat="47.33099" lon="-0.23303">
        <ele>77.04</ele>
        <time>2013-04-28T12:04:23Z</time>
      </trkpt>
      <trkpt lat="47.33101" lon="-0.23308">
        <ele>78.48</ele>
        <time>2013-04-28T12:04:26Z</time>
      </trkpt>
      <trkpt lat="47.33104" lon="-0.23324">
        <ele>78.97</ele>
        <time>2013-04-28T12:04:33Z</time>
      </trkpt>
      <trkpt lat="47.3311" lon="-0.23348">
        <ele>78.48</ele>
        <time>2013-04-28T12:04:42Z</time>
      </trkpt>
      <trkpt lat="47.33111" lon="-0.23355">
        <ele>80.41</ele>
        <time>2013-04-28T12:04:45Z</time>
      </trkpt>
      <trkpt lat="47.33113" lon="-0.23373">
        <ele>80.41</ele>
        <time>2013-04-28T12:04:53Z</time>
      </trkpt>
      <trkpt lat="47.33116" lon="-0.23391">
        <ele>82.81</ele>
        <time>2013-04-28T12:05:00Z</time>
      </trkpt>
      <trkpt lat="47.33117" lon="-0.23394">
        <ele>83.29</ele>
        <time>2013-04-28T12:05:01Z</time>
      </trkpt>
      <trkpt lat="47.33121" lon="-0.23418">
        <ele>81.85</ele>
        <time>2013-04-28T12:05:09Z</time>
      </trkpt>
      <trkpt lat="47.33129" lon="-0.23453">
        <ele>81.37</ele>
        <time>2013-04-28T12:05:17Z</time>
      </trkpt>
      <trkpt lat="47.33142" lon="-0.23505">
        <ele>82.81</ele>
        <time>2013-04-28T12:05:27Z</time>
      </trkpt>
      <trkpt lat="47.33152" lon="-0.23547">
        <ele>82.81</ele>
        <time>2013-04-28T12:05:35Z</time>
      </trkpt>
      <trkpt lat="47.3316" lon="-0.23577">
        <ele>81.85</ele>
        <time>2013-04-28T12:05:42Z</time>
      </trkpt>
      <trkpt lat="47.33161" lon="-0.23579">
        <ele>81.37</ele>
        <time>2013-04-28T12:05:47Z</time>
      </trkpt>
      <trkpt lat="47.33167" lon="-0.23582">
        <ele>80.89</ele>
        <time>2013-04-28T12:05:56Z</time>
      </trkpt>
      <trkpt lat="47.33172" lon="-0.2358">
        <ele>82.33</ele>
        <time>2013-04-28T12:05:58Z</time>
      </trkpt>
      <trkpt lat="47.33175" lon="-0.23578">
        <ele>81.85</ele>
        <time>2013-04-28T12:05:59Z</time>
      </trkpt>
      <trkpt lat="47.33189" lon="-0.23571">
        <ele>81.85</ele>
        <time>2013-04-28T12:06:03Z</time>
      </trkpt>
      <trkpt lat="47.33198" lon="-0.2357">
        <ele>80.41</ele>
        <time>2013-04-28T12:06:05Z</time>
      </trkpt>
      <trkpt lat="47.33206" lon="-0.23568">
        <ele>79.93</ele>
        <time>2013-04-28T12:06:07Z</time>
      </trkpt>
      <trkpt lat="47.33219" lon="-0.23562">
        <ele>80.41</ele>
        <time>2013-04-28T12:06:10Z</time>
      </trkpt>
      <trkpt lat="47.33236" lon="-0.2355">
        <ele>78.48</ele>
        <time>2013-04-28T12:06:14Z</time>
      </trkpt>
      <trkpt lat="47.33275" lon="-0.23517">
        <ele>77.52</ele>
        <time>2013-04-28T12:06:22Z</time>
      </trkpt>
      <trkpt lat="47.33289" lon="-0.23499">
        <ele>76.08</ele>
        <time>2013-04-28T12:06:25Z</time>
      </trkpt>
      <trkpt lat="47.33327" lon="-0.23446">
        <ele>71.76</ele>
        <time>2013-04-28T12:06:33Z</time>
      </trkpt>
      <trkpt lat="47.3333" lon="-0.23441">
        <ele>70.79</ele>
        <time>2013-04-28T12:06:34Z</time>
      </trkpt>
      <trkpt lat="47.33333" lon="-0.23438">
        <ele>70.79</ele>
        <time>2013-04-28T12:06:35Z</time>
      </trkpt>
      <trkpt lat="47.3334" lon="-0.23434">
        <ele>69.83</ele>
        <time>2013-04-28T12:06:38Z</time>
      </trkpt>
      <trkpt lat="47.33342" lon="-0.23435">
        <ele>69.83</ele>
        <time>2013-04-28T12:06:39Z</time>
      </trkpt>
      <trkpt lat="47.33343" lon="-0.23437">
        <ele>70.31</ele>
        <time>2013-04-28T12:06:40Z</time>
      </trkpt>
      <trkpt lat="47.33344" lon="-0.23439">
        <ele>70.79</ele>
        <time>2013-04-28T12:06:41Z</time>
      </trkpt>
      <trkpt lat="47.33345" lon="-0.23441">
        <ele>72.24</ele>
        <time>2013-04-28T12:06:42Z</time>
      </trkpt>
      <trkpt lat="47.33346" lon="-0.23442">
        <ele>71.27</ele>
        <time>2013-04-28T12:06:43Z</time>
      </trkpt>
      <trkpt lat="47.33353" lon="-0.23448">
        <ele>70.79</ele>
        <time>2013-04-28T12:06:46Z</time>
      </trkpt>
      <trkpt lat="47.33375" lon="-0.23448">
        <ele>69.83</ele>
        <time>2013-04-28T12:06:52Z</time>
      </trkpt>
      <trkpt lat="47.33377" lon="-0.23451">
        <ele>69.35</ele>
        <time>2013-04-28T12:06:53Z</time>
      </trkpt>
      <trkpt lat="47.3338" lon="-0.23457">
        <ele>68.39</ele>
        <time>2013-04-28T12:06:55Z</time>
      </trkpt>
      <trkpt lat="47.33385" lon="-0.23489">
        <ele>70.31</ele>
        <time>2013-04-28T12:07:02Z</time>
      </trkpt>
      <trkpt lat="47.33391" lon="-0.23531">
        <ele>69.35</ele>
        <time>2013-04-28T12:07:09Z</time>
      </trkpt>
      <trkpt lat="47.334" lon="-0.23597">
        <ele>71.27</ele>
        <time>2013-04-28T12:07:20Z</time>
      </trkpt>
      <trkpt lat="47.3341" lon="-0.23615">
        <ele>72.24</ele>
        <time>2013-04-28T12:07:24Z</time>
      </trkpt>
      <trkpt lat="47.33414" lon="-0.23618">
        <ele>70.79</ele>
        <time>2013-04-28T12:07:25Z</time>
      </trkpt>
      <trkpt lat="47.33419" lon="-0.2362">
        <ele>70.79</ele>
        <time>2013-04-28T12:07:26Z</time>
      </trkpt>
      <trkpt lat="47.33425" lon="-0.23621">
        <ele>70.31</ele>
        <time>2013-04-28T12:07:27Z</time>
      </trkpt>
      <trkpt lat="47.3343" lon="-0.23622">
        <ele>69.35</ele>
        <time>2013-04-28T12:07:28Z</time>
      </trkpt>
      <trkpt lat="47.33442" lon="-0.23621">
        <ele>70.31</ele>
        <time>2013-04-28T12:07:30Z</time>
      </trkpt>
      <trkpt lat="47.33457" lon="-0.23615">
        <ele>68.39</ele>
        <time>2013-04-28T12:07:34Z</time>
      </trkpt>
      <trkpt lat="47.33474" lon="-0.23625">
        <ele>67.91</ele>
        <time>2013-04-28T12:07:39Z</time>
      </trkpt>
      <trkpt lat="47.33489" lon="-0.23623">
        <ele>64.07</ele>
        <time>2013-04-28T12:07:43Z</time>
      </trkpt>
      <trkpt lat="47.33497" lon="-0.23618">
        <ele>64.07</ele>
        <time>2013-04-28T12:07:45Z</time>
      </trkpt>
      <trkpt lat="47.33501" lon="-0.23615">
        <ele>63.1</ele>
        <time>2013-04-28T12:07:46Z</time>
      </trkpt>
      <trkpt lat="47.33505" lon="-0.23612">
        <ele>63.1</ele>
        <time>2013-04-28T12:07:47Z</time>
      </trkpt>
      <trkpt lat="47.33514" lon="-0.23606">
        <ele>61.66</ele>
        <time>2013-04-28T12:07:49Z</time>
      </trkpt>
      <trkpt lat="47.3352" lon="-0.23604">
        <ele>62.62</ele>
        <time>2013-04-28T12:07:50Z</time>
      </trkpt>
      <trkpt lat="47.33531" lon="-0.23604">
        <ele>59.74</ele>
        <time>2013-04-28T12:07:52Z</time>
      </trkpt>
      <trkpt lat="47.3354" lon="-0.23607">
        <ele>58.78</ele>
        <time>2013-04-28T12:07:54Z</time>
      </trkpt>
      <trkpt lat="47.33544" lon="-0.23609">
        <ele>58.78</ele>
        <time>2013-04-28T12:07:55Z</time>
      </trkpt>
      <trkpt lat="47.33555" lon="-0.23618">
        <ele>55.89</ele>
        <time>2013-04-28T12:07:59Z</time>
      </trkpt>
      <trkpt lat="47.33557" lon="-0.2362">
        <ele>52.05</ele>
        <time>2013-04-28T12:08:01Z</time>
      </trkpt>
      <trkpt lat="47.33559" lon="-0.23622">
        <ele>52.53</ele>
        <time>2013-04-28T12:08:02Z</time>
      </trkpt>
      <trkpt lat="47.33562" lon="-0.23629">
        <ele>53.01</ele>
        <time>2013-04-28T12:08:04Z</time>
      </trkpt>
      <trkpt lat="47.33563" lon="-0.23637">
        <ele>49.16</ele>
        <time>2013-04-28T12:08:05Z</time>
      </trkpt>
      <trkpt lat="47.33565" lon="-0.23647">
        <ele>50.61</ele>
        <time>2013-04-28T12:08:06Z</time>
      </trkpt>
      <trkpt lat="47.33567" lon="-0.23658">
        <ele>50.13</ele>
        <time>2013-04-28T12:08:07Z</time>
      </trkpt>
      <trkpt lat="47.33569" lon="-0.23668">
        <ele>50.61</ele>
        <time>2013-04-28T12:08:08Z</time>
      </trkpt>
      <trkpt lat="47.33571" lon="-0.23679">
        <ele>49.16</ele>
        <time>2013-04-28T12:08:09Z</time>
      </trkpt>
      <trkpt lat="47.33574" lon="-0.23691">
        <ele>48.68</ele>
        <time>2013-04-28T12:08:10Z</time>
      </trkpt>
      <trkpt lat="47.33576" lon="-0.23701">
        <ele>48.68</ele>
        <time>2013-04-28T12:08:11Z</time>
      </trkpt>
      <trkpt lat="47.33585" lon="-0.23733">
        <ele>44.36</ele>
        <time>2013-04-28T12:08:15Z</time>
      </trkpt>
      <trkpt lat="47.33587" lon="-0.23738">
        <ele>44.36</ele>
        <time>2013-04-28T12:08:16Z</time>
      </trkpt>
      <trkpt lat="47.33591" lon="-0.23744">
        <ele>41.95</ele>
        <time>2013-04-28T12:08:18Z</time>
      </trkpt>
      <trkpt lat="47.33596" lon="-0.23736">
        <ele>43.4</ele>
        <time>2013-04-28T12:08:23Z</time>
      </trkpt>
      <trkpt lat="47.33589" lon="-0.23713">
        <ele>44.36</ele>
        <time>2013-04-28T12:08:30Z</time>
      </trkpt>
      <trkpt lat="47.33585" lon="-0.23693">
        <ele>47.72</ele>
        <time>2013-04-28T12:08:36Z</time>
      </trkpt>
      <trkpt lat="47.33585" lon="-0.23689">
        <ele>47.72</ele>
        <time>2013-04-28T12:08:37Z</time>
      </trkpt>
      <trkpt lat="47.33583" lon="-0.23667">
        <ele>47.24</ele>
        <time>2013-04-28T12:08:43Z</time>
      </trkpt>
      <trkpt lat="47.33586" lon="-0.23643">
        <ele>49.16</ele>
        <time>2013-04-28T12:08:49Z</time>
      </trkpt>
      <trkpt lat="47.33586" lon="-0.23639">
        <ele>49.65</ele>
        <time>2013-04-28T12:08:50Z</time>
      </trkpt>
      <trkpt lat="47.33583" lon="-0.23629">
        <ele>49.16</ele>
        <time>2013-04-28T12:08:53Z</time>
      </trkpt>
      <trkpt lat="47.33583" lon="-0.23606">
        <ele>52.05</ele>
        <time>2013-04-28T12:08:59Z</time>
      </trkpt>
      <trkpt lat="47.33582" lon="-0.23596">
        <ele>52.53</ele>
        <time>2013-04-28T12:09:01Z</time>
      </trkpt>
      <trkpt lat="47.33578" lon="-0.23566">
        <ele>53.01</ele>
        <time>2013-04-28T12:09:08Z</time>
      </trkpt>
      <trkpt lat="47.33572" lon="-0.23532">
        <ele>55.41</ele>
        <time>2013-04-28T12:09:16Z</time>
      </trkpt>
      <trkpt lat="47.33571" lon="-0.23528">
        <ele>55.89</ele>
        <time>2013-04-28T12:09:17Z</time>
      </trkpt>
      <trkpt lat="47.33566" lon="-0.23509">
        <ele>55.41</ele>
        <time>2013-04-28T12:09:22Z</time>
      </trkpt>
      <trkpt lat="47.33574" lon="-0.23501">
        <ele>53.01</ele>
        <time>2013-04-28T12:09:27Z</time>
      </trkpt>
      <trkpt lat="47.33599" lon="-0.23491">
        <ele>54.93</ele>
        <time>2013-04-28T12:09:31Z</time>
      </trkpt>
      <trkpt lat="47.33623" lon="-0.23479">
        <ele>51.09</ele>
        <time>2013-04-28T12:09:34Z</time>
      </trkpt>
      <trkpt lat="47.33632" lon="-0.23475">
        <ele>51.09</ele>
        <time>2013-04-28T12:09:35Z</time>
      </trkpt>
      <trkpt lat="47.33658" lon="-0.2346">
        <ele>47.24</ele>
        <time>2013-04-28T12:09:38Z</time>
      </trkpt>
      <trkpt lat="47.33667" lon="-0.23456">
        <ele>47.72</ele>
        <time>2013-04-28T12:09:39Z</time>
      </trkpt>
      <trkpt lat="47.33724" lon="-0.23429">
        <ele>44.36</ele>
        <time>2013-04-28T12:09:45Z</time>
      </trkpt>
      <trkpt lat="47.33761" lon="-0.23414">
        <ele>42.92</ele>
        <time>2013-04-28T12:09:49Z</time>
      </trkpt>
      <trkpt lat="47.33768" lon="-0.23413">
        <ele>40.99</ele>
        <time>2013-04-28T12:09:50Z</time>
      </trkpt>
      <trkpt lat="47.33775" lon="-0.23414">
        <ele>40.99</ele>
        <time>2013-04-28T12:09:51Z</time>
      </trkpt>
      <trkpt lat="47.33789" lon="-0.23415">
        <ele>37.63</ele>
        <time>2013-04-28T12:09:55Z</time>
      </trkpt>
      <trkpt lat="47.3379" lon="-0.23412">
        <ele>37.63</ele>
        <time>2013-04-28T12:09:56Z</time>
      </trkpt>
      <trkpt lat="47.3379" lon="-0.23408">
        <ele>38.59</ele>
        <time>2013-04-28T12:09:57Z</time>
      </trkpt>
      <trkpt lat="47.33788" lon="-0.23405">
        <ele>38.11</ele>
        <time>2013-04-28T12:09:58Z</time>
      </trkpt>
      <trkpt lat="47.33786" lon="-0.23401">
        <ele>37.15</ele>
        <time>2013-04-28T12:09:59Z</time>
      </trkpt>
      <trkpt lat="47.33784" lon="-0.23398">
        <ele>38.59</ele>
        <time>2013-04-28T12:10:00Z</time>
      </trkpt>
      <trkpt lat="47.33777" lon="-0.23383">
        <ele>38.59</ele>
        <time>2013-04-28T12:10:05Z</time>
      </trkpt>
      <trkpt lat="47.33777" lon="-0.23379">
        <ele>37.63</ele>
        <time>2013-04-28T12:10:06Z</time>
      </trkpt>
      <trkpt lat="47.33778" lon="-0.23366">
        <ele>40.99</ele>
        <time>2013-04-28T12:10:10Z</time>
      </trkpt>
      <trkpt lat="47.33779" lon="-0.23359">
        <ele>38.11</ele>
        <time>2013-04-28T12:10:12Z</time>
      </trkpt>
      <trkpt lat="47.33781" lon="-0.23346">
        <ele>40.03</ele>
        <time>2013-04-28T12:10:17Z</time>
      </trkpt>
      <trkpt lat="47.33781" lon="-0.23334">
        <ele>39.07</ele>
        <time>2013-04-28T12:11:02Z</time>
      </trkpt>
      <trkpt lat="47.33775" lon="-0.23303">
        <ele>39.07</ele>
        <time>2013-04-28T12:11:09Z</time>
      </trkpt>
      <trkpt lat="47.33776" lon="-0.23299">
        <ele>38.59</ele>
        <time>2013-04-28T12:11:10Z</time>
      </trkpt>
      <trkpt lat="47.33777" lon="-0.23296">
        <ele>38.59</ele>
        <time>2013-04-28T12:11:11Z</time>
      </trkpt>
      <trkpt lat="47.33778" lon="-0.23292">
        <ele>39.07</ele>
        <time>2013-04-28T12:11:12Z</time>
      </trkpt>
      <trkpt lat="47.33781" lon="-0.23289">
        <ele>38.59</ele>
        <time>2013-04-28T12:11:13Z</time>
      </trkpt>
      <trkpt lat="47.33785" lon="-0.23284">
        <ele>38.11</ele>
        <time>2013-04-28T12:11:14Z</time>
      </trkpt>
      <trkpt lat="47.33791" lon="-0.23277">
        <ele>39.07</ele>
        <time>2013-04-28T12:11:16Z</time>
      </trkpt>
      <trkpt lat="47.33793" lon="-0.23274">
        <ele>38.11</ele>
        <time>2013-04-28T12:11:17Z</time>
      </trkpt>
      <trkpt lat="47.33794" lon="-0.23271">
        <ele>37.63</ele>
        <time>2013-04-28T12:11:18Z</time>
      </trkpt>
      <trkpt lat="47.33793" lon="-0.23268">
        <ele>39.55</ele>
        <time>2013-04-28T12:11:19Z</time>
      </trkpt>
      <trkpt lat="47.33793" lon="-0.23266">
        <ele>38.59</ele>
        <time>2013-04-28T12:11:20Z</time>
      </trkpt>
      <trkpt lat="47.33792" lon="-0.23264">
        <ele>39.07</ele>
        <time>2013-04-28T12:11:21Z</time>
      </trkpt>
      <trkpt lat="47.33791" lon="-0.23262">
        <ele>39.55</ele>
        <time>2013-04-28T12:11:22Z</time>
      </trkpt>
      <trkpt lat="47.33785" lon="-0.23245">
        <ele>43.88</ele>
        <time>2013-04-28T12:11:29Z</time>
      </trkpt>
      <trkpt lat="47.33783" lon="-0.2324">
        <ele>41.47</ele>
        <time>2013-04-28T12:11:33Z</time>
      </trkpt>
      <trkpt lat="47.33783" lon="-0.23238">
        <ele>41.95</ele>
        <time>2013-04-28T12:11:34Z</time>
      </trkpt>
      <trkpt lat="47.33783" lon="-0.2323">
        <ele>43.4</ele>
        <time>2013-04-28T12:11:39Z</time>
      </trkpt>
      <trkpt lat="47.33783" lon="-0.23228">
        <ele>43.88</ele>
        <time>2013-04-28T12:11:40Z</time>
      </trkpt>
      <trkpt lat="47.33781" lon="-0.23227">
        <ele>42.92</ele>
        <time>2013-04-28T12:11:42Z</time>
      </trkpt>
      <trkpt lat="47.33781" lon="-0.23225">
        <ele>44.36</ele>
        <time>2013-04-28T12:11:44Z</time>
      </trkpt>
      <trkpt lat="47.33782" lon="-0.23225">
        <ele>44.84</ele>
        <time>2013-04-28T12:11:45Z</time>
      </trkpt>
      <trkpt lat="47.33784" lon="-0.23227">
        <ele>43.88</ele>
        <time>2013-04-28T12:11:46Z</time>
      </trkpt>
      <trkpt lat="47.33796" lon="-0.23233">
        <ele>41.95</ele>
        <time>2013-04-28T12:11:50Z</time>
      </trkpt>
      <trkpt lat="47.33804" lon="-0.2323">
        <ele>41.47</ele>
        <time>2013-04-28T12:11:52Z</time>
      </trkpt>
      <trkpt lat="47.33825" lon="-0.23215">
        <ele>40.51</ele>
        <time>2013-04-28T12:11:58Z</time>
      </trkpt>
      <trkpt lat="47.33827" lon="-0.23213">
        <ele>40.51</ele>
        <time>2013-04-28T12:11:59Z</time>
      </trkpt>
      <trkpt lat="47.3383" lon="-0.23214">
        <ele>40.99</ele>
        <time>2013-04-28T12:12:00Z</time>
      </trkpt>
      <trkpt lat="47.33833" lon="-0.23216">
        <ele>38.59</ele>
        <time>2013-04-28T12:12:01Z</time>
      </trkpt>
      <trkpt lat="47.33835" lon="-0.23218">
        <ele>39.07</ele>
        <time>2013-04-28T12:12:02Z</time>
      </trkpt>
      <trkpt lat="47.33848" lon="-0.23227">
        <ele>39.07</ele>
        <time>2013-04-28T12:12:06Z</time>
      </trkpt>
      <trkpt lat="47.33857" lon="-0.23233">
        <ele>39.07</ele>
        <time>2013-04-28T12:12:08Z</time>
      </trkpt>
      <trkpt lat="47.33867" lon="-0.2324">
        <ele>39.07</ele>
        <time>2013-04-28T12:12:11Z</time>
      </trkpt>
      <trkpt lat="47.3387" lon="-0.2324">
        <ele>36.19</ele>
        <time>2013-04-28T12:12:12Z</time>
      </trkpt>
      <trkpt lat="47.33872" lon="-0.23238">
        <ele>37.15</ele>
        <time>2013-04-28T12:12:13Z</time>
      </trkpt>
      <trkpt lat="47.33873" lon="-0.23236">
        <ele>37.15</ele>
        <time>2013-04-28T12:12:14Z</time>
      </trkpt>
      <trkpt lat="47.33874" lon="-0.23232">
        <ele>37.63</ele>
        <time>2013-04-28T12:12:15Z</time>
      </trkpt>
      <trkpt lat="47.33882" lon="-0.23211">
        <ele>36.19</ele>
        <time>2013-04-28T12:12:22Z</time>
      </trkpt>
      <trkpt lat="47.33885" lon="-0.23208">
        <ele>35.71</ele>
        <time>2013-04-28T12:12:25Z</time>
      </trkpt>
      <trkpt lat="47.33886" lon="-0.23208">
        <ele>35.71</ele>
        <time>2013-04-28T12:12:26Z</time>
      </trkpt>
      <trkpt lat="47.33903" lon="-0.23193">
        <ele>35.71</ele>
        <time>2013-04-28T12:12:32Z</time>
      </trkpt>
      <trkpt lat="47.33917" lon="-0.23184">
        <ele>36.67</ele>
        <time>2013-04-28T12:12:36Z</time>
      </trkpt>
      <trkpt lat="47.33941" lon="-0.23166">
        <ele>38.11</ele>
        <time>2013-04-28T12:12:43Z</time>
      </trkpt>
      <trkpt lat="47.33945" lon="-0.23164">
        <ele>36.67</ele>
        <time>2013-04-28T12:12:44Z</time>
      </trkpt>
      <trkpt lat="47.33949" lon="-0.23162">
        <ele>38.11</ele>
        <time>2013-04-28T12:12:45Z</time>
      </trkpt>
      <trkpt lat="47.33952" lon="-0.23159">
        <ele>36.67</ele>
        <time>2013-04-28T12:12:46Z</time>
      </trkpt>
      <trkpt lat="47.33955" lon="-0.23156">
        <ele>36.67</ele>
        <time>2013-04-28T12:12:47Z</time>
      </trkpt>
      <trkpt lat="47.33956" lon="-0.23154">
        <ele>36.19</ele>
        <time>2013-04-28T12:12:48Z</time>
      </trkpt>
      <trkpt lat="47.33963" lon="-0.23148">
        <ele>35.71</ele>
        <time>2013-04-28T12:12:53Z</time>
      </trkpt>
      <trkpt lat="47.33967" lon="-0.23146">
        <ele>36.19</ele>
        <time>2013-04-28T12:12:54Z</time>
      </trkpt>
      <trkpt lat="47.33971" lon="-0.23147">
        <ele>38.11</ele>
        <time>2013-04-28T12:12:55Z</time>
      </trkpt>
      <trkpt lat="47.33976" lon="-0.23147">
        <ele>37.15</ele>
        <time>2013-04-28T12:12:56Z</time>
      </trkpt>
      <trkpt lat="47.3398" lon="-0.23147">
        <ele>37.63</ele>
        <time>2013-04-28T12:12:57Z</time>
      </trkpt>
      <trkpt lat="47.33984" lon="-0.23148">
        <ele>36.19</ele>
        <time>2013-04-28T12:12:58Z</time>
      </trkpt>
      <trkpt lat="47.33994" lon="-0.2315">
        <ele>36.67</ele>
        <time>2013-04-28T12:13:00Z</time>
      </trkpt>
      <trkpt lat="47.34009" lon="-0.23153">
        <ele>35.23</ele>
        <time>2013-04-28T12:13:03Z</time>
      </trkpt>
      <trkpt lat="47.34059" lon="-0.23162">
        <ele>37.15</ele>
        <time>2013-04-28T12:13:13Z</time>
      </trkpt>
      <trkpt lat="47.34085" lon="-0.23166">
        <ele>35.71</ele>
        <time>2013-04-28T12:13:18Z</time>
      </trkpt>
      <trkpt lat="47.34089" lon="-0.23165">
        <ele>37.15</ele>
        <time>2013-04-28T12:13:19Z</time>
      </trkpt>
      <trkpt lat="47.34093" lon="-0.23163">
        <ele>37.15</ele>
        <time>2013-04-28T12:13:20Z</time>
      </trkpt>
      <trkpt lat="47.34102" lon="-0.23157">
        <ele>37.63</ele>
        <time>2013-04-28T12:13:22Z</time>
      </trkpt>
      <trkpt lat="47.34106" lon="-0.23157">
        <ele>37.15</ele>
        <time>2013-04-28T12:13:23Z</time>
      </trkpt>
      <trkpt lat="47.3411" lon="-0.23158">
        <ele>38.11</ele>
        <time>2013-04-28T12:13:24Z</time>
      </trkpt>
      <trkpt lat="47.34114" lon="-0.23162">
        <ele>39.07</ele>
        <time>2013-04-28T12:13:25Z</time>
      </trkpt>
      <trkpt lat="47.34118" lon="-0.23165">
        <ele>38.59</ele>
        <time>2013-04-28T12:13:26Z</time>
      </trkpt>
      <trkpt lat="47.34122" lon="-0.23169">
        <ele>37.63</ele>
        <time>2013-04-28T12:13:27Z</time>
      </trkpt>
      <trkpt lat="47.34126" lon="-0.23172">
        <ele>37.15</ele>
        <time>2013-04-28T12:13:28Z</time>
      </trkpt>
      <trkpt lat="47.3413" lon="-0.23175">
        <ele>37.63</ele>
        <time>2013-04-28T12:13:29Z</time>
      </trkpt>
      <trkpt lat="47.34135" lon="-0.23177">
        <ele>38.59</ele>
        <time>2013-04-28T12:13:30Z</time>
      </trkpt>
      <trkpt lat="47.3414" lon="-0.23178">
        <ele>38.59</ele>
        <time>2013-04-28T12:13:31Z</time>
      </trkpt>
      <trkpt lat="47.34145" lon="-0.23179">
        <ele>38.59</ele>
        <time>2013-04-28T12:13:32Z</time>
      </trkpt>
      <trkpt lat="47.34178" lon="-0.23185">
        <ele>39.55</ele>
        <time>2013-04-28T12:13:39Z</time>
      </trkpt>
      <trkpt lat="47.34187" lon="-0.23186">
        <ele>40.99</ele>
        <time>2013-04-28T12:13:41Z</time>
      </trkpt>
      <trkpt lat="47.3421" lon="-0.2319">
        <ele>39.55</ele>
        <time>2013-04-28T12:13:46Z</time>
      </trkpt>
      <trkpt lat="47.34215" lon="-0.23191">
        <ele>40.03</ele>
        <time>2013-04-28T12:13:47Z</time>
      </trkpt>
      <trkpt lat="47.34219" lon="-0.23192">
        <ele>41.47</ele>
        <time>2013-04-28T12:13:48Z</time>
      </trkpt>
      <trkpt lat="47.34228" lon="-0.23192">
        <ele>39.55</ele>
        <time>2013-04-28T12:13:50Z</time>
      </trkpt>
      <trkpt lat="47.34232" lon="-0.23192">
        <ele>40.03</ele>
        <time>2013-04-28T12:13:51Z</time>
      </trkpt>
      <trkpt lat="47.34247" lon="-0.23194">
        <ele>40.51</ele>
        <time>2013-04-28T12:13:54Z</time>
      </trkpt>
      <trkpt lat="47.34257" lon="-0.23198">
        <ele>40.03</ele>
        <time>2013-04-28T12:13:56Z</time>
      </trkpt>
      <trkpt lat="47.34262" lon="-0.23199">
        <ele>40.03</ele>
        <time>2013-04-28T12:13:57Z</time>
      </trkpt>
      <trkpt lat="47.34267" lon="-0.23201">
        <ele>40.99</ele>
        <time>2013-04-28T12:13:58Z</time>
      </trkpt>
      <trkpt lat="47.34272" lon="-0.23203">
        <ele>39.07</ele>
        <time>2013-04-28T12:13:59Z</time>
      </trkpt>
      <trkpt lat="47.34276" lon="-0.23203">
        <ele>40.03</ele>
        <time>2013-04-28T12:14:00Z</time>
      </trkpt>
      <trkpt lat="47.34281" lon="-0.23204">
        <ele>40.03</ele>
        <time>2013-04-28T12:14:01Z</time>
      </trkpt>
      <trkpt lat="47.34297" lon="-0.23209">
        <ele>38.11</ele>
        <time>2013-04-28T12:14:04Z</time>
      </trkpt>
      <trkpt lat="47.34302" lon="-0.2321">
        <ele>39.07</ele>
        <time>2013-04-28T12:14:05Z</time>
      </trkpt>
      <trkpt lat="47.34306" lon="-0.23209">
        <ele>39.55</ele>
        <time>2013-04-28T12:14:06Z</time>
      </trkpt>
      <trkpt lat="47.34311" lon="-0.23209">
        <ele>39.07</ele>
        <time>2013-04-28T12:14:07Z</time>
      </trkpt>
      <trkpt lat="47.34334" lon="-0.23211">
        <ele>38.59</ele>
        <time>2013-04-28T12:14:12Z</time>
      </trkpt>
      <trkpt lat="47.34339" lon="-0.23211">
        <ele>38.59</ele>
        <time>2013-04-28T12:14:13Z</time>
      </trkpt>
      <trkpt lat="47.34343" lon="-0.23209">
        <ele>38.11</ele>
        <time>2013-04-28T12:14:14Z</time>
      </trkpt>
      <trkpt lat="47.34348" lon="-0.23206">
        <ele>38.59</ele>
        <time>2013-04-28T12:14:15Z</time>
      </trkpt>
      <trkpt lat="47.34354" lon="-0.23205">
        <ele>38.11</ele>
        <time>2013-04-28T12:14:16Z</time>
      </trkpt>
      <trkpt lat="47.34359" lon="-0.23201">
        <ele>38.11</ele>
        <time>2013-04-28T12:14:17Z</time>
      </trkpt>
      <trkpt lat="47.34364" lon="-0.23198">
        <ele>38.59</ele>
        <time>2013-04-28T12:14:18Z</time>
      </trkpt>
      <trkpt lat="47.34361" lon="-0.23185">
        <ele>28.3</ele>
        <time>2013-04-28T06:56:18Z</time>
      </trkpt>
    </trkseg>
  </trk>
</gpx>